<?xml version="1.0" encoding="UTF-8" standalone="no" ?>
<gpx xmlns="http://www.topografix.com/GPX/1/1" xmlns:xsi="http://www.w3.org/2001/XMLSchema-instance" xsi:schemaLocation="http://www.topografix.com/GPX/1/1 http://www.topografix.com/GPX/1/1/gpx.xsd" version="1.1" creator="VisuGPX - https://www.visugpx.com">
  <metadata>
    <name>Bourran-Toizac-Agnac_15-06-2011</name>
    <desc><![CDATA[Bourran-Toizac-Agnac_15-06-2011]]></desc>
  </metadata>
  <trk>
    <name><![CDATA[Bourran-Toizac-Agnac_2011-06-15]]></name>
    <trkseg>
      <trkpt lat="44.35707" lon="2.55677">
        <ele>616.7</ele>
        <time>2011-06-15T16:04:50Z</time>
      </trkpt>
      <trkpt lat="44.35703" lon="2.55675">
        <ele>616.8</ele>
        <time>2011-06-15T16:04:52Z</time>
      </trkpt>
      <trkpt lat="44.357" lon="2.55674">
        <ele>616.9</ele>
        <time>2011-06-15T16:04:54Z</time>
      </trkpt>
      <trkpt lat="44.35697" lon="2.55672">
        <ele>617</ele>
        <time>2011-06-15T16:04:56Z</time>
      </trkpt>
      <trkpt lat="44.35694" lon="2.5567">
        <ele>617</ele>
        <time>2011-06-15T16:04:58Z</time>
      </trkpt>
      <trkpt lat="44.35691" lon="2.55668">
        <ele>617.2</ele>
        <time>2011-06-15T16:05:00Z</time>
      </trkpt>
      <trkpt lat="44.35687" lon="2.55667">
        <ele>617.3</ele>
        <time>2011-06-15T16:05:02Z</time>
      </trkpt>
      <trkpt lat="44.35684" lon="2.55666">
        <ele>617</ele>
        <time>2011-06-15T16:05:04Z</time>
      </trkpt>
      <trkpt lat="44.3568" lon="2.55665">
        <ele>616.8</ele>
        <time>2011-06-15T16:05:06Z</time>
      </trkpt>
      <trkpt lat="44.35676" lon="2.55663">
        <ele>617.3</ele>
        <time>2011-06-15T16:05:08Z</time>
      </trkpt>
      <trkpt lat="44.35673" lon="2.55662">
        <ele>617.7</ele>
        <time>2011-06-15T16:05:10Z</time>
      </trkpt>
      <trkpt lat="44.35669" lon="2.55661">
        <ele>617.9</ele>
        <time>2011-06-15T16:05:12Z</time>
      </trkpt>
      <trkpt lat="44.35666" lon="2.55661">
        <ele>617.8</ele>
        <time>2011-06-15T16:05:14Z</time>
      </trkpt>
      <trkpt lat="44.35662" lon="2.55659">
        <ele>618.1</ele>
        <time>2011-06-15T16:05:16Z</time>
      </trkpt>
      <trkpt lat="44.35659" lon="2.55658">
        <ele>618.6</ele>
        <time>2011-06-15T16:05:18Z</time>
      </trkpt>
      <trkpt lat="44.35656" lon="2.55656">
        <ele>618.1</ele>
        <time>2011-06-15T16:05:20Z</time>
      </trkpt>
      <trkpt lat="44.35653" lon="2.55653">
        <ele>617.9</ele>
        <time>2011-06-15T16:05:22Z</time>
      </trkpt>
      <trkpt lat="44.3565" lon="2.55651">
        <ele>618.2</ele>
        <time>2011-06-15T16:05:24Z</time>
      </trkpt>
      <trkpt lat="44.35646" lon="2.5565">
        <ele>618.7</ele>
        <time>2011-06-15T16:05:26Z</time>
      </trkpt>
      <trkpt lat="44.35642" lon="2.55649">
        <ele>619.2</ele>
        <time>2011-06-15T16:05:28Z</time>
      </trkpt>
      <trkpt lat="44.35638" lon="2.55647">
        <ele>619.2</ele>
        <time>2011-06-15T16:05:30Z</time>
      </trkpt>
      <trkpt lat="44.35634" lon="2.55645">
        <ele>618.8</ele>
        <time>2011-06-15T16:05:32Z</time>
      </trkpt>
      <trkpt lat="44.3563" lon="2.55642">
        <ele>618.3</ele>
        <time>2011-06-15T16:05:34Z</time>
      </trkpt>
      <trkpt lat="44.35629" lon="2.5564">
        <ele>618.4</ele>
        <time>2011-06-15T16:05:35Z</time>
      </trkpt>
      <trkpt lat="44.35626" lon="2.55639">
        <ele>618.5</ele>
        <time>2011-06-15T16:05:36Z</time>
      </trkpt>
      <trkpt lat="44.35624" lon="2.55638">
        <ele>618.6</ele>
        <time>2011-06-15T16:05:37Z</time>
      </trkpt>
      <trkpt lat="44.35621" lon="2.55636">
        <ele>618.6</ele>
        <time>2011-06-15T16:05:38Z</time>
      </trkpt>
      <trkpt lat="44.35619" lon="2.55634">
        <ele>618.7</ele>
        <time>2011-06-15T16:05:39Z</time>
      </trkpt>
      <trkpt lat="44.35616" lon="2.55632">
        <ele>618.7</ele>
        <time>2011-06-15T16:05:40Z</time>
      </trkpt>
      <trkpt lat="44.35614" lon="2.5563">
        <ele>618.7</ele>
        <time>2011-06-15T16:05:41Z</time>
      </trkpt>
      <trkpt lat="44.35612" lon="2.55628">
        <ele>618.5</ele>
        <time>2011-06-15T16:05:42Z</time>
      </trkpt>
      <trkpt lat="44.35609" lon="2.55626">
        <ele>618.4</ele>
        <time>2011-06-15T16:05:43Z</time>
      </trkpt>
      <trkpt lat="44.35607" lon="2.55624">
        <ele>618.3</ele>
        <time>2011-06-15T16:05:44Z</time>
      </trkpt>
      <trkpt lat="44.35604" lon="2.55622">
        <ele>618.1</ele>
        <time>2011-06-15T16:05:45Z</time>
      </trkpt>
      <trkpt lat="44.35601" lon="2.55619">
        <ele>617.9</ele>
        <time>2011-06-15T16:05:46Z</time>
      </trkpt>
      <trkpt lat="44.35598" lon="2.55617">
        <ele>617.8</ele>
        <time>2011-06-15T16:05:47Z</time>
      </trkpt>
      <trkpt lat="44.35594" lon="2.55613">
        <ele>617.7</ele>
        <time>2011-06-15T16:05:48Z</time>
      </trkpt>
      <trkpt lat="44.35591" lon="2.5561">
        <ele>617.7</ele>
        <time>2011-06-15T16:05:49Z</time>
      </trkpt>
      <trkpt lat="44.35587" lon="2.55607">
        <ele>617.6</ele>
        <time>2011-06-15T16:05:50Z</time>
      </trkpt>
      <trkpt lat="44.35583" lon="2.55604">
        <ele>616.6</ele>
        <time>2011-06-15T16:05:51Z</time>
      </trkpt>
      <trkpt lat="44.3558" lon="2.55601">
        <ele>615.9</ele>
        <time>2011-06-15T16:05:52Z</time>
      </trkpt>
      <trkpt lat="44.35577" lon="2.55599">
        <ele>615.3</ele>
        <time>2011-06-15T16:05:53Z</time>
      </trkpt>
      <trkpt lat="44.35575" lon="2.55596">
        <ele>615</ele>
        <time>2011-06-15T16:05:54Z</time>
      </trkpt>
      <trkpt lat="44.35572" lon="2.55592">
        <ele>614.7</ele>
        <time>2011-06-15T16:05:55Z</time>
      </trkpt>
      <trkpt lat="44.35569" lon="2.55589">
        <ele>614.5</ele>
        <time>2011-06-15T16:05:56Z</time>
      </trkpt>
      <trkpt lat="44.35566" lon="2.55587">
        <ele>614.3</ele>
        <time>2011-06-15T16:05:57Z</time>
      </trkpt>
      <trkpt lat="44.35563" lon="2.55586">
        <ele>613.9</ele>
        <time>2011-06-15T16:05:58Z</time>
      </trkpt>
      <trkpt lat="44.3556" lon="2.55586">
        <ele>613.6</ele>
        <time>2011-06-15T16:05:59Z</time>
      </trkpt>
      <trkpt lat="44.35557" lon="2.55588">
        <ele>613.3</ele>
        <time>2011-06-15T16:06:00Z</time>
      </trkpt>
      <trkpt lat="44.35554" lon="2.55591">
        <ele>613.3</ele>
        <time>2011-06-15T16:06:01Z</time>
      </trkpt>
      <trkpt lat="44.35552" lon="2.55593">
        <ele>613.3</ele>
        <time>2011-06-15T16:06:02Z</time>
      </trkpt>
      <trkpt lat="44.35549" lon="2.55592">
        <ele>613.3</ele>
        <time>2011-06-15T16:06:03Z</time>
      </trkpt>
      <trkpt lat="44.35547" lon="2.55589">
        <ele>613.2</ele>
        <time>2011-06-15T16:06:04Z</time>
      </trkpt>
      <trkpt lat="44.35545" lon="2.55585">
        <ele>613.1</ele>
        <time>2011-06-15T16:06:05Z</time>
      </trkpt>
      <trkpt lat="44.35544" lon="2.5558">
        <ele>613</ele>
        <time>2011-06-15T16:06:06Z</time>
      </trkpt>
      <trkpt lat="44.35544" lon="2.55574">
        <ele>612.3</ele>
        <time>2011-06-15T16:06:07Z</time>
      </trkpt>
      <trkpt lat="44.35542" lon="2.55569">
        <ele>611.7</ele>
        <time>2011-06-15T16:06:08Z</time>
      </trkpt>
      <trkpt lat="44.35539" lon="2.55564">
        <ele>611.3</ele>
        <time>2011-06-15T16:06:09Z</time>
      </trkpt>
      <trkpt lat="44.35535" lon="2.5556">
        <ele>611.1</ele>
        <time>2011-06-15T16:06:10Z</time>
      </trkpt>
      <trkpt lat="44.3553" lon="2.55556">
        <ele>611</ele>
        <time>2011-06-15T16:06:11Z</time>
      </trkpt>
      <trkpt lat="44.35524" lon="2.55552">
        <ele>610.9</ele>
        <time>2011-06-15T16:06:12Z</time>
      </trkpt>
      <trkpt lat="44.35518" lon="2.55547">
        <ele>610.8</ele>
        <time>2011-06-15T16:06:13Z</time>
      </trkpt>
      <trkpt lat="44.35511" lon="2.55543">
        <ele>609.9</ele>
        <time>2011-06-15T16:06:14Z</time>
      </trkpt>
      <trkpt lat="44.35503" lon="2.55539">
        <ele>609.2</ele>
        <time>2011-06-15T16:06:15Z</time>
      </trkpt>
      <trkpt lat="44.35496" lon="2.55535">
        <ele>608.7</ele>
        <time>2011-06-15T16:06:16Z</time>
      </trkpt>
      <trkpt lat="44.35489" lon="2.55532">
        <ele>607.4</ele>
        <time>2011-06-15T16:06:17Z</time>
      </trkpt>
      <trkpt lat="44.3548" lon="2.55531">
        <ele>606.4</ele>
        <time>2011-06-15T16:06:18Z</time>
      </trkpt>
      <trkpt lat="44.35379" lon="2.55545">
        <ele>602.7</ele>
        <time>2011-06-15T16:06:28Z</time>
      </trkpt>
      <trkpt lat="44.35369" lon="2.55545">
        <ele>599.9</ele>
        <time>2011-06-15T16:06:29Z</time>
      </trkpt>
      <trkpt lat="44.35359" lon="2.55545">
        <ele>596.9</ele>
        <time>2011-06-15T16:06:30Z</time>
      </trkpt>
      <trkpt lat="44.3535" lon="2.55545">
        <ele>594.6</ele>
        <time>2011-06-15T16:06:31Z</time>
      </trkpt>
      <trkpt lat="44.35341" lon="2.55543">
        <ele>592.9</ele>
        <time>2011-06-15T16:06:32Z</time>
      </trkpt>
      <trkpt lat="44.35332" lon="2.5554">
        <ele>591.3</ele>
        <time>2011-06-15T16:06:33Z</time>
      </trkpt>
      <trkpt lat="44.35324" lon="2.55536">
        <ele>590.1</ele>
        <time>2011-06-15T16:06:34Z</time>
      </trkpt>
      <trkpt lat="44.35317" lon="2.5553">
        <ele>589.2</ele>
        <time>2011-06-15T16:06:35Z</time>
      </trkpt>
      <trkpt lat="44.35312" lon="2.55522">
        <ele>587.7</ele>
        <time>2011-06-15T16:06:36Z</time>
      </trkpt>
      <trkpt lat="44.35308" lon="2.55513">
        <ele>586.6</ele>
        <time>2011-06-15T16:06:37Z</time>
      </trkpt>
      <trkpt lat="44.35306" lon="2.55504">
        <ele>585.7</ele>
        <time>2011-06-15T16:06:38Z</time>
      </trkpt>
      <trkpt lat="44.35306" lon="2.55494">
        <ele>584.3</ele>
        <time>2011-06-15T16:06:39Z</time>
      </trkpt>
      <trkpt lat="44.35307" lon="2.55484">
        <ele>583.2</ele>
        <time>2011-06-15T16:06:40Z</time>
      </trkpt>
      <trkpt lat="44.35309" lon="2.55474">
        <ele>582.3</ele>
        <time>2011-06-15T16:06:41Z</time>
      </trkpt>
      <trkpt lat="44.35313" lon="2.55465">
        <ele>580.7</ele>
        <time>2011-06-15T16:06:42Z</time>
      </trkpt>
      <trkpt lat="44.35318" lon="2.55457">
        <ele>579.5</ele>
        <time>2011-06-15T16:06:43Z</time>
      </trkpt>
      <trkpt lat="44.35324" lon="2.5545">
        <ele>578.6</ele>
        <time>2011-06-15T16:06:44Z</time>
      </trkpt>
      <trkpt lat="44.35328" lon="2.55443">
        <ele>577.9</ele>
        <time>2011-06-15T16:06:45Z</time>
      </trkpt>
      <trkpt lat="44.35333" lon="2.55438">
        <ele>577</ele>
        <time>2011-06-15T16:06:46Z</time>
      </trkpt>
      <trkpt lat="44.35336" lon="2.55433">
        <ele>576.3</ele>
        <time>2011-06-15T16:06:47Z</time>
      </trkpt>
      <trkpt lat="44.35338" lon="2.55431">
        <ele>575.7</ele>
        <time>2011-06-15T16:06:48Z</time>
      </trkpt>
      <trkpt lat="44.35341" lon="2.55429">
        <ele>575</ele>
        <time>2011-06-15T16:06:50Z</time>
      </trkpt>
      <trkpt lat="44.35344" lon="2.55429">
        <ele>574.5</ele>
        <time>2011-06-15T16:06:52Z</time>
      </trkpt>
      <trkpt lat="44.35346" lon="2.55431">
        <ele>574.2</ele>
        <time>2011-06-15T16:06:53Z</time>
      </trkpt>
      <trkpt lat="44.35359" lon="2.5542">
        <ele>573.6</ele>
        <time>2011-06-15T16:06:59Z</time>
      </trkpt>
      <trkpt lat="44.35361" lon="2.55414">
        <ele>573.1</ele>
        <time>2011-06-15T16:07:00Z</time>
      </trkpt>
      <trkpt lat="44.35363" lon="2.55408">
        <ele>572.7</ele>
        <time>2011-06-15T16:07:01Z</time>
      </trkpt>
      <trkpt lat="44.35365" lon="2.55401">
        <ele>572.5</ele>
        <time>2011-06-15T16:07:02Z</time>
      </trkpt>
      <trkpt lat="44.35366" lon="2.55394">
        <ele>572.3</ele>
        <time>2011-06-15T16:07:03Z</time>
      </trkpt>
      <trkpt lat="44.35366" lon="2.55385">
        <ele>572.2</ele>
        <time>2011-06-15T16:07:04Z</time>
      </trkpt>
      <trkpt lat="44.35365" lon="2.55377">
        <ele>571.3</ele>
        <time>2011-06-15T16:07:05Z</time>
      </trkpt>
      <trkpt lat="44.35365" lon="2.5537">
        <ele>570.6</ele>
        <time>2011-06-15T16:07:06Z</time>
      </trkpt>
      <trkpt lat="44.35365" lon="2.55362">
        <ele>570.1</ele>
        <time>2011-06-15T16:07:07Z</time>
      </trkpt>
      <trkpt lat="44.35368" lon="2.55356">
        <ele>569.3</ele>
        <time>2011-06-15T16:07:08Z</time>
      </trkpt>
      <trkpt lat="44.35373" lon="2.55352">
        <ele>568.7</ele>
        <time>2011-06-15T16:07:09Z</time>
      </trkpt>
      <trkpt lat="44.35377" lon="2.55348">
        <ele>568.3</ele>
        <time>2011-06-15T16:07:10Z</time>
      </trkpt>
      <trkpt lat="44.35382" lon="2.55344">
        <ele>568.1</ele>
        <time>2011-06-15T16:07:11Z</time>
      </trkpt>
      <trkpt lat="44.35386" lon="2.55339">
        <ele>568</ele>
        <time>2011-06-15T16:07:12Z</time>
      </trkpt>
      <trkpt lat="44.3539" lon="2.55335">
        <ele>567.9</ele>
        <time>2011-06-15T16:07:13Z</time>
      </trkpt>
      <trkpt lat="44.35395" lon="2.55331">
        <ele>567.6</ele>
        <time>2011-06-15T16:07:14Z</time>
      </trkpt>
      <trkpt lat="44.35399" lon="2.55327">
        <ele>567.4</ele>
        <time>2011-06-15T16:07:15Z</time>
      </trkpt>
      <trkpt lat="44.35404" lon="2.55324">
        <ele>567.3</ele>
        <time>2011-06-15T16:07:16Z</time>
      </trkpt>
      <trkpt lat="44.35408" lon="2.5532">
        <ele>567.2</ele>
        <time>2011-06-15T16:07:17Z</time>
      </trkpt>
      <trkpt lat="44.35413" lon="2.55316">
        <ele>566.8</ele>
        <time>2011-06-15T16:07:18Z</time>
      </trkpt>
      <trkpt lat="44.35417" lon="2.55312">
        <ele>566.5</ele>
        <time>2011-06-15T16:07:19Z</time>
      </trkpt>
      <trkpt lat="44.35422" lon="2.55308">
        <ele>566.3</ele>
        <time>2011-06-15T16:07:20Z</time>
      </trkpt>
      <trkpt lat="44.35426" lon="2.55305">
        <ele>566.3</ele>
        <time>2011-06-15T16:07:21Z</time>
      </trkpt>
      <trkpt lat="44.3543" lon="2.55301">
        <ele>566.4</ele>
        <time>2011-06-15T16:07:22Z</time>
      </trkpt>
      <trkpt lat="44.35434" lon="2.55297">
        <ele>566.4</ele>
        <time>2011-06-15T16:07:23Z</time>
      </trkpt>
      <trkpt lat="44.35438" lon="2.55294">
        <ele>566.1</ele>
        <time>2011-06-15T16:07:24Z</time>
      </trkpt>
      <trkpt lat="44.35442" lon="2.5529">
        <ele>565.9</ele>
        <time>2011-06-15T16:07:25Z</time>
      </trkpt>
      <trkpt lat="44.35447" lon="2.55287">
        <ele>565.7</ele>
        <time>2011-06-15T16:07:26Z</time>
      </trkpt>
      <trkpt lat="44.35451" lon="2.55283">
        <ele>565.5</ele>
        <time>2011-06-15T16:07:27Z</time>
      </trkpt>
      <trkpt lat="44.35455" lon="2.55279">
        <ele>565.3</ele>
        <time>2011-06-15T16:07:28Z</time>
      </trkpt>
      <trkpt lat="44.35459" lon="2.55276">
        <ele>565.2</ele>
        <time>2011-06-15T16:07:29Z</time>
      </trkpt>
      <trkpt lat="44.35464" lon="2.55272">
        <ele>564.6</ele>
        <time>2011-06-15T16:07:30Z</time>
      </trkpt>
      <trkpt lat="44.35468" lon="2.55269">
        <ele>564.2</ele>
        <time>2011-06-15T16:07:31Z</time>
      </trkpt>
      <trkpt lat="44.35472" lon="2.55266">
        <ele>563.9</ele>
        <time>2011-06-15T16:07:32Z</time>
      </trkpt>
      <trkpt lat="44.35477" lon="2.55263">
        <ele>564.1</ele>
        <time>2011-06-15T16:07:33Z</time>
      </trkpt>
      <trkpt lat="44.35481" lon="2.55259">
        <ele>564.2</ele>
        <time>2011-06-15T16:07:34Z</time>
      </trkpt>
      <trkpt lat="44.35486" lon="2.55256">
        <ele>564.3</ele>
        <time>2011-06-15T16:07:35Z</time>
      </trkpt>
      <trkpt lat="44.3549" lon="2.55253">
        <ele>564.4</ele>
        <time>2011-06-15T16:07:36Z</time>
      </trkpt>
      <trkpt lat="44.35494" lon="2.5525">
        <ele>564.6</ele>
        <time>2011-06-15T16:07:37Z</time>
      </trkpt>
      <trkpt lat="44.35498" lon="2.55247">
        <ele>564.7</ele>
        <time>2011-06-15T16:07:38Z</time>
      </trkpt>
      <trkpt lat="44.35503" lon="2.55245">
        <ele>564.8</ele>
        <time>2011-06-15T16:07:39Z</time>
      </trkpt>
      <trkpt lat="44.35507" lon="2.55242">
        <ele>565</ele>
        <time>2011-06-15T16:07:40Z</time>
      </trkpt>
      <trkpt lat="44.35512" lon="2.55239">
        <ele>565.2</ele>
        <time>2011-06-15T16:07:41Z</time>
      </trkpt>
      <trkpt lat="44.35517" lon="2.55236">
        <ele>565.3</ele>
        <time>2011-06-15T16:07:42Z</time>
      </trkpt>
      <trkpt lat="44.35521" lon="2.55233">
        <ele>565.3</ele>
        <time>2011-06-15T16:07:43Z</time>
      </trkpt>
      <trkpt lat="44.35526" lon="2.55231">
        <ele>565.3</ele>
        <time>2011-06-15T16:07:44Z</time>
      </trkpt>
      <trkpt lat="44.35531" lon="2.55228">
        <ele>565.3</ele>
        <time>2011-06-15T16:07:45Z</time>
      </trkpt>
      <trkpt lat="44.35535" lon="2.55226">
        <ele>565.3</ele>
        <time>2011-06-15T16:07:46Z</time>
      </trkpt>
      <trkpt lat="44.35539" lon="2.55223">
        <ele>565.3</ele>
        <time>2011-06-15T16:07:47Z</time>
      </trkpt>
      <trkpt lat="44.35543" lon="2.5522">
        <ele>565.3</ele>
        <time>2011-06-15T16:07:48Z</time>
      </trkpt>
      <trkpt lat="44.35548" lon="2.55217">
        <ele>565.2</ele>
        <time>2011-06-15T16:07:49Z</time>
      </trkpt>
      <trkpt lat="44.35552" lon="2.55214">
        <ele>565.1</ele>
        <time>2011-06-15T16:07:50Z</time>
      </trkpt>
      <trkpt lat="44.35556" lon="2.55211">
        <ele>565</ele>
        <time>2011-06-15T16:07:51Z</time>
      </trkpt>
      <trkpt lat="44.3556" lon="2.55208">
        <ele>564.9</ele>
        <time>2011-06-15T16:07:52Z</time>
      </trkpt>
      <trkpt lat="44.35564" lon="2.55204">
        <ele>564.8</ele>
        <time>2011-06-15T16:07:53Z</time>
      </trkpt>
      <trkpt lat="44.35568" lon="2.55201">
        <ele>564.7</ele>
        <time>2011-06-15T16:07:54Z</time>
      </trkpt>
      <trkpt lat="44.35573" lon="2.55198">
        <ele>564.6</ele>
        <time>2011-06-15T16:07:55Z</time>
      </trkpt>
      <trkpt lat="44.35577" lon="2.55194">
        <ele>564.4</ele>
        <time>2011-06-15T16:07:56Z</time>
      </trkpt>
      <trkpt lat="44.35581" lon="2.5519">
        <ele>564.3</ele>
        <time>2011-06-15T16:07:57Z</time>
      </trkpt>
      <trkpt lat="44.35585" lon="2.55187">
        <ele>564.2</ele>
        <time>2011-06-15T16:07:58Z</time>
      </trkpt>
      <trkpt lat="44.35588" lon="2.55183">
        <ele>563.9</ele>
        <time>2011-06-15T16:07:59Z</time>
      </trkpt>
      <trkpt lat="44.35592" lon="2.55178">
        <ele>563.7</ele>
        <time>2011-06-15T16:08:00Z</time>
      </trkpt>
      <trkpt lat="44.35596" lon="2.55174">
        <ele>563.6</ele>
        <time>2011-06-15T16:08:01Z</time>
      </trkpt>
      <trkpt lat="44.356" lon="2.5517">
        <ele>563.3</ele>
        <time>2011-06-15T16:08:02Z</time>
      </trkpt>
      <trkpt lat="44.35604" lon="2.55166">
        <ele>563.1</ele>
        <time>2011-06-15T16:08:03Z</time>
      </trkpt>
      <trkpt lat="44.35608" lon="2.55161">
        <ele>562.9</ele>
        <time>2011-06-15T16:08:04Z</time>
      </trkpt>
      <trkpt lat="44.35612" lon="2.55157">
        <ele>562.7</ele>
        <time>2011-06-15T16:08:05Z</time>
      </trkpt>
      <trkpt lat="44.35616" lon="2.55151">
        <ele>562.6</ele>
        <time>2011-06-15T16:08:06Z</time>
      </trkpt>
      <trkpt lat="44.3562" lon="2.55146">
        <ele>562.5</ele>
        <time>2011-06-15T16:08:07Z</time>
      </trkpt>
      <trkpt lat="44.35624" lon="2.55141">
        <ele>562.4</ele>
        <time>2011-06-15T16:08:08Z</time>
      </trkpt>
      <trkpt lat="44.35627" lon="2.55136">
        <ele>562.6</ele>
        <time>2011-06-15T16:08:09Z</time>
      </trkpt>
      <trkpt lat="44.35631" lon="2.55131">
        <ele>562.8</ele>
        <time>2011-06-15T16:08:10Z</time>
      </trkpt>
      <trkpt lat="44.35634" lon="2.55126">
        <ele>563</ele>
        <time>2011-06-15T16:08:11Z</time>
      </trkpt>
      <trkpt lat="44.35638" lon="2.5512">
        <ele>563.1</ele>
        <time>2011-06-15T16:08:12Z</time>
      </trkpt>
      <trkpt lat="44.35642" lon="2.55114">
        <ele>563.2</ele>
        <time>2011-06-15T16:08:13Z</time>
      </trkpt>
      <trkpt lat="44.35645" lon="2.55108">
        <ele>563.3</ele>
        <time>2011-06-15T16:08:14Z</time>
      </trkpt>
      <trkpt lat="44.35648" lon="2.55102">
        <ele>563.4</ele>
        <time>2011-06-15T16:08:15Z</time>
      </trkpt>
      <trkpt lat="44.35652" lon="2.55095">
        <ele>563.4</ele>
        <time>2011-06-15T16:08:16Z</time>
      </trkpt>
      <trkpt lat="44.35655" lon="2.55089">
        <ele>563.4</ele>
        <time>2011-06-15T16:08:17Z</time>
      </trkpt>
      <trkpt lat="44.35659" lon="2.55083">
        <ele>563</ele>
        <time>2011-06-15T16:08:18Z</time>
      </trkpt>
      <trkpt lat="44.35663" lon="2.55077">
        <ele>562.6</ele>
        <time>2011-06-15T16:08:19Z</time>
      </trkpt>
      <trkpt lat="44.35666" lon="2.5507">
        <ele>562.4</ele>
        <time>2011-06-15T16:08:20Z</time>
      </trkpt>
      <trkpt lat="44.3567" lon="2.55064">
        <ele>562</ele>
        <time>2011-06-15T16:08:21Z</time>
      </trkpt>
      <trkpt lat="44.35673" lon="2.55058">
        <ele>561.8</ele>
        <time>2011-06-15T16:08:22Z</time>
      </trkpt>
      <trkpt lat="44.35677" lon="2.55051">
        <ele>561.6</ele>
        <time>2011-06-15T16:08:23Z</time>
      </trkpt>
      <trkpt lat="44.3568" lon="2.55045">
        <ele>561.7</ele>
        <time>2011-06-15T16:08:24Z</time>
      </trkpt>
      <trkpt lat="44.35684" lon="2.55038">
        <ele>561.8</ele>
        <time>2011-06-15T16:08:25Z</time>
      </trkpt>
      <trkpt lat="44.35688" lon="2.55031">
        <ele>561.9</ele>
        <time>2011-06-15T16:08:26Z</time>
      </trkpt>
      <trkpt lat="44.35691" lon="2.55024">
        <ele>561.9</ele>
        <time>2011-06-15T16:08:27Z</time>
      </trkpt>
      <trkpt lat="44.35695" lon="2.55017">
        <ele>561.8</ele>
        <time>2011-06-15T16:08:28Z</time>
      </trkpt>
      <trkpt lat="44.35698" lon="2.5501">
        <ele>561.7</ele>
        <time>2011-06-15T16:08:29Z</time>
      </trkpt>
      <trkpt lat="44.35702" lon="2.55003">
        <ele>561.7</ele>
        <time>2011-06-15T16:08:30Z</time>
      </trkpt>
      <trkpt lat="44.35705" lon="2.54996">
        <ele>561.7</ele>
        <time>2011-06-15T16:08:31Z</time>
      </trkpt>
      <trkpt lat="44.35708" lon="2.54988">
        <ele>561.8</ele>
        <time>2011-06-15T16:08:32Z</time>
      </trkpt>
      <trkpt lat="44.35711" lon="2.54981">
        <ele>561.8</ele>
        <time>2011-06-15T16:08:33Z</time>
      </trkpt>
      <trkpt lat="44.35715" lon="2.54974">
        <ele>561.4</ele>
        <time>2011-06-15T16:08:34Z</time>
      </trkpt>
      <trkpt lat="44.35718" lon="2.54966">
        <ele>561.1</ele>
        <time>2011-06-15T16:08:35Z</time>
      </trkpt>
      <trkpt lat="44.35721" lon="2.54959">
        <ele>560.9</ele>
        <time>2011-06-15T16:08:36Z</time>
      </trkpt>
      <trkpt lat="44.35724" lon="2.54951">
        <ele>560.4</ele>
        <time>2011-06-15T16:08:37Z</time>
      </trkpt>
      <trkpt lat="44.35728" lon="2.54944">
        <ele>560</ele>
        <time>2011-06-15T16:08:38Z</time>
      </trkpt>
      <trkpt lat="44.35731" lon="2.54936">
        <ele>559.8</ele>
        <time>2011-06-15T16:08:39Z</time>
      </trkpt>
      <trkpt lat="44.35734" lon="2.54928">
        <ele>559.6</ele>
        <time>2011-06-15T16:08:40Z</time>
      </trkpt>
      <trkpt lat="44.35736" lon="2.54921">
        <ele>559.9</ele>
        <time>2011-06-15T16:08:41Z</time>
      </trkpt>
      <trkpt lat="44.35739" lon="2.54913">
        <ele>560.2</ele>
        <time>2011-06-15T16:08:42Z</time>
      </trkpt>
      <trkpt lat="44.35742" lon="2.54906">
        <ele>560.5</ele>
        <time>2011-06-15T16:08:43Z</time>
      </trkpt>
      <trkpt lat="44.35745" lon="2.54898">
        <ele>560.2</ele>
        <time>2011-06-15T16:08:44Z</time>
      </trkpt>
      <trkpt lat="44.35748" lon="2.54891">
        <ele>560</ele>
        <time>2011-06-15T16:08:45Z</time>
      </trkpt>
      <trkpt lat="44.35751" lon="2.54884">
        <ele>559.9</ele>
        <time>2011-06-15T16:08:46Z</time>
      </trkpt>
      <trkpt lat="44.35753" lon="2.54876">
        <ele>559.6</ele>
        <time>2011-06-15T16:08:47Z</time>
      </trkpt>
      <trkpt lat="44.35756" lon="2.54869">
        <ele>559.4</ele>
        <time>2011-06-15T16:08:48Z</time>
      </trkpt>
      <trkpt lat="44.35758" lon="2.54861">
        <ele>559.3</ele>
        <time>2011-06-15T16:08:49Z</time>
      </trkpt>
      <trkpt lat="44.35761" lon="2.54854">
        <ele>559.5</ele>
        <time>2011-06-15T16:08:50Z</time>
      </trkpt>
      <trkpt lat="44.35763" lon="2.54847">
        <ele>559.8</ele>
        <time>2011-06-15T16:08:51Z</time>
      </trkpt>
      <trkpt lat="44.35766" lon="2.54839">
        <ele>559.9</ele>
        <time>2011-06-15T16:08:52Z</time>
      </trkpt>
      <trkpt lat="44.35769" lon="2.54833">
        <ele>559.9</ele>
        <time>2011-06-15T16:08:53Z</time>
      </trkpt>
      <trkpt lat="44.35772" lon="2.54826">
        <ele>559.9</ele>
        <time>2011-06-15T16:08:54Z</time>
      </trkpt>
      <trkpt lat="44.35775" lon="2.54819">
        <ele>559.9</ele>
        <time>2011-06-15T16:08:55Z</time>
      </trkpt>
      <trkpt lat="44.35777" lon="2.54812">
        <ele>559.9</ele>
        <time>2011-06-15T16:08:56Z</time>
      </trkpt>
      <trkpt lat="44.3578" lon="2.54806">
        <ele>559.9</ele>
        <time>2011-06-15T16:08:57Z</time>
      </trkpt>
      <trkpt lat="44.35783" lon="2.54799">
        <ele>559.9</ele>
        <time>2011-06-15T16:08:58Z</time>
      </trkpt>
      <trkpt lat="44.35786" lon="2.54793">
        <ele>560</ele>
        <time>2011-06-15T16:08:59Z</time>
      </trkpt>
      <trkpt lat="44.35789" lon="2.54786">
        <ele>559.8</ele>
        <time>2011-06-15T16:09:00Z</time>
      </trkpt>
      <trkpt lat="44.35792" lon="2.5478">
        <ele>559.6</ele>
        <time>2011-06-15T16:09:01Z</time>
      </trkpt>
      <trkpt lat="44.35795" lon="2.54774">
        <ele>559.5</ele>
        <time>2011-06-15T16:09:02Z</time>
      </trkpt>
      <trkpt lat="44.35798" lon="2.54768">
        <ele>560.1</ele>
        <time>2011-06-15T16:09:03Z</time>
      </trkpt>
      <trkpt lat="44.35801" lon="2.54762">
        <ele>560.6</ele>
        <time>2011-06-15T16:09:04Z</time>
      </trkpt>
      <trkpt lat="44.35804" lon="2.54755">
        <ele>560.9</ele>
        <time>2011-06-15T16:09:05Z</time>
      </trkpt>
      <trkpt lat="44.35808" lon="2.54749">
        <ele>560.6</ele>
        <time>2011-06-15T16:09:06Z</time>
      </trkpt>
      <trkpt lat="44.35811" lon="2.54743">
        <ele>560.4</ele>
        <time>2011-06-15T16:09:07Z</time>
      </trkpt>
      <trkpt lat="44.35813" lon="2.54736">
        <ele>560.3</ele>
        <time>2011-06-15T16:09:08Z</time>
      </trkpt>
      <trkpt lat="44.35816" lon="2.5473">
        <ele>560.4</ele>
        <time>2011-06-15T16:09:09Z</time>
      </trkpt>
      <trkpt lat="44.35819" lon="2.54724">
        <ele>560.4</ele>
        <time>2011-06-15T16:09:10Z</time>
      </trkpt>
      <trkpt lat="44.35822" lon="2.54718">
        <ele>560.5</ele>
        <time>2011-06-15T16:09:11Z</time>
      </trkpt>
      <trkpt lat="44.35825" lon="2.54712">
        <ele>560.5</ele>
        <time>2011-06-15T16:09:12Z</time>
      </trkpt>
      <trkpt lat="44.35828" lon="2.54705">
        <ele>560.4</ele>
        <time>2011-06-15T16:09:13Z</time>
      </trkpt>
      <trkpt lat="44.35832" lon="2.54699">
        <ele>560.4</ele>
        <time>2011-06-15T16:09:14Z</time>
      </trkpt>
      <trkpt lat="44.35835" lon="2.54693">
        <ele>560.4</ele>
        <time>2011-06-15T16:09:15Z</time>
      </trkpt>
      <trkpt lat="44.35838" lon="2.54686">
        <ele>560.7</ele>
        <time>2011-06-15T16:09:16Z</time>
      </trkpt>
      <trkpt lat="44.3584" lon="2.54679">
        <ele>561</ele>
        <time>2011-06-15T16:09:17Z</time>
      </trkpt>
      <trkpt lat="44.35843" lon="2.54673">
        <ele>561.1</ele>
        <time>2011-06-15T16:09:18Z</time>
      </trkpt>
      <trkpt lat="44.35846" lon="2.54666">
        <ele>561.1</ele>
        <time>2011-06-15T16:09:19Z</time>
      </trkpt>
      <trkpt lat="44.35849" lon="2.5466">
        <ele>561</ele>
        <time>2011-06-15T16:09:20Z</time>
      </trkpt>
      <trkpt lat="44.35851" lon="2.54653">
        <ele>561</ele>
        <time>2011-06-15T16:09:21Z</time>
      </trkpt>
      <trkpt lat="44.35854" lon="2.54646">
        <ele>561.1</ele>
        <time>2011-06-15T16:09:22Z</time>
      </trkpt>
      <trkpt lat="44.35856" lon="2.54639">
        <ele>561.2</ele>
        <time>2011-06-15T16:09:23Z</time>
      </trkpt>
      <trkpt lat="44.35859" lon="2.54631">
        <ele>561.2</ele>
        <time>2011-06-15T16:09:24Z</time>
      </trkpt>
      <trkpt lat="44.35861" lon="2.54624">
        <ele>561.1</ele>
        <time>2011-06-15T16:09:25Z</time>
      </trkpt>
      <trkpt lat="44.35863" lon="2.54616">
        <ele>561</ele>
        <time>2011-06-15T16:09:26Z</time>
      </trkpt>
      <trkpt lat="44.35865" lon="2.54609">
        <ele>560.9</ele>
        <time>2011-06-15T16:09:27Z</time>
      </trkpt>
      <trkpt lat="44.35867" lon="2.54601">
        <ele>560.8</ele>
        <time>2011-06-15T16:09:28Z</time>
      </trkpt>
      <trkpt lat="44.35869" lon="2.54594">
        <ele>560.7</ele>
        <time>2011-06-15T16:09:29Z</time>
      </trkpt>
      <trkpt lat="44.3587" lon="2.54586">
        <ele>560.6</ele>
        <time>2011-06-15T16:09:30Z</time>
      </trkpt>
      <trkpt lat="44.35871" lon="2.54578">
        <ele>560.6</ele>
        <time>2011-06-15T16:09:31Z</time>
      </trkpt>
      <trkpt lat="44.35873" lon="2.54569">
        <ele>560.8</ele>
        <time>2011-06-15T16:09:32Z</time>
      </trkpt>
      <trkpt lat="44.35874" lon="2.54561">
        <ele>561</ele>
        <time>2011-06-15T16:09:33Z</time>
      </trkpt>
      <trkpt lat="44.35875" lon="2.54553">
        <ele>561.2</ele>
        <time>2011-06-15T16:09:34Z</time>
      </trkpt>
      <trkpt lat="44.35876" lon="2.54544">
        <ele>561</ele>
        <time>2011-06-15T16:09:35Z</time>
      </trkpt>
      <trkpt lat="44.35877" lon="2.54535">
        <ele>560.8</ele>
        <time>2011-06-15T16:09:36Z</time>
      </trkpt>
      <trkpt lat="44.35877" lon="2.54527">
        <ele>560.7</ele>
        <time>2011-06-15T16:09:37Z</time>
      </trkpt>
      <trkpt lat="44.35877" lon="2.54518">
        <ele>560.9</ele>
        <time>2011-06-15T16:09:38Z</time>
      </trkpt>
      <trkpt lat="44.35878" lon="2.54509">
        <ele>561.1</ele>
        <time>2011-06-15T16:09:39Z</time>
      </trkpt>
      <trkpt lat="44.35878" lon="2.545">
        <ele>561.3</ele>
        <time>2011-06-15T16:09:40Z</time>
      </trkpt>
      <trkpt lat="44.35877" lon="2.54491">
        <ele>561.1</ele>
        <time>2011-06-15T16:09:41Z</time>
      </trkpt>
      <trkpt lat="44.35877" lon="2.54483">
        <ele>561</ele>
        <time>2011-06-15T16:09:42Z</time>
      </trkpt>
      <trkpt lat="44.35876" lon="2.54474">
        <ele>560.9</ele>
        <time>2011-06-15T16:09:43Z</time>
      </trkpt>
      <trkpt lat="44.35875" lon="2.54466">
        <ele>560.9</ele>
        <time>2011-06-15T16:09:44Z</time>
      </trkpt>
      <trkpt lat="44.35874" lon="2.54457">
        <ele>560.9</ele>
        <time>2011-06-15T16:09:45Z</time>
      </trkpt>
      <trkpt lat="44.35873" lon="2.54449">
        <ele>560.9</ele>
        <time>2011-06-15T16:09:46Z</time>
      </trkpt>
      <trkpt lat="44.35872" lon="2.5444">
        <ele>560.9</ele>
        <time>2011-06-15T16:09:47Z</time>
      </trkpt>
      <trkpt lat="44.3587" lon="2.54432">
        <ele>560.7</ele>
        <time>2011-06-15T16:09:48Z</time>
      </trkpt>
      <trkpt lat="44.35869" lon="2.54423">
        <ele>560.6</ele>
        <time>2011-06-15T16:09:49Z</time>
      </trkpt>
      <trkpt lat="44.35868" lon="2.54414">
        <ele>560.5</ele>
        <time>2011-06-15T16:09:50Z</time>
      </trkpt>
      <trkpt lat="44.35866" lon="2.54406">
        <ele>560.3</ele>
        <time>2011-06-15T16:09:51Z</time>
      </trkpt>
      <trkpt lat="44.35864" lon="2.54399">
        <ele>560.2</ele>
        <time>2011-06-15T16:09:52Z</time>
      </trkpt>
      <trkpt lat="44.35862" lon="2.54391">
        <ele>560.1</ele>
        <time>2011-06-15T16:09:53Z</time>
      </trkpt>
      <trkpt lat="44.3586" lon="2.54383">
        <ele>560.1</ele>
        <time>2011-06-15T16:09:54Z</time>
      </trkpt>
      <trkpt lat="44.35859" lon="2.54376">
        <ele>560.1</ele>
        <time>2011-06-15T16:09:55Z</time>
      </trkpt>
      <trkpt lat="44.35857" lon="2.54368">
        <ele>560.1</ele>
        <time>2011-06-15T16:09:56Z</time>
      </trkpt>
      <trkpt lat="44.35855" lon="2.5436">
        <ele>559.5</ele>
        <time>2011-06-15T16:09:57Z</time>
      </trkpt>
      <trkpt lat="44.35853" lon="2.54353">
        <ele>559.1</ele>
        <time>2011-06-15T16:09:58Z</time>
      </trkpt>
      <trkpt lat="44.35851" lon="2.54345">
        <ele>558.8</ele>
        <time>2011-06-15T16:09:59Z</time>
      </trkpt>
      <trkpt lat="44.35849" lon="2.54337">
        <ele>558.8</ele>
        <time>2011-06-15T16:10:00Z</time>
      </trkpt>
      <trkpt lat="44.35848" lon="2.54329">
        <ele>558.8</ele>
        <time>2011-06-15T16:10:01Z</time>
      </trkpt>
      <trkpt lat="44.35846" lon="2.54322">
        <ele>558.8</ele>
        <time>2011-06-15T16:10:02Z</time>
      </trkpt>
      <trkpt lat="44.35844" lon="2.54314">
        <ele>558.8</ele>
        <time>2011-06-15T16:10:03Z</time>
      </trkpt>
      <trkpt lat="44.35842" lon="2.54306">
        <ele>559</ele>
        <time>2011-06-15T16:10:04Z</time>
      </trkpt>
      <trkpt lat="44.3584" lon="2.54298">
        <ele>559.1</ele>
        <time>2011-06-15T16:10:05Z</time>
      </trkpt>
      <trkpt lat="44.35838" lon="2.5429">
        <ele>559.2</ele>
        <time>2011-06-15T16:10:06Z</time>
      </trkpt>
      <trkpt lat="44.35836" lon="2.54283">
        <ele>559.1</ele>
        <time>2011-06-15T16:10:07Z</time>
      </trkpt>
      <trkpt lat="44.35833" lon="2.54275">
        <ele>559</ele>
        <time>2011-06-15T16:10:08Z</time>
      </trkpt>
      <trkpt lat="44.35831" lon="2.54267">
        <ele>558.9</ele>
        <time>2011-06-15T16:10:09Z</time>
      </trkpt>
      <trkpt lat="44.35827" lon="2.5426">
        <ele>559</ele>
        <time>2011-06-15T16:10:10Z</time>
      </trkpt>
      <trkpt lat="44.35824" lon="2.54252">
        <ele>559</ele>
        <time>2011-06-15T16:10:11Z</time>
      </trkpt>
      <trkpt lat="44.35822" lon="2.54245">
        <ele>559.1</ele>
        <time>2011-06-15T16:10:12Z</time>
      </trkpt>
      <trkpt lat="44.35821" lon="2.54237">
        <ele>559.2</ele>
        <time>2011-06-15T16:10:13Z</time>
      </trkpt>
      <trkpt lat="44.35818" lon="2.5423">
        <ele>559.3</ele>
        <time>2011-06-15T16:10:14Z</time>
      </trkpt>
      <trkpt lat="44.35816" lon="2.54223">
        <ele>559.4</ele>
        <time>2011-06-15T16:10:15Z</time>
      </trkpt>
      <trkpt lat="44.35814" lon="2.54215">
        <ele>559.7</ele>
        <time>2011-06-15T16:10:16Z</time>
      </trkpt>
      <trkpt lat="44.35812" lon="2.54208">
        <ele>559.9</ele>
        <time>2011-06-15T16:10:17Z</time>
      </trkpt>
      <trkpt lat="44.3581" lon="2.54201">
        <ele>560</ele>
        <time>2011-06-15T16:10:18Z</time>
      </trkpt>
      <trkpt lat="44.35808" lon="2.54194">
        <ele>560.1</ele>
        <time>2011-06-15T16:10:19Z</time>
      </trkpt>
      <trkpt lat="44.35807" lon="2.54187">
        <ele>560.5</ele>
        <time>2011-06-15T16:10:20Z</time>
      </trkpt>
      <trkpt lat="44.35805" lon="2.5418">
        <ele>560.7</ele>
        <time>2011-06-15T16:10:21Z</time>
      </trkpt>
      <trkpt lat="44.35805" lon="2.54173">
        <ele>560.9</ele>
        <time>2011-06-15T16:10:22Z</time>
      </trkpt>
      <trkpt lat="44.35804" lon="2.54166">
        <ele>560.6</ele>
        <time>2011-06-15T16:10:23Z</time>
      </trkpt>
      <trkpt lat="44.35804" lon="2.54159">
        <ele>560.4</ele>
        <time>2011-06-15T16:10:24Z</time>
      </trkpt>
      <trkpt lat="44.35804" lon="2.54151">
        <ele>560.3</ele>
        <time>2011-06-15T16:10:25Z</time>
      </trkpt>
      <trkpt lat="44.35803" lon="2.54143">
        <ele>560.3</ele>
        <time>2011-06-15T16:10:26Z</time>
      </trkpt>
      <trkpt lat="44.35802" lon="2.54134">
        <ele>560.3</ele>
        <time>2011-06-15T16:10:27Z</time>
      </trkpt>
      <trkpt lat="44.35799" lon="2.54127">
        <ele>560.4</ele>
        <time>2011-06-15T16:10:28Z</time>
      </trkpt>
      <trkpt lat="44.35797" lon="2.5412">
        <ele>560.2</ele>
        <time>2011-06-15T16:10:29Z</time>
      </trkpt>
      <trkpt lat="44.35794" lon="2.54114">
        <ele>560.1</ele>
        <time>2011-06-15T16:10:30Z</time>
      </trkpt>
      <trkpt lat="44.35791" lon="2.54109">
        <ele>560</ele>
        <time>2011-06-15T16:10:31Z</time>
      </trkpt>
      <trkpt lat="44.35788" lon="2.54104">
        <ele>560.3</ele>
        <time>2011-06-15T16:10:32Z</time>
      </trkpt>
      <trkpt lat="44.35785" lon="2.54099">
        <ele>560.6</ele>
        <time>2011-06-15T16:10:33Z</time>
      </trkpt>
      <trkpt lat="44.35783" lon="2.54095">
        <ele>560.8</ele>
        <time>2011-06-15T16:10:34Z</time>
      </trkpt>
      <trkpt lat="44.3578" lon="2.5409">
        <ele>560.9</ele>
        <time>2011-06-15T16:10:35Z</time>
      </trkpt>
      <trkpt lat="44.35778" lon="2.54086">
        <ele>561.4</ele>
        <time>2011-06-15T16:10:36Z</time>
      </trkpt>
      <trkpt lat="44.35775" lon="2.54082">
        <ele>561.7</ele>
        <time>2011-06-15T16:10:37Z</time>
      </trkpt>
      <trkpt lat="44.35772" lon="2.54078">
        <ele>561.9</ele>
        <time>2011-06-15T16:10:38Z</time>
      </trkpt>
      <trkpt lat="44.35769" lon="2.54073">
        <ele>561.8</ele>
        <time>2011-06-15T16:10:39Z</time>
      </trkpt>
      <trkpt lat="44.35766" lon="2.54068">
        <ele>561.6</ele>
        <time>2011-06-15T16:10:40Z</time>
      </trkpt>
      <trkpt lat="44.35763" lon="2.54064">
        <ele>561.6</ele>
        <time>2011-06-15T16:10:41Z</time>
      </trkpt>
      <trkpt lat="44.3576" lon="2.5406">
        <ele>561.7</ele>
        <time>2011-06-15T16:10:42Z</time>
      </trkpt>
      <trkpt lat="44.35758" lon="2.54055">
        <ele>561.9</ele>
        <time>2011-06-15T16:10:43Z</time>
      </trkpt>
      <trkpt lat="44.35755" lon="2.5405">
        <ele>561.9</ele>
        <time>2011-06-15T16:10:44Z</time>
      </trkpt>
      <trkpt lat="44.35752" lon="2.54045">
        <ele>562</ele>
        <time>2011-06-15T16:10:45Z</time>
      </trkpt>
      <trkpt lat="44.3575" lon="2.54041">
        <ele>562</ele>
        <time>2011-06-15T16:10:46Z</time>
      </trkpt>
      <trkpt lat="44.35747" lon="2.54036">
        <ele>562</ele>
        <time>2011-06-15T16:10:47Z</time>
      </trkpt>
      <trkpt lat="44.35744" lon="2.54031">
        <ele>562.5</ele>
        <time>2011-06-15T16:10:48Z</time>
      </trkpt>
      <trkpt lat="44.35742" lon="2.54026">
        <ele>562.9</ele>
        <time>2011-06-15T16:10:49Z</time>
      </trkpt>
      <trkpt lat="44.3574" lon="2.54022">
        <ele>563.2</ele>
        <time>2011-06-15T16:10:50Z</time>
      </trkpt>
      <trkpt lat="44.35737" lon="2.54017">
        <ele>563</ele>
        <time>2011-06-15T16:10:51Z</time>
      </trkpt>
      <trkpt lat="44.35735" lon="2.54013">
        <ele>562.9</ele>
        <time>2011-06-15T16:10:52Z</time>
      </trkpt>
      <trkpt lat="44.35732" lon="2.54008">
        <ele>562.9</ele>
        <time>2011-06-15T16:10:53Z</time>
      </trkpt>
      <trkpt lat="44.3573" lon="2.54004">
        <ele>562.8</ele>
        <time>2011-06-15T16:10:54Z</time>
      </trkpt>
      <trkpt lat="44.35727" lon="2.53999">
        <ele>562.2</ele>
        <time>2011-06-15T16:10:55Z</time>
      </trkpt>
      <trkpt lat="44.35725" lon="2.53994">
        <ele>561.7</ele>
        <time>2011-06-15T16:10:56Z</time>
      </trkpt>
      <trkpt lat="44.35723" lon="2.5399">
        <ele>561.3</ele>
        <time>2011-06-15T16:10:57Z</time>
      </trkpt>
      <trkpt lat="44.3572" lon="2.53985">
        <ele>561.6</ele>
        <time>2011-06-15T16:10:58Z</time>
      </trkpt>
      <trkpt lat="44.35718" lon="2.5398">
        <ele>561.9</ele>
        <time>2011-06-15T16:10:59Z</time>
      </trkpt>
      <trkpt lat="44.35715" lon="2.53975">
        <ele>562.1</ele>
        <time>2011-06-15T16:11:00Z</time>
      </trkpt>
      <trkpt lat="44.35713" lon="2.5397">
        <ele>561.9</ele>
        <time>2011-06-15T16:11:01Z</time>
      </trkpt>
      <trkpt lat="44.35711" lon="2.53965">
        <ele>561.8</ele>
        <time>2011-06-15T16:11:02Z</time>
      </trkpt>
      <trkpt lat="44.35709" lon="2.5396">
        <ele>561.7</ele>
        <time>2011-06-15T16:11:03Z</time>
      </trkpt>
      <trkpt lat="44.35706" lon="2.53955">
        <ele>561.7</ele>
        <time>2011-06-15T16:11:04Z</time>
      </trkpt>
      <trkpt lat="44.35704" lon="2.5395">
        <ele>561.7</ele>
        <time>2011-06-15T16:11:05Z</time>
      </trkpt>
      <trkpt lat="44.35701" lon="2.53945">
        <ele>561.7</ele>
        <time>2011-06-15T16:11:06Z</time>
      </trkpt>
      <trkpt lat="44.35698" lon="2.5394">
        <ele>561.7</ele>
        <time>2011-06-15T16:11:07Z</time>
      </trkpt>
      <trkpt lat="44.35695" lon="2.53935">
        <ele>561.6</ele>
        <time>2011-06-15T16:11:08Z</time>
      </trkpt>
      <trkpt lat="44.35692" lon="2.5393">
        <ele>561.6</ele>
        <time>2011-06-15T16:11:09Z</time>
      </trkpt>
      <trkpt lat="44.35689" lon="2.53925">
        <ele>561.6</ele>
        <time>2011-06-15T16:11:10Z</time>
      </trkpt>
      <trkpt lat="44.35686" lon="2.5392">
        <ele>561.8</ele>
        <time>2011-06-15T16:11:11Z</time>
      </trkpt>
      <trkpt lat="44.35683" lon="2.53915">
        <ele>561.9</ele>
        <time>2011-06-15T16:11:12Z</time>
      </trkpt>
      <trkpt lat="44.3568" lon="2.53911">
        <ele>562</ele>
        <time>2011-06-15T16:11:13Z</time>
      </trkpt>
      <trkpt lat="44.35677" lon="2.53906">
        <ele>562.1</ele>
        <time>2011-06-15T16:11:14Z</time>
      </trkpt>
      <trkpt lat="44.35674" lon="2.53902">
        <ele>562.1</ele>
        <time>2011-06-15T16:11:15Z</time>
      </trkpt>
      <trkpt lat="44.3567" lon="2.53897">
        <ele>562.2</ele>
        <time>2011-06-15T16:11:16Z</time>
      </trkpt>
      <trkpt lat="44.35667" lon="2.53893">
        <ele>562</ele>
        <time>2011-06-15T16:11:17Z</time>
      </trkpt>
      <trkpt lat="44.35663" lon="2.53888">
        <ele>561.9</ele>
        <time>2011-06-15T16:11:18Z</time>
      </trkpt>
      <trkpt lat="44.35659" lon="2.53884">
        <ele>561.8</ele>
        <time>2011-06-15T16:11:19Z</time>
      </trkpt>
      <trkpt lat="44.35655" lon="2.5388">
        <ele>561.6</ele>
        <time>2011-06-15T16:11:20Z</time>
      </trkpt>
      <trkpt lat="44.35652" lon="2.53876">
        <ele>561.5</ele>
        <time>2011-06-15T16:11:21Z</time>
      </trkpt>
      <trkpt lat="44.35648" lon="2.53872">
        <ele>561.4</ele>
        <time>2011-06-15T16:11:22Z</time>
      </trkpt>
      <trkpt lat="44.35644" lon="2.53869">
        <ele>561.8</ele>
        <time>2011-06-15T16:11:23Z</time>
      </trkpt>
      <trkpt lat="44.35641" lon="2.53865">
        <ele>562.1</ele>
        <time>2011-06-15T16:11:24Z</time>
      </trkpt>
      <trkpt lat="44.35638" lon="2.53861">
        <ele>562.4</ele>
        <time>2011-06-15T16:11:25Z</time>
      </trkpt>
      <trkpt lat="44.35635" lon="2.53857">
        <ele>562.1</ele>
        <time>2011-06-15T16:11:27Z</time>
      </trkpt>
      <trkpt lat="44.35631" lon="2.53854">
        <ele>561.6</ele>
        <time>2011-06-15T16:11:30Z</time>
      </trkpt>
      <trkpt lat="44.35627" lon="2.53852">
        <ele>561.8</ele>
        <time>2011-06-15T16:11:40Z</time>
      </trkpt>
      <trkpt lat="44.35624" lon="2.53849">
        <ele>562.1</ele>
        <time>2011-06-15T16:11:42Z</time>
      </trkpt>
      <trkpt lat="44.3562" lon="2.53847">
        <ele>561.4</ele>
        <time>2011-06-15T16:11:45Z</time>
      </trkpt>
      <trkpt lat="44.35619" lon="2.53846">
        <ele>561.6</ele>
        <time>2011-06-15T16:11:46Z</time>
      </trkpt>
      <trkpt lat="44.35615" lon="2.53838">
        <ele>561.7</ele>
        <time>2011-06-15T16:11:53Z</time>
      </trkpt>
      <trkpt lat="44.35611" lon="2.53835">
        <ele>562</ele>
        <time>2011-06-15T16:11:57Z</time>
      </trkpt>
      <trkpt lat="44.35609" lon="2.53833">
        <ele>561.2</ele>
        <time>2011-06-15T16:11:59Z</time>
      </trkpt>
      <trkpt lat="44.35607" lon="2.5383">
        <ele>560.7</ele>
        <time>2011-06-15T16:12:01Z</time>
      </trkpt>
      <trkpt lat="44.35603" lon="2.53827">
        <ele>560.8</ele>
        <time>2011-06-15T16:12:03Z</time>
      </trkpt>
      <trkpt lat="44.356" lon="2.53824">
        <ele>560.8</ele>
        <time>2011-06-15T16:12:05Z</time>
      </trkpt>
      <trkpt lat="44.35598" lon="2.53822">
        <ele>560.8</ele>
        <time>2011-06-15T16:12:07Z</time>
      </trkpt>
      <trkpt lat="44.35595" lon="2.53819">
        <ele>560.8</ele>
        <time>2011-06-15T16:12:09Z</time>
      </trkpt>
      <trkpt lat="44.35593" lon="2.53816">
        <ele>561.1</ele>
        <time>2011-06-15T16:12:11Z</time>
      </trkpt>
      <trkpt lat="44.3559" lon="2.53813">
        <ele>561.5</ele>
        <time>2011-06-15T16:12:13Z</time>
      </trkpt>
      <trkpt lat="44.35587" lon="2.5381">
        <ele>561.8</ele>
        <time>2011-06-15T16:12:15Z</time>
      </trkpt>
      <trkpt lat="44.35585" lon="2.53808">
        <ele>561.9</ele>
        <time>2011-06-15T16:12:17Z</time>
      </trkpt>
      <trkpt lat="44.35582" lon="2.53806">
        <ele>561.8</ele>
        <time>2011-06-15T16:12:19Z</time>
      </trkpt>
      <trkpt lat="44.35579" lon="2.53804">
        <ele>561.4</ele>
        <time>2011-06-15T16:12:21Z</time>
      </trkpt>
      <trkpt lat="44.35576" lon="2.53802">
        <ele>561</ele>
        <time>2011-06-15T16:12:23Z</time>
      </trkpt>
      <trkpt lat="44.35572" lon="2.538">
        <ele>561.4</ele>
        <time>2011-06-15T16:12:25Z</time>
      </trkpt>
      <trkpt lat="44.35568" lon="2.53798">
        <ele>561.9</ele>
        <time>2011-06-15T16:12:27Z</time>
      </trkpt>
      <trkpt lat="44.35564" lon="2.53796">
        <ele>562.4</ele>
        <time>2011-06-15T16:12:29Z</time>
      </trkpt>
      <trkpt lat="44.3556" lon="2.53794">
        <ele>561.9</ele>
        <time>2011-06-15T16:12:31Z</time>
      </trkpt>
      <trkpt lat="44.35558" lon="2.53793">
        <ele>561.8</ele>
        <time>2011-06-15T16:12:32Z</time>
      </trkpt>
      <trkpt lat="44.35556" lon="2.53791">
        <ele>561.7</ele>
        <time>2011-06-15T16:12:33Z</time>
      </trkpt>
      <trkpt lat="44.35553" lon="2.5379">
        <ele>561.1</ele>
        <time>2011-06-15T16:12:34Z</time>
      </trkpt>
      <trkpt lat="44.3555" lon="2.53788">
        <ele>560.7</ele>
        <time>2011-06-15T16:12:35Z</time>
      </trkpt>
      <trkpt lat="44.35547" lon="2.53786">
        <ele>560.4</ele>
        <time>2011-06-15T16:12:36Z</time>
      </trkpt>
      <trkpt lat="44.35544" lon="2.53784">
        <ele>560.2</ele>
        <time>2011-06-15T16:12:37Z</time>
      </trkpt>
      <trkpt lat="44.3554" lon="2.53782">
        <ele>560.1</ele>
        <time>2011-06-15T16:12:38Z</time>
      </trkpt>
      <trkpt lat="44.35535" lon="2.5378">
        <ele>560</ele>
        <time>2011-06-15T16:12:39Z</time>
      </trkpt>
      <trkpt lat="44.35531" lon="2.53779">
        <ele>560.1</ele>
        <time>2011-06-15T16:12:40Z</time>
      </trkpt>
      <trkpt lat="44.35527" lon="2.53777">
        <ele>560.1</ele>
        <time>2011-06-15T16:12:41Z</time>
      </trkpt>
      <trkpt lat="44.35522" lon="2.53776">
        <ele>560.1</ele>
        <time>2011-06-15T16:12:42Z</time>
      </trkpt>
      <trkpt lat="44.35518" lon="2.53775">
        <ele>560.1</ele>
        <time>2011-06-15T16:12:43Z</time>
      </trkpt>
      <trkpt lat="44.35513" lon="2.53774">
        <ele>560.1</ele>
        <time>2011-06-15T16:12:44Z</time>
      </trkpt>
      <trkpt lat="44.35508" lon="2.53773">
        <ele>560.1</ele>
        <time>2011-06-15T16:12:45Z</time>
      </trkpt>
      <trkpt lat="44.35503" lon="2.53772">
        <ele>560.1</ele>
        <time>2011-06-15T16:12:46Z</time>
      </trkpt>
      <trkpt lat="44.35499" lon="2.53771">
        <ele>560.2</ele>
        <time>2011-06-15T16:12:47Z</time>
      </trkpt>
      <trkpt lat="44.35495" lon="2.53771">
        <ele>560.2</ele>
        <time>2011-06-15T16:12:48Z</time>
      </trkpt>
      <trkpt lat="44.35491" lon="2.53771">
        <ele>560.2</ele>
        <time>2011-06-15T16:12:49Z</time>
      </trkpt>
      <trkpt lat="44.35487" lon="2.5377">
        <ele>560.5</ele>
        <time>2011-06-15T16:12:50Z</time>
      </trkpt>
      <trkpt lat="44.35483" lon="2.5377">
        <ele>560.8</ele>
        <time>2011-06-15T16:12:51Z</time>
      </trkpt>
      <trkpt lat="44.35479" lon="2.53769">
        <ele>560.9</ele>
        <time>2011-06-15T16:12:52Z</time>
      </trkpt>
      <trkpt lat="44.35474" lon="2.53769">
        <ele>561</ele>
        <time>2011-06-15T16:12:53Z</time>
      </trkpt>
      <trkpt lat="44.3547" lon="2.5377">
        <ele>561.1</ele>
        <time>2011-06-15T16:12:54Z</time>
      </trkpt>
      <trkpt lat="44.35466" lon="2.53771">
        <ele>561.1</ele>
        <time>2011-06-15T16:12:55Z</time>
      </trkpt>
      <trkpt lat="44.35463" lon="2.53773">
        <ele>561.3</ele>
        <time>2011-06-15T16:12:56Z</time>
      </trkpt>
      <trkpt lat="44.35459" lon="2.53774">
        <ele>561.4</ele>
        <time>2011-06-15T16:12:57Z</time>
      </trkpt>
      <trkpt lat="44.35455" lon="2.53776">
        <ele>561.5</ele>
        <time>2011-06-15T16:12:58Z</time>
      </trkpt>
      <trkpt lat="44.35451" lon="2.53778">
        <ele>561.6</ele>
        <time>2011-06-15T16:12:59Z</time>
      </trkpt>
      <trkpt lat="44.35447" lon="2.5378">
        <ele>561.7</ele>
        <time>2011-06-15T16:13:00Z</time>
      </trkpt>
      <trkpt lat="44.35443" lon="2.53782">
        <ele>561.7</ele>
        <time>2011-06-15T16:13:01Z</time>
      </trkpt>
      <trkpt lat="44.35439" lon="2.53784">
        <ele>561.8</ele>
        <time>2011-06-15T16:13:02Z</time>
      </trkpt>
      <trkpt lat="44.35436" lon="2.53786">
        <ele>561.9</ele>
        <time>2011-06-15T16:13:03Z</time>
      </trkpt>
      <trkpt lat="44.35432" lon="2.53789">
        <ele>562</ele>
        <time>2011-06-15T16:13:04Z</time>
      </trkpt>
      <trkpt lat="44.35428" lon="2.53791">
        <ele>562</ele>
        <time>2011-06-15T16:13:05Z</time>
      </trkpt>
      <trkpt lat="44.35424" lon="2.53794">
        <ele>561.6</ele>
        <time>2011-06-15T16:13:06Z</time>
      </trkpt>
      <trkpt lat="44.3542" lon="2.53796">
        <ele>561.2</ele>
        <time>2011-06-15T16:13:07Z</time>
      </trkpt>
      <trkpt lat="44.35416" lon="2.53798">
        <ele>561</ele>
        <time>2011-06-15T16:13:08Z</time>
      </trkpt>
      <trkpt lat="44.35412" lon="2.538">
        <ele>560.9</ele>
        <time>2011-06-15T16:13:09Z</time>
      </trkpt>
      <trkpt lat="44.35408" lon="2.53803">
        <ele>560.8</ele>
        <time>2011-06-15T16:13:10Z</time>
      </trkpt>
      <trkpt lat="44.35404" lon="2.53805">
        <ele>560.7</ele>
        <time>2011-06-15T16:13:11Z</time>
      </trkpt>
      <trkpt lat="44.354" lon="2.53808">
        <ele>560.9</ele>
        <time>2011-06-15T16:13:12Z</time>
      </trkpt>
      <trkpt lat="44.35395" lon="2.53811">
        <ele>561.1</ele>
        <time>2011-06-15T16:13:13Z</time>
      </trkpt>
      <trkpt lat="44.35391" lon="2.53813">
        <ele>561.2</ele>
        <time>2011-06-15T16:13:14Z</time>
      </trkpt>
      <trkpt lat="44.35387" lon="2.53816">
        <ele>561</ele>
        <time>2011-06-15T16:13:15Z</time>
      </trkpt>
      <trkpt lat="44.35383" lon="2.53819">
        <ele>560.8</ele>
        <time>2011-06-15T16:13:16Z</time>
      </trkpt>
      <trkpt lat="44.35378" lon="2.53822">
        <ele>560.7</ele>
        <time>2011-06-15T16:13:17Z</time>
      </trkpt>
      <trkpt lat="44.35374" lon="2.53824">
        <ele>560.8</ele>
        <time>2011-06-15T16:13:18Z</time>
      </trkpt>
      <trkpt lat="44.3537" lon="2.53827">
        <ele>560.9</ele>
        <time>2011-06-15T16:13:19Z</time>
      </trkpt>
      <trkpt lat="44.35366" lon="2.5383">
        <ele>561</ele>
        <time>2011-06-15T16:13:20Z</time>
      </trkpt>
      <trkpt lat="44.35363" lon="2.53832">
        <ele>560.9</ele>
        <time>2011-06-15T16:13:21Z</time>
      </trkpt>
      <trkpt lat="44.35359" lon="2.53835">
        <ele>560.9</ele>
        <time>2011-06-15T16:13:22Z</time>
      </trkpt>
      <trkpt lat="44.35355" lon="2.53837">
        <ele>560.8</ele>
        <time>2011-06-15T16:13:23Z</time>
      </trkpt>
      <trkpt lat="44.35351" lon="2.53839">
        <ele>560.8</ele>
        <time>2011-06-15T16:13:24Z</time>
      </trkpt>
      <trkpt lat="44.35347" lon="2.53842">
        <ele>560.5</ele>
        <time>2011-06-15T16:13:25Z</time>
      </trkpt>
      <trkpt lat="44.35343" lon="2.53845">
        <ele>560.3</ele>
        <time>2011-06-15T16:13:26Z</time>
      </trkpt>
      <trkpt lat="44.35339" lon="2.53847">
        <ele>560.2</ele>
        <time>2011-06-15T16:13:27Z</time>
      </trkpt>
      <trkpt lat="44.35335" lon="2.5385">
        <ele>560.1</ele>
        <time>2011-06-15T16:13:28Z</time>
      </trkpt>
      <trkpt lat="44.35331" lon="2.53852">
        <ele>560.1</ele>
        <time>2011-06-15T16:13:29Z</time>
      </trkpt>
      <trkpt lat="44.35328" lon="2.53855">
        <ele>560</ele>
        <time>2011-06-15T16:13:30Z</time>
      </trkpt>
      <trkpt lat="44.35324" lon="2.53858">
        <ele>559.8</ele>
        <time>2011-06-15T16:13:31Z</time>
      </trkpt>
      <trkpt lat="44.3532" lon="2.53861">
        <ele>559.6</ele>
        <time>2011-06-15T16:13:32Z</time>
      </trkpt>
      <trkpt lat="44.35316" lon="2.53863">
        <ele>559.4</ele>
        <time>2011-06-15T16:13:33Z</time>
      </trkpt>
      <trkpt lat="44.35313" lon="2.53867">
        <ele>559.7</ele>
        <time>2011-06-15T16:13:34Z</time>
      </trkpt>
      <trkpt lat="44.35309" lon="2.5387">
        <ele>559.8</ele>
        <time>2011-06-15T16:13:35Z</time>
      </trkpt>
      <trkpt lat="44.35305" lon="2.53873">
        <ele>560</ele>
        <time>2011-06-15T16:13:36Z</time>
      </trkpt>
      <trkpt lat="44.35302" lon="2.53876">
        <ele>560.1</ele>
        <time>2011-06-15T16:13:37Z</time>
      </trkpt>
      <trkpt lat="44.35298" lon="2.53879">
        <ele>560.1</ele>
        <time>2011-06-15T16:13:38Z</time>
      </trkpt>
      <trkpt lat="44.35295" lon="2.53882">
        <ele>560.2</ele>
        <time>2011-06-15T16:13:39Z</time>
      </trkpt>
      <trkpt lat="44.35291" lon="2.53885">
        <ele>560.2</ele>
        <time>2011-06-15T16:13:40Z</time>
      </trkpt>
      <trkpt lat="44.35288" lon="2.53888">
        <ele>560.3</ele>
        <time>2011-06-15T16:13:41Z</time>
      </trkpt>
      <trkpt lat="44.35284" lon="2.53891">
        <ele>560.3</ele>
        <time>2011-06-15T16:13:42Z</time>
      </trkpt>
      <trkpt lat="44.35281" lon="2.53895">
        <ele>560.3</ele>
        <time>2011-06-15T16:13:43Z</time>
      </trkpt>
      <trkpt lat="44.35278" lon="2.53899">
        <ele>560.3</ele>
        <time>2011-06-15T16:13:44Z</time>
      </trkpt>
      <trkpt lat="44.35274" lon="2.53903">
        <ele>560.2</ele>
        <time>2011-06-15T16:13:45Z</time>
      </trkpt>
      <trkpt lat="44.35271" lon="2.53906">
        <ele>560.2</ele>
        <time>2011-06-15T16:13:46Z</time>
      </trkpt>
      <trkpt lat="44.35268" lon="2.5391">
        <ele>559.8</ele>
        <time>2011-06-15T16:13:47Z</time>
      </trkpt>
      <trkpt lat="44.35265" lon="2.53913">
        <ele>559.5</ele>
        <time>2011-06-15T16:13:48Z</time>
      </trkpt>
      <trkpt lat="44.35261" lon="2.53917">
        <ele>559.3</ele>
        <time>2011-06-15T16:13:49Z</time>
      </trkpt>
      <trkpt lat="44.35258" lon="2.53921">
        <ele>559.7</ele>
        <time>2011-06-15T16:13:50Z</time>
      </trkpt>
      <trkpt lat="44.35255" lon="2.53925">
        <ele>559.9</ele>
        <time>2011-06-15T16:13:51Z</time>
      </trkpt>
      <trkpt lat="44.35252" lon="2.53929">
        <ele>560.1</ele>
        <time>2011-06-15T16:13:52Z</time>
      </trkpt>
      <trkpt lat="44.35249" lon="2.53933">
        <ele>560</ele>
        <time>2011-06-15T16:13:53Z</time>
      </trkpt>
      <trkpt lat="44.35247" lon="2.53937">
        <ele>559.9</ele>
        <time>2011-06-15T16:13:54Z</time>
      </trkpt>
      <trkpt lat="44.35244" lon="2.53942">
        <ele>559.8</ele>
        <time>2011-06-15T16:13:55Z</time>
      </trkpt>
      <trkpt lat="44.35241" lon="2.53947">
        <ele>559.8</ele>
        <time>2011-06-15T16:13:56Z</time>
      </trkpt>
      <trkpt lat="44.35239" lon="2.53952">
        <ele>559.7</ele>
        <time>2011-06-15T16:13:57Z</time>
      </trkpt>
      <trkpt lat="44.35236" lon="2.53957">
        <ele>559.7</ele>
        <time>2011-06-15T16:13:58Z</time>
      </trkpt>
      <trkpt lat="44.35233" lon="2.53961">
        <ele>559.6</ele>
        <time>2011-06-15T16:13:59Z</time>
      </trkpt>
      <trkpt lat="44.3523" lon="2.53966">
        <ele>559.5</ele>
        <time>2011-06-15T16:14:00Z</time>
      </trkpt>
      <trkpt lat="44.35227" lon="2.5397">
        <ele>559.4</ele>
        <time>2011-06-15T16:14:01Z</time>
      </trkpt>
      <trkpt lat="44.35224" lon="2.53975">
        <ele>559.4</ele>
        <time>2011-06-15T16:14:02Z</time>
      </trkpt>
      <trkpt lat="44.35222" lon="2.53979">
        <ele>559.5</ele>
        <time>2011-06-15T16:14:03Z</time>
      </trkpt>
      <trkpt lat="44.35219" lon="2.53983">
        <ele>559.5</ele>
        <time>2011-06-15T16:14:04Z</time>
      </trkpt>
      <trkpt lat="44.35216" lon="2.53988">
        <ele>559.6</ele>
        <time>2011-06-15T16:14:05Z</time>
      </trkpt>
      <trkpt lat="44.35213" lon="2.53992">
        <ele>559.4</ele>
        <time>2011-06-15T16:14:06Z</time>
      </trkpt>
      <trkpt lat="44.35209" lon="2.53997">
        <ele>559.2</ele>
        <time>2011-06-15T16:14:07Z</time>
      </trkpt>
      <trkpt lat="44.35207" lon="2.54002">
        <ele>559.1</ele>
        <time>2011-06-15T16:14:08Z</time>
      </trkpt>
      <trkpt lat="44.35203" lon="2.54006">
        <ele>558.8</ele>
        <time>2011-06-15T16:14:09Z</time>
      </trkpt>
      <trkpt lat="44.352" lon="2.54011">
        <ele>558.7</ele>
        <time>2011-06-15T16:14:10Z</time>
      </trkpt>
      <trkpt lat="44.35196" lon="2.54015">
        <ele>558.5</ele>
        <time>2011-06-15T16:14:11Z</time>
      </trkpt>
      <trkpt lat="44.35193" lon="2.54019">
        <ele>558.4</ele>
        <time>2011-06-15T16:14:12Z</time>
      </trkpt>
      <trkpt lat="44.3519" lon="2.54022">
        <ele>558.6</ele>
        <time>2011-06-15T16:14:13Z</time>
      </trkpt>
      <trkpt lat="44.35186" lon="2.54026">
        <ele>558.7</ele>
        <time>2011-06-15T16:14:14Z</time>
      </trkpt>
      <trkpt lat="44.35183" lon="2.5403">
        <ele>558.8</ele>
        <time>2011-06-15T16:14:15Z</time>
      </trkpt>
      <trkpt lat="44.35179" lon="2.54034">
        <ele>559.2</ele>
        <time>2011-06-15T16:14:16Z</time>
      </trkpt>
      <trkpt lat="44.35176" lon="2.54037">
        <ele>559.5</ele>
        <time>2011-06-15T16:14:17Z</time>
      </trkpt>
      <trkpt lat="44.35173" lon="2.54041">
        <ele>559.7</ele>
        <time>2011-06-15T16:14:18Z</time>
      </trkpt>
      <trkpt lat="44.35169" lon="2.54045">
        <ele>559.6</ele>
        <time>2011-06-15T16:14:19Z</time>
      </trkpt>
      <trkpt lat="44.35166" lon="2.54048">
        <ele>559.6</ele>
        <time>2011-06-15T16:14:20Z</time>
      </trkpt>
      <trkpt lat="44.35162" lon="2.54051">
        <ele>559.6</ele>
        <time>2011-06-15T16:14:21Z</time>
      </trkpt>
      <trkpt lat="44.35158" lon="2.54054">
        <ele>559.4</ele>
        <time>2011-06-15T16:14:22Z</time>
      </trkpt>
      <trkpt lat="44.35154" lon="2.54057">
        <ele>559.3</ele>
        <time>2011-06-15T16:14:23Z</time>
      </trkpt>
      <trkpt lat="44.3515" lon="2.54059">
        <ele>559.2</ele>
        <time>2011-06-15T16:14:24Z</time>
      </trkpt>
      <trkpt lat="44.35146" lon="2.54062">
        <ele>559.4</ele>
        <time>2011-06-15T16:14:25Z</time>
      </trkpt>
      <trkpt lat="44.35142" lon="2.54064">
        <ele>559.6</ele>
        <time>2011-06-15T16:14:26Z</time>
      </trkpt>
      <trkpt lat="44.35139" lon="2.54067">
        <ele>559.8</ele>
        <time>2011-06-15T16:14:27Z</time>
      </trkpt>
      <trkpt lat="44.35135" lon="2.54071">
        <ele>559.9</ele>
        <time>2011-06-15T16:14:28Z</time>
      </trkpt>
      <trkpt lat="44.35132" lon="2.54074">
        <ele>560.5</ele>
        <time>2011-06-15T16:14:29Z</time>
      </trkpt>
      <trkpt lat="44.35128" lon="2.54077">
        <ele>560.9</ele>
        <time>2011-06-15T16:14:30Z</time>
      </trkpt>
      <trkpt lat="44.35125" lon="2.5408">
        <ele>561.2</ele>
        <time>2011-06-15T16:14:31Z</time>
      </trkpt>
      <trkpt lat="44.35121" lon="2.54083">
        <ele>560.5</ele>
        <time>2011-06-15T16:14:32Z</time>
      </trkpt>
      <trkpt lat="44.35118" lon="2.54087">
        <ele>560</ele>
        <time>2011-06-15T16:14:33Z</time>
      </trkpt>
      <trkpt lat="44.35114" lon="2.5409">
        <ele>559.7</ele>
        <time>2011-06-15T16:14:34Z</time>
      </trkpt>
      <trkpt lat="44.35111" lon="2.54093">
        <ele>559.8</ele>
        <time>2011-06-15T16:14:35Z</time>
      </trkpt>
      <trkpt lat="44.35107" lon="2.54097">
        <ele>559.9</ele>
        <time>2011-06-15T16:14:36Z</time>
      </trkpt>
      <trkpt lat="44.35104" lon="2.541">
        <ele>560</ele>
        <time>2011-06-15T16:14:37Z</time>
      </trkpt>
      <trkpt lat="44.351" lon="2.54103">
        <ele>560</ele>
        <time>2011-06-15T16:14:38Z</time>
      </trkpt>
      <trkpt lat="44.35097" lon="2.54106">
        <ele>560</ele>
        <time>2011-06-15T16:14:39Z</time>
      </trkpt>
      <trkpt lat="44.35094" lon="2.54109">
        <ele>560</ele>
        <time>2011-06-15T16:14:40Z</time>
      </trkpt>
      <trkpt lat="44.3509" lon="2.54112">
        <ele>560.1</ele>
        <time>2011-06-15T16:14:41Z</time>
      </trkpt>
      <trkpt lat="44.35087" lon="2.54114">
        <ele>560.1</ele>
        <time>2011-06-15T16:14:42Z</time>
      </trkpt>
      <trkpt lat="44.35083" lon="2.54117">
        <ele>560.2</ele>
        <time>2011-06-15T16:14:43Z</time>
      </trkpt>
      <trkpt lat="44.3508" lon="2.5412">
        <ele>560.2</ele>
        <time>2011-06-15T16:14:44Z</time>
      </trkpt>
      <trkpt lat="44.35076" lon="2.54122">
        <ele>560.1</ele>
        <time>2011-06-15T16:14:45Z</time>
      </trkpt>
      <trkpt lat="44.35073" lon="2.54125">
        <ele>560.1</ele>
        <time>2011-06-15T16:14:46Z</time>
      </trkpt>
      <trkpt lat="44.3507" lon="2.54128">
        <ele>560</ele>
        <time>2011-06-15T16:14:47Z</time>
      </trkpt>
      <trkpt lat="44.35066" lon="2.5413">
        <ele>560.3</ele>
        <time>2011-06-15T16:14:48Z</time>
      </trkpt>
      <trkpt lat="44.35063" lon="2.54133">
        <ele>560.5</ele>
        <time>2011-06-15T16:14:49Z</time>
      </trkpt>
      <trkpt lat="44.35059" lon="2.54136">
        <ele>560.7</ele>
        <time>2011-06-15T16:14:50Z</time>
      </trkpt>
      <trkpt lat="44.35056" lon="2.54138">
        <ele>560.6</ele>
        <time>2011-06-15T16:14:51Z</time>
      </trkpt>
      <trkpt lat="44.35052" lon="2.54141">
        <ele>560.6</ele>
        <time>2011-06-15T16:14:52Z</time>
      </trkpt>
      <trkpt lat="44.35048" lon="2.54144">
        <ele>560.6</ele>
        <time>2011-06-15T16:14:53Z</time>
      </trkpt>
      <trkpt lat="44.35044" lon="2.54146">
        <ele>560.3</ele>
        <time>2011-06-15T16:14:54Z</time>
      </trkpt>
      <trkpt lat="44.3504" lon="2.54149">
        <ele>560.1</ele>
        <time>2011-06-15T16:14:55Z</time>
      </trkpt>
      <trkpt lat="44.35036" lon="2.54152">
        <ele>560</ele>
        <time>2011-06-15T16:14:56Z</time>
      </trkpt>
      <trkpt lat="44.35031" lon="2.54155">
        <ele>559.8</ele>
        <time>2011-06-15T16:14:57Z</time>
      </trkpt>
      <trkpt lat="44.35027" lon="2.54157">
        <ele>559.6</ele>
        <time>2011-06-15T16:14:58Z</time>
      </trkpt>
      <trkpt lat="44.35023" lon="2.54159">
        <ele>559.5</ele>
        <time>2011-06-15T16:14:59Z</time>
      </trkpt>
      <trkpt lat="44.35019" lon="2.54161">
        <ele>559.4</ele>
        <time>2011-06-15T16:15:00Z</time>
      </trkpt>
      <trkpt lat="44.35015" lon="2.54164">
        <ele>559.3</ele>
        <time>2011-06-15T16:15:01Z</time>
      </trkpt>
      <trkpt lat="44.35012" lon="2.54167">
        <ele>559.2</ele>
        <time>2011-06-15T16:15:02Z</time>
      </trkpt>
      <trkpt lat="44.35008" lon="2.5417">
        <ele>559.2</ele>
        <time>2011-06-15T16:15:03Z</time>
      </trkpt>
      <trkpt lat="44.35005" lon="2.54172">
        <ele>559.6</ele>
        <time>2011-06-15T16:15:04Z</time>
      </trkpt>
      <trkpt lat="44.35001" lon="2.54174">
        <ele>559.9</ele>
        <time>2011-06-15T16:15:05Z</time>
      </trkpt>
      <trkpt lat="44.34997" lon="2.54175">
        <ele>560.2</ele>
        <time>2011-06-15T16:15:06Z</time>
      </trkpt>
      <trkpt lat="44.34994" lon="2.54177">
        <ele>560.3</ele>
        <time>2011-06-15T16:15:07Z</time>
      </trkpt>
      <trkpt lat="44.3499" lon="2.54178">
        <ele>560.3</ele>
        <time>2011-06-15T16:15:08Z</time>
      </trkpt>
      <trkpt lat="44.34987" lon="2.5418">
        <ele>560.4</ele>
        <time>2011-06-15T16:15:09Z</time>
      </trkpt>
      <trkpt lat="44.34984" lon="2.54181">
        <ele>560.6</ele>
        <time>2011-06-15T16:15:10Z</time>
      </trkpt>
      <trkpt lat="44.3498" lon="2.54183">
        <ele>560.8</ele>
        <time>2011-06-15T16:15:11Z</time>
      </trkpt>
      <trkpt lat="44.34977" lon="2.54184">
        <ele>561</ele>
        <time>2011-06-15T16:15:12Z</time>
      </trkpt>
      <trkpt lat="44.34974" lon="2.54186">
        <ele>561.3</ele>
        <time>2011-06-15T16:15:13Z</time>
      </trkpt>
      <trkpt lat="44.34971" lon="2.54187">
        <ele>561.6</ele>
        <time>2011-06-15T16:15:14Z</time>
      </trkpt>
      <trkpt lat="44.34968" lon="2.54189">
        <ele>561.7</ele>
        <time>2011-06-15T16:15:15Z</time>
      </trkpt>
      <trkpt lat="44.34964" lon="2.54191">
        <ele>561.8</ele>
        <time>2011-06-15T16:15:16Z</time>
      </trkpt>
      <trkpt lat="44.34961" lon="2.54193">
        <ele>561.8</ele>
        <time>2011-06-15T16:15:17Z</time>
      </trkpt>
      <trkpt lat="44.34958" lon="2.54196">
        <ele>561.8</ele>
        <time>2011-06-15T16:15:18Z</time>
      </trkpt>
      <trkpt lat="44.34955" lon="2.54199">
        <ele>561.8</ele>
        <time>2011-06-15T16:15:19Z</time>
      </trkpt>
      <trkpt lat="44.34952" lon="2.54202">
        <ele>561.9</ele>
        <time>2011-06-15T16:15:20Z</time>
      </trkpt>
      <trkpt lat="44.34948" lon="2.54205">
        <ele>562</ele>
        <time>2011-06-15T16:15:21Z</time>
      </trkpt>
      <trkpt lat="44.34945" lon="2.54209">
        <ele>562</ele>
        <time>2011-06-15T16:15:22Z</time>
      </trkpt>
      <trkpt lat="44.34942" lon="2.54213">
        <ele>561.9</ele>
        <time>2011-06-15T16:15:23Z</time>
      </trkpt>
      <trkpt lat="44.34939" lon="2.54216">
        <ele>561.7</ele>
        <time>2011-06-15T16:15:24Z</time>
      </trkpt>
      <trkpt lat="44.34936" lon="2.54219">
        <ele>561.7</ele>
        <time>2011-06-15T16:15:25Z</time>
      </trkpt>
      <trkpt lat="44.34933" lon="2.54223">
        <ele>561.1</ele>
        <time>2011-06-15T16:15:26Z</time>
      </trkpt>
      <trkpt lat="44.3493" lon="2.54226">
        <ele>560.6</ele>
        <time>2011-06-15T16:15:27Z</time>
      </trkpt>
      <trkpt lat="44.34927" lon="2.5423">
        <ele>560.3</ele>
        <time>2011-06-15T16:15:28Z</time>
      </trkpt>
      <trkpt lat="44.34924" lon="2.54233">
        <ele>560.6</ele>
        <time>2011-06-15T16:15:29Z</time>
      </trkpt>
      <trkpt lat="44.34921" lon="2.54237">
        <ele>560.9</ele>
        <time>2011-06-15T16:15:30Z</time>
      </trkpt>
      <trkpt lat="44.34919" lon="2.54241">
        <ele>561.1</ele>
        <time>2011-06-15T16:15:31Z</time>
      </trkpt>
      <trkpt lat="44.34916" lon="2.54246">
        <ele>560.3</ele>
        <time>2011-06-15T16:15:32Z</time>
      </trkpt>
      <trkpt lat="44.34913" lon="2.5425">
        <ele>559.8</ele>
        <time>2011-06-15T16:15:33Z</time>
      </trkpt>
      <trkpt lat="44.34909" lon="2.54256">
        <ele>559.4</ele>
        <time>2011-06-15T16:15:34Z</time>
      </trkpt>
      <trkpt lat="44.34906" lon="2.54261">
        <ele>559.1</ele>
        <time>2011-06-15T16:15:35Z</time>
      </trkpt>
      <trkpt lat="44.34902" lon="2.54267">
        <ele>558.8</ele>
        <time>2011-06-15T16:15:36Z</time>
      </trkpt>
      <trkpt lat="44.34899" lon="2.54273">
        <ele>558.6</ele>
        <time>2011-06-15T16:15:37Z</time>
      </trkpt>
      <trkpt lat="44.34897" lon="2.5428">
        <ele>558.5</ele>
        <time>2011-06-15T16:15:38Z</time>
      </trkpt>
      <trkpt lat="44.34894" lon="2.54288">
        <ele>558.7</ele>
        <time>2011-06-15T16:15:39Z</time>
      </trkpt>
      <trkpt lat="44.34892" lon="2.54295">
        <ele>558.8</ele>
        <time>2011-06-15T16:15:40Z</time>
      </trkpt>
      <trkpt lat="44.3489" lon="2.54302">
        <ele>558.9</ele>
        <time>2011-06-15T16:15:41Z</time>
      </trkpt>
      <trkpt lat="44.34888" lon="2.54309">
        <ele>558.7</ele>
        <time>2011-06-15T16:15:42Z</time>
      </trkpt>
      <trkpt lat="44.34886" lon="2.54316">
        <ele>558.6</ele>
        <time>2011-06-15T16:15:43Z</time>
      </trkpt>
      <trkpt lat="44.34885" lon="2.54323">
        <ele>558.5</ele>
        <time>2011-06-15T16:15:44Z</time>
      </trkpt>
      <trkpt lat="44.34884" lon="2.5433">
        <ele>558.4</ele>
        <time>2011-06-15T16:15:45Z</time>
      </trkpt>
      <trkpt lat="44.34882" lon="2.54336">
        <ele>558.4</ele>
        <time>2011-06-15T16:15:46Z</time>
      </trkpt>
      <trkpt lat="44.34881" lon="2.54343">
        <ele>558.3</ele>
        <time>2011-06-15T16:15:47Z</time>
      </trkpt>
      <trkpt lat="44.34878" lon="2.5435">
        <ele>558.6</ele>
        <time>2011-06-15T16:15:48Z</time>
      </trkpt>
      <trkpt lat="44.34875" lon="2.54355">
        <ele>558.9</ele>
        <time>2011-06-15T16:15:49Z</time>
      </trkpt>
      <trkpt lat="44.34872" lon="2.54361">
        <ele>559</ele>
        <time>2011-06-15T16:15:50Z</time>
      </trkpt>
      <trkpt lat="44.34867" lon="2.54365">
        <ele>559.2</ele>
        <time>2011-06-15T16:15:51Z</time>
      </trkpt>
      <trkpt lat="44.34861" lon="2.54368">
        <ele>558.7</ele>
        <time>2011-06-15T16:15:52Z</time>
      </trkpt>
      <trkpt lat="44.34856" lon="2.54369">
        <ele>558.3</ele>
        <time>2011-06-15T16:15:53Z</time>
      </trkpt>
      <trkpt lat="44.34851" lon="2.5437">
        <ele>558</ele>
        <time>2011-06-15T16:15:54Z</time>
      </trkpt>
      <trkpt lat="44.34846" lon="2.54372">
        <ele>557.9</ele>
        <time>2011-06-15T16:15:55Z</time>
      </trkpt>
      <trkpt lat="44.34841" lon="2.54373">
        <ele>557.9</ele>
        <time>2011-06-15T16:15:56Z</time>
      </trkpt>
      <trkpt lat="44.34837" lon="2.54376">
        <ele>557.9</ele>
        <time>2011-06-15T16:15:57Z</time>
      </trkpt>
      <trkpt lat="44.34833" lon="2.54378">
        <ele>558.2</ele>
        <time>2011-06-15T16:15:58Z</time>
      </trkpt>
      <trkpt lat="44.34828" lon="2.54382">
        <ele>558.4</ele>
        <time>2011-06-15T16:15:59Z</time>
      </trkpt>
      <trkpt lat="44.34825" lon="2.54385">
        <ele>558.5</ele>
        <time>2011-06-15T16:16:00Z</time>
      </trkpt>
      <trkpt lat="44.34821" lon="2.54388">
        <ele>559</ele>
        <time>2011-06-15T16:16:01Z</time>
      </trkpt>
      <trkpt lat="44.34816" lon="2.54391">
        <ele>559.3</ele>
        <time>2011-06-15T16:16:02Z</time>
      </trkpt>
      <trkpt lat="44.34812" lon="2.54392">
        <ele>559.5</ele>
        <time>2011-06-15T16:16:03Z</time>
      </trkpt>
      <trkpt lat="44.34808" lon="2.54392">
        <ele>560</ele>
        <time>2011-06-15T16:16:04Z</time>
      </trkpt>
      <trkpt lat="44.34803" lon="2.54392">
        <ele>560.4</ele>
        <time>2011-06-15T16:16:05Z</time>
      </trkpt>
      <trkpt lat="44.34799" lon="2.54391">
        <ele>560.7</ele>
        <time>2011-06-15T16:16:06Z</time>
      </trkpt>
      <trkpt lat="44.34795" lon="2.5439">
        <ele>560.9</ele>
        <time>2011-06-15T16:16:07Z</time>
      </trkpt>
      <trkpt lat="44.34791" lon="2.54389">
        <ele>561</ele>
        <time>2011-06-15T16:16:08Z</time>
      </trkpt>
      <trkpt lat="44.34787" lon="2.54387">
        <ele>561</ele>
        <time>2011-06-15T16:16:09Z</time>
      </trkpt>
      <trkpt lat="44.34783" lon="2.54386">
        <ele>561</ele>
        <time>2011-06-15T16:16:10Z</time>
      </trkpt>
      <trkpt lat="44.3478" lon="2.54384">
        <ele>561.3</ele>
        <time>2011-06-15T16:16:11Z</time>
      </trkpt>
      <trkpt lat="44.34776" lon="2.54382">
        <ele>561.5</ele>
        <time>2011-06-15T16:16:12Z</time>
      </trkpt>
      <trkpt lat="44.34772" lon="2.5438">
        <ele>561.6</ele>
        <time>2011-06-15T16:16:13Z</time>
      </trkpt>
      <trkpt lat="44.34768" lon="2.54377">
        <ele>562.1</ele>
        <time>2011-06-15T16:16:14Z</time>
      </trkpt>
      <trkpt lat="44.34764" lon="2.54375">
        <ele>562.4</ele>
        <time>2011-06-15T16:16:15Z</time>
      </trkpt>
      <trkpt lat="44.3476" lon="2.54372">
        <ele>562.7</ele>
        <time>2011-06-15T16:16:16Z</time>
      </trkpt>
      <trkpt lat="44.34755" lon="2.54369">
        <ele>562.6</ele>
        <time>2011-06-15T16:16:17Z</time>
      </trkpt>
      <trkpt lat="44.3475" lon="2.54367">
        <ele>562.5</ele>
        <time>2011-06-15T16:16:18Z</time>
      </trkpt>
      <trkpt lat="44.34746" lon="2.54364">
        <ele>562.4</ele>
        <time>2011-06-15T16:16:19Z</time>
      </trkpt>
      <trkpt lat="44.34742" lon="2.54362">
        <ele>562.6</ele>
        <time>2011-06-15T16:16:20Z</time>
      </trkpt>
      <trkpt lat="44.34738" lon="2.54359">
        <ele>562.7</ele>
        <time>2011-06-15T16:16:21Z</time>
      </trkpt>
      <trkpt lat="44.34734" lon="2.54357">
        <ele>562.8</ele>
        <time>2011-06-15T16:16:22Z</time>
      </trkpt>
      <trkpt lat="44.3473" lon="2.54355">
        <ele>562.4</ele>
        <time>2011-06-15T16:16:23Z</time>
      </trkpt>
      <trkpt lat="44.34726" lon="2.54353">
        <ele>562.2</ele>
        <time>2011-06-15T16:16:24Z</time>
      </trkpt>
      <trkpt lat="44.34722" lon="2.54351">
        <ele>562</ele>
        <time>2011-06-15T16:16:25Z</time>
      </trkpt>
      <trkpt lat="44.34718" lon="2.54349">
        <ele>561.9</ele>
        <time>2011-06-15T16:16:26Z</time>
      </trkpt>
      <trkpt lat="44.34714" lon="2.54346">
        <ele>562</ele>
        <time>2011-06-15T16:16:27Z</time>
      </trkpt>
      <trkpt lat="44.3471" lon="2.54343">
        <ele>562.1</ele>
        <time>2011-06-15T16:16:28Z</time>
      </trkpt>
      <trkpt lat="44.34707" lon="2.5434">
        <ele>562.1</ele>
        <time>2011-06-15T16:16:29Z</time>
      </trkpt>
      <trkpt lat="44.34703" lon="2.54337">
        <ele>562.4</ele>
        <time>2011-06-15T16:16:30Z</time>
      </trkpt>
      <trkpt lat="44.34699" lon="2.54334">
        <ele>562.5</ele>
        <time>2011-06-15T16:16:31Z</time>
      </trkpt>
      <trkpt lat="44.34695" lon="2.5433">
        <ele>562.7</ele>
        <time>2011-06-15T16:16:32Z</time>
      </trkpt>
      <trkpt lat="44.34691" lon="2.54327">
        <ele>562.8</ele>
        <time>2011-06-15T16:16:33Z</time>
      </trkpt>
      <trkpt lat="44.34687" lon="2.54324">
        <ele>563</ele>
        <time>2011-06-15T16:16:34Z</time>
      </trkpt>
      <trkpt lat="44.34683" lon="2.54321">
        <ele>563.1</ele>
        <time>2011-06-15T16:16:35Z</time>
      </trkpt>
      <trkpt lat="44.3468" lon="2.54317">
        <ele>562.9</ele>
        <time>2011-06-15T16:16:36Z</time>
      </trkpt>
      <trkpt lat="44.34676" lon="2.54313">
        <ele>562.9</ele>
        <time>2011-06-15T16:16:37Z</time>
      </trkpt>
      <trkpt lat="44.34672" lon="2.5431">
        <ele>562.8</ele>
        <time>2011-06-15T16:16:38Z</time>
      </trkpt>
      <trkpt lat="44.34668" lon="2.54307">
        <ele>562.3</ele>
        <time>2011-06-15T16:16:39Z</time>
      </trkpt>
      <trkpt lat="44.34664" lon="2.54303">
        <ele>561.9</ele>
        <time>2011-06-15T16:16:40Z</time>
      </trkpt>
      <trkpt lat="44.3466" lon="2.543">
        <ele>561.6</ele>
        <time>2011-06-15T16:16:41Z</time>
      </trkpt>
      <trkpt lat="44.34656" lon="2.54297">
        <ele>561.4</ele>
        <time>2011-06-15T16:16:42Z</time>
      </trkpt>
      <trkpt lat="44.34652" lon="2.54294">
        <ele>561.7</ele>
        <time>2011-06-15T16:16:43Z</time>
      </trkpt>
      <trkpt lat="44.34648" lon="2.54292">
        <ele>561.9</ele>
        <time>2011-06-15T16:16:44Z</time>
      </trkpt>
      <trkpt lat="44.34644" lon="2.54288">
        <ele>562.1</ele>
        <time>2011-06-15T16:16:45Z</time>
      </trkpt>
      <trkpt lat="44.3464" lon="2.54285">
        <ele>562.3</ele>
        <time>2011-06-15T16:16:46Z</time>
      </trkpt>
      <trkpt lat="44.34636" lon="2.54282">
        <ele>562.4</ele>
        <time>2011-06-15T16:16:47Z</time>
      </trkpt>
      <trkpt lat="44.34632" lon="2.54278">
        <ele>562.5</ele>
        <time>2011-06-15T16:16:48Z</time>
      </trkpt>
      <trkpt lat="44.34628" lon="2.54275">
        <ele>562.4</ele>
        <time>2011-06-15T16:16:49Z</time>
      </trkpt>
      <trkpt lat="44.34625" lon="2.54271">
        <ele>562.4</ele>
        <time>2011-06-15T16:16:50Z</time>
      </trkpt>
      <trkpt lat="44.34621" lon="2.54268">
        <ele>562.3</ele>
        <time>2011-06-15T16:16:51Z</time>
      </trkpt>
      <trkpt lat="44.34618" lon="2.54264">
        <ele>562.5</ele>
        <time>2011-06-15T16:16:52Z</time>
      </trkpt>
      <trkpt lat="44.34614" lon="2.54261">
        <ele>562.7</ele>
        <time>2011-06-15T16:16:53Z</time>
      </trkpt>
      <trkpt lat="44.3461" lon="2.54258">
        <ele>562.8</ele>
        <time>2011-06-15T16:16:54Z</time>
      </trkpt>
      <trkpt lat="44.34607" lon="2.54254">
        <ele>562.6</ele>
        <time>2011-06-15T16:16:55Z</time>
      </trkpt>
      <trkpt lat="44.34603" lon="2.54251">
        <ele>562.4</ele>
        <time>2011-06-15T16:16:56Z</time>
      </trkpt>
      <trkpt lat="44.346" lon="2.54246">
        <ele>562.3</ele>
        <time>2011-06-15T16:16:57Z</time>
      </trkpt>
      <trkpt lat="44.34596" lon="2.54242">
        <ele>562.2</ele>
        <time>2011-06-15T16:16:58Z</time>
      </trkpt>
      <trkpt lat="44.34593" lon="2.54238">
        <ele>562.1</ele>
        <time>2011-06-15T16:16:59Z</time>
      </trkpt>
      <trkpt lat="44.3459" lon="2.54233">
        <ele>562</ele>
        <time>2011-06-15T16:17:00Z</time>
      </trkpt>
      <trkpt lat="44.34586" lon="2.54229">
        <ele>562</ele>
        <time>2011-06-15T16:17:01Z</time>
      </trkpt>
      <trkpt lat="44.34583" lon="2.54225">
        <ele>562</ele>
        <time>2011-06-15T16:17:02Z</time>
      </trkpt>
      <trkpt lat="44.3458" lon="2.5422">
        <ele>562.1</ele>
        <time>2011-06-15T16:17:03Z</time>
      </trkpt>
      <trkpt lat="44.34577" lon="2.54216">
        <ele>562.2</ele>
        <time>2011-06-15T16:17:04Z</time>
      </trkpt>
      <trkpt lat="44.34573" lon="2.54211">
        <ele>562.3</ele>
        <time>2011-06-15T16:17:05Z</time>
      </trkpt>
      <trkpt lat="44.3457" lon="2.54207">
        <ele>562.4</ele>
        <time>2011-06-15T16:17:06Z</time>
      </trkpt>
      <trkpt lat="44.34566" lon="2.54202">
        <ele>562.5</ele>
        <time>2011-06-15T16:17:07Z</time>
      </trkpt>
      <trkpt lat="44.34563" lon="2.54198">
        <ele>562.4</ele>
        <time>2011-06-15T16:17:08Z</time>
      </trkpt>
      <trkpt lat="44.3456" lon="2.54193">
        <ele>562.3</ele>
        <time>2011-06-15T16:17:09Z</time>
      </trkpt>
      <trkpt lat="44.34557" lon="2.54188">
        <ele>562.2</ele>
        <time>2011-06-15T16:17:10Z</time>
      </trkpt>
      <trkpt lat="44.34553" lon="2.54184">
        <ele>562.2</ele>
        <time>2011-06-15T16:17:11Z</time>
      </trkpt>
      <trkpt lat="44.3455" lon="2.5418">
        <ele>562.1</ele>
        <time>2011-06-15T16:17:12Z</time>
      </trkpt>
      <trkpt lat="44.34546" lon="2.54175">
        <ele>562.1</ele>
        <time>2011-06-15T16:17:13Z</time>
      </trkpt>
      <trkpt lat="44.34543" lon="2.54171">
        <ele>562.1</ele>
        <time>2011-06-15T16:17:14Z</time>
      </trkpt>
      <trkpt lat="44.34539" lon="2.54167">
        <ele>562.1</ele>
        <time>2011-06-15T16:17:15Z</time>
      </trkpt>
      <trkpt lat="44.34535" lon="2.54163">
        <ele>562</ele>
        <time>2011-06-15T16:17:16Z</time>
      </trkpt>
      <trkpt lat="44.34532" lon="2.54159">
        <ele>562</ele>
        <time>2011-06-15T16:17:17Z</time>
      </trkpt>
      <trkpt lat="44.34528" lon="2.54155">
        <ele>562.5</ele>
        <time>2011-06-15T16:17:18Z</time>
      </trkpt>
      <trkpt lat="44.34525" lon="2.54151">
        <ele>562.8</ele>
        <time>2011-06-15T16:17:19Z</time>
      </trkpt>
      <trkpt lat="44.34521" lon="2.54147">
        <ele>563</ele>
        <time>2011-06-15T16:17:20Z</time>
      </trkpt>
      <trkpt lat="44.34518" lon="2.54143">
        <ele>563</ele>
        <time>2011-06-15T16:17:21Z</time>
      </trkpt>
      <trkpt lat="44.34514" lon="2.54139">
        <ele>562.9</ele>
        <time>2011-06-15T16:17:22Z</time>
      </trkpt>
      <trkpt lat="44.34511" lon="2.54135">
        <ele>562.9</ele>
        <time>2011-06-15T16:17:23Z</time>
      </trkpt>
      <trkpt lat="44.34507" lon="2.54132">
        <ele>563</ele>
        <time>2011-06-15T16:17:24Z</time>
      </trkpt>
      <trkpt lat="44.34504" lon="2.54128">
        <ele>563</ele>
        <time>2011-06-15T16:17:25Z</time>
      </trkpt>
      <trkpt lat="44.345" lon="2.54124">
        <ele>563</ele>
        <time>2011-06-15T16:17:26Z</time>
      </trkpt>
      <trkpt lat="44.34497" lon="2.5412">
        <ele>563.4</ele>
        <time>2011-06-15T16:17:27Z</time>
      </trkpt>
      <trkpt lat="44.34494" lon="2.54116">
        <ele>563.8</ele>
        <time>2011-06-15T16:17:28Z</time>
      </trkpt>
      <trkpt lat="44.34491" lon="2.54112">
        <ele>564</ele>
        <time>2011-06-15T16:17:29Z</time>
      </trkpt>
      <trkpt lat="44.34488" lon="2.54109">
        <ele>564.1</ele>
        <time>2011-06-15T16:17:30Z</time>
      </trkpt>
      <trkpt lat="44.34485" lon="2.54106">
        <ele>564.2</ele>
        <time>2011-06-15T16:17:31Z</time>
      </trkpt>
      <trkpt lat="44.34482" lon="2.54102">
        <ele>564.3</ele>
        <time>2011-06-15T16:17:32Z</time>
      </trkpt>
      <trkpt lat="44.34479" lon="2.54099">
        <ele>564.4</ele>
        <time>2011-06-15T16:17:33Z</time>
      </trkpt>
      <trkpt lat="44.34476" lon="2.54096">
        <ele>564.5</ele>
        <time>2011-06-15T16:17:34Z</time>
      </trkpt>
      <trkpt lat="44.34473" lon="2.54092">
        <ele>564.6</ele>
        <time>2011-06-15T16:17:35Z</time>
      </trkpt>
      <trkpt lat="44.3447" lon="2.54089">
        <ele>564.7</ele>
        <time>2011-06-15T16:17:36Z</time>
      </trkpt>
      <trkpt lat="44.34467" lon="2.54085">
        <ele>564.4</ele>
        <time>2011-06-15T16:17:37Z</time>
      </trkpt>
      <trkpt lat="44.34464" lon="2.54081">
        <ele>564.2</ele>
        <time>2011-06-15T16:17:38Z</time>
      </trkpt>
      <trkpt lat="44.34461" lon="2.54078">
        <ele>564.1</ele>
        <time>2011-06-15T16:17:39Z</time>
      </trkpt>
      <trkpt lat="44.34458" lon="2.54075">
        <ele>564.3</ele>
        <time>2011-06-15T16:17:40Z</time>
      </trkpt>
      <trkpt lat="44.34455" lon="2.54071">
        <ele>564.4</ele>
        <time>2011-06-15T16:17:41Z</time>
      </trkpt>
      <trkpt lat="44.34452" lon="2.54068">
        <ele>564.5</ele>
        <time>2011-06-15T16:17:42Z</time>
      </trkpt>
      <trkpt lat="44.34448" lon="2.54065">
        <ele>564.8</ele>
        <time>2011-06-15T16:17:43Z</time>
      </trkpt>
      <trkpt lat="44.34445" lon="2.54062">
        <ele>565</ele>
        <time>2011-06-15T16:17:44Z</time>
      </trkpt>
      <trkpt lat="44.34441" lon="2.54059">
        <ele>565.1</ele>
        <time>2011-06-15T16:17:45Z</time>
      </trkpt>
      <trkpt lat="44.34438" lon="2.54056">
        <ele>565.3</ele>
        <time>2011-06-15T16:17:46Z</time>
      </trkpt>
      <trkpt lat="44.34435" lon="2.54053">
        <ele>565.5</ele>
        <time>2011-06-15T16:17:47Z</time>
      </trkpt>
      <trkpt lat="44.34431" lon="2.5405">
        <ele>565.6</ele>
        <time>2011-06-15T16:17:48Z</time>
      </trkpt>
      <trkpt lat="44.34427" lon="2.54047">
        <ele>565.7</ele>
        <time>2011-06-15T16:17:49Z</time>
      </trkpt>
      <trkpt lat="44.34424" lon="2.54045">
        <ele>565.6</ele>
        <time>2011-06-15T16:17:50Z</time>
      </trkpt>
      <trkpt lat="44.3442" lon="2.54042">
        <ele>565.6</ele>
        <time>2011-06-15T16:17:51Z</time>
      </trkpt>
      <trkpt lat="44.34416" lon="2.5404">
        <ele>565.6</ele>
        <time>2011-06-15T16:17:52Z</time>
      </trkpt>
      <trkpt lat="44.34412" lon="2.54037">
        <ele>565.5</ele>
        <time>2011-06-15T16:17:53Z</time>
      </trkpt>
      <trkpt lat="44.34408" lon="2.54034">
        <ele>565.5</ele>
        <time>2011-06-15T16:17:54Z</time>
      </trkpt>
      <trkpt lat="44.34404" lon="2.54032">
        <ele>565.5</ele>
        <time>2011-06-15T16:17:55Z</time>
      </trkpt>
      <trkpt lat="44.344" lon="2.54029">
        <ele>565.7</ele>
        <time>2011-06-15T16:17:56Z</time>
      </trkpt>
      <trkpt lat="44.34396" lon="2.54026">
        <ele>565.8</ele>
        <time>2011-06-15T16:17:57Z</time>
      </trkpt>
      <trkpt lat="44.34392" lon="2.54024">
        <ele>565.9</ele>
        <time>2011-06-15T16:17:58Z</time>
      </trkpt>
      <trkpt lat="44.34388" lon="2.54021">
        <ele>565.4</ele>
        <time>2011-06-15T16:17:59Z</time>
      </trkpt>
      <trkpt lat="44.34385" lon="2.54018">
        <ele>565</ele>
        <time>2011-06-15T16:18:00Z</time>
      </trkpt>
      <trkpt lat="44.34381" lon="2.54015">
        <ele>564.8</ele>
        <time>2011-06-15T16:18:01Z</time>
      </trkpt>
      <trkpt lat="44.34379" lon="2.54012">
        <ele>564.8</ele>
        <time>2011-06-15T16:18:02Z</time>
      </trkpt>
      <trkpt lat="44.34376" lon="2.54008">
        <ele>564.8</ele>
        <time>2011-06-15T16:18:03Z</time>
      </trkpt>
      <trkpt lat="44.34373" lon="2.54003">
        <ele>564.8</ele>
        <time>2011-06-15T16:18:04Z</time>
      </trkpt>
      <trkpt lat="44.34371" lon="2.53997">
        <ele>564.8</ele>
        <time>2011-06-15T16:18:05Z</time>
      </trkpt>
      <trkpt lat="44.3437" lon="2.5399">
        <ele>565</ele>
        <time>2011-06-15T16:18:06Z</time>
      </trkpt>
      <trkpt lat="44.34369" lon="2.53983">
        <ele>565.1</ele>
        <time>2011-06-15T16:18:07Z</time>
      </trkpt>
      <trkpt lat="44.34369" lon="2.53977">
        <ele>565.2</ele>
        <time>2011-06-15T16:18:08Z</time>
      </trkpt>
      <trkpt lat="44.3437" lon="2.53972">
        <ele>564.8</ele>
        <time>2011-06-15T16:18:09Z</time>
      </trkpt>
      <trkpt lat="44.34372" lon="2.53966">
        <ele>564.5</ele>
        <time>2011-06-15T16:18:10Z</time>
      </trkpt>
      <trkpt lat="44.34375" lon="2.53962">
        <ele>564.2</ele>
        <time>2011-06-15T16:18:11Z</time>
      </trkpt>
      <trkpt lat="44.34377" lon="2.53958">
        <ele>564.3</ele>
        <time>2011-06-15T16:18:12Z</time>
      </trkpt>
      <trkpt lat="44.34379" lon="2.53954">
        <ele>564.4</ele>
        <time>2011-06-15T16:18:13Z</time>
      </trkpt>
      <trkpt lat="44.34381" lon="2.53951">
        <ele>564.4</ele>
        <time>2011-06-15T16:18:14Z</time>
      </trkpt>
      <trkpt lat="44.34384" lon="2.53948">
        <ele>564.7</ele>
        <time>2011-06-15T16:18:15Z</time>
      </trkpt>
      <trkpt lat="44.34386" lon="2.53945">
        <ele>564.8</ele>
        <time>2011-06-15T16:18:16Z</time>
      </trkpt>
      <trkpt lat="44.34388" lon="2.53941">
        <ele>564.9</ele>
        <time>2011-06-15T16:18:17Z</time>
      </trkpt>
      <trkpt lat="44.3439" lon="2.53939">
        <ele>565.4</ele>
        <time>2011-06-15T16:18:18Z</time>
      </trkpt>
      <trkpt lat="44.34392" lon="2.53936">
        <ele>565.8</ele>
        <time>2011-06-15T16:18:19Z</time>
      </trkpt>
      <trkpt lat="44.34394" lon="2.53932">
        <ele>566.1</ele>
        <time>2011-06-15T16:18:20Z</time>
      </trkpt>
      <trkpt lat="44.34396" lon="2.53929">
        <ele>566.3</ele>
        <time>2011-06-15T16:18:21Z</time>
      </trkpt>
      <trkpt lat="44.34398" lon="2.53926">
        <ele>566</ele>
        <time>2011-06-15T16:18:22Z</time>
      </trkpt>
      <trkpt lat="44.344" lon="2.53923">
        <ele>565.8</ele>
        <time>2011-06-15T16:18:23Z</time>
      </trkpt>
      <trkpt lat="44.34402" lon="2.5392">
        <ele>565.6</ele>
        <time>2011-06-15T16:18:24Z</time>
      </trkpt>
      <trkpt lat="44.34404" lon="2.53916">
        <ele>566.1</ele>
        <time>2011-06-15T16:18:25Z</time>
      </trkpt>
      <trkpt lat="44.34405" lon="2.53913">
        <ele>566.4</ele>
        <time>2011-06-15T16:18:26Z</time>
      </trkpt>
      <trkpt lat="44.34407" lon="2.53909">
        <ele>566.7</ele>
        <time>2011-06-15T16:18:27Z</time>
      </trkpt>
      <trkpt lat="44.34409" lon="2.53905">
        <ele>566.2</ele>
        <time>2011-06-15T16:18:28Z</time>
      </trkpt>
      <trkpt lat="44.3441" lon="2.53901">
        <ele>565.8</ele>
        <time>2011-06-15T16:18:29Z</time>
      </trkpt>
      <trkpt lat="44.34412" lon="2.53897">
        <ele>565.5</ele>
        <time>2011-06-15T16:18:30Z</time>
      </trkpt>
      <trkpt lat="44.34414" lon="2.53893">
        <ele>565.8</ele>
        <time>2011-06-15T16:18:31Z</time>
      </trkpt>
      <trkpt lat="44.34415" lon="2.53889">
        <ele>566.1</ele>
        <time>2011-06-15T16:18:32Z</time>
      </trkpt>
      <trkpt lat="44.34417" lon="2.53884">
        <ele>566.2</ele>
        <time>2011-06-15T16:18:33Z</time>
      </trkpt>
      <trkpt lat="44.34418" lon="2.5388">
        <ele>566.4</ele>
        <time>2011-06-15T16:18:34Z</time>
      </trkpt>
      <trkpt lat="44.3442" lon="2.53876">
        <ele>566.6</ele>
        <time>2011-06-15T16:18:35Z</time>
      </trkpt>
      <trkpt lat="44.34421" lon="2.53871">
        <ele>566.7</ele>
        <time>2011-06-15T16:18:36Z</time>
      </trkpt>
      <trkpt lat="44.34423" lon="2.53867">
        <ele>566.8</ele>
        <time>2011-06-15T16:18:37Z</time>
      </trkpt>
      <trkpt lat="44.34424" lon="2.53863">
        <ele>566.7</ele>
        <time>2011-06-15T16:18:38Z</time>
      </trkpt>
      <trkpt lat="44.34426" lon="2.53859">
        <ele>566.6</ele>
        <time>2011-06-15T16:18:39Z</time>
      </trkpt>
      <trkpt lat="44.34427" lon="2.53856">
        <ele>566.5</ele>
        <time>2011-06-15T16:18:40Z</time>
      </trkpt>
      <trkpt lat="44.34429" lon="2.53852">
        <ele>566.4</ele>
        <time>2011-06-15T16:18:41Z</time>
      </trkpt>
      <trkpt lat="44.34431" lon="2.53848">
        <ele>566.3</ele>
        <time>2011-06-15T16:18:42Z</time>
      </trkpt>
      <trkpt lat="44.34432" lon="2.53843">
        <ele>566.3</ele>
        <time>2011-06-15T16:18:43Z</time>
      </trkpt>
      <trkpt lat="44.34434" lon="2.53839">
        <ele>566.6</ele>
        <time>2011-06-15T16:18:44Z</time>
      </trkpt>
      <trkpt lat="44.34435" lon="2.53836">
        <ele>566.8</ele>
        <time>2011-06-15T16:18:45Z</time>
      </trkpt>
      <trkpt lat="44.34437" lon="2.53832">
        <ele>567</ele>
        <time>2011-06-15T16:18:46Z</time>
      </trkpt>
      <trkpt lat="44.34438" lon="2.53828">
        <ele>566.7</ele>
        <time>2011-06-15T16:18:47Z</time>
      </trkpt>
      <trkpt lat="44.3444" lon="2.53825">
        <ele>566.5</ele>
        <time>2011-06-15T16:18:48Z</time>
      </trkpt>
      <trkpt lat="44.34442" lon="2.53821">
        <ele>566.4</ele>
        <time>2011-06-15T16:18:49Z</time>
      </trkpt>
      <trkpt lat="44.34444" lon="2.53816">
        <ele>566.6</ele>
        <time>2011-06-15T16:18:50Z</time>
      </trkpt>
      <trkpt lat="44.34445" lon="2.53812">
        <ele>566.8</ele>
        <time>2011-06-15T16:18:51Z</time>
      </trkpt>
      <trkpt lat="44.34445" lon="2.53808">
        <ele>567</ele>
        <time>2011-06-15T16:18:52Z</time>
      </trkpt>
      <trkpt lat="44.34444" lon="2.53804">
        <ele>567.5</ele>
        <time>2011-06-15T16:18:53Z</time>
      </trkpt>
      <trkpt lat="44.3444" lon="2.53802">
        <ele>568.2</ele>
        <time>2011-06-15T16:18:55Z</time>
      </trkpt>
      <trkpt lat="44.34438" lon="2.53802">
        <ele>568.4</ele>
        <time>2011-06-15T16:18:56Z</time>
      </trkpt>
      <trkpt lat="44.34433" lon="2.53805">
        <ele>568.3</ele>
        <time>2011-06-15T16:18:59Z</time>
      </trkpt>
      <trkpt lat="44.3443" lon="2.53806">
        <ele>568.7</ele>
        <time>2011-06-15T16:19:01Z</time>
      </trkpt>
      <trkpt lat="44.34427" lon="2.5381">
        <ele>568.9</ele>
        <time>2011-06-15T16:19:03Z</time>
      </trkpt>
      <trkpt lat="44.34425" lon="2.53812">
        <ele>568.9</ele>
        <time>2011-06-15T16:19:04Z</time>
      </trkpt>
      <trkpt lat="44.34423" lon="2.53815">
        <ele>568.9</ele>
        <time>2011-06-15T16:19:05Z</time>
      </trkpt>
      <trkpt lat="44.34421" lon="2.53817">
        <ele>569.5</ele>
        <time>2011-06-15T16:19:06Z</time>
      </trkpt>
      <trkpt lat="44.34419" lon="2.53819">
        <ele>569.9</ele>
        <time>2011-06-15T16:19:07Z</time>
      </trkpt>
      <trkpt lat="44.34417" lon="2.5382">
        <ele>570.2</ele>
        <time>2011-06-15T16:19:08Z</time>
      </trkpt>
      <trkpt lat="44.34414" lon="2.53824">
        <ele>571.4</ele>
        <time>2011-06-15T16:19:10Z</time>
      </trkpt>
      <trkpt lat="44.34411" lon="2.53827">
        <ele>572</ele>
        <time>2011-06-15T16:19:12Z</time>
      </trkpt>
      <trkpt lat="44.34407" lon="2.5383">
        <ele>571.6</ele>
        <time>2011-06-15T16:19:14Z</time>
      </trkpt>
      <trkpt lat="44.34405" lon="2.53832">
        <ele>571.4</ele>
        <time>2011-06-15T16:19:15Z</time>
      </trkpt>
      <trkpt lat="44.34403" lon="2.53835">
        <ele>571.6</ele>
        <time>2011-06-15T16:19:16Z</time>
      </trkpt>
      <trkpt lat="44.34401" lon="2.53837">
        <ele>571.8</ele>
        <time>2011-06-15T16:19:17Z</time>
      </trkpt>
      <trkpt lat="44.34399" lon="2.5384">
        <ele>572</ele>
        <time>2011-06-15T16:19:18Z</time>
      </trkpt>
      <trkpt lat="44.34397" lon="2.53842">
        <ele>572.2</ele>
        <time>2011-06-15T16:19:19Z</time>
      </trkpt>
      <trkpt lat="44.34395" lon="2.53845">
        <ele>572.4</ele>
        <time>2011-06-15T16:19:20Z</time>
      </trkpt>
      <trkpt lat="44.34392" lon="2.53847">
        <ele>572.5</ele>
        <time>2011-06-15T16:19:21Z</time>
      </trkpt>
      <trkpt lat="44.3439" lon="2.5385">
        <ele>572.8</ele>
        <time>2011-06-15T16:19:22Z</time>
      </trkpt>
      <trkpt lat="44.34388" lon="2.53852">
        <ele>572.9</ele>
        <time>2011-06-15T16:19:23Z</time>
      </trkpt>
      <trkpt lat="44.34386" lon="2.53854">
        <ele>573.1</ele>
        <time>2011-06-15T16:19:24Z</time>
      </trkpt>
      <trkpt lat="44.34383" lon="2.53856">
        <ele>573.7</ele>
        <time>2011-06-15T16:19:25Z</time>
      </trkpt>
      <trkpt lat="44.3438" lon="2.53858">
        <ele>574.6</ele>
        <time>2011-06-15T16:19:27Z</time>
      </trkpt>
      <trkpt lat="44.34377" lon="2.5386">
        <ele>574.9</ele>
        <time>2011-06-15T16:19:28Z</time>
      </trkpt>
      <trkpt lat="44.34375" lon="2.53861">
        <ele>575</ele>
        <time>2011-06-15T16:19:29Z</time>
      </trkpt>
      <trkpt lat="44.34372" lon="2.53863">
        <ele>575</ele>
        <time>2011-06-15T16:19:30Z</time>
      </trkpt>
      <trkpt lat="44.3437" lon="2.53864">
        <ele>575.1</ele>
        <time>2011-06-15T16:19:31Z</time>
      </trkpt>
      <trkpt lat="44.34367" lon="2.53866">
        <ele>575.1</ele>
        <time>2011-06-15T16:19:32Z</time>
      </trkpt>
      <trkpt lat="44.34365" lon="2.53868">
        <ele>575.1</ele>
        <time>2011-06-15T16:19:33Z</time>
      </trkpt>
      <trkpt lat="44.34362" lon="2.5387">
        <ele>575.1</ele>
        <time>2011-06-15T16:19:34Z</time>
      </trkpt>
      <trkpt lat="44.3436" lon="2.53872">
        <ele>575.2</ele>
        <time>2011-06-15T16:19:35Z</time>
      </trkpt>
      <trkpt lat="44.34358" lon="2.53873">
        <ele>575.4</ele>
        <time>2011-06-15T16:19:36Z</time>
      </trkpt>
      <trkpt lat="44.34355" lon="2.53875">
        <ele>575.4</ele>
        <time>2011-06-15T16:19:37Z</time>
      </trkpt>
      <trkpt lat="44.34353" lon="2.53876">
        <ele>575.6</ele>
        <time>2011-06-15T16:19:38Z</time>
      </trkpt>
      <trkpt lat="44.34351" lon="2.53877">
        <ele>575.8</ele>
        <time>2011-06-15T16:19:39Z</time>
      </trkpt>
      <trkpt lat="44.34349" lon="2.53879">
        <ele>575.9</ele>
        <time>2011-06-15T16:19:40Z</time>
      </trkpt>
      <trkpt lat="44.34346" lon="2.5388">
        <ele>575.9</ele>
        <time>2011-06-15T16:19:41Z</time>
      </trkpt>
      <trkpt lat="44.34344" lon="2.53881">
        <ele>575.8</ele>
        <time>2011-06-15T16:19:42Z</time>
      </trkpt>
      <trkpt lat="44.34341" lon="2.53881">
        <ele>575.8</ele>
        <time>2011-06-15T16:19:43Z</time>
      </trkpt>
      <trkpt lat="44.34339" lon="2.53882">
        <ele>575.8</ele>
        <time>2011-06-15T16:19:44Z</time>
      </trkpt>
      <trkpt lat="44.34336" lon="2.53882">
        <ele>576.2</ele>
        <time>2011-06-15T16:19:45Z</time>
      </trkpt>
      <trkpt lat="44.34334" lon="2.53883">
        <ele>576.5</ele>
        <time>2011-06-15T16:19:46Z</time>
      </trkpt>
      <trkpt lat="44.34332" lon="2.53883">
        <ele>576.7</ele>
        <time>2011-06-15T16:19:47Z</time>
      </trkpt>
      <trkpt lat="44.34329" lon="2.53883">
        <ele>576.7</ele>
        <time>2011-06-15T16:19:48Z</time>
      </trkpt>
      <trkpt lat="44.34327" lon="2.53883">
        <ele>576.8</ele>
        <time>2011-06-15T16:19:49Z</time>
      </trkpt>
      <trkpt lat="44.34325" lon="2.53882">
        <ele>576.8</ele>
        <time>2011-06-15T16:19:50Z</time>
      </trkpt>
      <trkpt lat="44.34322" lon="2.53882">
        <ele>576.9</ele>
        <time>2011-06-15T16:19:51Z</time>
      </trkpt>
      <trkpt lat="44.34318" lon="2.53881">
        <ele>577.2</ele>
        <time>2011-06-15T16:19:53Z</time>
      </trkpt>
      <trkpt lat="44.34314" lon="2.53879">
        <ele>577.8</ele>
        <time>2011-06-15T16:19:55Z</time>
      </trkpt>
      <trkpt lat="44.3431" lon="2.53878">
        <ele>578.5</ele>
        <time>2011-06-15T16:19:57Z</time>
      </trkpt>
      <trkpt lat="44.34307" lon="2.53877">
        <ele>579</ele>
        <time>2011-06-15T16:19:58Z</time>
      </trkpt>
      <trkpt lat="44.34303" lon="2.53875">
        <ele>579.5</ele>
        <time>2011-06-15T16:20:00Z</time>
      </trkpt>
      <trkpt lat="44.34299" lon="2.53872">
        <ele>579.3</ele>
        <time>2011-06-15T16:20:02Z</time>
      </trkpt>
      <trkpt lat="44.34297" lon="2.53868">
        <ele>578.7</ele>
        <time>2011-06-15T16:20:04Z</time>
      </trkpt>
      <trkpt lat="44.34295" lon="2.53864">
        <ele>578</ele>
        <time>2011-06-15T16:20:06Z</time>
      </trkpt>
      <trkpt lat="44.34293" lon="2.53859">
        <ele>579.2</ele>
        <time>2011-06-15T16:20:08Z</time>
      </trkpt>
      <trkpt lat="44.3429" lon="2.53855">
        <ele>579.7</ele>
        <time>2011-06-15T16:20:10Z</time>
      </trkpt>
      <trkpt lat="44.34287" lon="2.53851">
        <ele>579.8</ele>
        <time>2011-06-15T16:20:12Z</time>
      </trkpt>
      <trkpt lat="44.34287" lon="2.53847">
        <ele>580.3</ele>
        <time>2011-06-15T16:20:14Z</time>
      </trkpt>
      <trkpt lat="44.34289" lon="2.53844">
        <ele>580.6</ele>
        <time>2011-06-15T16:20:16Z</time>
      </trkpt>
      <trkpt lat="44.34293" lon="2.53842">
        <ele>581.2</ele>
        <time>2011-06-15T16:20:18Z</time>
      </trkpt>
      <trkpt lat="44.34297" lon="2.53841">
        <ele>581.9</ele>
        <time>2011-06-15T16:20:20Z</time>
      </trkpt>
      <trkpt lat="44.343" lon="2.53841">
        <ele>582.5</ele>
        <time>2011-06-15T16:20:22Z</time>
      </trkpt>
      <trkpt lat="44.34304" lon="2.53839">
        <ele>583.7</ele>
        <time>2011-06-15T16:20:25Z</time>
      </trkpt>
      <trkpt lat="44.34307" lon="2.53838">
        <ele>583.6</ele>
        <time>2011-06-15T16:20:27Z</time>
      </trkpt>
      <trkpt lat="44.34311" lon="2.53837">
        <ele>584</ele>
        <time>2011-06-15T16:20:29Z</time>
      </trkpt>
      <trkpt lat="44.34313" lon="2.53835">
        <ele>584.6</ele>
        <time>2011-06-15T16:20:31Z</time>
      </trkpt>
      <trkpt lat="44.34316" lon="2.53832">
        <ele>585.6</ele>
        <time>2011-06-15T16:20:33Z</time>
      </trkpt>
      <trkpt lat="44.3432" lon="2.53829">
        <ele>586.2</ele>
        <time>2011-06-15T16:20:35Z</time>
      </trkpt>
      <trkpt lat="44.34323" lon="2.53826">
        <ele>586.4</ele>
        <time>2011-06-15T16:20:37Z</time>
      </trkpt>
      <trkpt lat="44.34325" lon="2.53823">
        <ele>586.8</ele>
        <time>2011-06-15T16:20:39Z</time>
      </trkpt>
      <trkpt lat="44.34328" lon="2.53819">
        <ele>587.2</ele>
        <time>2011-06-15T16:20:41Z</time>
      </trkpt>
      <trkpt lat="44.3433" lon="2.53815">
        <ele>588.2</ele>
        <time>2011-06-15T16:20:43Z</time>
      </trkpt>
      <trkpt lat="44.34332" lon="2.53811">
        <ele>588.9</ele>
        <time>2011-06-15T16:20:45Z</time>
      </trkpt>
      <trkpt lat="44.34334" lon="2.53807">
        <ele>589.2</ele>
        <time>2011-06-15T16:20:47Z</time>
      </trkpt>
      <trkpt lat="44.34335" lon="2.53802">
        <ele>589.8</ele>
        <time>2011-06-15T16:20:49Z</time>
      </trkpt>
      <trkpt lat="44.34333" lon="2.53798">
        <ele>590.1</ele>
        <time>2011-06-15T16:20:51Z</time>
      </trkpt>
      <trkpt lat="44.3433" lon="2.53795">
        <ele>590.7</ele>
        <time>2011-06-15T16:20:54Z</time>
      </trkpt>
      <trkpt lat="44.34326" lon="2.53792">
        <ele>591.2</ele>
        <time>2011-06-15T16:20:57Z</time>
      </trkpt>
      <trkpt lat="44.34323" lon="2.5379">
        <ele>591.8</ele>
        <time>2011-06-15T16:20:59Z</time>
      </trkpt>
      <trkpt lat="44.34322" lon="2.53789">
        <ele>592</ele>
        <time>2011-06-15T16:21:00Z</time>
      </trkpt>
      <trkpt lat="44.34317" lon="2.53785">
        <ele>594.1</ele>
        <time>2011-06-15T16:21:04Z</time>
      </trkpt>
      <trkpt lat="44.34314" lon="2.53783">
        <ele>595.2</ele>
        <time>2011-06-15T16:21:06Z</time>
      </trkpt>
      <trkpt lat="44.3431" lon="2.53781">
        <ele>595.3</ele>
        <time>2011-06-15T16:21:09Z</time>
      </trkpt>
      <trkpt lat="44.34307" lon="2.53779">
        <ele>595.2</ele>
        <time>2011-06-15T16:21:11Z</time>
      </trkpt>
      <trkpt lat="44.34304" lon="2.53778">
        <ele>595.3</ele>
        <time>2011-06-15T16:21:13Z</time>
      </trkpt>
      <trkpt lat="44.34301" lon="2.53774">
        <ele>595.8</ele>
        <time>2011-06-15T16:21:16Z</time>
      </trkpt>
      <trkpt lat="44.34297" lon="2.53772">
        <ele>596.5</ele>
        <time>2011-06-15T16:21:19Z</time>
      </trkpt>
      <trkpt lat="44.34293" lon="2.5377">
        <ele>597.6</ele>
        <time>2011-06-15T16:21:22Z</time>
      </trkpt>
      <trkpt lat="44.34289" lon="2.5377">
        <ele>597.9</ele>
        <time>2011-06-15T16:21:24Z</time>
      </trkpt>
      <trkpt lat="44.34285" lon="2.53769">
        <ele>598</ele>
        <time>2011-06-15T16:21:26Z</time>
      </trkpt>
      <trkpt lat="44.34281" lon="2.53769">
        <ele>598.1</ele>
        <time>2011-06-15T16:21:28Z</time>
      </trkpt>
      <trkpt lat="44.34278" lon="2.53768">
        <ele>598.2</ele>
        <time>2011-06-15T16:21:29Z</time>
      </trkpt>
      <trkpt lat="44.34276" lon="2.53767">
        <ele>598.5</ele>
        <time>2011-06-15T16:21:30Z</time>
      </trkpt>
      <trkpt lat="44.34273" lon="2.53767">
        <ele>598.7</ele>
        <time>2011-06-15T16:21:31Z</time>
      </trkpt>
      <trkpt lat="44.3427" lon="2.53766">
        <ele>598.9</ele>
        <time>2011-06-15T16:21:32Z</time>
      </trkpt>
      <trkpt lat="44.34267" lon="2.53766">
        <ele>598.7</ele>
        <time>2011-06-15T16:21:33Z</time>
      </trkpt>
      <trkpt lat="44.34264" lon="2.53765">
        <ele>598.5</ele>
        <time>2011-06-15T16:21:34Z</time>
      </trkpt>
      <trkpt lat="44.3426" lon="2.53764">
        <ele>598.3</ele>
        <time>2011-06-15T16:21:35Z</time>
      </trkpt>
      <trkpt lat="44.34257" lon="2.53763">
        <ele>598.3</ele>
        <time>2011-06-15T16:21:36Z</time>
      </trkpt>
      <trkpt lat="44.34253" lon="2.53762">
        <ele>598.3</ele>
        <time>2011-06-15T16:21:37Z</time>
      </trkpt>
      <trkpt lat="44.34249" lon="2.53761">
        <ele>598.3</ele>
        <time>2011-06-15T16:21:38Z</time>
      </trkpt>
      <trkpt lat="44.34246" lon="2.5376">
        <ele>597.9</ele>
        <time>2011-06-15T16:21:39Z</time>
      </trkpt>
      <trkpt lat="44.34243" lon="2.53759">
        <ele>597.7</ele>
        <time>2011-06-15T16:21:40Z</time>
      </trkpt>
      <trkpt lat="44.34239" lon="2.53758">
        <ele>597.5</ele>
        <time>2011-06-15T16:21:41Z</time>
      </trkpt>
      <trkpt lat="44.34235" lon="2.53756">
        <ele>597.3</ele>
        <time>2011-06-15T16:21:42Z</time>
      </trkpt>
      <trkpt lat="44.34232" lon="2.53754">
        <ele>597.3</ele>
        <time>2011-06-15T16:21:43Z</time>
      </trkpt>
      <trkpt lat="44.34228" lon="2.53752">
        <ele>597.3</ele>
        <time>2011-06-15T16:21:44Z</time>
      </trkpt>
      <trkpt lat="44.34225" lon="2.5375">
        <ele>597.3</ele>
        <time>2011-06-15T16:21:45Z</time>
      </trkpt>
      <trkpt lat="44.34222" lon="2.53748">
        <ele>597.2</ele>
        <time>2011-06-15T16:21:46Z</time>
      </trkpt>
      <trkpt lat="44.3422" lon="2.53745">
        <ele>597.2</ele>
        <time>2011-06-15T16:21:47Z</time>
      </trkpt>
      <trkpt lat="44.34217" lon="2.53743">
        <ele>597.1</ele>
        <time>2011-06-15T16:21:48Z</time>
      </trkpt>
      <trkpt lat="44.34215" lon="2.5374">
        <ele>597.3</ele>
        <time>2011-06-15T16:21:49Z</time>
      </trkpt>
      <trkpt lat="44.34212" lon="2.53738">
        <ele>597.4</ele>
        <time>2011-06-15T16:21:50Z</time>
      </trkpt>
      <trkpt lat="44.34209" lon="2.53736">
        <ele>597.5</ele>
        <time>2011-06-15T16:21:51Z</time>
      </trkpt>
      <trkpt lat="44.34207" lon="2.53733">
        <ele>597.6</ele>
        <time>2011-06-15T16:21:52Z</time>
      </trkpt>
      <trkpt lat="44.34205" lon="2.53731">
        <ele>597.7</ele>
        <time>2011-06-15T16:21:53Z</time>
      </trkpt>
      <trkpt lat="44.34203" lon="2.53728">
        <ele>597.8</ele>
        <time>2011-06-15T16:21:54Z</time>
      </trkpt>
      <trkpt lat="44.342" lon="2.53726">
        <ele>597.7</ele>
        <time>2011-06-15T16:21:55Z</time>
      </trkpt>
      <trkpt lat="44.34198" lon="2.53724">
        <ele>597.6</ele>
        <time>2011-06-15T16:21:56Z</time>
      </trkpt>
      <trkpt lat="44.34195" lon="2.53722">
        <ele>597.6</ele>
        <time>2011-06-15T16:21:57Z</time>
      </trkpt>
      <trkpt lat="44.34193" lon="2.53721">
        <ele>597.5</ele>
        <time>2011-06-15T16:21:58Z</time>
      </trkpt>
      <trkpt lat="44.34189" lon="2.5372">
        <ele>597.9</ele>
        <time>2011-06-15T16:21:59Z</time>
      </trkpt>
      <trkpt lat="44.34185" lon="2.53719">
        <ele>598.1</ele>
        <time>2011-06-15T16:22:00Z</time>
      </trkpt>
      <trkpt lat="44.34181" lon="2.53719">
        <ele>598.3</ele>
        <time>2011-06-15T16:22:01Z</time>
      </trkpt>
      <trkpt lat="44.34178" lon="2.53719">
        <ele>598.2</ele>
        <time>2011-06-15T16:22:02Z</time>
      </trkpt>
      <trkpt lat="44.34175" lon="2.53719">
        <ele>598.1</ele>
        <time>2011-06-15T16:22:03Z</time>
      </trkpt>
      <trkpt lat="44.34172" lon="2.53719">
        <ele>598</ele>
        <time>2011-06-15T16:22:04Z</time>
      </trkpt>
      <trkpt lat="44.34169" lon="2.53719">
        <ele>598</ele>
        <time>2011-06-15T16:22:05Z</time>
      </trkpt>
      <trkpt lat="44.34166" lon="2.53719">
        <ele>598</ele>
        <time>2011-06-15T16:22:06Z</time>
      </trkpt>
      <trkpt lat="44.34163" lon="2.53719">
        <ele>598</ele>
        <time>2011-06-15T16:22:07Z</time>
      </trkpt>
      <trkpt lat="44.34159" lon="2.5372">
        <ele>598.1</ele>
        <time>2011-06-15T16:22:08Z</time>
      </trkpt>
      <trkpt lat="44.34156" lon="2.5372">
        <ele>598.2</ele>
        <time>2011-06-15T16:22:09Z</time>
      </trkpt>
      <trkpt lat="44.34153" lon="2.53721">
        <ele>598.3</ele>
        <time>2011-06-15T16:22:10Z</time>
      </trkpt>
      <trkpt lat="44.34149" lon="2.53721">
        <ele>598.8</ele>
        <time>2011-06-15T16:22:11Z</time>
      </trkpt>
      <trkpt lat="44.34146" lon="2.53721">
        <ele>599.1</ele>
        <time>2011-06-15T16:22:12Z</time>
      </trkpt>
      <trkpt lat="44.34142" lon="2.53722">
        <ele>599.4</ele>
        <time>2011-06-15T16:22:13Z</time>
      </trkpt>
      <trkpt lat="44.34139" lon="2.53722">
        <ele>599.6</ele>
        <time>2011-06-15T16:22:14Z</time>
      </trkpt>
      <trkpt lat="44.34135" lon="2.53722">
        <ele>599.4</ele>
        <time>2011-06-15T16:22:15Z</time>
      </trkpt>
      <trkpt lat="44.34132" lon="2.53722">
        <ele>599.3</ele>
        <time>2011-06-15T16:22:16Z</time>
      </trkpt>
      <trkpt lat="44.34128" lon="2.53722">
        <ele>599.2</ele>
        <time>2011-06-15T16:22:17Z</time>
      </trkpt>
      <trkpt lat="44.34124" lon="2.53722">
        <ele>598.8</ele>
        <time>2011-06-15T16:22:18Z</time>
      </trkpt>
      <trkpt lat="44.3412" lon="2.53723">
        <ele>598.5</ele>
        <time>2011-06-15T16:22:19Z</time>
      </trkpt>
      <trkpt lat="44.34117" lon="2.53723">
        <ele>598.3</ele>
        <time>2011-06-15T16:22:20Z</time>
      </trkpt>
      <trkpt lat="44.34113" lon="2.53723">
        <ele>597.7</ele>
        <time>2011-06-15T16:22:21Z</time>
      </trkpt>
      <trkpt lat="44.34109" lon="2.53723">
        <ele>597.2</ele>
        <time>2011-06-15T16:22:22Z</time>
      </trkpt>
      <trkpt lat="44.34106" lon="2.53724">
        <ele>596.8</ele>
        <time>2011-06-15T16:22:23Z</time>
      </trkpt>
      <trkpt lat="44.34102" lon="2.53725">
        <ele>596.9</ele>
        <time>2011-06-15T16:22:24Z</time>
      </trkpt>
      <trkpt lat="44.34098" lon="2.53725">
        <ele>597</ele>
        <time>2011-06-15T16:22:25Z</time>
      </trkpt>
      <trkpt lat="44.34094" lon="2.53726">
        <ele>597</ele>
        <time>2011-06-15T16:22:26Z</time>
      </trkpt>
      <trkpt lat="44.34091" lon="2.53727">
        <ele>596.8</ele>
        <time>2011-06-15T16:22:27Z</time>
      </trkpt>
      <trkpt lat="44.34087" lon="2.53727">
        <ele>596.6</ele>
        <time>2011-06-15T16:22:28Z</time>
      </trkpt>
      <trkpt lat="44.34083" lon="2.53728">
        <ele>596.5</ele>
        <time>2011-06-15T16:22:29Z</time>
      </trkpt>
      <trkpt lat="44.3408" lon="2.53728">
        <ele>596.4</ele>
        <time>2011-06-15T16:22:30Z</time>
      </trkpt>
      <trkpt lat="44.34076" lon="2.53729">
        <ele>596.8</ele>
        <time>2011-06-15T16:22:31Z</time>
      </trkpt>
      <trkpt lat="44.34072" lon="2.5373">
        <ele>597.1</ele>
        <time>2011-06-15T16:22:32Z</time>
      </trkpt>
      <trkpt lat="44.34068" lon="2.53731">
        <ele>597.3</ele>
        <time>2011-06-15T16:22:33Z</time>
      </trkpt>
      <trkpt lat="44.34064" lon="2.53731">
        <ele>597.5</ele>
        <time>2011-06-15T16:22:34Z</time>
      </trkpt>
      <trkpt lat="44.3406" lon="2.53731">
        <ele>597.7</ele>
        <time>2011-06-15T16:22:35Z</time>
      </trkpt>
      <trkpt lat="44.34056" lon="2.53731">
        <ele>597.8</ele>
        <time>2011-06-15T16:22:36Z</time>
      </trkpt>
      <trkpt lat="44.34053" lon="2.53729">
        <ele>598.1</ele>
        <time>2011-06-15T16:22:37Z</time>
      </trkpt>
      <trkpt lat="44.3405" lon="2.53728">
        <ele>598.4</ele>
        <time>2011-06-15T16:22:38Z</time>
      </trkpt>
      <trkpt lat="44.34046" lon="2.53727">
        <ele>598.7</ele>
        <time>2011-06-15T16:22:39Z</time>
      </trkpt>
      <trkpt lat="44.34042" lon="2.53726">
        <ele>598.5</ele>
        <time>2011-06-15T16:22:41Z</time>
      </trkpt>
      <trkpt lat="44.34038" lon="2.53727">
        <ele>599.1</ele>
        <time>2011-06-15T16:22:44Z</time>
      </trkpt>
      <trkpt lat="44.34034" lon="2.53726">
        <ele>600.1</ele>
        <time>2011-06-15T16:22:46Z</time>
      </trkpt>
      <trkpt lat="44.34031" lon="2.53725">
        <ele>601.1</ele>
        <time>2011-06-15T16:22:48Z</time>
      </trkpt>
      <trkpt lat="44.34027" lon="2.53725">
        <ele>601.8</ele>
        <time>2011-06-15T16:22:50Z</time>
      </trkpt>
      <trkpt lat="44.34023" lon="2.53724">
        <ele>602.2</ele>
        <time>2011-06-15T16:22:52Z</time>
      </trkpt>
      <trkpt lat="44.34019" lon="2.53724">
        <ele>603.3</ele>
        <time>2011-06-15T16:22:54Z</time>
      </trkpt>
      <trkpt lat="44.34015" lon="2.53725">
        <ele>603.6</ele>
        <time>2011-06-15T16:22:56Z</time>
      </trkpt>
      <trkpt lat="44.34013" lon="2.53725">
        <ele>603.5</ele>
        <time>2011-06-15T16:22:57Z</time>
      </trkpt>
      <trkpt lat="44.3401" lon="2.53725">
        <ele>603.4</ele>
        <time>2011-06-15T16:22:58Z</time>
      </trkpt>
      <trkpt lat="44.34007" lon="2.53726">
        <ele>603.7</ele>
        <time>2011-06-15T16:22:59Z</time>
      </trkpt>
      <trkpt lat="44.34004" lon="2.53726">
        <ele>603.8</ele>
        <time>2011-06-15T16:23:00Z</time>
      </trkpt>
      <trkpt lat="44.34001" lon="2.53727">
        <ele>603.9</ele>
        <time>2011-06-15T16:23:01Z</time>
      </trkpt>
      <trkpt lat="44.33998" lon="2.53727">
        <ele>604</ele>
        <time>2011-06-15T16:23:02Z</time>
      </trkpt>
      <trkpt lat="44.33995" lon="2.53727">
        <ele>604.1</ele>
        <time>2011-06-15T16:23:03Z</time>
      </trkpt>
      <trkpt lat="44.33992" lon="2.53727">
        <ele>604.2</ele>
        <time>2011-06-15T16:23:04Z</time>
      </trkpt>
      <trkpt lat="44.33989" lon="2.53727">
        <ele>604.3</ele>
        <time>2011-06-15T16:23:05Z</time>
      </trkpt>
      <trkpt lat="44.33986" lon="2.53727">
        <ele>604.1</ele>
        <time>2011-06-15T16:23:06Z</time>
      </trkpt>
      <trkpt lat="44.33984" lon="2.53726">
        <ele>603.9</ele>
        <time>2011-06-15T16:23:07Z</time>
      </trkpt>
      <trkpt lat="44.3398" lon="2.53725">
        <ele>604.1</ele>
        <time>2011-06-15T16:23:09Z</time>
      </trkpt>
      <trkpt lat="44.33976" lon="2.53725">
        <ele>604.4</ele>
        <time>2011-06-15T16:23:11Z</time>
      </trkpt>
      <trkpt lat="44.33972" lon="2.53724">
        <ele>605.1</ele>
        <time>2011-06-15T16:23:13Z</time>
      </trkpt>
      <trkpt lat="44.33968" lon="2.53724">
        <ele>605.4</ele>
        <time>2011-06-15T16:23:15Z</time>
      </trkpt>
      <trkpt lat="44.33964" lon="2.53723">
        <ele>605.4</ele>
        <time>2011-06-15T16:23:17Z</time>
      </trkpt>
      <trkpt lat="44.3396" lon="2.53722">
        <ele>606.2</ele>
        <time>2011-06-15T16:23:19Z</time>
      </trkpt>
      <trkpt lat="44.33955" lon="2.53722">
        <ele>606.7</ele>
        <time>2011-06-15T16:23:21Z</time>
      </trkpt>
      <trkpt lat="44.33951" lon="2.53722">
        <ele>606.7</ele>
        <time>2011-06-15T16:23:23Z</time>
      </trkpt>
      <trkpt lat="44.33949" lon="2.53722">
        <ele>606.8</ele>
        <time>2011-06-15T16:23:24Z</time>
      </trkpt>
      <trkpt lat="44.33945" lon="2.53721">
        <ele>607.2</ele>
        <time>2011-06-15T16:23:26Z</time>
      </trkpt>
      <trkpt lat="44.33941" lon="2.53721">
        <ele>607.5</ele>
        <time>2011-06-15T16:23:28Z</time>
      </trkpt>
      <trkpt lat="44.33937" lon="2.53721">
        <ele>607.7</ele>
        <time>2011-06-15T16:23:30Z</time>
      </trkpt>
      <trkpt lat="44.33934" lon="2.53721">
        <ele>607.3</ele>
        <time>2011-06-15T16:23:32Z</time>
      </trkpt>
      <trkpt lat="44.3393" lon="2.53721">
        <ele>607.5</ele>
        <time>2011-06-15T16:23:34Z</time>
      </trkpt>
      <trkpt lat="44.33926" lon="2.53721">
        <ele>607.7</ele>
        <time>2011-06-15T16:23:36Z</time>
      </trkpt>
      <trkpt lat="44.33922" lon="2.53721">
        <ele>608</ele>
        <time>2011-06-15T16:23:39Z</time>
      </trkpt>
      <trkpt lat="44.33919" lon="2.53721">
        <ele>608.4</ele>
        <time>2011-06-15T16:23:41Z</time>
      </trkpt>
      <trkpt lat="44.33915" lon="2.5372">
        <ele>608.8</ele>
        <time>2011-06-15T16:23:43Z</time>
      </trkpt>
      <trkpt lat="44.33911" lon="2.5372">
        <ele>609.1</ele>
        <time>2011-06-15T16:23:45Z</time>
      </trkpt>
      <trkpt lat="44.33908" lon="2.53721">
        <ele>609.4</ele>
        <time>2011-06-15T16:23:47Z</time>
      </trkpt>
      <trkpt lat="44.33903" lon="2.5372">
        <ele>609.5</ele>
        <time>2011-06-15T16:23:49Z</time>
      </trkpt>
      <trkpt lat="44.339" lon="2.53719">
        <ele>610.6</ele>
        <time>2011-06-15T16:23:51Z</time>
      </trkpt>
      <trkpt lat="44.33897" lon="2.53717">
        <ele>611.2</ele>
        <time>2011-06-15T16:23:53Z</time>
      </trkpt>
      <trkpt lat="44.33894" lon="2.53713">
        <ele>610</ele>
        <time>2011-06-15T16:23:56Z</time>
      </trkpt>
      <trkpt lat="44.33892" lon="2.53708">
        <ele>609.8</ele>
        <time>2011-06-15T16:24:12Z</time>
      </trkpt>
      <trkpt lat="44.33892" lon="2.53708">
        <ele>609.9</ele>
        <time>2011-06-15T16:24:13Z</time>
      </trkpt>
      <trkpt lat="44.33887" lon="2.53699">
        <ele>610.8</ele>
        <time>2011-06-15T16:25:06Z</time>
      </trkpt>
      <trkpt lat="44.33883" lon="2.53699">
        <ele>610.7</ele>
        <time>2011-06-15T16:25:17Z</time>
      </trkpt>
      <trkpt lat="44.33882" lon="2.53698">
        <ele>610.7</ele>
        <time>2011-06-15T16:25:18Z</time>
      </trkpt>
      <trkpt lat="44.33878" lon="2.53692">
        <ele>609.8</ele>
        <time>2011-06-15T16:25:22Z</time>
      </trkpt>
      <trkpt lat="44.33874" lon="2.53691">
        <ele>608.3</ele>
        <time>2011-06-15T16:25:26Z</time>
      </trkpt>
      <trkpt lat="44.33871" lon="2.53692">
        <ele>607.3</ele>
        <time>2011-06-15T16:25:28Z</time>
      </trkpt>
      <trkpt lat="44.33867" lon="2.5369">
        <ele>606.5</ele>
        <time>2011-06-15T16:25:30Z</time>
      </trkpt>
      <trkpt lat="44.33865" lon="2.53688">
        <ele>602.5</ele>
        <time>2011-06-15T16:25:37Z</time>
      </trkpt>
      <trkpt lat="44.33861" lon="2.53687">
        <ele>601.9</ele>
        <time>2011-06-15T16:25:39Z</time>
      </trkpt>
      <trkpt lat="44.33859" lon="2.5369">
        <ele>601.4</ele>
        <time>2011-06-15T16:25:41Z</time>
      </trkpt>
      <trkpt lat="44.33857" lon="2.53696">
        <ele>599.8</ele>
        <time>2011-06-15T16:25:43Z</time>
      </trkpt>
      <trkpt lat="44.33856" lon="2.53702">
        <ele>598.8</ele>
        <time>2011-06-15T16:25:45Z</time>
      </trkpt>
      <trkpt lat="44.33854" lon="2.53707">
        <ele>598.1</ele>
        <time>2011-06-15T16:25:47Z</time>
      </trkpt>
      <trkpt lat="44.33852" lon="2.53712">
        <ele>596.4</ele>
        <time>2011-06-15T16:25:49Z</time>
      </trkpt>
      <trkpt lat="44.33851" lon="2.53715">
        <ele>595.8</ele>
        <time>2011-06-15T16:25:50Z</time>
      </trkpt>
      <trkpt lat="44.3385" lon="2.53719">
        <ele>595.4</ele>
        <time>2011-06-15T16:25:51Z</time>
      </trkpt>
      <trkpt lat="44.33849" lon="2.53723">
        <ele>595.2</ele>
        <time>2011-06-15T16:25:52Z</time>
      </trkpt>
      <trkpt lat="44.33848" lon="2.53726">
        <ele>595.1</ele>
        <time>2011-06-15T16:25:53Z</time>
      </trkpt>
      <trkpt lat="44.33847" lon="2.5373">
        <ele>595</ele>
        <time>2011-06-15T16:25:54Z</time>
      </trkpt>
      <trkpt lat="44.33847" lon="2.53736">
        <ele>592.2</ele>
        <time>2011-06-15T16:25:56Z</time>
      </trkpt>
      <trkpt lat="44.33845" lon="2.5374">
        <ele>590.8</ele>
        <time>2011-06-15T16:25:58Z</time>
      </trkpt>
      <trkpt lat="44.33841" lon="2.53743">
        <ele>590.2</ele>
        <time>2011-06-15T16:26:00Z</time>
      </trkpt>
      <trkpt lat="44.33838" lon="2.5374">
        <ele>588.8</ele>
        <time>2011-06-15T16:26:02Z</time>
      </trkpt>
      <trkpt lat="44.33833" lon="2.5374">
        <ele>587</ele>
        <time>2011-06-15T16:26:04Z</time>
      </trkpt>
      <trkpt lat="44.3383" lon="2.53744">
        <ele>585.3</ele>
        <time>2011-06-15T16:26:06Z</time>
      </trkpt>
      <trkpt lat="44.33828" lon="2.53747">
        <ele>584.7</ele>
        <time>2011-06-15T16:26:07Z</time>
      </trkpt>
      <trkpt lat="44.33826" lon="2.53749">
        <ele>583.5</ele>
        <time>2011-06-15T16:26:08Z</time>
      </trkpt>
      <trkpt lat="44.33823" lon="2.53752">
        <ele>582.5</ele>
        <time>2011-06-15T16:26:09Z</time>
      </trkpt>
      <trkpt lat="44.3382" lon="2.53754">
        <ele>581.8</ele>
        <time>2011-06-15T16:26:10Z</time>
      </trkpt>
      <trkpt lat="44.33817" lon="2.53753">
        <ele>580.4</ele>
        <time>2011-06-15T16:26:11Z</time>
      </trkpt>
      <trkpt lat="44.33814" lon="2.53752">
        <ele>579.3</ele>
        <time>2011-06-15T16:26:12Z</time>
      </trkpt>
      <trkpt lat="44.33811" lon="2.5375">
        <ele>578.4</ele>
        <time>2011-06-15T16:26:13Z</time>
      </trkpt>
      <trkpt lat="44.33807" lon="2.53748">
        <ele>576.5</ele>
        <time>2011-06-15T16:26:14Z</time>
      </trkpt>
      <trkpt lat="44.33804" lon="2.53745">
        <ele>575.1</ele>
        <time>2011-06-15T16:26:15Z</time>
      </trkpt>
      <trkpt lat="44.33801" lon="2.53741">
        <ele>574</ele>
        <time>2011-06-15T16:26:16Z</time>
      </trkpt>
      <trkpt lat="44.33798" lon="2.53736">
        <ele>572.2</ele>
        <time>2011-06-15T16:26:17Z</time>
      </trkpt>
      <trkpt lat="44.33797" lon="2.53732">
        <ele>570.7</ele>
        <time>2011-06-15T16:26:18Z</time>
      </trkpt>
      <trkpt lat="44.33797" lon="2.53729">
        <ele>569.7</ele>
        <time>2011-06-15T16:26:19Z</time>
      </trkpt>
      <trkpt lat="44.33793" lon="2.53742">
        <ele>564.3</ele>
        <time>2011-06-15T16:27:03Z</time>
      </trkpt>
      <trkpt lat="44.3379" lon="2.53747">
        <ele>564.5</ele>
        <time>2011-06-15T16:27:22Z</time>
      </trkpt>
      <trkpt lat="44.3379" lon="2.53747">
        <ele>564.6</ele>
        <time>2011-06-15T16:27:23Z</time>
      </trkpt>
      <trkpt lat="44.33793" lon="2.53738">
        <ele>564.7</ele>
        <time>2011-06-15T16:28:13Z</time>
      </trkpt>
      <trkpt lat="44.33794" lon="2.53733">
        <ele>564.5</ele>
        <time>2011-06-15T16:28:15Z</time>
      </trkpt>
      <trkpt lat="44.33796" lon="2.53727">
        <ele>564</ele>
        <time>2011-06-15T16:28:17Z</time>
      </trkpt>
      <trkpt lat="44.33796" lon="2.53723">
        <ele>563.9</ele>
        <time>2011-06-15T16:28:18Z</time>
      </trkpt>
      <trkpt lat="44.33796" lon="2.5372">
        <ele>563.7</ele>
        <time>2011-06-15T16:28:19Z</time>
      </trkpt>
      <trkpt lat="44.33796" lon="2.53715">
        <ele>563.5</ele>
        <time>2011-06-15T16:28:20Z</time>
      </trkpt>
      <trkpt lat="44.33796" lon="2.53709">
        <ele>563.4</ele>
        <time>2011-06-15T16:28:21Z</time>
      </trkpt>
      <trkpt lat="44.33796" lon="2.53702">
        <ele>563.4</ele>
        <time>2011-06-15T16:28:22Z</time>
      </trkpt>
      <trkpt lat="44.33797" lon="2.53695">
        <ele>563.5</ele>
        <time>2011-06-15T16:28:23Z</time>
      </trkpt>
      <trkpt lat="44.33797" lon="2.53687">
        <ele>563.5</ele>
        <time>2011-06-15T16:28:24Z</time>
      </trkpt>
      <trkpt lat="44.33797" lon="2.5368">
        <ele>563.2</ele>
        <time>2011-06-15T16:28:25Z</time>
      </trkpt>
      <trkpt lat="44.33798" lon="2.53673">
        <ele>563</ele>
        <time>2011-06-15T16:28:26Z</time>
      </trkpt>
      <trkpt lat="44.33798" lon="2.53666">
        <ele>562.9</ele>
        <time>2011-06-15T16:28:27Z</time>
      </trkpt>
      <trkpt lat="44.33798" lon="2.53659">
        <ele>562.7</ele>
        <time>2011-06-15T16:28:28Z</time>
      </trkpt>
      <trkpt lat="44.33798" lon="2.53652">
        <ele>562.6</ele>
        <time>2011-06-15T16:28:29Z</time>
      </trkpt>
      <trkpt lat="44.33799" lon="2.53644">
        <ele>562.5</ele>
        <time>2011-06-15T16:28:30Z</time>
      </trkpt>
      <trkpt lat="44.33799" lon="2.53637">
        <ele>562.1</ele>
        <time>2011-06-15T16:28:31Z</time>
      </trkpt>
      <trkpt lat="44.33798" lon="2.53629">
        <ele>561.7</ele>
        <time>2011-06-15T16:28:32Z</time>
      </trkpt>
      <trkpt lat="44.33798" lon="2.53621">
        <ele>561.5</ele>
        <time>2011-06-15T16:28:33Z</time>
      </trkpt>
      <trkpt lat="44.33797" lon="2.53613">
        <ele>561.2</ele>
        <time>2011-06-15T16:28:34Z</time>
      </trkpt>
      <trkpt lat="44.33796" lon="2.53605">
        <ele>560.9</ele>
        <time>2011-06-15T16:28:35Z</time>
      </trkpt>
      <trkpt lat="44.33796" lon="2.53596">
        <ele>560.7</ele>
        <time>2011-06-15T16:28:36Z</time>
      </trkpt>
      <trkpt lat="44.33795" lon="2.53588">
        <ele>560.6</ele>
        <time>2011-06-15T16:28:37Z</time>
      </trkpt>
      <trkpt lat="44.33795" lon="2.53581">
        <ele>560.6</ele>
        <time>2011-06-15T16:28:38Z</time>
      </trkpt>
      <trkpt lat="44.33794" lon="2.53573">
        <ele>560.6</ele>
        <time>2011-06-15T16:28:39Z</time>
      </trkpt>
      <trkpt lat="44.33794" lon="2.53567">
        <ele>560.6</ele>
        <time>2011-06-15T16:28:40Z</time>
      </trkpt>
      <trkpt lat="44.33793" lon="2.53561">
        <ele>560.6</ele>
        <time>2011-06-15T16:28:41Z</time>
      </trkpt>
      <trkpt lat="44.33792" lon="2.53556">
        <ele>560.5</ele>
        <time>2011-06-15T16:28:42Z</time>
      </trkpt>
      <trkpt lat="44.33791" lon="2.5355">
        <ele>560.5</ele>
        <time>2011-06-15T16:28:43Z</time>
      </trkpt>
      <trkpt lat="44.33789" lon="2.53545">
        <ele>560.6</ele>
        <time>2011-06-15T16:28:44Z</time>
      </trkpt>
      <trkpt lat="44.33787" lon="2.5354">
        <ele>560.6</ele>
        <time>2011-06-15T16:28:45Z</time>
      </trkpt>
      <trkpt lat="44.33785" lon="2.53535">
        <ele>560.7</ele>
        <time>2011-06-15T16:28:46Z</time>
      </trkpt>
      <trkpt lat="44.33783" lon="2.53529">
        <ele>560.9</ele>
        <time>2011-06-15T16:28:47Z</time>
      </trkpt>
      <trkpt lat="44.3378" lon="2.53524">
        <ele>561.1</ele>
        <time>2011-06-15T16:28:48Z</time>
      </trkpt>
      <trkpt lat="44.33777" lon="2.53518">
        <ele>561.2</ele>
        <time>2011-06-15T16:28:49Z</time>
      </trkpt>
      <trkpt lat="44.33774" lon="2.53513">
        <ele>560.7</ele>
        <time>2011-06-15T16:28:50Z</time>
      </trkpt>
      <trkpt lat="44.33771" lon="2.53507">
        <ele>560.3</ele>
        <time>2011-06-15T16:28:51Z</time>
      </trkpt>
      <trkpt lat="44.33768" lon="2.53501">
        <ele>560</ele>
        <time>2011-06-15T16:28:52Z</time>
      </trkpt>
      <trkpt lat="44.33764" lon="2.53495">
        <ele>559.7</ele>
        <time>2011-06-15T16:28:53Z</time>
      </trkpt>
      <trkpt lat="44.3376" lon="2.53488">
        <ele>559.5</ele>
        <time>2011-06-15T16:28:54Z</time>
      </trkpt>
      <trkpt lat="44.33757" lon="2.53481">
        <ele>559.3</ele>
        <time>2011-06-15T16:28:55Z</time>
      </trkpt>
      <trkpt lat="44.33754" lon="2.53474">
        <ele>559.1</ele>
        <time>2011-06-15T16:28:56Z</time>
      </trkpt>
      <trkpt lat="44.33751" lon="2.53466">
        <ele>558.4</ele>
        <time>2011-06-15T16:28:57Z</time>
      </trkpt>
      <trkpt lat="44.33748" lon="2.53459">
        <ele>557.8</ele>
        <time>2011-06-15T16:28:58Z</time>
      </trkpt>
      <trkpt lat="44.33746" lon="2.53452">
        <ele>557.4</ele>
        <time>2011-06-15T16:28:59Z</time>
      </trkpt>
      <trkpt lat="44.33743" lon="2.53445">
        <ele>557.6</ele>
        <time>2011-06-15T16:29:00Z</time>
      </trkpt>
      <trkpt lat="44.3374" lon="2.53438">
        <ele>557.8</ele>
        <time>2011-06-15T16:29:01Z</time>
      </trkpt>
      <trkpt lat="44.33738" lon="2.53431">
        <ele>557.9</ele>
        <time>2011-06-15T16:29:02Z</time>
      </trkpt>
      <trkpt lat="44.33735" lon="2.53424">
        <ele>558</ele>
        <time>2011-06-15T16:29:03Z</time>
      </trkpt>
      <trkpt lat="44.33732" lon="2.53417">
        <ele>558</ele>
        <time>2011-06-15T16:29:04Z</time>
      </trkpt>
      <trkpt lat="44.33729" lon="2.53411">
        <ele>558.1</ele>
        <time>2011-06-15T16:29:05Z</time>
      </trkpt>
      <trkpt lat="44.33726" lon="2.53405">
        <ele>557.8</ele>
        <time>2011-06-15T16:29:06Z</time>
      </trkpt>
      <trkpt lat="44.33722" lon="2.53399">
        <ele>557.6</ele>
        <time>2011-06-15T16:29:07Z</time>
      </trkpt>
      <trkpt lat="44.33719" lon="2.53392">
        <ele>557.4</ele>
        <time>2011-06-15T16:29:08Z</time>
      </trkpt>
      <trkpt lat="44.33715" lon="2.53386">
        <ele>557.2</ele>
        <time>2011-06-15T16:29:09Z</time>
      </trkpt>
      <trkpt lat="44.33712" lon="2.5338">
        <ele>557</ele>
        <time>2011-06-15T16:29:10Z</time>
      </trkpt>
      <trkpt lat="44.33708" lon="2.53373">
        <ele>556.8</ele>
        <time>2011-06-15T16:29:11Z</time>
      </trkpt>
      <trkpt lat="44.33705" lon="2.53366">
        <ele>556.6</ele>
        <time>2011-06-15T16:29:12Z</time>
      </trkpt>
      <trkpt lat="44.33702" lon="2.5336">
        <ele>556.4</ele>
        <time>2011-06-15T16:29:13Z</time>
      </trkpt>
      <trkpt lat="44.337" lon="2.53353">
        <ele>556.2</ele>
        <time>2011-06-15T16:29:14Z</time>
      </trkpt>
      <trkpt lat="44.33697" lon="2.53347">
        <ele>556</ele>
        <time>2011-06-15T16:29:15Z</time>
      </trkpt>
      <trkpt lat="44.33695" lon="2.53341">
        <ele>556.1</ele>
        <time>2011-06-15T16:29:16Z</time>
      </trkpt>
      <trkpt lat="44.33693" lon="2.53336">
        <ele>556.2</ele>
        <time>2011-06-15T16:29:17Z</time>
      </trkpt>
      <trkpt lat="44.3369" lon="2.53331">
        <ele>556.2</ele>
        <time>2011-06-15T16:29:18Z</time>
      </trkpt>
      <trkpt lat="44.33689" lon="2.53326">
        <ele>556</ele>
        <time>2011-06-15T16:29:19Z</time>
      </trkpt>
      <trkpt lat="44.33687" lon="2.53321">
        <ele>555.7</ele>
        <time>2011-06-15T16:29:20Z</time>
      </trkpt>
      <trkpt lat="44.33685" lon="2.53316">
        <ele>555.6</ele>
        <time>2011-06-15T16:29:21Z</time>
      </trkpt>
      <trkpt lat="44.33683" lon="2.53312">
        <ele>555.7</ele>
        <time>2011-06-15T16:29:22Z</time>
      </trkpt>
      <trkpt lat="44.33681" lon="2.53307">
        <ele>555.9</ele>
        <time>2011-06-15T16:29:23Z</time>
      </trkpt>
      <trkpt lat="44.3368" lon="2.53303">
        <ele>556</ele>
        <time>2011-06-15T16:29:24Z</time>
      </trkpt>
      <trkpt lat="44.33678" lon="2.53299">
        <ele>556</ele>
        <time>2011-06-15T16:29:25Z</time>
      </trkpt>
      <trkpt lat="44.33677" lon="2.53295">
        <ele>557</ele>
        <time>2011-06-15T16:29:26Z</time>
      </trkpt>
      <trkpt lat="44.33676" lon="2.53291">
        <ele>557.7</ele>
        <time>2011-06-15T16:29:27Z</time>
      </trkpt>
      <trkpt lat="44.33675" lon="2.53287">
        <ele>558.2</ele>
        <time>2011-06-15T16:29:28Z</time>
      </trkpt>
      <trkpt lat="44.33674" lon="2.53283">
        <ele>558.1</ele>
        <time>2011-06-15T16:29:29Z</time>
      </trkpt>
      <trkpt lat="44.33672" lon="2.5328">
        <ele>558</ele>
        <time>2011-06-15T16:29:30Z</time>
      </trkpt>
      <trkpt lat="44.33671" lon="2.53277">
        <ele>558</ele>
        <time>2011-06-15T16:29:31Z</time>
      </trkpt>
      <trkpt lat="44.33669" lon="2.53274">
        <ele>558.3</ele>
        <time>2011-06-15T16:29:32Z</time>
      </trkpt>
      <trkpt lat="44.33667" lon="2.53271">
        <ele>558.6</ele>
        <time>2011-06-15T16:29:33Z</time>
      </trkpt>
      <trkpt lat="44.33666" lon="2.53268">
        <ele>558.8</ele>
        <time>2011-06-15T16:29:34Z</time>
      </trkpt>
      <trkpt lat="44.33665" lon="2.53265">
        <ele>559.1</ele>
        <time>2011-06-15T16:29:35Z</time>
      </trkpt>
      <trkpt lat="44.33664" lon="2.53263">
        <ele>559.3</ele>
        <time>2011-06-15T16:29:36Z</time>
      </trkpt>
      <trkpt lat="44.33662" lon="2.5326">
        <ele>559.5</ele>
        <time>2011-06-15T16:29:37Z</time>
      </trkpt>
      <trkpt lat="44.33661" lon="2.53257">
        <ele>559.7</ele>
        <time>2011-06-15T16:29:38Z</time>
      </trkpt>
      <trkpt lat="44.3366" lon="2.53254">
        <ele>559.8</ele>
        <time>2011-06-15T16:29:39Z</time>
      </trkpt>
      <trkpt lat="44.33659" lon="2.53251">
        <ele>559.9</ele>
        <time>2011-06-15T16:29:40Z</time>
      </trkpt>
      <trkpt lat="44.33658" lon="2.53248">
        <ele>559.9</ele>
        <time>2011-06-15T16:29:41Z</time>
      </trkpt>
      <trkpt lat="44.33656" lon="2.53244">
        <ele>560.3</ele>
        <time>2011-06-15T16:29:42Z</time>
      </trkpt>
      <trkpt lat="44.33655" lon="2.5324">
        <ele>560.6</ele>
        <time>2011-06-15T16:29:43Z</time>
      </trkpt>
      <trkpt lat="44.33654" lon="2.53237">
        <ele>560.8</ele>
        <time>2011-06-15T16:29:44Z</time>
      </trkpt>
      <trkpt lat="44.33654" lon="2.53234">
        <ele>561.1</ele>
        <time>2011-06-15T16:29:45Z</time>
      </trkpt>
      <trkpt lat="44.33653" lon="2.53231">
        <ele>561.3</ele>
        <time>2011-06-15T16:29:46Z</time>
      </trkpt>
      <trkpt lat="44.33652" lon="2.53225">
        <ele>561.8</ele>
        <time>2011-06-15T16:29:48Z</time>
      </trkpt>
      <trkpt lat="44.33651" lon="2.53219">
        <ele>562.3</ele>
        <time>2011-06-15T16:29:50Z</time>
      </trkpt>
      <trkpt lat="44.3365" lon="2.53213">
        <ele>563</ele>
        <time>2011-06-15T16:29:52Z</time>
      </trkpt>
      <trkpt lat="44.33649" lon="2.53207">
        <ele>563.7</ele>
        <time>2011-06-15T16:29:54Z</time>
      </trkpt>
      <trkpt lat="44.33649" lon="2.53201">
        <ele>564.4</ele>
        <time>2011-06-15T16:29:56Z</time>
      </trkpt>
      <trkpt lat="44.33649" lon="2.53196">
        <ele>564.4</ele>
        <time>2011-06-15T16:29:58Z</time>
      </trkpt>
      <trkpt lat="44.33649" lon="2.5319">
        <ele>564.4</ele>
        <time>2011-06-15T16:30:00Z</time>
      </trkpt>
      <trkpt lat="44.3365" lon="2.53184">
        <ele>565.4</ele>
        <time>2011-06-15T16:30:02Z</time>
      </trkpt>
      <trkpt lat="44.33651" lon="2.53178">
        <ele>565.8</ele>
        <time>2011-06-15T16:30:04Z</time>
      </trkpt>
      <trkpt lat="44.33653" lon="2.53173">
        <ele>565.9</ele>
        <time>2011-06-15T16:30:06Z</time>
      </trkpt>
      <trkpt lat="44.33655" lon="2.53168">
        <ele>567</ele>
        <time>2011-06-15T16:30:08Z</time>
      </trkpt>
      <trkpt lat="44.33657" lon="2.53163">
        <ele>567.5</ele>
        <time>2011-06-15T16:30:10Z</time>
      </trkpt>
      <trkpt lat="44.33659" lon="2.53159">
        <ele>567.5</ele>
        <time>2011-06-15T16:30:12Z</time>
      </trkpt>
      <trkpt lat="44.33661" lon="2.53155">
        <ele>567.2</ele>
        <time>2011-06-15T16:30:14Z</time>
      </trkpt>
      <trkpt lat="44.33664" lon="2.53151">
        <ele>567</ele>
        <time>2011-06-15T16:30:16Z</time>
      </trkpt>
      <trkpt lat="44.33666" lon="2.53147">
        <ele>567.8</ele>
        <time>2011-06-15T16:30:18Z</time>
      </trkpt>
      <trkpt lat="44.33669" lon="2.53143">
        <ele>568.4</ele>
        <time>2011-06-15T16:30:21Z</time>
      </trkpt>
      <trkpt lat="44.33671" lon="2.53139">
        <ele>568.5</ele>
        <time>2011-06-15T16:30:23Z</time>
      </trkpt>
      <trkpt lat="44.33674" lon="2.53136">
        <ele>568.5</ele>
        <time>2011-06-15T16:30:25Z</time>
      </trkpt>
      <trkpt lat="44.33677" lon="2.53133">
        <ele>569.1</ele>
        <time>2011-06-15T16:30:27Z</time>
      </trkpt>
      <trkpt lat="44.33678" lon="2.53131">
        <ele>569.2</ele>
        <time>2011-06-15T16:30:28Z</time>
      </trkpt>
      <trkpt lat="44.33683" lon="2.53125">
        <ele>569.3</ele>
        <time>2011-06-15T16:30:31Z</time>
      </trkpt>
      <trkpt lat="44.33686" lon="2.53122">
        <ele>569.5</ele>
        <time>2011-06-15T16:30:33Z</time>
      </trkpt>
      <trkpt lat="44.33689" lon="2.53119">
        <ele>569.7</ele>
        <time>2011-06-15T16:30:35Z</time>
      </trkpt>
      <trkpt lat="44.33692" lon="2.53116">
        <ele>570.2</ele>
        <time>2011-06-15T16:30:37Z</time>
      </trkpt>
      <trkpt lat="44.33695" lon="2.53113">
        <ele>570.8</ele>
        <time>2011-06-15T16:30:39Z</time>
      </trkpt>
      <trkpt lat="44.33699" lon="2.5311">
        <ele>571.4</ele>
        <time>2011-06-15T16:30:41Z</time>
      </trkpt>
      <trkpt lat="44.33702" lon="2.53106">
        <ele>571.8</ele>
        <time>2011-06-15T16:30:43Z</time>
      </trkpt>
      <trkpt lat="44.33705" lon="2.53103">
        <ele>572.2</ele>
        <time>2011-06-15T16:30:45Z</time>
      </trkpt>
      <trkpt lat="44.33708" lon="2.531">
        <ele>572.5</ele>
        <time>2011-06-15T16:30:47Z</time>
      </trkpt>
      <trkpt lat="44.33712" lon="2.53097">
        <ele>572.4</ele>
        <time>2011-06-15T16:30:49Z</time>
      </trkpt>
      <trkpt lat="44.33716" lon="2.53095">
        <ele>572.1</ele>
        <time>2011-06-15T16:30:51Z</time>
      </trkpt>
      <trkpt lat="44.33719" lon="2.53092">
        <ele>572.3</ele>
        <time>2011-06-15T16:30:53Z</time>
      </trkpt>
      <trkpt lat="44.33721" lon="2.5309">
        <ele>572.4</ele>
        <time>2011-06-15T16:30:54Z</time>
      </trkpt>
      <trkpt lat="44.33723" lon="2.53088">
        <ele>572.6</ele>
        <time>2011-06-15T16:30:55Z</time>
      </trkpt>
      <trkpt lat="44.33727" lon="2.53085">
        <ele>572.8</ele>
        <time>2011-06-15T16:30:57Z</time>
      </trkpt>
      <trkpt lat="44.33731" lon="2.53083">
        <ele>573.1</ele>
        <time>2011-06-15T16:30:59Z</time>
      </trkpt>
      <trkpt lat="44.33734" lon="2.5308">
        <ele>573.2</ele>
        <time>2011-06-15T16:31:01Z</time>
      </trkpt>
      <trkpt lat="44.33738" lon="2.53078">
        <ele>573.2</ele>
        <time>2011-06-15T16:31:03Z</time>
      </trkpt>
      <trkpt lat="44.33741" lon="2.53076">
        <ele>573.4</ele>
        <time>2011-06-15T16:31:05Z</time>
      </trkpt>
      <trkpt lat="44.33745" lon="2.53074">
        <ele>573.7</ele>
        <time>2011-06-15T16:31:07Z</time>
      </trkpt>
      <trkpt lat="44.33748" lon="2.53072">
        <ele>574.5</ele>
        <time>2011-06-15T16:31:09Z</time>
      </trkpt>
      <trkpt lat="44.33751" lon="2.53069">
        <ele>575</ele>
        <time>2011-06-15T16:31:11Z</time>
      </trkpt>
      <trkpt lat="44.33754" lon="2.53068">
        <ele>575.3</ele>
        <time>2011-06-15T16:31:13Z</time>
      </trkpt>
      <trkpt lat="44.33757" lon="2.53066">
        <ele>575.9</ele>
        <time>2011-06-15T16:31:15Z</time>
      </trkpt>
      <trkpt lat="44.3376" lon="2.53064">
        <ele>576.1</ele>
        <time>2011-06-15T16:31:17Z</time>
      </trkpt>
      <trkpt lat="44.33763" lon="2.53061">
        <ele>576.1</ele>
        <time>2011-06-15T16:31:19Z</time>
      </trkpt>
      <trkpt lat="44.33766" lon="2.5306">
        <ele>576.8</ele>
        <time>2011-06-15T16:31:21Z</time>
      </trkpt>
      <trkpt lat="44.33769" lon="2.53058">
        <ele>577.2</ele>
        <time>2011-06-15T16:31:23Z</time>
      </trkpt>
      <trkpt lat="44.33772" lon="2.53056">
        <ele>577.6</ele>
        <time>2011-06-15T16:31:25Z</time>
      </trkpt>
      <trkpt lat="44.33775" lon="2.53054">
        <ele>578.3</ele>
        <time>2011-06-15T16:31:27Z</time>
      </trkpt>
      <trkpt lat="44.33778" lon="2.53052">
        <ele>579</ele>
        <time>2011-06-15T16:31:29Z</time>
      </trkpt>
      <trkpt lat="44.3378" lon="2.53051">
        <ele>579.4</ele>
        <time>2011-06-15T16:31:30Z</time>
      </trkpt>
      <trkpt lat="44.33784" lon="2.53049">
        <ele>579.9</ele>
        <time>2011-06-15T16:31:33Z</time>
      </trkpt>
      <trkpt lat="44.33787" lon="2.53047">
        <ele>580</ele>
        <time>2011-06-15T16:31:35Z</time>
      </trkpt>
      <trkpt lat="44.3379" lon="2.53045">
        <ele>580.1</ele>
        <time>2011-06-15T16:31:37Z</time>
      </trkpt>
      <trkpt lat="44.33793" lon="2.53043">
        <ele>580.2</ele>
        <time>2011-06-15T16:31:39Z</time>
      </trkpt>
      <trkpt lat="44.33796" lon="2.53041">
        <ele>580.9</ele>
        <time>2011-06-15T16:31:41Z</time>
      </trkpt>
      <trkpt lat="44.33799" lon="2.53039">
        <ele>581.5</ele>
        <time>2011-06-15T16:31:43Z</time>
      </trkpt>
      <trkpt lat="44.33802" lon="2.53038">
        <ele>581.9</ele>
        <time>2011-06-15T16:31:45Z</time>
      </trkpt>
      <trkpt lat="44.33805" lon="2.53036">
        <ele>582.6</ele>
        <time>2011-06-15T16:31:47Z</time>
      </trkpt>
      <trkpt lat="44.33808" lon="2.53034">
        <ele>583.2</ele>
        <time>2011-06-15T16:31:49Z</time>
      </trkpt>
      <trkpt lat="44.33811" lon="2.53032">
        <ele>583.6</ele>
        <time>2011-06-15T16:31:51Z</time>
      </trkpt>
      <trkpt lat="44.33814" lon="2.5303">
        <ele>584.2</ele>
        <time>2011-06-15T16:31:53Z</time>
      </trkpt>
      <trkpt lat="44.33816" lon="2.53027">
        <ele>584.6</ele>
        <time>2011-06-15T16:31:55Z</time>
      </trkpt>
      <trkpt lat="44.3382" lon="2.53024">
        <ele>584.8</ele>
        <time>2011-06-15T16:31:58Z</time>
      </trkpt>
      <trkpt lat="44.33823" lon="2.53021">
        <ele>585.2</ele>
        <time>2011-06-15T16:32:00Z</time>
      </trkpt>
      <trkpt lat="44.33825" lon="2.53018">
        <ele>585.9</ele>
        <time>2011-06-15T16:32:02Z</time>
      </trkpt>
      <trkpt lat="44.33828" lon="2.53017">
        <ele>586.6</ele>
        <time>2011-06-15T16:32:04Z</time>
      </trkpt>
      <trkpt lat="44.33831" lon="2.53015">
        <ele>586.6</ele>
        <time>2011-06-15T16:32:06Z</time>
      </trkpt>
      <trkpt lat="44.33833" lon="2.53013">
        <ele>586.8</ele>
        <time>2011-06-15T16:32:08Z</time>
      </trkpt>
      <trkpt lat="44.33836" lon="2.53011">
        <ele>587.1</ele>
        <time>2011-06-15T16:32:10Z</time>
      </trkpt>
      <trkpt lat="44.3384" lon="2.53008">
        <ele>587.1</ele>
        <time>2011-06-15T16:32:13Z</time>
      </trkpt>
      <trkpt lat="44.33844" lon="2.53005">
        <ele>587.5</ele>
        <time>2011-06-15T16:32:16Z</time>
      </trkpt>
      <trkpt lat="44.33848" lon="2.53003">
        <ele>587.9</ele>
        <time>2011-06-15T16:32:19Z</time>
      </trkpt>
      <trkpt lat="44.33852" lon="2.53001">
        <ele>588.7</ele>
        <time>2011-06-15T16:32:22Z</time>
      </trkpt>
      <trkpt lat="44.33856" lon="2.52998">
        <ele>589.5</ele>
        <time>2011-06-15T16:32:25Z</time>
      </trkpt>
      <trkpt lat="44.33859" lon="2.52996">
        <ele>589.9</ele>
        <time>2011-06-15T16:32:27Z</time>
      </trkpt>
      <trkpt lat="44.33862" lon="2.52995">
        <ele>590.1</ele>
        <time>2011-06-15T16:32:29Z</time>
      </trkpt>
      <trkpt lat="44.33866" lon="2.52992">
        <ele>591</ele>
        <time>2011-06-15T16:32:32Z</time>
      </trkpt>
      <trkpt lat="44.33867" lon="2.52991">
        <ele>591.2</ele>
        <time>2011-06-15T16:32:33Z</time>
      </trkpt>
      <trkpt lat="44.33873" lon="2.52986">
        <ele>591.3</ele>
        <time>2011-06-15T16:32:38Z</time>
      </trkpt>
      <trkpt lat="44.33876" lon="2.52985">
        <ele>591.6</ele>
        <time>2011-06-15T16:32:40Z</time>
      </trkpt>
      <trkpt lat="44.33879" lon="2.52983">
        <ele>592</ele>
        <time>2011-06-15T16:32:42Z</time>
      </trkpt>
      <trkpt lat="44.33882" lon="2.52981">
        <ele>592</ele>
        <time>2011-06-15T16:32:44Z</time>
      </trkpt>
      <trkpt lat="44.33885" lon="2.52979">
        <ele>591.9</ele>
        <time>2011-06-15T16:32:46Z</time>
      </trkpt>
      <trkpt lat="44.33888" lon="2.52977">
        <ele>592.5</ele>
        <time>2011-06-15T16:32:48Z</time>
      </trkpt>
      <trkpt lat="44.3389" lon="2.52976">
        <ele>593</ele>
        <time>2011-06-15T16:32:50Z</time>
      </trkpt>
      <trkpt lat="44.33893" lon="2.52974">
        <ele>593.5</ele>
        <time>2011-06-15T16:32:52Z</time>
      </trkpt>
      <trkpt lat="44.33896" lon="2.52972">
        <ele>593.9</ele>
        <time>2011-06-15T16:32:54Z</time>
      </trkpt>
      <trkpt lat="44.339" lon="2.5297">
        <ele>595.4</ele>
        <time>2011-06-15T16:32:57Z</time>
      </trkpt>
      <trkpt lat="44.33903" lon="2.52968">
        <ele>596.2</ele>
        <time>2011-06-15T16:32:59Z</time>
      </trkpt>
      <trkpt lat="44.33906" lon="2.52967">
        <ele>596.7</ele>
        <time>2011-06-15T16:33:01Z</time>
      </trkpt>
      <trkpt lat="44.33909" lon="2.52967">
        <ele>597</ele>
        <time>2011-06-15T16:33:03Z</time>
      </trkpt>
      <trkpt lat="44.33912" lon="2.52965">
        <ele>597.1</ele>
        <time>2011-06-15T16:33:05Z</time>
      </trkpt>
      <trkpt lat="44.33915" lon="2.52964">
        <ele>597.1</ele>
        <time>2011-06-15T16:33:07Z</time>
      </trkpt>
      <trkpt lat="44.33918" lon="2.52962">
        <ele>597.1</ele>
        <time>2011-06-15T16:33:09Z</time>
      </trkpt>
      <trkpt lat="44.33921" lon="2.5296">
        <ele>597.3</ele>
        <time>2011-06-15T16:33:11Z</time>
      </trkpt>
      <trkpt lat="44.33924" lon="2.52959">
        <ele>598.8</ele>
        <time>2011-06-15T16:33:13Z</time>
      </trkpt>
      <trkpt lat="44.33926" lon="2.52957">
        <ele>599.4</ele>
        <time>2011-06-15T16:33:15Z</time>
      </trkpt>
      <trkpt lat="44.33929" lon="2.52955">
        <ele>599.7</ele>
        <time>2011-06-15T16:33:17Z</time>
      </trkpt>
      <trkpt lat="44.33932" lon="2.52954">
        <ele>599.8</ele>
        <time>2011-06-15T16:33:19Z</time>
      </trkpt>
      <trkpt lat="44.33935" lon="2.52952">
        <ele>599.8</ele>
        <time>2011-06-15T16:33:21Z</time>
      </trkpt>
      <trkpt lat="44.33938" lon="2.52951">
        <ele>600</ele>
        <time>2011-06-15T16:33:23Z</time>
      </trkpt>
      <trkpt lat="44.33941" lon="2.5295">
        <ele>600.2</ele>
        <time>2011-06-15T16:33:25Z</time>
      </trkpt>
      <trkpt lat="44.33944" lon="2.52949">
        <ele>600.3</ele>
        <time>2011-06-15T16:33:27Z</time>
      </trkpt>
      <trkpt lat="44.33947" lon="2.52947">
        <ele>600.3</ele>
        <time>2011-06-15T16:33:29Z</time>
      </trkpt>
      <trkpt lat="44.3395" lon="2.52944">
        <ele>600.8</ele>
        <time>2011-06-15T16:33:31Z</time>
      </trkpt>
      <trkpt lat="44.33952" lon="2.52942">
        <ele>601.3</ele>
        <time>2011-06-15T16:33:33Z</time>
      </trkpt>
      <trkpt lat="44.33956" lon="2.52938">
        <ele>602</ele>
        <time>2011-06-15T16:33:36Z</time>
      </trkpt>
      <trkpt lat="44.33957" lon="2.52936">
        <ele>602.2</ele>
        <time>2011-06-15T16:33:37Z</time>
      </trkpt>
      <trkpt lat="44.33962" lon="2.5293">
        <ele>603</ele>
        <time>2011-06-15T16:33:42Z</time>
      </trkpt>
      <trkpt lat="44.33965" lon="2.52927">
        <ele>603.4</ele>
        <time>2011-06-15T16:33:44Z</time>
      </trkpt>
      <trkpt lat="44.33968" lon="2.52923">
        <ele>604</ele>
        <time>2011-06-15T16:33:47Z</time>
      </trkpt>
      <trkpt lat="44.33971" lon="2.5292">
        <ele>604.3</ele>
        <time>2011-06-15T16:33:49Z</time>
      </trkpt>
      <trkpt lat="44.33973" lon="2.52917">
        <ele>604.7</ele>
        <time>2011-06-15T16:33:51Z</time>
      </trkpt>
      <trkpt lat="44.33976" lon="2.52913">
        <ele>605.5</ele>
        <time>2011-06-15T16:33:54Z</time>
      </trkpt>
      <trkpt lat="44.33979" lon="2.52908">
        <ele>606.1</ele>
        <time>2011-06-15T16:33:57Z</time>
      </trkpt>
      <trkpt lat="44.33981" lon="2.52906">
        <ele>606.3</ele>
        <time>2011-06-15T16:33:59Z</time>
      </trkpt>
      <trkpt lat="44.33984" lon="2.52901">
        <ele>607.4</ele>
        <time>2011-06-15T16:34:02Z</time>
      </trkpt>
      <trkpt lat="44.33985" lon="2.52897">
        <ele>608.1</ele>
        <time>2011-06-15T16:34:05Z</time>
      </trkpt>
      <trkpt lat="44.33987" lon="2.52892">
        <ele>608.1</ele>
        <time>2011-06-15T16:34:08Z</time>
      </trkpt>
      <trkpt lat="44.3399" lon="2.52888">
        <ele>609.1</ele>
        <time>2011-06-15T16:34:11Z</time>
      </trkpt>
      <trkpt lat="44.33993" lon="2.52887">
        <ele>609.6</ele>
        <time>2011-06-15T16:34:14Z</time>
      </trkpt>
      <trkpt lat="44.33996" lon="2.5289">
        <ele>609.4</ele>
        <time>2011-06-15T16:34:17Z</time>
      </trkpt>
      <trkpt lat="44.33996" lon="2.52895">
        <ele>609.4</ele>
        <time>2011-06-15T16:34:20Z</time>
      </trkpt>
      <trkpt lat="44.33995" lon="2.52901">
        <ele>610.1</ele>
        <time>2011-06-15T16:34:23Z</time>
      </trkpt>
      <trkpt lat="44.33993" lon="2.52907">
        <ele>610.9</ele>
        <time>2011-06-15T16:34:26Z</time>
      </trkpt>
      <trkpt lat="44.33992" lon="2.52911">
        <ele>611.5</ele>
        <time>2011-06-15T16:34:28Z</time>
      </trkpt>
      <trkpt lat="44.3399" lon="2.52915">
        <ele>611</ele>
        <time>2011-06-15T16:34:30Z</time>
      </trkpt>
      <trkpt lat="44.33988" lon="2.52918">
        <ele>611.2</ele>
        <time>2011-06-15T16:34:32Z</time>
      </trkpt>
      <trkpt lat="44.33987" lon="2.52922">
        <ele>611.7</ele>
        <time>2011-06-15T16:34:34Z</time>
      </trkpt>
      <trkpt lat="44.33985" lon="2.52927">
        <ele>611.6</ele>
        <time>2011-06-15T16:34:36Z</time>
      </trkpt>
      <trkpt lat="44.33983" lon="2.52931">
        <ele>611.6</ele>
        <time>2011-06-15T16:34:38Z</time>
      </trkpt>
      <trkpt lat="44.33983" lon="2.52933">
        <ele>611.6</ele>
        <time>2011-06-15T16:34:39Z</time>
      </trkpt>
      <trkpt lat="44.3398" lon="2.52939">
        <ele>611.8</ele>
        <time>2011-06-15T16:34:42Z</time>
      </trkpt>
      <trkpt lat="44.33978" lon="2.52943">
        <ele>612</ele>
        <time>2011-06-15T16:34:44Z</time>
      </trkpt>
      <trkpt lat="44.33976" lon="2.52947">
        <ele>612.4</ele>
        <time>2011-06-15T16:34:46Z</time>
      </trkpt>
      <trkpt lat="44.33974" lon="2.52952">
        <ele>612.6</ele>
        <time>2011-06-15T16:34:48Z</time>
      </trkpt>
      <trkpt lat="44.33972" lon="2.52956">
        <ele>612.6</ele>
        <time>2011-06-15T16:34:50Z</time>
      </trkpt>
      <trkpt lat="44.3397" lon="2.5296">
        <ele>613</ele>
        <time>2011-06-15T16:34:52Z</time>
      </trkpt>
      <trkpt lat="44.33969" lon="2.52965">
        <ele>613.2</ele>
        <time>2011-06-15T16:34:54Z</time>
      </trkpt>
      <trkpt lat="44.33966" lon="2.52969">
        <ele>613.4</ele>
        <time>2011-06-15T16:34:56Z</time>
      </trkpt>
      <trkpt lat="44.33965" lon="2.52974">
        <ele>613.5</ele>
        <time>2011-06-15T16:34:58Z</time>
      </trkpt>
      <trkpt lat="44.33963" lon="2.52979">
        <ele>613.5</ele>
        <time>2011-06-15T16:35:00Z</time>
      </trkpt>
      <trkpt lat="44.3396" lon="2.52983">
        <ele>613.9</ele>
        <time>2011-06-15T16:35:02Z</time>
      </trkpt>
      <trkpt lat="44.33958" lon="2.52988">
        <ele>614.5</ele>
        <time>2011-06-15T16:35:04Z</time>
      </trkpt>
      <trkpt lat="44.33956" lon="2.52992">
        <ele>615</ele>
        <time>2011-06-15T16:35:06Z</time>
      </trkpt>
      <trkpt lat="44.33954" lon="2.52997">
        <ele>614.8</ele>
        <time>2011-06-15T16:35:08Z</time>
      </trkpt>
      <trkpt lat="44.33952" lon="2.53002">
        <ele>615.1</ele>
        <time>2011-06-15T16:35:10Z</time>
      </trkpt>
      <trkpt lat="44.3395" lon="2.53007">
        <ele>615.6</ele>
        <time>2011-06-15T16:35:12Z</time>
      </trkpt>
      <trkpt lat="44.33948" lon="2.53011">
        <ele>616.8</ele>
        <time>2011-06-15T16:35:14Z</time>
      </trkpt>
      <trkpt lat="44.33945" lon="2.53016">
        <ele>617.4</ele>
        <time>2011-06-15T16:35:16Z</time>
      </trkpt>
      <trkpt lat="44.33943" lon="2.53021">
        <ele>616.8</ele>
        <time>2011-06-15T16:35:18Z</time>
      </trkpt>
      <trkpt lat="44.33941" lon="2.53025">
        <ele>617</ele>
        <time>2011-06-15T16:35:20Z</time>
      </trkpt>
      <trkpt lat="44.33938" lon="2.53029">
        <ele>617.6</ele>
        <time>2011-06-15T16:35:22Z</time>
      </trkpt>
      <trkpt lat="44.33935" lon="2.53033">
        <ele>618</ele>
        <time>2011-06-15T16:35:24Z</time>
      </trkpt>
      <trkpt lat="44.33933" lon="2.53037">
        <ele>618.3</ele>
        <time>2011-06-15T16:35:26Z</time>
      </trkpt>
      <trkpt lat="44.3393" lon="2.53041">
        <ele>618.5</ele>
        <time>2011-06-15T16:35:28Z</time>
      </trkpt>
      <trkpt lat="44.33927" lon="2.53045">
        <ele>619</ele>
        <time>2011-06-15T16:35:30Z</time>
      </trkpt>
      <trkpt lat="44.33925" lon="2.53049">
        <ele>619.3</ele>
        <time>2011-06-15T16:35:32Z</time>
      </trkpt>
      <trkpt lat="44.33924" lon="2.53055">
        <ele>619.3</ele>
        <time>2011-06-15T16:35:34Z</time>
      </trkpt>
      <trkpt lat="44.33924" lon="2.5306">
        <ele>619.9</ele>
        <time>2011-06-15T16:35:36Z</time>
      </trkpt>
      <trkpt lat="44.33927" lon="2.53063">
        <ele>620.6</ele>
        <time>2011-06-15T16:35:38Z</time>
      </trkpt>
      <trkpt lat="44.3393" lon="2.53062">
        <ele>621.3</ele>
        <time>2011-06-15T16:35:40Z</time>
      </trkpt>
      <trkpt lat="44.33932" lon="2.53061">
        <ele>621.6</ele>
        <time>2011-06-15T16:35:41Z</time>
      </trkpt>
      <trkpt lat="44.33937" lon="2.53057">
        <ele>622.4</ele>
        <time>2011-06-15T16:35:44Z</time>
      </trkpt>
      <trkpt lat="44.3394" lon="2.53055">
        <ele>622.1</ele>
        <time>2011-06-15T16:35:46Z</time>
      </trkpt>
      <trkpt lat="44.33943" lon="2.53052">
        <ele>621.9</ele>
        <time>2011-06-15T16:35:48Z</time>
      </trkpt>
      <trkpt lat="44.33946" lon="2.53049">
        <ele>622.5</ele>
        <time>2011-06-15T16:35:50Z</time>
      </trkpt>
      <trkpt lat="44.33949" lon="2.53046">
        <ele>622.7</ele>
        <time>2011-06-15T16:35:52Z</time>
      </trkpt>
      <trkpt lat="44.33952" lon="2.53044">
        <ele>622.6</ele>
        <time>2011-06-15T16:35:54Z</time>
      </trkpt>
      <trkpt lat="44.33955" lon="2.53041">
        <ele>623.3</ele>
        <time>2011-06-15T16:35:56Z</time>
      </trkpt>
      <trkpt lat="44.33958" lon="2.53038">
        <ele>623.7</ele>
        <time>2011-06-15T16:35:58Z</time>
      </trkpt>
      <trkpt lat="44.33961" lon="2.53036">
        <ele>624.1</ele>
        <time>2011-06-15T16:36:00Z</time>
      </trkpt>
      <trkpt lat="44.33964" lon="2.53034">
        <ele>625.1</ele>
        <time>2011-06-15T16:36:02Z</time>
      </trkpt>
      <trkpt lat="44.33967" lon="2.53031">
        <ele>625.7</ele>
        <time>2011-06-15T16:36:04Z</time>
      </trkpt>
      <trkpt lat="44.3397" lon="2.53028">
        <ele>626.4</ele>
        <time>2011-06-15T16:36:06Z</time>
      </trkpt>
      <trkpt lat="44.33974" lon="2.53026">
        <ele>626.6</ele>
        <time>2011-06-15T16:36:08Z</time>
      </trkpt>
      <trkpt lat="44.33977" lon="2.53023">
        <ele>626.7</ele>
        <time>2011-06-15T16:36:10Z</time>
      </trkpt>
      <trkpt lat="44.3398" lon="2.5302">
        <ele>626.7</ele>
        <time>2011-06-15T16:36:12Z</time>
      </trkpt>
      <trkpt lat="44.33983" lon="2.53018">
        <ele>626.8</ele>
        <time>2011-06-15T16:36:14Z</time>
      </trkpt>
      <trkpt lat="44.33986" lon="2.53015">
        <ele>627</ele>
        <time>2011-06-15T16:36:16Z</time>
      </trkpt>
      <trkpt lat="44.33989" lon="2.53013">
        <ele>627.4</ele>
        <time>2011-06-15T16:36:18Z</time>
      </trkpt>
      <trkpt lat="44.33992" lon="2.5301">
        <ele>627.7</ele>
        <time>2011-06-15T16:36:20Z</time>
      </trkpt>
      <trkpt lat="44.33995" lon="2.53008">
        <ele>628</ele>
        <time>2011-06-15T16:36:22Z</time>
      </trkpt>
      <trkpt lat="44.33998" lon="2.53006">
        <ele>628.3</ele>
        <time>2011-06-15T16:36:24Z</time>
      </trkpt>
      <trkpt lat="44.34001" lon="2.53003">
        <ele>628.5</ele>
        <time>2011-06-15T16:36:26Z</time>
      </trkpt>
      <trkpt lat="44.34004" lon="2.53001">
        <ele>629.3</ele>
        <time>2011-06-15T16:36:28Z</time>
      </trkpt>
      <trkpt lat="44.34007" lon="2.52998">
        <ele>629.7</ele>
        <time>2011-06-15T16:36:30Z</time>
      </trkpt>
      <trkpt lat="44.3401" lon="2.52996">
        <ele>629.8</ele>
        <time>2011-06-15T16:36:32Z</time>
      </trkpt>
      <trkpt lat="44.34013" lon="2.52993">
        <ele>630.3</ele>
        <time>2011-06-15T16:36:34Z</time>
      </trkpt>
      <trkpt lat="44.34016" lon="2.52991">
        <ele>631.2</ele>
        <time>2011-06-15T16:36:36Z</time>
      </trkpt>
      <trkpt lat="44.34019" lon="2.52989">
        <ele>632.2</ele>
        <time>2011-06-15T16:36:38Z</time>
      </trkpt>
      <trkpt lat="44.34022" lon="2.52986">
        <ele>632.8</ele>
        <time>2011-06-15T16:36:40Z</time>
      </trkpt>
      <trkpt lat="44.34024" lon="2.52984">
        <ele>633.1</ele>
        <time>2011-06-15T16:36:42Z</time>
      </trkpt>
      <trkpt lat="44.34025" lon="2.52983">
        <ele>633.2</ele>
        <time>2011-06-15T16:36:43Z</time>
      </trkpt>
      <trkpt lat="44.3403" lon="2.52979">
        <ele>633.6</ele>
        <time>2011-06-15T16:36:47Z</time>
      </trkpt>
      <trkpt lat="44.34033" lon="2.52977">
        <ele>633.8</ele>
        <time>2011-06-15T16:36:49Z</time>
      </trkpt>
      <trkpt lat="44.34036" lon="2.52975">
        <ele>633.8</ele>
        <time>2011-06-15T16:36:51Z</time>
      </trkpt>
      <trkpt lat="44.34039" lon="2.52973">
        <ele>635</ele>
        <time>2011-06-15T16:36:53Z</time>
      </trkpt>
      <trkpt lat="44.34042" lon="2.52971">
        <ele>635.7</ele>
        <time>2011-06-15T16:36:55Z</time>
      </trkpt>
      <trkpt lat="44.34045" lon="2.52969">
        <ele>635.3</ele>
        <time>2011-06-15T16:36:57Z</time>
      </trkpt>
      <trkpt lat="44.34048" lon="2.52968">
        <ele>635.5</ele>
        <time>2011-06-15T16:36:59Z</time>
      </trkpt>
      <trkpt lat="44.34051" lon="2.52967">
        <ele>636</ele>
        <time>2011-06-15T16:37:01Z</time>
      </trkpt>
      <trkpt lat="44.34056" lon="2.52966">
        <ele>636.9</ele>
        <time>2011-06-15T16:37:04Z</time>
      </trkpt>
      <trkpt lat="44.3406" lon="2.52966">
        <ele>637.7</ele>
        <time>2011-06-15T16:37:07Z</time>
      </trkpt>
      <trkpt lat="44.34063" lon="2.52966">
        <ele>638</ele>
        <time>2011-06-15T16:37:09Z</time>
      </trkpt>
      <trkpt lat="44.34067" lon="2.52967">
        <ele>638.1</ele>
        <time>2011-06-15T16:37:12Z</time>
      </trkpt>
      <trkpt lat="44.34071" lon="2.52968">
        <ele>638.2</ele>
        <time>2011-06-15T16:37:15Z</time>
      </trkpt>
      <trkpt lat="44.34076" lon="2.52969">
        <ele>638.9</ele>
        <time>2011-06-15T16:37:18Z</time>
      </trkpt>
      <trkpt lat="44.34079" lon="2.52969">
        <ele>639.2</ele>
        <time>2011-06-15T16:37:20Z</time>
      </trkpt>
      <trkpt lat="44.34082" lon="2.5297">
        <ele>639.2</ele>
        <time>2011-06-15T16:37:22Z</time>
      </trkpt>
      <trkpt lat="44.34085" lon="2.52971">
        <ele>639.7</ele>
        <time>2011-06-15T16:37:24Z</time>
      </trkpt>
      <trkpt lat="44.34088" lon="2.52972">
        <ele>640.3</ele>
        <time>2011-06-15T16:37:26Z</time>
      </trkpt>
      <trkpt lat="44.34092" lon="2.52973">
        <ele>640.8</ele>
        <time>2011-06-15T16:37:28Z</time>
      </trkpt>
      <trkpt lat="44.34095" lon="2.52974">
        <ele>641.1</ele>
        <time>2011-06-15T16:37:30Z</time>
      </trkpt>
      <trkpt lat="44.34098" lon="2.52974">
        <ele>641.4</ele>
        <time>2011-06-15T16:37:32Z</time>
      </trkpt>
      <trkpt lat="44.34101" lon="2.52974">
        <ele>641.8</ele>
        <time>2011-06-15T16:37:34Z</time>
      </trkpt>
      <trkpt lat="44.34106" lon="2.52973">
        <ele>642.7</ele>
        <time>2011-06-15T16:37:37Z</time>
      </trkpt>
      <trkpt lat="44.3411" lon="2.52972">
        <ele>643.5</ele>
        <time>2011-06-15T16:37:40Z</time>
      </trkpt>
      <trkpt lat="44.34113" lon="2.52971">
        <ele>643.9</ele>
        <time>2011-06-15T16:37:42Z</time>
      </trkpt>
      <trkpt lat="44.34117" lon="2.52968">
        <ele>644.1</ele>
        <time>2011-06-15T16:37:45Z</time>
      </trkpt>
      <trkpt lat="44.34118" lon="2.52968">
        <ele>644.2</ele>
        <time>2011-06-15T16:37:46Z</time>
      </trkpt>
      <trkpt lat="44.34125" lon="2.52965">
        <ele>645.5</ele>
        <time>2011-06-15T16:37:51Z</time>
      </trkpt>
      <trkpt lat="44.34128" lon="2.52963">
        <ele>646</ele>
        <time>2011-06-15T16:37:53Z</time>
      </trkpt>
      <trkpt lat="44.34131" lon="2.52963">
        <ele>646.2</ele>
        <time>2011-06-15T16:37:55Z</time>
      </trkpt>
      <trkpt lat="44.34134" lon="2.5296">
        <ele>646.4</ele>
        <time>2011-06-15T16:37:57Z</time>
      </trkpt>
      <trkpt lat="44.34138" lon="2.52958">
        <ele>647.4</ele>
        <time>2011-06-15T16:38:00Z</time>
      </trkpt>
      <trkpt lat="44.34142" lon="2.52956">
        <ele>648</ele>
        <time>2011-06-15T16:38:03Z</time>
      </trkpt>
      <trkpt lat="44.34146" lon="2.52956">
        <ele>648.6</ele>
        <time>2011-06-15T16:38:06Z</time>
      </trkpt>
      <trkpt lat="44.34149" lon="2.52956">
        <ele>649.1</ele>
        <time>2011-06-15T16:38:08Z</time>
      </trkpt>
      <trkpt lat="44.34153" lon="2.52957">
        <ele>649.3</ele>
        <time>2011-06-15T16:38:11Z</time>
      </trkpt>
      <trkpt lat="44.34158" lon="2.52959">
        <ele>650.2</ele>
        <time>2011-06-15T16:38:14Z</time>
      </trkpt>
      <trkpt lat="44.34161" lon="2.5296">
        <ele>650</ele>
        <time>2011-06-15T16:38:16Z</time>
      </trkpt>
      <trkpt lat="44.34164" lon="2.52961">
        <ele>649.9</ele>
        <time>2011-06-15T16:38:18Z</time>
      </trkpt>
      <trkpt lat="44.34166" lon="2.52963">
        <ele>650.5</ele>
        <time>2011-06-15T16:38:20Z</time>
      </trkpt>
      <trkpt lat="44.34169" lon="2.52965">
        <ele>650.9</ele>
        <time>2011-06-15T16:38:22Z</time>
      </trkpt>
      <trkpt lat="44.34173" lon="2.52969">
        <ele>651.3</ele>
        <time>2011-06-15T16:38:25Z</time>
      </trkpt>
      <trkpt lat="44.34176" lon="2.52972">
        <ele>651.7</ele>
        <time>2011-06-15T16:38:28Z</time>
      </trkpt>
      <trkpt lat="44.3418" lon="2.52975">
        <ele>651.9</ele>
        <time>2011-06-15T16:38:31Z</time>
      </trkpt>
      <trkpt lat="44.3418" lon="2.52981">
        <ele>652.7</ele>
        <time>2011-06-15T16:39:08Z</time>
      </trkpt>
      <trkpt lat="44.3418" lon="2.52982">
        <ele>652.6</ele>
        <time>2011-06-15T16:39:09Z</time>
      </trkpt>
      <trkpt lat="44.34186" lon="2.52977">
        <ele>652.8</ele>
        <time>2011-06-15T16:40:24Z</time>
      </trkpt>
      <trkpt lat="44.34189" lon="2.5297">
        <ele>652.9</ele>
        <time>2011-06-15T16:40:27Z</time>
      </trkpt>
      <trkpt lat="44.34191" lon="2.52967">
        <ele>652.9</ele>
        <time>2011-06-15T16:40:28Z</time>
      </trkpt>
      <trkpt lat="44.34192" lon="2.52965">
        <ele>653</ele>
        <time>2011-06-15T16:40:29Z</time>
      </trkpt>
      <trkpt lat="44.34193" lon="2.52962">
        <ele>653</ele>
        <time>2011-06-15T16:40:30Z</time>
      </trkpt>
      <trkpt lat="44.34195" lon="2.52956">
        <ele>653.1</ele>
        <time>2011-06-15T16:40:32Z</time>
      </trkpt>
      <trkpt lat="44.34197" lon="2.52954">
        <ele>653.1</ele>
        <time>2011-06-15T16:40:33Z</time>
      </trkpt>
      <trkpt lat="44.34198" lon="2.52951">
        <ele>653</ele>
        <time>2011-06-15T16:40:34Z</time>
      </trkpt>
      <trkpt lat="44.342" lon="2.52948">
        <ele>653</ele>
        <time>2011-06-15T16:40:35Z</time>
      </trkpt>
      <trkpt lat="44.34201" lon="2.52945">
        <ele>653.4</ele>
        <time>2011-06-15T16:40:36Z</time>
      </trkpt>
      <trkpt lat="44.34203" lon="2.52942">
        <ele>653.7</ele>
        <time>2011-06-15T16:40:37Z</time>
      </trkpt>
      <trkpt lat="44.34205" lon="2.52939">
        <ele>653.9</ele>
        <time>2011-06-15T16:40:38Z</time>
      </trkpt>
      <trkpt lat="44.34207" lon="2.52936">
        <ele>653.5</ele>
        <time>2011-06-15T16:40:39Z</time>
      </trkpt>
      <trkpt lat="44.34208" lon="2.52933">
        <ele>653.2</ele>
        <time>2011-06-15T16:40:40Z</time>
      </trkpt>
      <trkpt lat="44.3421" lon="2.52931">
        <ele>653</ele>
        <time>2011-06-15T16:40:41Z</time>
      </trkpt>
      <trkpt lat="44.34212" lon="2.52928">
        <ele>653.3</ele>
        <time>2011-06-15T16:40:42Z</time>
      </trkpt>
      <trkpt lat="44.34214" lon="2.52925">
        <ele>653.4</ele>
        <time>2011-06-15T16:40:43Z</time>
      </trkpt>
      <trkpt lat="44.34217" lon="2.52922">
        <ele>653.6</ele>
        <time>2011-06-15T16:40:44Z</time>
      </trkpt>
      <trkpt lat="44.34219" lon="2.52919">
        <ele>653.5</ele>
        <time>2011-06-15T16:40:45Z</time>
      </trkpt>
      <trkpt lat="44.34221" lon="2.52916">
        <ele>653.4</ele>
        <time>2011-06-15T16:40:46Z</time>
      </trkpt>
      <trkpt lat="44.34223" lon="2.52913">
        <ele>653.3</ele>
        <time>2011-06-15T16:40:47Z</time>
      </trkpt>
      <trkpt lat="44.34226" lon="2.5291">
        <ele>653.3</ele>
        <time>2011-06-15T16:40:48Z</time>
      </trkpt>
      <trkpt lat="44.34228" lon="2.52907">
        <ele>653.3</ele>
        <time>2011-06-15T16:40:49Z</time>
      </trkpt>
      <trkpt lat="44.34231" lon="2.52904">
        <ele>653.3</ele>
        <time>2011-06-15T16:40:50Z</time>
      </trkpt>
      <trkpt lat="44.34233" lon="2.529">
        <ele>653.3</ele>
        <time>2011-06-15T16:40:51Z</time>
      </trkpt>
      <trkpt lat="44.34235" lon="2.52897">
        <ele>653.6</ele>
        <time>2011-06-15T16:40:52Z</time>
      </trkpt>
      <trkpt lat="44.34238" lon="2.52893">
        <ele>653.9</ele>
        <time>2011-06-15T16:40:53Z</time>
      </trkpt>
      <trkpt lat="44.3424" lon="2.5289">
        <ele>654.1</ele>
        <time>2011-06-15T16:40:54Z</time>
      </trkpt>
      <trkpt lat="44.34243" lon="2.52887">
        <ele>653.8</ele>
        <time>2011-06-15T16:40:55Z</time>
      </trkpt>
      <trkpt lat="44.34245" lon="2.52884">
        <ele>653.6</ele>
        <time>2011-06-15T16:40:56Z</time>
      </trkpt>
      <trkpt lat="44.34248" lon="2.5288">
        <ele>653.5</ele>
        <time>2011-06-15T16:40:57Z</time>
      </trkpt>
      <trkpt lat="44.34251" lon="2.52877">
        <ele>653.4</ele>
        <time>2011-06-15T16:40:58Z</time>
      </trkpt>
      <trkpt lat="44.34253" lon="2.52873">
        <ele>653.4</ele>
        <time>2011-06-15T16:40:59Z</time>
      </trkpt>
      <trkpt lat="44.34256" lon="2.5287">
        <ele>653.3</ele>
        <time>2011-06-15T16:41:00Z</time>
      </trkpt>
      <trkpt lat="44.34259" lon="2.52867">
        <ele>653.4</ele>
        <time>2011-06-15T16:41:01Z</time>
      </trkpt>
      <trkpt lat="44.34261" lon="2.52864">
        <ele>653.4</ele>
        <time>2011-06-15T16:41:02Z</time>
      </trkpt>
      <trkpt lat="44.34264" lon="2.52861">
        <ele>653.4</ele>
        <time>2011-06-15T16:41:03Z</time>
      </trkpt>
      <trkpt lat="44.34266" lon="2.52858">
        <ele>653.4</ele>
        <time>2011-06-15T16:41:04Z</time>
      </trkpt>
      <trkpt lat="44.34269" lon="2.52855">
        <ele>653.3</ele>
        <time>2011-06-15T16:41:05Z</time>
      </trkpt>
      <trkpt lat="44.34272" lon="2.52852">
        <ele>653.3</ele>
        <time>2011-06-15T16:41:06Z</time>
      </trkpt>
      <trkpt lat="44.34274" lon="2.52849">
        <ele>653.3</ele>
        <time>2011-06-15T16:41:07Z</time>
      </trkpt>
      <trkpt lat="44.34277" lon="2.52846">
        <ele>653.8</ele>
        <time>2011-06-15T16:41:08Z</time>
      </trkpt>
      <trkpt lat="44.3428" lon="2.52843">
        <ele>654.2</ele>
        <time>2011-06-15T16:41:09Z</time>
      </trkpt>
      <trkpt lat="44.34283" lon="2.5284">
        <ele>654.5</ele>
        <time>2011-06-15T16:41:10Z</time>
      </trkpt>
      <trkpt lat="44.34286" lon="2.52838">
        <ele>654.4</ele>
        <time>2011-06-15T16:41:11Z</time>
      </trkpt>
      <trkpt lat="44.34289" lon="2.52835">
        <ele>654.4</ele>
        <time>2011-06-15T16:41:12Z</time>
      </trkpt>
      <trkpt lat="44.34292" lon="2.52833">
        <ele>654.4</ele>
        <time>2011-06-15T16:41:13Z</time>
      </trkpt>
      <trkpt lat="44.34295" lon="2.52831">
        <ele>654.6</ele>
        <time>2011-06-15T16:41:14Z</time>
      </trkpt>
      <trkpt lat="44.34298" lon="2.52828">
        <ele>654.8</ele>
        <time>2011-06-15T16:41:15Z</time>
      </trkpt>
      <trkpt lat="44.34301" lon="2.52826">
        <ele>654.9</ele>
        <time>2011-06-15T16:41:16Z</time>
      </trkpt>
      <trkpt lat="44.34304" lon="2.52823">
        <ele>655</ele>
        <time>2011-06-15T16:41:17Z</time>
      </trkpt>
      <trkpt lat="44.34306" lon="2.5282">
        <ele>655.1</ele>
        <time>2011-06-15T16:41:18Z</time>
      </trkpt>
      <trkpt lat="44.34308" lon="2.52817">
        <ele>655.1</ele>
        <time>2011-06-15T16:41:19Z</time>
      </trkpt>
      <trkpt lat="44.34309" lon="2.52813">
        <ele>655.2</ele>
        <time>2011-06-15T16:41:20Z</time>
      </trkpt>
      <trkpt lat="44.3431" lon="2.52809">
        <ele>655.4</ele>
        <time>2011-06-15T16:41:21Z</time>
      </trkpt>
      <trkpt lat="44.34311" lon="2.52805">
        <ele>655.5</ele>
        <time>2011-06-15T16:41:22Z</time>
      </trkpt>
      <trkpt lat="44.34313" lon="2.528">
        <ele>655.6</ele>
        <time>2011-06-15T16:41:23Z</time>
      </trkpt>
      <trkpt lat="44.34314" lon="2.52796">
        <ele>655.7</ele>
        <time>2011-06-15T16:41:24Z</time>
      </trkpt>
      <trkpt lat="44.34315" lon="2.52792">
        <ele>655.7</ele>
        <time>2011-06-15T16:41:25Z</time>
      </trkpt>
      <trkpt lat="44.34316" lon="2.52787">
        <ele>655.7</ele>
        <time>2011-06-15T16:41:26Z</time>
      </trkpt>
      <trkpt lat="44.34317" lon="2.52783">
        <ele>656.1</ele>
        <time>2011-06-15T16:41:27Z</time>
      </trkpt>
      <trkpt lat="44.34318" lon="2.52778">
        <ele>656.3</ele>
        <time>2011-06-15T16:41:28Z</time>
      </trkpt>
      <trkpt lat="44.3432" lon="2.52774">
        <ele>656.5</ele>
        <time>2011-06-15T16:41:29Z</time>
      </trkpt>
      <trkpt lat="44.34321" lon="2.52769">
        <ele>656.4</ele>
        <time>2011-06-15T16:41:30Z</time>
      </trkpt>
      <trkpt lat="44.34322" lon="2.52765">
        <ele>656.4</ele>
        <time>2011-06-15T16:41:31Z</time>
      </trkpt>
      <trkpt lat="44.34323" lon="2.5276">
        <ele>656.3</ele>
        <time>2011-06-15T16:41:32Z</time>
      </trkpt>
      <trkpt lat="44.34325" lon="2.52755">
        <ele>655.9</ele>
        <time>2011-06-15T16:41:33Z</time>
      </trkpt>
      <trkpt lat="44.34326" lon="2.52751">
        <ele>655.6</ele>
        <time>2011-06-15T16:41:34Z</time>
      </trkpt>
      <trkpt lat="44.34327" lon="2.52746">
        <ele>655.4</ele>
        <time>2011-06-15T16:41:35Z</time>
      </trkpt>
      <trkpt lat="44.34328" lon="2.52741">
        <ele>655.3</ele>
        <time>2011-06-15T16:41:36Z</time>
      </trkpt>
      <trkpt lat="44.34329" lon="2.52736">
        <ele>655.5</ele>
        <time>2011-06-15T16:41:37Z</time>
      </trkpt>
      <trkpt lat="44.3433" lon="2.52731">
        <ele>655.8</ele>
        <time>2011-06-15T16:41:38Z</time>
      </trkpt>
      <trkpt lat="44.34331" lon="2.52727">
        <ele>655.9</ele>
        <time>2011-06-15T16:41:39Z</time>
      </trkpt>
      <trkpt lat="44.34332" lon="2.52722">
        <ele>656.3</ele>
        <time>2011-06-15T16:41:40Z</time>
      </trkpt>
      <trkpt lat="44.34333" lon="2.52716">
        <ele>656.5</ele>
        <time>2011-06-15T16:41:41Z</time>
      </trkpt>
      <trkpt lat="44.34334" lon="2.52711">
        <ele>656.7</ele>
        <time>2011-06-15T16:41:42Z</time>
      </trkpt>
      <trkpt lat="44.34335" lon="2.52706">
        <ele>657.1</ele>
        <time>2011-06-15T16:41:43Z</time>
      </trkpt>
      <trkpt lat="44.34336" lon="2.52701">
        <ele>657.5</ele>
        <time>2011-06-15T16:41:44Z</time>
      </trkpt>
      <trkpt lat="44.34336" lon="2.52696">
        <ele>657.7</ele>
        <time>2011-06-15T16:41:45Z</time>
      </trkpt>
      <trkpt lat="44.34337" lon="2.5269">
        <ele>657.6</ele>
        <time>2011-06-15T16:41:46Z</time>
      </trkpt>
      <trkpt lat="44.34338" lon="2.52685">
        <ele>657.5</ele>
        <time>2011-06-15T16:41:47Z</time>
      </trkpt>
      <trkpt lat="44.34338" lon="2.52679">
        <ele>657.4</ele>
        <time>2011-06-15T16:41:48Z</time>
      </trkpt>
      <trkpt lat="44.34338" lon="2.52673">
        <ele>657.5</ele>
        <time>2011-06-15T16:41:49Z</time>
      </trkpt>
      <trkpt lat="44.34339" lon="2.52666">
        <ele>657.5</ele>
        <time>2011-06-15T16:41:50Z</time>
      </trkpt>
      <trkpt lat="44.34339" lon="2.5266">
        <ele>657.5</ele>
        <time>2011-06-15T16:41:51Z</time>
      </trkpt>
      <trkpt lat="44.34339" lon="2.52653">
        <ele>657.6</ele>
        <time>2011-06-15T16:41:52Z</time>
      </trkpt>
      <trkpt lat="44.3434" lon="2.52646">
        <ele>656.9</ele>
        <time>2011-06-15T16:41:53Z</time>
      </trkpt>
      <trkpt lat="44.34341" lon="2.52639">
        <ele>656.4</ele>
        <time>2011-06-15T16:41:54Z</time>
      </trkpt>
      <trkpt lat="44.34342" lon="2.52631">
        <ele>656</ele>
        <time>2011-06-15T16:41:55Z</time>
      </trkpt>
      <trkpt lat="44.34343" lon="2.52624">
        <ele>656.3</ele>
        <time>2011-06-15T16:41:56Z</time>
      </trkpt>
      <trkpt lat="44.34344" lon="2.52617">
        <ele>656.5</ele>
        <time>2011-06-15T16:41:57Z</time>
      </trkpt>
      <trkpt lat="44.34345" lon="2.5261">
        <ele>656.6</ele>
        <time>2011-06-15T16:41:58Z</time>
      </trkpt>
      <trkpt lat="44.34346" lon="2.52602">
        <ele>656.3</ele>
        <time>2011-06-15T16:41:59Z</time>
      </trkpt>
      <trkpt lat="44.34348" lon="2.52595">
        <ele>656.1</ele>
        <time>2011-06-15T16:42:00Z</time>
      </trkpt>
      <trkpt lat="44.34351" lon="2.52588">
        <ele>655.9</ele>
        <time>2011-06-15T16:42:01Z</time>
      </trkpt>
      <trkpt lat="44.34353" lon="2.52581">
        <ele>655.2</ele>
        <time>2011-06-15T16:42:02Z</time>
      </trkpt>
      <trkpt lat="44.34356" lon="2.52575">
        <ele>654.7</ele>
        <time>2011-06-15T16:42:03Z</time>
      </trkpt>
      <trkpt lat="44.34359" lon="2.52569">
        <ele>654.4</ele>
        <time>2011-06-15T16:42:04Z</time>
      </trkpt>
      <trkpt lat="44.34362" lon="2.52563">
        <ele>654.1</ele>
        <time>2011-06-15T16:42:05Z</time>
      </trkpt>
      <trkpt lat="44.34365" lon="2.52557">
        <ele>653.8</ele>
        <time>2011-06-15T16:42:06Z</time>
      </trkpt>
      <trkpt lat="44.34367" lon="2.52551">
        <ele>653.7</ele>
        <time>2011-06-15T16:42:07Z</time>
      </trkpt>
      <trkpt lat="44.3437" lon="2.52545">
        <ele>653.5</ele>
        <time>2011-06-15T16:42:08Z</time>
      </trkpt>
      <trkpt lat="44.34373" lon="2.52539">
        <ele>653.7</ele>
        <time>2011-06-15T16:42:09Z</time>
      </trkpt>
      <trkpt lat="44.34376" lon="2.52534">
        <ele>653.9</ele>
        <time>2011-06-15T16:42:10Z</time>
      </trkpt>
      <trkpt lat="44.34379" lon="2.52528">
        <ele>654</ele>
        <time>2011-06-15T16:42:11Z</time>
      </trkpt>
      <trkpt lat="44.34382" lon="2.52523">
        <ele>653.5</ele>
        <time>2011-06-15T16:42:12Z</time>
      </trkpt>
      <trkpt lat="44.34384" lon="2.52518">
        <ele>653.2</ele>
        <time>2011-06-15T16:42:13Z</time>
      </trkpt>
      <trkpt lat="44.34387" lon="2.52513">
        <ele>653</ele>
        <time>2011-06-15T16:42:14Z</time>
      </trkpt>
      <trkpt lat="44.3439" lon="2.52508">
        <ele>653.1</ele>
        <time>2011-06-15T16:42:15Z</time>
      </trkpt>
      <trkpt lat="44.34393" lon="2.52503">
        <ele>653.2</ele>
        <time>2011-06-15T16:42:16Z</time>
      </trkpt>
      <trkpt lat="44.34395" lon="2.52498">
        <ele>653.2</ele>
        <time>2011-06-15T16:42:17Z</time>
      </trkpt>
      <trkpt lat="44.34398" lon="2.52492">
        <ele>653.6</ele>
        <time>2011-06-15T16:42:18Z</time>
      </trkpt>
      <trkpt lat="44.344" lon="2.52486">
        <ele>653.9</ele>
        <time>2011-06-15T16:42:19Z</time>
      </trkpt>
      <trkpt lat="44.34402" lon="2.52481">
        <ele>654.2</ele>
        <time>2011-06-15T16:42:20Z</time>
      </trkpt>
      <trkpt lat="44.34404" lon="2.52476">
        <ele>653.7</ele>
        <time>2011-06-15T16:42:21Z</time>
      </trkpt>
      <trkpt lat="44.34405" lon="2.52471">
        <ele>653.4</ele>
        <time>2011-06-15T16:42:22Z</time>
      </trkpt>
      <trkpt lat="44.34405" lon="2.52466">
        <ele>653.2</ele>
        <time>2011-06-15T16:42:23Z</time>
      </trkpt>
      <trkpt lat="44.34406" lon="2.52462">
        <ele>653.1</ele>
        <time>2011-06-15T16:42:24Z</time>
      </trkpt>
      <trkpt lat="44.34407" lon="2.52458">
        <ele>653</ele>
        <time>2011-06-15T16:42:25Z</time>
      </trkpt>
      <trkpt lat="44.34408" lon="2.52454">
        <ele>652.9</ele>
        <time>2011-06-15T16:42:26Z</time>
      </trkpt>
      <trkpt lat="44.34409" lon="2.5245">
        <ele>652.9</ele>
        <time>2011-06-15T16:42:27Z</time>
      </trkpt>
      <trkpt lat="44.34409" lon="2.52446">
        <ele>652.8</ele>
        <time>2011-06-15T16:42:28Z</time>
      </trkpt>
      <trkpt lat="44.3441" lon="2.52442">
        <ele>652.7</ele>
        <time>2011-06-15T16:42:29Z</time>
      </trkpt>
      <trkpt lat="44.34411" lon="2.52438">
        <ele>652.6</ele>
        <time>2011-06-15T16:42:30Z</time>
      </trkpt>
      <trkpt lat="44.34412" lon="2.52433">
        <ele>652.9</ele>
        <time>2011-06-15T16:42:31Z</time>
      </trkpt>
      <trkpt lat="44.34412" lon="2.52429">
        <ele>653.2</ele>
        <time>2011-06-15T16:42:32Z</time>
      </trkpt>
      <trkpt lat="44.34413" lon="2.52425">
        <ele>653.4</ele>
        <time>2011-06-15T16:42:33Z</time>
      </trkpt>
      <trkpt lat="44.34414" lon="2.52421">
        <ele>653.1</ele>
        <time>2011-06-15T16:42:34Z</time>
      </trkpt>
      <trkpt lat="44.34415" lon="2.52417">
        <ele>653</ele>
        <time>2011-06-15T16:42:35Z</time>
      </trkpt>
      <trkpt lat="44.34415" lon="2.52413">
        <ele>652.8</ele>
        <time>2011-06-15T16:42:36Z</time>
      </trkpt>
      <trkpt lat="44.34416" lon="2.52409">
        <ele>653.1</ele>
        <time>2011-06-15T16:42:37Z</time>
      </trkpt>
      <trkpt lat="44.34416" lon="2.52404">
        <ele>653.3</ele>
        <time>2011-06-15T16:42:38Z</time>
      </trkpt>
      <trkpt lat="44.34416" lon="2.52399">
        <ele>653.4</ele>
        <time>2011-06-15T16:42:39Z</time>
      </trkpt>
      <trkpt lat="44.34416" lon="2.52394">
        <ele>653.1</ele>
        <time>2011-06-15T16:42:40Z</time>
      </trkpt>
      <trkpt lat="44.34416" lon="2.52389">
        <ele>652.8</ele>
        <time>2011-06-15T16:42:41Z</time>
      </trkpt>
      <trkpt lat="44.34416" lon="2.52383">
        <ele>652.6</ele>
        <time>2011-06-15T16:42:42Z</time>
      </trkpt>
      <trkpt lat="44.34416" lon="2.52378">
        <ele>652.4</ele>
        <time>2011-06-15T16:42:43Z</time>
      </trkpt>
      <trkpt lat="44.34416" lon="2.52373">
        <ele>652.6</ele>
        <time>2011-06-15T16:42:44Z</time>
      </trkpt>
      <trkpt lat="44.34417" lon="2.52368">
        <ele>652.8</ele>
        <time>2011-06-15T16:42:45Z</time>
      </trkpt>
      <trkpt lat="44.34417" lon="2.52362">
        <ele>652.9</ele>
        <time>2011-06-15T16:42:46Z</time>
      </trkpt>
      <trkpt lat="44.34418" lon="2.52357">
        <ele>652.8</ele>
        <time>2011-06-15T16:42:47Z</time>
      </trkpt>
      <trkpt lat="44.34418" lon="2.52352">
        <ele>652.7</ele>
        <time>2011-06-15T16:42:48Z</time>
      </trkpt>
      <trkpt lat="44.34418" lon="2.52346">
        <ele>652.6</ele>
        <time>2011-06-15T16:42:49Z</time>
      </trkpt>
      <trkpt lat="44.34419" lon="2.5234">
        <ele>652.8</ele>
        <time>2011-06-15T16:42:50Z</time>
      </trkpt>
      <trkpt lat="44.3442" lon="2.52335">
        <ele>653</ele>
        <time>2011-06-15T16:42:51Z</time>
      </trkpt>
      <trkpt lat="44.3442" lon="2.52329">
        <ele>653.1</ele>
        <time>2011-06-15T16:42:52Z</time>
      </trkpt>
      <trkpt lat="44.34421" lon="2.52324">
        <ele>652.9</ele>
        <time>2011-06-15T16:42:53Z</time>
      </trkpt>
      <trkpt lat="44.34422" lon="2.52317">
        <ele>652.8</ele>
        <time>2011-06-15T16:42:54Z</time>
      </trkpt>
      <trkpt lat="44.34422" lon="2.52311">
        <ele>652.7</ele>
        <time>2011-06-15T16:42:55Z</time>
      </trkpt>
      <trkpt lat="44.34423" lon="2.52305">
        <ele>652.7</ele>
        <time>2011-06-15T16:42:56Z</time>
      </trkpt>
      <trkpt lat="44.34423" lon="2.52299">
        <ele>652.7</ele>
        <time>2011-06-15T16:42:57Z</time>
      </trkpt>
      <trkpt lat="44.34424" lon="2.52293">
        <ele>652.7</ele>
        <time>2011-06-15T16:42:58Z</time>
      </trkpt>
      <trkpt lat="44.34425" lon="2.52287">
        <ele>652.7</ele>
        <time>2011-06-15T16:42:59Z</time>
      </trkpt>
      <trkpt lat="44.34425" lon="2.52281">
        <ele>652.6</ele>
        <time>2011-06-15T16:43:00Z</time>
      </trkpt>
      <trkpt lat="44.34425" lon="2.52275">
        <ele>652.6</ele>
        <time>2011-06-15T16:43:01Z</time>
      </trkpt>
      <trkpt lat="44.34425" lon="2.5227">
        <ele>652.5</ele>
        <time>2011-06-15T16:43:02Z</time>
      </trkpt>
      <trkpt lat="44.34425" lon="2.52264">
        <ele>653</ele>
        <time>2011-06-15T16:43:03Z</time>
      </trkpt>
      <trkpt lat="44.34425" lon="2.52259">
        <ele>653.3</ele>
        <time>2011-06-15T16:43:04Z</time>
      </trkpt>
      <trkpt lat="44.34425" lon="2.52254">
        <ele>653.6</ele>
        <time>2011-06-15T16:43:05Z</time>
      </trkpt>
      <trkpt lat="44.34425" lon="2.52248">
        <ele>654.1</ele>
        <time>2011-06-15T16:43:06Z</time>
      </trkpt>
      <trkpt lat="44.34425" lon="2.52244">
        <ele>654.5</ele>
        <time>2011-06-15T16:43:07Z</time>
      </trkpt>
      <trkpt lat="44.34425" lon="2.52239">
        <ele>654.8</ele>
        <time>2011-06-15T16:43:08Z</time>
      </trkpt>
      <trkpt lat="44.34425" lon="2.52234">
        <ele>654.8</ele>
        <time>2011-06-15T16:43:09Z</time>
      </trkpt>
      <trkpt lat="44.34425" lon="2.52229">
        <ele>654.8</ele>
        <time>2011-06-15T16:43:10Z</time>
      </trkpt>
      <trkpt lat="44.34424" lon="2.52224">
        <ele>654.8</ele>
        <time>2011-06-15T16:43:11Z</time>
      </trkpt>
      <trkpt lat="44.34424" lon="2.52219">
        <ele>655.2</ele>
        <time>2011-06-15T16:43:12Z</time>
      </trkpt>
      <trkpt lat="44.34424" lon="2.52214">
        <ele>655.5</ele>
        <time>2011-06-15T16:43:13Z</time>
      </trkpt>
      <trkpt lat="44.34424" lon="2.52208">
        <ele>655.8</ele>
        <time>2011-06-15T16:43:14Z</time>
      </trkpt>
      <trkpt lat="44.34423" lon="2.52203">
        <ele>655.9</ele>
        <time>2011-06-15T16:43:15Z</time>
      </trkpt>
      <trkpt lat="44.34423" lon="2.52198">
        <ele>656</ele>
        <time>2011-06-15T16:43:16Z</time>
      </trkpt>
      <trkpt lat="44.34422" lon="2.52193">
        <ele>656.1</ele>
        <time>2011-06-15T16:43:17Z</time>
      </trkpt>
      <trkpt lat="44.34421" lon="2.52189">
        <ele>656.1</ele>
        <time>2011-06-15T16:43:18Z</time>
      </trkpt>
      <trkpt lat="44.34421" lon="2.52184">
        <ele>656.5</ele>
        <time>2011-06-15T16:43:19Z</time>
      </trkpt>
      <trkpt lat="44.3442" lon="2.52179">
        <ele>656.8</ele>
        <time>2011-06-15T16:43:20Z</time>
      </trkpt>
      <trkpt lat="44.34419" lon="2.52175">
        <ele>657.1</ele>
        <time>2011-06-15T16:43:21Z</time>
      </trkpt>
      <trkpt lat="44.34419" lon="2.5217">
        <ele>657.1</ele>
        <time>2011-06-15T16:43:22Z</time>
      </trkpt>
      <trkpt lat="44.34418" lon="2.52165">
        <ele>657</ele>
        <time>2011-06-15T16:43:23Z</time>
      </trkpt>
      <trkpt lat="44.34417" lon="2.5216">
        <ele>657</ele>
        <time>2011-06-15T16:43:24Z</time>
      </trkpt>
      <trkpt lat="44.34417" lon="2.52156">
        <ele>657.2</ele>
        <time>2011-06-15T16:43:25Z</time>
      </trkpt>
      <trkpt lat="44.34416" lon="2.52151">
        <ele>657.4</ele>
        <time>2011-06-15T16:43:26Z</time>
      </trkpt>
      <trkpt lat="44.34415" lon="2.52147">
        <ele>657.5</ele>
        <time>2011-06-15T16:43:27Z</time>
      </trkpt>
      <trkpt lat="44.34415" lon="2.52142">
        <ele>658</ele>
        <time>2011-06-15T16:43:28Z</time>
      </trkpt>
      <trkpt lat="44.34414" lon="2.52137">
        <ele>658.4</ele>
        <time>2011-06-15T16:43:29Z</time>
      </trkpt>
      <trkpt lat="44.34414" lon="2.52132">
        <ele>658.7</ele>
        <time>2011-06-15T16:43:30Z</time>
      </trkpt>
      <trkpt lat="44.34413" lon="2.52127">
        <ele>658.8</ele>
        <time>2011-06-15T16:43:31Z</time>
      </trkpt>
      <trkpt lat="44.34413" lon="2.52123">
        <ele>658.9</ele>
        <time>2011-06-15T16:43:32Z</time>
      </trkpt>
      <trkpt lat="44.34412" lon="2.52118">
        <ele>659</ele>
        <time>2011-06-15T16:43:33Z</time>
      </trkpt>
      <trkpt lat="44.34412" lon="2.52113">
        <ele>659</ele>
        <time>2011-06-15T16:43:34Z</time>
      </trkpt>
      <trkpt lat="44.34411" lon="2.52108">
        <ele>658.8</ele>
        <time>2011-06-15T16:43:35Z</time>
      </trkpt>
      <trkpt lat="44.34411" lon="2.52103">
        <ele>658.6</ele>
        <time>2011-06-15T16:43:36Z</time>
      </trkpt>
      <trkpt lat="44.3441" lon="2.52098">
        <ele>658.5</ele>
        <time>2011-06-15T16:43:37Z</time>
      </trkpt>
      <trkpt lat="44.3441" lon="2.52093">
        <ele>658.4</ele>
        <time>2011-06-15T16:43:38Z</time>
      </trkpt>
      <trkpt lat="44.34409" lon="2.52088">
        <ele>658.3</ele>
        <time>2011-06-15T16:43:39Z</time>
      </trkpt>
      <trkpt lat="44.34409" lon="2.52083">
        <ele>658.2</ele>
        <time>2011-06-15T16:43:40Z</time>
      </trkpt>
      <trkpt lat="44.34408" lon="2.52077">
        <ele>658.2</ele>
        <time>2011-06-15T16:43:41Z</time>
      </trkpt>
      <trkpt lat="44.34408" lon="2.52071">
        <ele>658.1</ele>
        <time>2011-06-15T16:43:42Z</time>
      </trkpt>
      <trkpt lat="44.34408" lon="2.52065">
        <ele>658.1</ele>
        <time>2011-06-15T16:43:43Z</time>
      </trkpt>
      <trkpt lat="44.34407" lon="2.52059">
        <ele>657.8</ele>
        <time>2011-06-15T16:43:44Z</time>
      </trkpt>
      <trkpt lat="44.34407" lon="2.52054">
        <ele>657.6</ele>
        <time>2011-06-15T16:43:45Z</time>
      </trkpt>
      <trkpt lat="44.34404" lon="2.52049">
        <ele>657.5</ele>
        <time>2011-06-15T16:43:46Z</time>
      </trkpt>
      <trkpt lat="44.34401" lon="2.52046">
        <ele>657.6</ele>
        <time>2011-06-15T16:43:47Z</time>
      </trkpt>
      <trkpt lat="44.34397" lon="2.52046">
        <ele>657.7</ele>
        <time>2011-06-15T16:43:48Z</time>
      </trkpt>
      <trkpt lat="44.34392" lon="2.52046">
        <ele>657.7</ele>
        <time>2011-06-15T16:43:49Z</time>
      </trkpt>
      <trkpt lat="44.34388" lon="2.52045">
        <ele>657.8</ele>
        <time>2011-06-15T16:43:50Z</time>
      </trkpt>
      <trkpt lat="44.34384" lon="2.52045">
        <ele>657.7</ele>
        <time>2011-06-15T16:43:51Z</time>
      </trkpt>
      <trkpt lat="44.3438" lon="2.52045">
        <ele>657.6</ele>
        <time>2011-06-15T16:43:52Z</time>
      </trkpt>
      <trkpt lat="44.34376" lon="2.52045">
        <ele>657.5</ele>
        <time>2011-06-15T16:43:53Z</time>
      </trkpt>
      <trkpt lat="44.34372" lon="2.52045">
        <ele>657.2</ele>
        <time>2011-06-15T16:43:54Z</time>
      </trkpt>
      <trkpt lat="44.34368" lon="2.52046">
        <ele>657</ele>
        <time>2011-06-15T16:43:55Z</time>
      </trkpt>
      <trkpt lat="44.34363" lon="2.52046">
        <ele>656.8</ele>
        <time>2011-06-15T16:43:56Z</time>
      </trkpt>
      <trkpt lat="44.34358" lon="2.52045">
        <ele>656.6</ele>
        <time>2011-06-15T16:43:57Z</time>
      </trkpt>
      <trkpt lat="44.34353" lon="2.52045">
        <ele>656.4</ele>
        <time>2011-06-15T16:43:58Z</time>
      </trkpt>
      <trkpt lat="44.34348" lon="2.52042">
        <ele>656.2</ele>
        <time>2011-06-15T16:43:59Z</time>
      </trkpt>
      <trkpt lat="44.34344" lon="2.52039">
        <ele>656.2</ele>
        <time>2011-06-15T16:44:00Z</time>
      </trkpt>
      <trkpt lat="44.3434" lon="2.52035">
        <ele>656.1</ele>
        <time>2011-06-15T16:44:01Z</time>
      </trkpt>
      <trkpt lat="44.34339" lon="2.5203">
        <ele>656.1</ele>
        <time>2011-06-15T16:44:02Z</time>
      </trkpt>
      <trkpt lat="44.34338" lon="2.52024">
        <ele>655.8</ele>
        <time>2011-06-15T16:44:03Z</time>
      </trkpt>
      <trkpt lat="44.34335" lon="2.52019">
        <ele>655.5</ele>
        <time>2011-06-15T16:44:04Z</time>
      </trkpt>
      <trkpt lat="44.34331" lon="2.52016">
        <ele>655.3</ele>
        <time>2011-06-15T16:44:05Z</time>
      </trkpt>
      <trkpt lat="44.3433" lon="2.52018">
        <ele>655.2</ele>
        <time>2011-06-15T16:44:06Z</time>
      </trkpt>
      <trkpt lat="44.3433" lon="2.52023">
        <ele>655.1</ele>
        <time>2011-06-15T16:44:07Z</time>
      </trkpt>
      <trkpt lat="44.34332" lon="2.52028">
        <ele>655</ele>
        <time>2011-06-15T16:44:08Z</time>
      </trkpt>
      <trkpt lat="44.34329" lon="2.5203">
        <ele>655</ele>
        <time>2011-06-15T16:44:09Z</time>
      </trkpt>
      <trkpt lat="44.34327" lon="2.52029">
        <ele>655.3</ele>
        <time>2011-06-15T16:44:10Z</time>
      </trkpt>
      <trkpt lat="44.34325" lon="2.52025">
        <ele>655.6</ele>
        <time>2011-06-15T16:44:11Z</time>
      </trkpt>
      <trkpt lat="44.34324" lon="2.52021">
        <ele>655.8</ele>
        <time>2011-06-15T16:44:12Z</time>
      </trkpt>
      <trkpt lat="44.34322" lon="2.52017">
        <ele>655.4</ele>
        <time>2011-06-15T16:44:13Z</time>
      </trkpt>
      <trkpt lat="44.3432" lon="2.52013">
        <ele>655.2</ele>
        <time>2011-06-15T16:44:14Z</time>
      </trkpt>
      <trkpt lat="44.34319" lon="2.52009">
        <ele>655</ele>
        <time>2011-06-15T16:44:15Z</time>
      </trkpt>
      <trkpt lat="44.34317" lon="2.52004">
        <ele>654.7</ele>
        <time>2011-06-15T16:44:16Z</time>
      </trkpt>
      <trkpt lat="44.34314" lon="2.52002">
        <ele>654.5</ele>
        <time>2011-06-15T16:44:17Z</time>
      </trkpt>
      <trkpt lat="44.34312" lon="2.52001">
        <ele>654.3</ele>
        <time>2011-06-15T16:44:18Z</time>
      </trkpt>
      <trkpt lat="44.34309" lon="2.52">
        <ele>654.4</ele>
        <time>2011-06-15T16:44:19Z</time>
      </trkpt>
      <trkpt lat="44.34306" lon="2.51999">
        <ele>654.4</ele>
        <time>2011-06-15T16:44:20Z</time>
      </trkpt>
      <trkpt lat="44.34303" lon="2.51998">
        <ele>654.4</ele>
        <time>2011-06-15T16:44:21Z</time>
      </trkpt>
      <trkpt lat="44.34301" lon="2.51998">
        <ele>654.4</ele>
        <time>2011-06-15T16:44:22Z</time>
      </trkpt>
      <trkpt lat="44.34298" lon="2.52001">
        <ele>654.5</ele>
        <time>2011-06-15T16:44:23Z</time>
      </trkpt>
      <trkpt lat="44.34297" lon="2.52004">
        <ele>654.5</ele>
        <time>2011-06-15T16:44:24Z</time>
      </trkpt>
      <trkpt lat="44.34296" lon="2.52008">
        <ele>654.5</ele>
        <time>2011-06-15T16:44:25Z</time>
      </trkpt>
      <trkpt lat="44.34295" lon="2.52011">
        <ele>654.8</ele>
        <time>2011-06-15T16:44:26Z</time>
      </trkpt>
      <trkpt lat="44.34294" lon="2.52014">
        <ele>655</ele>
        <time>2011-06-15T16:44:27Z</time>
      </trkpt>
      <trkpt lat="44.34291" lon="2.52018">
        <ele>655.1</ele>
        <time>2011-06-15T16:44:29Z</time>
      </trkpt>
      <trkpt lat="44.34289" lon="2.5202">
        <ele>655.1</ele>
        <time>2011-06-15T16:44:30Z</time>
      </trkpt>
      <trkpt lat="44.34286" lon="2.52027">
        <ele>654.2</ele>
        <time>2011-06-15T16:44:33Z</time>
      </trkpt>
      <trkpt lat="44.34284" lon="2.52031">
        <ele>653.8</ele>
        <time>2011-06-15T16:44:35Z</time>
      </trkpt>
      <trkpt lat="44.34281" lon="2.52036">
        <ele>653.7</ele>
        <time>2011-06-15T16:44:37Z</time>
      </trkpt>
      <trkpt lat="44.34278" lon="2.52039">
        <ele>653</ele>
        <time>2011-06-15T16:44:39Z</time>
      </trkpt>
      <trkpt lat="44.34275" lon="2.5204">
        <ele>652.8</ele>
        <time>2011-06-15T16:44:40Z</time>
      </trkpt>
      <trkpt lat="44.34271" lon="2.52039">
        <ele>652.7</ele>
        <time>2011-06-15T16:44:41Z</time>
      </trkpt>
      <trkpt lat="44.34267" lon="2.52037">
        <ele>652.1</ele>
        <time>2011-06-15T16:44:42Z</time>
      </trkpt>
      <trkpt lat="44.34264" lon="2.52036">
        <ele>651.7</ele>
        <time>2011-06-15T16:44:43Z</time>
      </trkpt>
      <trkpt lat="44.3426" lon="2.52034">
        <ele>651.4</ele>
        <time>2011-06-15T16:44:44Z</time>
      </trkpt>
      <trkpt lat="44.34257" lon="2.52031">
        <ele>651.1</ele>
        <time>2011-06-15T16:44:45Z</time>
      </trkpt>
      <trkpt lat="44.34254" lon="2.52028">
        <ele>650.8</ele>
        <time>2011-06-15T16:44:46Z</time>
      </trkpt>
      <trkpt lat="44.34251" lon="2.52025">
        <ele>650.6</ele>
        <time>2011-06-15T16:44:47Z</time>
      </trkpt>
      <trkpt lat="44.34249" lon="2.52021">
        <ele>650.8</ele>
        <time>2011-06-15T16:44:48Z</time>
      </trkpt>
      <trkpt lat="44.34246" lon="2.52017">
        <ele>650.9</ele>
        <time>2011-06-15T16:44:49Z</time>
      </trkpt>
      <trkpt lat="44.34243" lon="2.52014">
        <ele>651</ele>
        <time>2011-06-15T16:44:50Z</time>
      </trkpt>
      <trkpt lat="44.34241" lon="2.52011">
        <ele>651.1</ele>
        <time>2011-06-15T16:44:51Z</time>
      </trkpt>
      <trkpt lat="44.34238" lon="2.52007">
        <ele>651.1</ele>
        <time>2011-06-15T16:44:52Z</time>
      </trkpt>
      <trkpt lat="44.34235" lon="2.52004">
        <ele>651.2</ele>
        <time>2011-06-15T16:44:53Z</time>
      </trkpt>
      <trkpt lat="44.34233" lon="2.52001">
        <ele>651.4</ele>
        <time>2011-06-15T16:44:54Z</time>
      </trkpt>
      <trkpt lat="44.3423" lon="2.51998">
        <ele>651.6</ele>
        <time>2011-06-15T16:44:55Z</time>
      </trkpt>
      <trkpt lat="44.34227" lon="2.51995">
        <ele>651.7</ele>
        <time>2011-06-15T16:44:56Z</time>
      </trkpt>
      <trkpt lat="44.34224" lon="2.51992">
        <ele>651.8</ele>
        <time>2011-06-15T16:44:57Z</time>
      </trkpt>
      <trkpt lat="44.34221" lon="2.5199">
        <ele>651.7</ele>
        <time>2011-06-15T16:44:58Z</time>
      </trkpt>
      <trkpt lat="44.34218" lon="2.51988">
        <ele>651.7</ele>
        <time>2011-06-15T16:44:59Z</time>
      </trkpt>
      <trkpt lat="44.34215" lon="2.51986">
        <ele>651.7</ele>
        <time>2011-06-15T16:45:00Z</time>
      </trkpt>
      <trkpt lat="44.34212" lon="2.51983">
        <ele>651.5</ele>
        <time>2011-06-15T16:45:01Z</time>
      </trkpt>
      <trkpt lat="44.34209" lon="2.5198">
        <ele>651.4</ele>
        <time>2011-06-15T16:45:02Z</time>
      </trkpt>
      <trkpt lat="44.34207" lon="2.51978">
        <ele>651.3</ele>
        <time>2011-06-15T16:45:03Z</time>
      </trkpt>
      <trkpt lat="44.34204" lon="2.51976">
        <ele>651.8</ele>
        <time>2011-06-15T16:45:04Z</time>
      </trkpt>
      <trkpt lat="44.34202" lon="2.51973">
        <ele>652.2</ele>
        <time>2011-06-15T16:45:05Z</time>
      </trkpt>
      <trkpt lat="44.34199" lon="2.51971">
        <ele>652.5</ele>
        <time>2011-06-15T16:45:06Z</time>
      </trkpt>
      <trkpt lat="44.34196" lon="2.51969">
        <ele>652.4</ele>
        <time>2011-06-15T16:45:07Z</time>
      </trkpt>
      <trkpt lat="44.34194" lon="2.51967">
        <ele>652.4</ele>
        <time>2011-06-15T16:45:08Z</time>
      </trkpt>
      <trkpt lat="44.34191" lon="2.51965">
        <ele>652.4</ele>
        <time>2011-06-15T16:45:09Z</time>
      </trkpt>
      <trkpt lat="44.34188" lon="2.51964">
        <ele>652.5</ele>
        <time>2011-06-15T16:45:10Z</time>
      </trkpt>
      <trkpt lat="44.34186" lon="2.51963">
        <ele>652.5</ele>
        <time>2011-06-15T16:45:11Z</time>
      </trkpt>
      <trkpt lat="44.34183" lon="2.51961">
        <ele>652.5</ele>
        <time>2011-06-15T16:45:12Z</time>
      </trkpt>
      <trkpt lat="44.34179" lon="2.5196">
        <ele>652.5</ele>
        <time>2011-06-15T16:45:13Z</time>
      </trkpt>
      <trkpt lat="44.34176" lon="2.5196">
        <ele>652.7</ele>
        <time>2011-06-15T16:45:14Z</time>
      </trkpt>
      <trkpt lat="44.34172" lon="2.51959">
        <ele>652.9</ele>
        <time>2011-06-15T16:45:15Z</time>
      </trkpt>
      <trkpt lat="44.34168" lon="2.51958">
        <ele>653</ele>
        <time>2011-06-15T16:45:16Z</time>
      </trkpt>
      <trkpt lat="44.34165" lon="2.51957">
        <ele>653.1</ele>
        <time>2011-06-15T16:45:17Z</time>
      </trkpt>
      <trkpt lat="44.34161" lon="2.51956">
        <ele>653.1</ele>
        <time>2011-06-15T16:45:18Z</time>
      </trkpt>
      <trkpt lat="44.34158" lon="2.51955">
        <ele>653.2</ele>
        <time>2011-06-15T16:45:19Z</time>
      </trkpt>
      <trkpt lat="44.34154" lon="2.51954">
        <ele>653.2</ele>
        <time>2011-06-15T16:45:20Z</time>
      </trkpt>
      <trkpt lat="44.34151" lon="2.51953">
        <ele>653.2</ele>
        <time>2011-06-15T16:45:21Z</time>
      </trkpt>
      <trkpt lat="44.34147" lon="2.51953">
        <ele>653.2</ele>
        <time>2011-06-15T16:45:22Z</time>
      </trkpt>
      <trkpt lat="44.34144" lon="2.51952">
        <ele>653.3</ele>
        <time>2011-06-15T16:45:23Z</time>
      </trkpt>
      <trkpt lat="44.34141" lon="2.51952">
        <ele>653.3</ele>
        <time>2011-06-15T16:45:24Z</time>
      </trkpt>
      <trkpt lat="44.34138" lon="2.51952">
        <ele>653.3</ele>
        <time>2011-06-15T16:45:25Z</time>
      </trkpt>
      <trkpt lat="44.34136" lon="2.51951">
        <ele>653.6</ele>
        <time>2011-06-15T16:45:26Z</time>
      </trkpt>
      <trkpt lat="44.34134" lon="2.5195">
        <ele>653.8</ele>
        <time>2011-06-15T16:45:27Z</time>
      </trkpt>
      <trkpt lat="44.34131" lon="2.5195">
        <ele>654</ele>
        <time>2011-06-15T16:45:28Z</time>
      </trkpt>
      <trkpt lat="44.34128" lon="2.51949">
        <ele>654.1</ele>
        <time>2011-06-15T16:45:29Z</time>
      </trkpt>
      <trkpt lat="44.34126" lon="2.51948">
        <ele>654.1</ele>
        <time>2011-06-15T16:45:30Z</time>
      </trkpt>
      <trkpt lat="44.34123" lon="2.51946">
        <ele>654</ele>
        <time>2011-06-15T16:45:31Z</time>
      </trkpt>
      <trkpt lat="44.34121" lon="2.51945">
        <ele>654</ele>
        <time>2011-06-15T16:45:32Z</time>
      </trkpt>
      <trkpt lat="44.34118" lon="2.51944">
        <ele>654</ele>
        <time>2011-06-15T16:45:33Z</time>
      </trkpt>
      <trkpt lat="44.34116" lon="2.51942">
        <ele>654</ele>
        <time>2011-06-15T16:45:34Z</time>
      </trkpt>
      <trkpt lat="44.34113" lon="2.51941">
        <ele>654</ele>
        <time>2011-06-15T16:45:35Z</time>
      </trkpt>
      <trkpt lat="44.34111" lon="2.51939">
        <ele>654</ele>
        <time>2011-06-15T16:45:36Z</time>
      </trkpt>
      <trkpt lat="44.34109" lon="2.51937">
        <ele>654</ele>
        <time>2011-06-15T16:45:37Z</time>
      </trkpt>
      <trkpt lat="44.34106" lon="2.51935">
        <ele>654</ele>
        <time>2011-06-15T16:45:38Z</time>
      </trkpt>
      <trkpt lat="44.34102" lon="2.51934">
        <ele>654.3</ele>
        <time>2011-06-15T16:45:39Z</time>
      </trkpt>
      <trkpt lat="44.34099" lon="2.51933">
        <ele>654.6</ele>
        <time>2011-06-15T16:45:40Z</time>
      </trkpt>
      <trkpt lat="44.34095" lon="2.51931">
        <ele>654.7</ele>
        <time>2011-06-15T16:45:41Z</time>
      </trkpt>
      <trkpt lat="44.34091" lon="2.5193">
        <ele>654.6</ele>
        <time>2011-06-15T16:45:42Z</time>
      </trkpt>
      <trkpt lat="44.34087" lon="2.51928">
        <ele>654.5</ele>
        <time>2011-06-15T16:45:43Z</time>
      </trkpt>
      <trkpt lat="44.34083" lon="2.51927">
        <ele>654.5</ele>
        <time>2011-06-15T16:45:44Z</time>
      </trkpt>
      <trkpt lat="44.34079" lon="2.51925">
        <ele>654.5</ele>
        <time>2011-06-15T16:45:45Z</time>
      </trkpt>
      <trkpt lat="44.34075" lon="2.51925">
        <ele>654.2</ele>
        <time>2011-06-15T16:45:46Z</time>
      </trkpt>
      <trkpt lat="44.34071" lon="2.51927">
        <ele>654</ele>
        <time>2011-06-15T16:45:47Z</time>
      </trkpt>
      <trkpt lat="44.34067" lon="2.51929">
        <ele>653.9</ele>
        <time>2011-06-15T16:45:48Z</time>
      </trkpt>
      <trkpt lat="44.34064" lon="2.51931">
        <ele>654.1</ele>
        <time>2011-06-15T16:45:49Z</time>
      </trkpt>
      <trkpt lat="44.34061" lon="2.51933">
        <ele>654.3</ele>
        <time>2011-06-15T16:45:50Z</time>
      </trkpt>
      <trkpt lat="44.34057" lon="2.51935">
        <ele>654.4</ele>
        <time>2011-06-15T16:45:51Z</time>
      </trkpt>
      <trkpt lat="44.34054" lon="2.51937">
        <ele>654.8</ele>
        <time>2011-06-15T16:45:52Z</time>
      </trkpt>
      <trkpt lat="44.34051" lon="2.51939">
        <ele>655.1</ele>
        <time>2011-06-15T16:45:53Z</time>
      </trkpt>
      <trkpt lat="44.34048" lon="2.5194">
        <ele>655.4</ele>
        <time>2011-06-15T16:45:54Z</time>
      </trkpt>
      <trkpt lat="44.34044" lon="2.51939">
        <ele>655.1</ele>
        <time>2011-06-15T16:45:55Z</time>
      </trkpt>
      <trkpt lat="44.34041" lon="2.51938">
        <ele>654.9</ele>
        <time>2011-06-15T16:45:56Z</time>
      </trkpt>
      <trkpt lat="44.34037" lon="2.51936">
        <ele>654.7</ele>
        <time>2011-06-15T16:45:57Z</time>
      </trkpt>
      <trkpt lat="44.34033" lon="2.51935">
        <ele>654.6</ele>
        <time>2011-06-15T16:45:58Z</time>
      </trkpt>
      <trkpt lat="44.34029" lon="2.51934">
        <ele>654.5</ele>
        <time>2011-06-15T16:45:59Z</time>
      </trkpt>
      <trkpt lat="44.34025" lon="2.51933">
        <ele>654.4</ele>
        <time>2011-06-15T16:46:00Z</time>
      </trkpt>
      <trkpt lat="44.34021" lon="2.51932">
        <ele>654.4</ele>
        <time>2011-06-15T16:46:01Z</time>
      </trkpt>
      <trkpt lat="44.34017" lon="2.51932">
        <ele>654.5</ele>
        <time>2011-06-15T16:46:02Z</time>
      </trkpt>
      <trkpt lat="44.34014" lon="2.51932">
        <ele>654.6</ele>
        <time>2011-06-15T16:46:03Z</time>
      </trkpt>
      <trkpt lat="44.3401" lon="2.51931">
        <ele>654.6</ele>
        <time>2011-06-15T16:46:04Z</time>
      </trkpt>
      <trkpt lat="44.34007" lon="2.51931">
        <ele>654.6</ele>
        <time>2011-06-15T16:46:05Z</time>
      </trkpt>
      <trkpt lat="44.34004" lon="2.5193">
        <ele>654.6</ele>
        <time>2011-06-15T16:46:06Z</time>
      </trkpt>
      <trkpt lat="44.34" lon="2.51929">
        <ele>654.6</ele>
        <time>2011-06-15T16:46:07Z</time>
      </trkpt>
      <trkpt lat="44.33997" lon="2.51929">
        <ele>655</ele>
        <time>2011-06-15T16:46:08Z</time>
      </trkpt>
      <trkpt lat="44.33993" lon="2.51928">
        <ele>655.3</ele>
        <time>2011-06-15T16:46:09Z</time>
      </trkpt>
      <trkpt lat="44.33989" lon="2.51927">
        <ele>655.5</ele>
        <time>2011-06-15T16:46:10Z</time>
      </trkpt>
      <trkpt lat="44.33985" lon="2.51926">
        <ele>655.6</ele>
        <time>2011-06-15T16:46:11Z</time>
      </trkpt>
      <trkpt lat="44.3398" lon="2.51924">
        <ele>655.8</ele>
        <time>2011-06-15T16:46:12Z</time>
      </trkpt>
      <trkpt lat="44.33975" lon="2.51923">
        <ele>655.9</ele>
        <time>2011-06-15T16:46:13Z</time>
      </trkpt>
      <trkpt lat="44.33971" lon="2.51922">
        <ele>656.1</ele>
        <time>2011-06-15T16:46:14Z</time>
      </trkpt>
      <trkpt lat="44.33966" lon="2.5192">
        <ele>656.2</ele>
        <time>2011-06-15T16:46:15Z</time>
      </trkpt>
      <trkpt lat="44.33962" lon="2.51918">
        <ele>656.3</ele>
        <time>2011-06-15T16:46:16Z</time>
      </trkpt>
      <trkpt lat="44.33959" lon="2.51918">
        <ele>656.4</ele>
        <time>2011-06-15T16:46:17Z</time>
      </trkpt>
      <trkpt lat="44.33954" lon="2.51918">
        <ele>656</ele>
        <time>2011-06-15T16:46:18Z</time>
      </trkpt>
      <trkpt lat="44.33949" lon="2.51917">
        <ele>655.7</ele>
        <time>2011-06-15T16:46:19Z</time>
      </trkpt>
      <trkpt lat="44.33944" lon="2.51917">
        <ele>655.5</ele>
        <time>2011-06-15T16:46:20Z</time>
      </trkpt>
      <trkpt lat="44.33939" lon="2.51917">
        <ele>655.1</ele>
        <time>2011-06-15T16:46:21Z</time>
      </trkpt>
      <trkpt lat="44.33934" lon="2.51917">
        <ele>654.8</ele>
        <time>2011-06-15T16:46:22Z</time>
      </trkpt>
      <trkpt lat="44.33928" lon="2.51917">
        <ele>654.6</ele>
        <time>2011-06-15T16:46:23Z</time>
      </trkpt>
      <trkpt lat="44.33924" lon="2.51916">
        <ele>654.1</ele>
        <time>2011-06-15T16:46:24Z</time>
      </trkpt>
      <trkpt lat="44.33919" lon="2.51914">
        <ele>653.8</ele>
        <time>2011-06-15T16:46:25Z</time>
      </trkpt>
      <trkpt lat="44.33915" lon="2.51913">
        <ele>653.6</ele>
        <time>2011-06-15T16:46:26Z</time>
      </trkpt>
      <trkpt lat="44.33912" lon="2.51912">
        <ele>653.6</ele>
        <time>2011-06-15T16:46:27Z</time>
      </trkpt>
      <trkpt lat="44.33909" lon="2.5191">
        <ele>653.6</ele>
        <time>2011-06-15T16:46:28Z</time>
      </trkpt>
      <trkpt lat="44.33907" lon="2.51909">
        <ele>653.6</ele>
        <time>2011-06-15T16:46:29Z</time>
      </trkpt>
      <trkpt lat="44.33904" lon="2.51908">
        <ele>653.1</ele>
        <time>2011-06-15T16:46:30Z</time>
      </trkpt>
      <trkpt lat="44.33901" lon="2.51906">
        <ele>652.7</ele>
        <time>2011-06-15T16:46:31Z</time>
      </trkpt>
      <trkpt lat="44.33897" lon="2.51905">
        <ele>652.4</ele>
        <time>2011-06-15T16:46:32Z</time>
      </trkpt>
      <trkpt lat="44.33894" lon="2.51904">
        <ele>652.3</ele>
        <time>2011-06-15T16:46:33Z</time>
      </trkpt>
      <trkpt lat="44.3389" lon="2.51902">
        <ele>652.3</ele>
        <time>2011-06-15T16:46:34Z</time>
      </trkpt>
      <trkpt lat="44.33886" lon="2.519">
        <ele>652.2</ele>
        <time>2011-06-15T16:46:35Z</time>
      </trkpt>
      <trkpt lat="44.33883" lon="2.51898">
        <ele>652.2</ele>
        <time>2011-06-15T16:46:36Z</time>
      </trkpt>
      <trkpt lat="44.33879" lon="2.51897">
        <ele>651.8</ele>
        <time>2011-06-15T16:46:37Z</time>
      </trkpt>
      <trkpt lat="44.33876" lon="2.51895">
        <ele>651.6</ele>
        <time>2011-06-15T16:46:38Z</time>
      </trkpt>
      <trkpt lat="44.33873" lon="2.51894">
        <ele>651.4</ele>
        <time>2011-06-15T16:46:39Z</time>
      </trkpt>
      <trkpt lat="44.33869" lon="2.51893">
        <ele>651.2</ele>
        <time>2011-06-15T16:46:40Z</time>
      </trkpt>
      <trkpt lat="44.33865" lon="2.51893">
        <ele>651</ele>
        <time>2011-06-15T16:46:41Z</time>
      </trkpt>
      <trkpt lat="44.33861" lon="2.51892">
        <ele>650.9</ele>
        <time>2011-06-15T16:46:42Z</time>
      </trkpt>
      <trkpt lat="44.33857" lon="2.51892">
        <ele>650.6</ele>
        <time>2011-06-15T16:46:43Z</time>
      </trkpt>
      <trkpt lat="44.33853" lon="2.51891">
        <ele>650.4</ele>
        <time>2011-06-15T16:46:44Z</time>
      </trkpt>
      <trkpt lat="44.33851" lon="2.5189">
        <ele>650.2</ele>
        <time>2011-06-15T16:46:45Z</time>
      </trkpt>
      <trkpt lat="44.33846" lon="2.51889">
        <ele>650.7</ele>
        <time>2011-06-15T16:46:48Z</time>
      </trkpt>
      <trkpt lat="44.33842" lon="2.51891">
        <ele>650.6</ele>
        <time>2011-06-15T16:46:56Z</time>
      </trkpt>
      <trkpt lat="44.33839" lon="2.51891">
        <ele>651.1</ele>
        <time>2011-06-15T16:47:01Z</time>
      </trkpt>
      <trkpt lat="44.33835" lon="2.5189">
        <ele>650.8</ele>
        <time>2011-06-15T16:47:03Z</time>
      </trkpt>
      <trkpt lat="44.33833" lon="2.5189">
        <ele>650.7</ele>
        <time>2011-06-15T16:47:04Z</time>
      </trkpt>
      <trkpt lat="44.3383" lon="2.51889">
        <ele>651</ele>
        <time>2011-06-15T16:47:05Z</time>
      </trkpt>
      <trkpt lat="44.33827" lon="2.51889">
        <ele>651.2</ele>
        <time>2011-06-15T16:47:06Z</time>
      </trkpt>
      <trkpt lat="44.33823" lon="2.5189">
        <ele>651.3</ele>
        <time>2011-06-15T16:47:07Z</time>
      </trkpt>
      <trkpt lat="44.33819" lon="2.5189">
        <ele>651.4</ele>
        <time>2011-06-15T16:47:08Z</time>
      </trkpt>
      <trkpt lat="44.33815" lon="2.51889">
        <ele>650.6</ele>
        <time>2011-06-15T16:47:09Z</time>
      </trkpt>
      <trkpt lat="44.3381" lon="2.51888">
        <ele>650</ele>
        <time>2011-06-15T16:47:10Z</time>
      </trkpt>
      <trkpt lat="44.33806" lon="2.51887">
        <ele>649.5</ele>
        <time>2011-06-15T16:47:11Z</time>
      </trkpt>
      <trkpt lat="44.33801" lon="2.51887">
        <ele>649.2</ele>
        <time>2011-06-15T16:47:12Z</time>
      </trkpt>
      <trkpt lat="44.33797" lon="2.51885">
        <ele>648.9</ele>
        <time>2011-06-15T16:47:13Z</time>
      </trkpt>
      <trkpt lat="44.33793" lon="2.51884">
        <ele>648.7</ele>
        <time>2011-06-15T16:47:14Z</time>
      </trkpt>
      <trkpt lat="44.3379" lon="2.51882">
        <ele>647.8</ele>
        <time>2011-06-15T16:47:15Z</time>
      </trkpt>
      <trkpt lat="44.33787" lon="2.5188">
        <ele>647.2</ele>
        <time>2011-06-15T16:47:16Z</time>
      </trkpt>
      <trkpt lat="44.33784" lon="2.51879">
        <ele>646.5</ele>
        <time>2011-06-15T16:47:18Z</time>
      </trkpt>
      <trkpt lat="44.3378" lon="2.51878">
        <ele>645.9</ele>
        <time>2011-06-15T16:47:24Z</time>
      </trkpt>
      <trkpt lat="44.33777" lon="2.51877">
        <ele>646.1</ele>
        <time>2011-06-15T16:47:26Z</time>
      </trkpt>
      <trkpt lat="44.33773" lon="2.51875">
        <ele>645.6</ele>
        <time>2011-06-15T16:47:28Z</time>
      </trkpt>
      <trkpt lat="44.3377" lon="2.51872">
        <ele>645</ele>
        <time>2011-06-15T16:47:30Z</time>
      </trkpt>
      <trkpt lat="44.33766" lon="2.51871">
        <ele>644.4</ele>
        <time>2011-06-15T16:47:32Z</time>
      </trkpt>
      <trkpt lat="44.33764" lon="2.5187">
        <ele>644.3</ele>
        <time>2011-06-15T16:47:33Z</time>
      </trkpt>
      <trkpt lat="44.33762" lon="2.51869">
        <ele>644.4</ele>
        <time>2011-06-15T16:47:34Z</time>
      </trkpt>
      <trkpt lat="44.33759" lon="2.51868">
        <ele>644.5</ele>
        <time>2011-06-15T16:47:35Z</time>
      </trkpt>
      <trkpt lat="44.33757" lon="2.51866">
        <ele>644.6</ele>
        <time>2011-06-15T16:47:36Z</time>
      </trkpt>
      <trkpt lat="44.33755" lon="2.51865">
        <ele>644.2</ele>
        <time>2011-06-15T16:47:37Z</time>
      </trkpt>
      <trkpt lat="44.33751" lon="2.51861">
        <ele>643.5</ele>
        <time>2011-06-15T16:47:39Z</time>
      </trkpt>
      <trkpt lat="44.33749" lon="2.51856">
        <ele>642.6</ele>
        <time>2011-06-15T16:47:42Z</time>
      </trkpt>
      <trkpt lat="44.33748" lon="2.51852">
        <ele>642.4</ele>
        <time>2011-06-15T16:47:44Z</time>
      </trkpt>
      <trkpt lat="44.33747" lon="2.51847">
        <ele>642.3</ele>
        <time>2011-06-15T16:47:46Z</time>
      </trkpt>
      <trkpt lat="44.33748" lon="2.51843">
        <ele>642.3</ele>
        <time>2011-06-15T16:47:48Z</time>
      </trkpt>
      <trkpt lat="44.33749" lon="2.51838">
        <ele>642</ele>
        <time>2011-06-15T16:47:50Z</time>
      </trkpt>
      <trkpt lat="44.33749" lon="2.51833">
        <ele>641.6</ele>
        <time>2011-06-15T16:47:52Z</time>
      </trkpt>
      <trkpt lat="44.3375" lon="2.51828">
        <ele>641.5</ele>
        <time>2011-06-15T16:47:54Z</time>
      </trkpt>
      <trkpt lat="44.33751" lon="2.51822">
        <ele>641.3</ele>
        <time>2011-06-15T16:47:56Z</time>
      </trkpt>
      <trkpt lat="44.33751" lon="2.51818">
        <ele>641.2</ele>
        <time>2011-06-15T16:47:57Z</time>
      </trkpt>
      <trkpt lat="44.33752" lon="2.51815">
        <ele>641.1</ele>
        <time>2011-06-15T16:47:58Z</time>
      </trkpt>
      <trkpt lat="44.33753" lon="2.51812">
        <ele>641</ele>
        <time>2011-06-15T16:47:59Z</time>
      </trkpt>
      <trkpt lat="44.33754" lon="2.51809">
        <ele>641</ele>
        <time>2011-06-15T16:48:00Z</time>
      </trkpt>
      <trkpt lat="44.33757" lon="2.51804">
        <ele>641.1</ele>
        <time>2011-06-15T16:48:02Z</time>
      </trkpt>
      <trkpt lat="44.33759" lon="2.51799">
        <ele>642.1</ele>
        <time>2011-06-15T16:48:04Z</time>
      </trkpt>
      <trkpt lat="44.33762" lon="2.51795">
        <ele>642.3</ele>
        <time>2011-06-15T16:48:06Z</time>
      </trkpt>
      <trkpt lat="44.33764" lon="2.51792">
        <ele>642.1</ele>
        <time>2011-06-15T16:48:07Z</time>
      </trkpt>
      <trkpt lat="44.33764" lon="2.51789">
        <ele>642</ele>
        <time>2011-06-15T16:48:08Z</time>
      </trkpt>
      <trkpt lat="44.33765" lon="2.51784">
        <ele>641.9</ele>
        <time>2011-06-15T16:48:09Z</time>
      </trkpt>
      <trkpt lat="44.33765" lon="2.5178">
        <ele>641.7</ele>
        <time>2011-06-15T16:48:10Z</time>
      </trkpt>
      <trkpt lat="44.33766" lon="2.51776">
        <ele>641.6</ele>
        <time>2011-06-15T16:48:11Z</time>
      </trkpt>
      <trkpt lat="44.33768" lon="2.51773">
        <ele>641.4</ele>
        <time>2011-06-15T16:48:12Z</time>
      </trkpt>
      <trkpt lat="44.3377" lon="2.51769">
        <ele>641</ele>
        <time>2011-06-15T16:48:14Z</time>
      </trkpt>
      <trkpt lat="44.33772" lon="2.51767">
        <ele>640.9</ele>
        <time>2011-06-15T16:48:15Z</time>
      </trkpt>
      <trkpt lat="44.33774" lon="2.51764">
        <ele>640.9</ele>
        <time>2011-06-15T16:48:16Z</time>
      </trkpt>
      <trkpt lat="44.33777" lon="2.5176">
        <ele>641</ele>
        <time>2011-06-15T16:48:18Z</time>
      </trkpt>
      <trkpt lat="44.33779" lon="2.51756">
        <ele>641.7</ele>
        <time>2011-06-15T16:48:20Z</time>
      </trkpt>
      <trkpt lat="44.33781" lon="2.51751">
        <ele>641.9</ele>
        <time>2011-06-15T16:48:22Z</time>
      </trkpt>
      <trkpt lat="44.33782" lon="2.51746">
        <ele>641.8</ele>
        <time>2011-06-15T16:48:24Z</time>
      </trkpt>
      <trkpt lat="44.33783" lon="2.5174">
        <ele>642.2</ele>
        <time>2011-06-15T16:48:26Z</time>
      </trkpt>
      <trkpt lat="44.33784" lon="2.51735">
        <ele>641.1</ele>
        <time>2011-06-15T16:48:36Z</time>
      </trkpt>
      <trkpt lat="44.33785" lon="2.51734">
        <ele>641.2</ele>
        <time>2011-06-15T16:48:37Z</time>
      </trkpt>
      <trkpt lat="44.3379" lon="2.51727">
        <ele>640.3</ele>
        <time>2011-06-15T16:48:50Z</time>
      </trkpt>
      <trkpt lat="44.33793" lon="2.51725">
        <ele>642.5</ele>
        <time>2011-06-15T16:48:53Z</time>
      </trkpt>
      <trkpt lat="44.33797" lon="2.51722">
        <ele>642.5</ele>
        <time>2011-06-15T16:48:56Z</time>
      </trkpt>
      <trkpt lat="44.338" lon="2.51721">
        <ele>643</ele>
        <time>2011-06-15T16:48:59Z</time>
      </trkpt>
      <trkpt lat="44.33803" lon="2.51718">
        <ele>643.8</ele>
        <time>2011-06-15T16:49:02Z</time>
      </trkpt>
      <trkpt lat="44.33806" lon="2.51715">
        <ele>644.5</ele>
        <time>2011-06-15T16:49:05Z</time>
      </trkpt>
      <trkpt lat="44.33808" lon="2.51713">
        <ele>645</ele>
        <time>2011-06-15T16:49:07Z</time>
      </trkpt>
      <trkpt lat="44.33812" lon="2.51711">
        <ele>645.3</ele>
        <time>2011-06-15T16:49:09Z</time>
      </trkpt>
      <trkpt lat="44.33816" lon="2.5171">
        <ele>645.7</ele>
        <time>2011-06-15T16:49:11Z</time>
      </trkpt>
      <trkpt lat="44.33819" lon="2.51709">
        <ele>646.4</ele>
        <time>2011-06-15T16:49:14Z</time>
      </trkpt>
      <trkpt lat="44.33822" lon="2.51706">
        <ele>647.5</ele>
        <time>2011-06-15T16:49:17Z</time>
      </trkpt>
      <trkpt lat="44.33824" lon="2.51703">
        <ele>647.7</ele>
        <time>2011-06-15T16:49:19Z</time>
      </trkpt>
      <trkpt lat="44.33827" lon="2.517">
        <ele>647.5</ele>
        <time>2011-06-15T16:49:21Z</time>
      </trkpt>
      <trkpt lat="44.3383" lon="2.51697">
        <ele>647.5</ele>
        <time>2011-06-15T16:49:23Z</time>
      </trkpt>
      <trkpt lat="44.33832" lon="2.51694">
        <ele>647.6</ele>
        <time>2011-06-15T16:49:25Z</time>
      </trkpt>
      <trkpt lat="44.33835" lon="2.51689">
        <ele>648</ele>
        <time>2011-06-15T16:49:27Z</time>
      </trkpt>
      <trkpt lat="44.33838" lon="2.51685">
        <ele>648.1</ele>
        <time>2011-06-15T16:49:29Z</time>
      </trkpt>
      <trkpt lat="44.33842" lon="2.51682">
        <ele>648.1</ele>
        <time>2011-06-15T16:49:31Z</time>
      </trkpt>
      <trkpt lat="44.33845" lon="2.51678">
        <ele>647.8</ele>
        <time>2011-06-15T16:49:33Z</time>
      </trkpt>
      <trkpt lat="44.33846" lon="2.51677">
        <ele>647.8</ele>
        <time>2011-06-15T16:49:34Z</time>
      </trkpt>
      <trkpt lat="44.33848" lon="2.51674">
        <ele>647.5</ele>
        <time>2011-06-15T16:49:35Z</time>
      </trkpt>
      <trkpt lat="44.3385" lon="2.51672">
        <ele>647.3</ele>
        <time>2011-06-15T16:49:36Z</time>
      </trkpt>
      <trkpt lat="44.33853" lon="2.51668">
        <ele>647.1</ele>
        <time>2011-06-15T16:49:38Z</time>
      </trkpt>
      <trkpt lat="44.33855" lon="2.51666">
        <ele>647.3</ele>
        <time>2011-06-15T16:49:39Z</time>
      </trkpt>
      <trkpt lat="44.33861" lon="2.51662">
        <ele>647.3</ele>
        <time>2011-06-15T16:49:42Z</time>
      </trkpt>
      <trkpt lat="44.33863" lon="2.5166">
        <ele>647.1</ele>
        <time>2011-06-15T16:49:43Z</time>
      </trkpt>
      <trkpt lat="44.33865" lon="2.51658">
        <ele>647</ele>
        <time>2011-06-15T16:49:44Z</time>
      </trkpt>
      <trkpt lat="44.33868" lon="2.51655">
        <ele>647.2</ele>
        <time>2011-06-15T16:49:46Z</time>
      </trkpt>
      <trkpt lat="44.33871" lon="2.51651">
        <ele>647.2</ele>
        <time>2011-06-15T16:49:48Z</time>
      </trkpt>
      <trkpt lat="44.33875" lon="2.51648">
        <ele>647.2</ele>
        <time>2011-06-15T16:49:50Z</time>
      </trkpt>
      <trkpt lat="44.33879" lon="2.51646">
        <ele>647.3</ele>
        <time>2011-06-15T16:49:52Z</time>
      </trkpt>
      <trkpt lat="44.33882" lon="2.51644">
        <ele>647.4</ele>
        <time>2011-06-15T16:49:53Z</time>
      </trkpt>
      <trkpt lat="44.33886" lon="2.51642">
        <ele>647.5</ele>
        <time>2011-06-15T16:49:55Z</time>
      </trkpt>
      <trkpt lat="44.33889" lon="2.51641">
        <ele>647.7</ele>
        <time>2011-06-15T16:49:57Z</time>
      </trkpt>
      <trkpt lat="44.33892" lon="2.51638">
        <ele>648</ele>
        <time>2011-06-15T16:49:59Z</time>
      </trkpt>
      <trkpt lat="44.33895" lon="2.51635">
        <ele>648.3</ele>
        <time>2011-06-15T16:50:01Z</time>
      </trkpt>
      <trkpt lat="44.33897" lon="2.51633">
        <ele>648.4</ele>
        <time>2011-06-15T16:50:02Z</time>
      </trkpt>
      <trkpt lat="44.33899" lon="2.51631">
        <ele>648.5</ele>
        <time>2011-06-15T16:50:03Z</time>
      </trkpt>
      <trkpt lat="44.33901" lon="2.51629">
        <ele>648.5</ele>
        <time>2011-06-15T16:50:04Z</time>
      </trkpt>
      <trkpt lat="44.33903" lon="2.51627">
        <ele>648.5</ele>
        <time>2011-06-15T16:50:05Z</time>
      </trkpt>
      <trkpt lat="44.33906" lon="2.51625">
        <ele>648.5</ele>
        <time>2011-06-15T16:50:06Z</time>
      </trkpt>
      <trkpt lat="44.33908" lon="2.51623">
        <ele>648</ele>
        <time>2011-06-15T16:50:07Z</time>
      </trkpt>
      <trkpt lat="44.33911" lon="2.51622">
        <ele>647.6</ele>
        <time>2011-06-15T16:50:08Z</time>
      </trkpt>
      <trkpt lat="44.33913" lon="2.5162">
        <ele>647.4</ele>
        <time>2011-06-15T16:50:09Z</time>
      </trkpt>
      <trkpt lat="44.33915" lon="2.51619">
        <ele>647.2</ele>
        <time>2011-06-15T16:50:10Z</time>
      </trkpt>
      <trkpt lat="44.33917" lon="2.51618">
        <ele>647.4</ele>
        <time>2011-06-15T16:50:11Z</time>
      </trkpt>
      <trkpt lat="44.33919" lon="2.51616">
        <ele>647.6</ele>
        <time>2011-06-15T16:50:12Z</time>
      </trkpt>
      <trkpt lat="44.33922" lon="2.51615">
        <ele>647.7</ele>
        <time>2011-06-15T16:50:13Z</time>
      </trkpt>
      <trkpt lat="44.33924" lon="2.51614">
        <ele>647.5</ele>
        <time>2011-06-15T16:50:14Z</time>
      </trkpt>
      <trkpt lat="44.33927" lon="2.51613">
        <ele>647.3</ele>
        <time>2011-06-15T16:50:15Z</time>
      </trkpt>
      <trkpt lat="44.33929" lon="2.51612">
        <ele>647.2</ele>
        <time>2011-06-15T16:50:16Z</time>
      </trkpt>
      <trkpt lat="44.33931" lon="2.51612">
        <ele>647.5</ele>
        <time>2011-06-15T16:50:17Z</time>
      </trkpt>
      <trkpt lat="44.33934" lon="2.51611">
        <ele>647.7</ele>
        <time>2011-06-15T16:50:18Z</time>
      </trkpt>
      <trkpt lat="44.33938" lon="2.51611">
        <ele>648</ele>
        <time>2011-06-15T16:50:20Z</time>
      </trkpt>
      <trkpt lat="44.33942" lon="2.51613">
        <ele>648</ele>
        <time>2011-06-15T16:50:22Z</time>
      </trkpt>
      <trkpt lat="44.33944" lon="2.51617">
        <ele>648.3</ele>
        <time>2011-06-15T16:50:24Z</time>
      </trkpt>
      <trkpt lat="44.33945" lon="2.51621">
        <ele>648.7</ele>
        <time>2011-06-15T16:50:26Z</time>
      </trkpt>
      <trkpt lat="44.33947" lon="2.51626">
        <ele>649.2</ele>
        <time>2011-06-15T16:50:28Z</time>
      </trkpt>
      <trkpt lat="44.33949" lon="2.5163">
        <ele>649.4</ele>
        <time>2011-06-15T16:50:30Z</time>
      </trkpt>
      <trkpt lat="44.3395" lon="2.51634">
        <ele>649.5</ele>
        <time>2011-06-15T16:50:32Z</time>
      </trkpt>
      <trkpt lat="44.33952" lon="2.51638">
        <ele>650.1</ele>
        <time>2011-06-15T16:50:34Z</time>
      </trkpt>
      <trkpt lat="44.33954" lon="2.51641">
        <ele>650.6</ele>
        <time>2011-06-15T16:50:36Z</time>
      </trkpt>
      <trkpt lat="44.33957" lon="2.51644">
        <ele>651.1</ele>
        <time>2011-06-15T16:50:38Z</time>
      </trkpt>
      <trkpt lat="44.3396" lon="2.51647">
        <ele>652.3</ele>
        <time>2011-06-15T16:50:40Z</time>
      </trkpt>
      <trkpt lat="44.33962" lon="2.51649">
        <ele>652.8</ele>
        <time>2011-06-15T16:50:41Z</time>
      </trkpt>
      <trkpt lat="44.33966" lon="2.51652">
        <ele>652.9</ele>
        <time>2011-06-15T16:50:44Z</time>
      </trkpt>
      <trkpt lat="44.3397" lon="2.51654">
        <ele>652.9</ele>
        <time>2011-06-15T16:50:46Z</time>
      </trkpt>
      <trkpt lat="44.33973" lon="2.51655">
        <ele>653</ele>
        <time>2011-06-15T16:50:48Z</time>
      </trkpt>
      <trkpt lat="44.33977" lon="2.51657">
        <ele>653.4</ele>
        <time>2011-06-15T16:50:50Z</time>
      </trkpt>
      <trkpt lat="44.33981" lon="2.51659">
        <ele>653.7</ele>
        <time>2011-06-15T16:50:52Z</time>
      </trkpt>
      <trkpt lat="44.33983" lon="2.5166">
        <ele>653.9</ele>
        <time>2011-06-15T16:50:53Z</time>
      </trkpt>
      <trkpt lat="44.33987" lon="2.51662">
        <ele>654.5</ele>
        <time>2011-06-15T16:50:55Z</time>
      </trkpt>
      <trkpt lat="44.3399" lon="2.51664">
        <ele>655.3</ele>
        <time>2011-06-15T16:50:57Z</time>
      </trkpt>
      <trkpt lat="44.33994" lon="2.51666">
        <ele>655.7</ele>
        <time>2011-06-15T16:50:59Z</time>
      </trkpt>
      <trkpt lat="44.33998" lon="2.51668">
        <ele>655.9</ele>
        <time>2011-06-15T16:51:01Z</time>
      </trkpt>
      <trkpt lat="44.34002" lon="2.51672">
        <ele>655.5</ele>
        <time>2011-06-15T16:51:03Z</time>
      </trkpt>
      <trkpt lat="44.34005" lon="2.51676">
        <ele>656</ele>
        <time>2011-06-15T16:51:05Z</time>
      </trkpt>
      <trkpt lat="44.34008" lon="2.51679">
        <ele>656.8</ele>
        <time>2011-06-15T16:51:07Z</time>
      </trkpt>
      <trkpt lat="44.34012" lon="2.51682">
        <ele>656.8</ele>
        <time>2011-06-15T16:51:09Z</time>
      </trkpt>
      <trkpt lat="44.34015" lon="2.51685">
        <ele>657.1</ele>
        <time>2011-06-15T16:51:11Z</time>
      </trkpt>
      <trkpt lat="44.34019" lon="2.51688">
        <ele>657.5</ele>
        <time>2011-06-15T16:51:13Z</time>
      </trkpt>
      <trkpt lat="44.34023" lon="2.5169">
        <ele>657.4</ele>
        <time>2011-06-15T16:51:15Z</time>
      </trkpt>
      <trkpt lat="44.34025" lon="2.51692">
        <ele>657.4</ele>
        <time>2011-06-15T16:51:16Z</time>
      </trkpt>
      <trkpt lat="44.34029" lon="2.51694">
        <ele>657.4</ele>
        <time>2011-06-15T16:51:17Z</time>
      </trkpt>
      <trkpt lat="44.34032" lon="2.51696">
        <ele>657.7</ele>
        <time>2011-06-15T16:51:18Z</time>
      </trkpt>
      <trkpt lat="44.34034" lon="2.51697">
        <ele>657.9</ele>
        <time>2011-06-15T16:51:19Z</time>
      </trkpt>
      <trkpt lat="44.34036" lon="2.51698">
        <ele>658.1</ele>
        <time>2011-06-15T16:51:20Z</time>
      </trkpt>
      <trkpt lat="44.34041" lon="2.517">
        <ele>658.4</ele>
        <time>2011-06-15T16:51:22Z</time>
      </trkpt>
      <trkpt lat="44.34045" lon="2.51702">
        <ele>658.7</ele>
        <time>2011-06-15T16:51:24Z</time>
      </trkpt>
      <trkpt lat="44.34049" lon="2.51703">
        <ele>659</ele>
        <time>2011-06-15T16:51:26Z</time>
      </trkpt>
      <trkpt lat="44.34053" lon="2.51704">
        <ele>659.2</ele>
        <time>2011-06-15T16:51:28Z</time>
      </trkpt>
      <trkpt lat="44.34056" lon="2.51705">
        <ele>659.3</ele>
        <time>2011-06-15T16:51:29Z</time>
      </trkpt>
      <trkpt lat="44.3406" lon="2.51707">
        <ele>659.5</ele>
        <time>2011-06-15T16:51:30Z</time>
      </trkpt>
      <trkpt lat="44.34065" lon="2.51707">
        <ele>659.7</ele>
        <time>2011-06-15T16:51:31Z</time>
      </trkpt>
      <trkpt lat="44.34069" lon="2.51707">
        <ele>659.8</ele>
        <time>2011-06-15T16:51:32Z</time>
      </trkpt>
      <trkpt lat="44.34072" lon="2.51707">
        <ele>659.9</ele>
        <time>2011-06-15T16:51:33Z</time>
      </trkpt>
      <trkpt lat="44.34075" lon="2.51708">
        <ele>659.8</ele>
        <time>2011-06-15T16:51:34Z</time>
      </trkpt>
      <trkpt lat="44.34078" lon="2.51709">
        <ele>659.8</ele>
        <time>2011-06-15T16:51:35Z</time>
      </trkpt>
      <trkpt lat="44.34081" lon="2.51709">
        <ele>659.8</ele>
        <time>2011-06-15T16:51:36Z</time>
      </trkpt>
      <trkpt lat="44.34084" lon="2.5171">
        <ele>659.8</ele>
        <time>2011-06-15T16:51:37Z</time>
      </trkpt>
      <trkpt lat="44.34086" lon="2.51711">
        <ele>659.9</ele>
        <time>2011-06-15T16:51:38Z</time>
      </trkpt>
      <trkpt lat="44.34088" lon="2.51712">
        <ele>659.9</ele>
        <time>2011-06-15T16:51:39Z</time>
      </trkpt>
      <trkpt lat="44.34091" lon="2.51714">
        <ele>659.7</ele>
        <time>2011-06-15T16:51:40Z</time>
      </trkpt>
      <trkpt lat="44.34093" lon="2.51715">
        <ele>659.6</ele>
        <time>2011-06-15T16:51:41Z</time>
      </trkpt>
      <trkpt lat="44.34095" lon="2.51718">
        <ele>659.5</ele>
        <time>2011-06-15T16:51:42Z</time>
      </trkpt>
      <trkpt lat="44.34097" lon="2.5172">
        <ele>659.4</ele>
        <time>2011-06-15T16:51:43Z</time>
      </trkpt>
      <trkpt lat="44.34099" lon="2.51723">
        <ele>659.3</ele>
        <time>2011-06-15T16:51:44Z</time>
      </trkpt>
      <trkpt lat="44.341" lon="2.51725">
        <ele>659.2</ele>
        <time>2011-06-15T16:51:45Z</time>
      </trkpt>
      <trkpt lat="44.34102" lon="2.51728">
        <ele>659.6</ele>
        <time>2011-06-15T16:51:46Z</time>
      </trkpt>
      <trkpt lat="44.34104" lon="2.51731">
        <ele>659.9</ele>
        <time>2011-06-15T16:51:47Z</time>
      </trkpt>
      <trkpt lat="44.34105" lon="2.51734">
        <ele>660.1</ele>
        <time>2011-06-15T16:51:48Z</time>
      </trkpt>
      <trkpt lat="44.34107" lon="2.51737">
        <ele>660.2</ele>
        <time>2011-06-15T16:51:49Z</time>
      </trkpt>
      <trkpt lat="44.34108" lon="2.5174">
        <ele>659.8</ele>
        <time>2011-06-15T16:51:50Z</time>
      </trkpt>
      <trkpt lat="44.3411" lon="2.51743">
        <ele>659.5</ele>
        <time>2011-06-15T16:51:51Z</time>
      </trkpt>
      <trkpt lat="44.34112" lon="2.51747">
        <ele>659.3</ele>
        <time>2011-06-15T16:51:52Z</time>
      </trkpt>
      <trkpt lat="44.34114" lon="2.5175">
        <ele>659.5</ele>
        <time>2011-06-15T16:51:53Z</time>
      </trkpt>
      <trkpt lat="44.34117" lon="2.51754">
        <ele>659.7</ele>
        <time>2011-06-15T16:51:54Z</time>
      </trkpt>
      <trkpt lat="44.34119" lon="2.51757">
        <ele>659.9</ele>
        <time>2011-06-15T16:51:55Z</time>
      </trkpt>
      <trkpt lat="44.34121" lon="2.5176">
        <ele>659.5</ele>
        <time>2011-06-15T16:51:56Z</time>
      </trkpt>
      <trkpt lat="44.34124" lon="2.51764">
        <ele>659.3</ele>
        <time>2011-06-15T16:51:57Z</time>
      </trkpt>
      <trkpt lat="44.34127" lon="2.51767">
        <ele>659.1</ele>
        <time>2011-06-15T16:51:58Z</time>
      </trkpt>
      <trkpt lat="44.3413" lon="2.51771">
        <ele>658.8</ele>
        <time>2011-06-15T16:51:59Z</time>
      </trkpt>
      <trkpt lat="44.34133" lon="2.51774">
        <ele>658.5</ele>
        <time>2011-06-15T16:52:00Z</time>
      </trkpt>
      <trkpt lat="44.34136" lon="2.51778">
        <ele>658.4</ele>
        <time>2011-06-15T16:52:01Z</time>
      </trkpt>
      <trkpt lat="44.34139" lon="2.51781">
        <ele>658.2</ele>
        <time>2011-06-15T16:52:02Z</time>
      </trkpt>
      <trkpt lat="44.34142" lon="2.51785">
        <ele>658.1</ele>
        <time>2011-06-15T16:52:03Z</time>
      </trkpt>
      <trkpt lat="44.34145" lon="2.51788">
        <ele>658.1</ele>
        <time>2011-06-15T16:52:04Z</time>
      </trkpt>
      <trkpt lat="44.34148" lon="2.51791">
        <ele>657.9</ele>
        <time>2011-06-15T16:52:05Z</time>
      </trkpt>
      <trkpt lat="44.34152" lon="2.51795">
        <ele>657.8</ele>
        <time>2011-06-15T16:52:06Z</time>
      </trkpt>
      <trkpt lat="44.34155" lon="2.51798">
        <ele>657.7</ele>
        <time>2011-06-15T16:52:07Z</time>
      </trkpt>
      <trkpt lat="44.34158" lon="2.51801">
        <ele>657.7</ele>
        <time>2011-06-15T16:52:08Z</time>
      </trkpt>
      <trkpt lat="44.34162" lon="2.51804">
        <ele>657.5</ele>
        <time>2011-06-15T16:52:09Z</time>
      </trkpt>
      <trkpt lat="44.34165" lon="2.51808">
        <ele>657.4</ele>
        <time>2011-06-15T16:52:10Z</time>
      </trkpt>
      <trkpt lat="44.34169" lon="2.51811">
        <ele>657.3</ele>
        <time>2011-06-15T16:52:11Z</time>
      </trkpt>
      <trkpt lat="44.34172" lon="2.51815">
        <ele>657.3</ele>
        <time>2011-06-15T16:52:12Z</time>
      </trkpt>
      <trkpt lat="44.34176" lon="2.51818">
        <ele>657.3</ele>
        <time>2011-06-15T16:52:13Z</time>
      </trkpt>
      <trkpt lat="44.3418" lon="2.51821">
        <ele>657.3</ele>
        <time>2011-06-15T16:52:14Z</time>
      </trkpt>
      <trkpt lat="44.34183" lon="2.51824">
        <ele>657.2</ele>
        <time>2011-06-15T16:52:15Z</time>
      </trkpt>
      <trkpt lat="44.34187" lon="2.51827">
        <ele>657.2</ele>
        <time>2011-06-15T16:52:16Z</time>
      </trkpt>
      <trkpt lat="44.3419" lon="2.51831">
        <ele>657.2</ele>
        <time>2011-06-15T16:52:17Z</time>
      </trkpt>
      <trkpt lat="44.34194" lon="2.51834">
        <ele>657.4</ele>
        <time>2011-06-15T16:52:18Z</time>
      </trkpt>
      <trkpt lat="44.34197" lon="2.51837">
        <ele>657.6</ele>
        <time>2011-06-15T16:52:19Z</time>
      </trkpt>
      <trkpt lat="44.34201" lon="2.51841">
        <ele>657.7</ele>
        <time>2011-06-15T16:52:20Z</time>
      </trkpt>
      <trkpt lat="44.34204" lon="2.51844">
        <ele>657.6</ele>
        <time>2011-06-15T16:52:21Z</time>
      </trkpt>
      <trkpt lat="44.34208" lon="2.51847">
        <ele>657.5</ele>
        <time>2011-06-15T16:52:22Z</time>
      </trkpt>
      <trkpt lat="44.34211" lon="2.5185">
        <ele>657.4</ele>
        <time>2011-06-15T16:52:23Z</time>
      </trkpt>
      <trkpt lat="44.34215" lon="2.51853">
        <ele>657.4</ele>
        <time>2011-06-15T16:52:24Z</time>
      </trkpt>
      <trkpt lat="44.34218" lon="2.51856">
        <ele>657.1</ele>
        <time>2011-06-15T16:52:25Z</time>
      </trkpt>
      <trkpt lat="44.34221" lon="2.5186">
        <ele>656.9</ele>
        <time>2011-06-15T16:52:26Z</time>
      </trkpt>
      <trkpt lat="44.34225" lon="2.51863">
        <ele>656.8</ele>
        <time>2011-06-15T16:52:27Z</time>
      </trkpt>
      <trkpt lat="44.34228" lon="2.51866">
        <ele>656.8</ele>
        <time>2011-06-15T16:52:28Z</time>
      </trkpt>
      <trkpt lat="44.34231" lon="2.51869">
        <ele>656.9</ele>
        <time>2011-06-15T16:52:29Z</time>
      </trkpt>
      <trkpt lat="44.34235" lon="2.51872">
        <ele>656.9</ele>
        <time>2011-06-15T16:52:30Z</time>
      </trkpt>
      <trkpt lat="44.34238" lon="2.51874">
        <ele>656.7</ele>
        <time>2011-06-15T16:52:31Z</time>
      </trkpt>
      <trkpt lat="44.34241" lon="2.51877">
        <ele>656.6</ele>
        <time>2011-06-15T16:52:32Z</time>
      </trkpt>
      <trkpt lat="44.34244" lon="2.51879">
        <ele>656.5</ele>
        <time>2011-06-15T16:52:33Z</time>
      </trkpt>
      <trkpt lat="44.34247" lon="2.5188">
        <ele>656.6</ele>
        <time>2011-06-15T16:52:34Z</time>
      </trkpt>
      <trkpt lat="44.34251" lon="2.51882">
        <ele>656.7</ele>
        <time>2011-06-15T16:52:35Z</time>
      </trkpt>
      <trkpt lat="44.34254" lon="2.51884">
        <ele>656.8</ele>
        <time>2011-06-15T16:52:36Z</time>
      </trkpt>
      <trkpt lat="44.34258" lon="2.51885">
        <ele>657</ele>
        <time>2011-06-15T16:52:37Z</time>
      </trkpt>
      <trkpt lat="44.34261" lon="2.51885">
        <ele>657.3</ele>
        <time>2011-06-15T16:52:38Z</time>
      </trkpt>
      <trkpt lat="44.34265" lon="2.51886">
        <ele>657.4</ele>
        <time>2011-06-15T16:52:39Z</time>
      </trkpt>
      <trkpt lat="44.34269" lon="2.51885">
        <ele>657.5</ele>
        <time>2011-06-15T16:52:40Z</time>
      </trkpt>
      <trkpt lat="44.34273" lon="2.51885">
        <ele>657.1</ele>
        <time>2011-06-15T16:52:41Z</time>
      </trkpt>
      <trkpt lat="44.34277" lon="2.51885">
        <ele>656.8</ele>
        <time>2011-06-15T16:52:42Z</time>
      </trkpt>
      <trkpt lat="44.34281" lon="2.51885">
        <ele>656.6</ele>
        <time>2011-06-15T16:52:43Z</time>
      </trkpt>
      <trkpt lat="44.34285" lon="2.51884">
        <ele>656.9</ele>
        <time>2011-06-15T16:52:44Z</time>
      </trkpt>
      <trkpt lat="44.34289" lon="2.51883">
        <ele>657.2</ele>
        <time>2011-06-15T16:52:45Z</time>
      </trkpt>
      <trkpt lat="44.34293" lon="2.51883">
        <ele>657.4</ele>
        <time>2011-06-15T16:52:46Z</time>
      </trkpt>
      <trkpt lat="44.34297" lon="2.51882">
        <ele>656.7</ele>
        <time>2011-06-15T16:52:47Z</time>
      </trkpt>
      <trkpt lat="44.34301" lon="2.51881">
        <ele>656.2</ele>
        <time>2011-06-15T16:52:48Z</time>
      </trkpt>
      <trkpt lat="44.34306" lon="2.51881">
        <ele>655.8</ele>
        <time>2011-06-15T16:52:49Z</time>
      </trkpt>
      <trkpt lat="44.3431" lon="2.5188">
        <ele>655.9</ele>
        <time>2011-06-15T16:52:50Z</time>
      </trkpt>
      <trkpt lat="44.34314" lon="2.51879">
        <ele>656</ele>
        <time>2011-06-15T16:52:51Z</time>
      </trkpt>
      <trkpt lat="44.34318" lon="2.51879">
        <ele>656.1</ele>
        <time>2011-06-15T16:52:52Z</time>
      </trkpt>
      <trkpt lat="44.34322" lon="2.51878">
        <ele>656.3</ele>
        <time>2011-06-15T16:52:53Z</time>
      </trkpt>
      <trkpt lat="44.34326" lon="2.51878">
        <ele>656.4</ele>
        <time>2011-06-15T16:52:54Z</time>
      </trkpt>
      <trkpt lat="44.3433" lon="2.51877">
        <ele>656.5</ele>
        <time>2011-06-15T16:52:55Z</time>
      </trkpt>
      <trkpt lat="44.34334" lon="2.51877">
        <ele>656.6</ele>
        <time>2011-06-15T16:52:56Z</time>
      </trkpt>
      <trkpt lat="44.34338" lon="2.51876">
        <ele>656.5</ele>
        <time>2011-06-15T16:52:57Z</time>
      </trkpt>
      <trkpt lat="44.34342" lon="2.51875">
        <ele>656.5</ele>
        <time>2011-06-15T16:52:58Z</time>
      </trkpt>
      <trkpt lat="44.34347" lon="2.51875">
        <ele>656.5</ele>
        <time>2011-06-15T16:52:59Z</time>
      </trkpt>
      <trkpt lat="44.34351" lon="2.51874">
        <ele>656.1</ele>
        <time>2011-06-15T16:53:00Z</time>
      </trkpt>
      <trkpt lat="44.34355" lon="2.51873">
        <ele>655.8</ele>
        <time>2011-06-15T16:53:01Z</time>
      </trkpt>
      <trkpt lat="44.34359" lon="2.51872">
        <ele>655.6</ele>
        <time>2011-06-15T16:53:02Z</time>
      </trkpt>
      <trkpt lat="44.34363" lon="2.51871">
        <ele>655.9</ele>
        <time>2011-06-15T16:53:03Z</time>
      </trkpt>
      <trkpt lat="44.34367" lon="2.5187">
        <ele>656.2</ele>
        <time>2011-06-15T16:53:04Z</time>
      </trkpt>
      <trkpt lat="44.34371" lon="2.51868">
        <ele>656.4</ele>
        <time>2011-06-15T16:53:05Z</time>
      </trkpt>
      <trkpt lat="44.34375" lon="2.51867">
        <ele>656.8</ele>
        <time>2011-06-15T16:53:06Z</time>
      </trkpt>
      <trkpt lat="44.34378" lon="2.51865">
        <ele>657.1</ele>
        <time>2011-06-15T16:53:07Z</time>
      </trkpt>
      <trkpt lat="44.34382" lon="2.51864">
        <ele>657.3</ele>
        <time>2011-06-15T16:53:08Z</time>
      </trkpt>
      <trkpt lat="44.34386" lon="2.51862">
        <ele>657</ele>
        <time>2011-06-15T16:53:09Z</time>
      </trkpt>
      <trkpt lat="44.3439" lon="2.5186">
        <ele>656.7</ele>
        <time>2011-06-15T16:53:10Z</time>
      </trkpt>
      <trkpt lat="44.34394" lon="2.51859">
        <ele>656.5</ele>
        <time>2011-06-15T16:53:11Z</time>
      </trkpt>
      <trkpt lat="44.34397" lon="2.51858">
        <ele>656.4</ele>
        <time>2011-06-15T16:53:12Z</time>
      </trkpt>
      <trkpt lat="44.344" lon="2.51856">
        <ele>656.4</ele>
        <time>2011-06-15T16:53:13Z</time>
      </trkpt>
      <trkpt lat="44.34402" lon="2.51856">
        <ele>656.3</ele>
        <time>2011-06-15T16:53:14Z</time>
      </trkpt>
      <trkpt lat="44.34405" lon="2.51855">
        <ele>656.2</ele>
        <time>2011-06-15T16:53:15Z</time>
      </trkpt>
      <trkpt lat="44.34407" lon="2.51853">
        <ele>656.1</ele>
        <time>2011-06-15T16:53:16Z</time>
      </trkpt>
      <trkpt lat="44.34409" lon="2.51851">
        <ele>656</ele>
        <time>2011-06-15T16:53:17Z</time>
      </trkpt>
      <trkpt lat="44.34411" lon="2.51849">
        <ele>655.9</ele>
        <time>2011-06-15T16:53:18Z</time>
      </trkpt>
      <trkpt lat="44.34413" lon="2.51846">
        <ele>655.5</ele>
        <time>2011-06-15T16:53:19Z</time>
      </trkpt>
      <trkpt lat="44.34415" lon="2.51842">
        <ele>655.2</ele>
        <time>2011-06-15T16:53:20Z</time>
      </trkpt>
      <trkpt lat="44.34418" lon="2.51839">
        <ele>655</ele>
        <time>2011-06-15T16:53:21Z</time>
      </trkpt>
      <trkpt lat="44.34419" lon="2.51835">
        <ele>654.8</ele>
        <time>2011-06-15T16:53:22Z</time>
      </trkpt>
      <trkpt lat="44.34421" lon="2.51831">
        <ele>654.6</ele>
        <time>2011-06-15T16:53:23Z</time>
      </trkpt>
      <trkpt lat="44.34423" lon="2.51826">
        <ele>654.5</ele>
        <time>2011-06-15T16:53:24Z</time>
      </trkpt>
      <trkpt lat="44.34426" lon="2.51822">
        <ele>654.5</ele>
        <time>2011-06-15T16:53:25Z</time>
      </trkpt>
      <trkpt lat="44.34431" lon="2.51819">
        <ele>654.5</ele>
        <time>2011-06-15T16:53:26Z</time>
      </trkpt>
      <trkpt lat="44.34436" lon="2.51817">
        <ele>654.5</ele>
        <time>2011-06-15T16:53:27Z</time>
      </trkpt>
      <trkpt lat="44.3444" lon="2.51814">
        <ele>654.1</ele>
        <time>2011-06-15T16:53:28Z</time>
      </trkpt>
      <trkpt lat="44.34443" lon="2.5181">
        <ele>653.7</ele>
        <time>2011-06-15T16:53:29Z</time>
      </trkpt>
      <trkpt lat="44.34447" lon="2.51807">
        <ele>653.5</ele>
        <time>2011-06-15T16:53:30Z</time>
      </trkpt>
      <trkpt lat="44.3445" lon="2.51804">
        <ele>653.3</ele>
        <time>2011-06-15T16:53:31Z</time>
      </trkpt>
      <trkpt lat="44.34453" lon="2.51801">
        <ele>653.6</ele>
        <time>2011-06-15T16:53:33Z</time>
      </trkpt>
      <trkpt lat="44.34455" lon="2.51798">
        <ele>653.2</ele>
        <time>2011-06-15T16:53:35Z</time>
      </trkpt>
      <trkpt lat="44.34458" lon="2.51794">
        <ele>653.5</ele>
        <time>2011-06-15T16:53:53Z</time>
      </trkpt>
      <trkpt lat="44.34458" lon="2.51794">
        <ele>653.3</ele>
        <time>2011-06-15T16:53:54Z</time>
      </trkpt>
      <trkpt lat="44.34459" lon="2.51784">
        <ele>653.4</ele>
        <time>2011-06-15T16:54:49Z</time>
      </trkpt>
      <trkpt lat="44.34462" lon="2.51781">
        <ele>652.9</ele>
        <time>2011-06-15T16:54:51Z</time>
      </trkpt>
      <trkpt lat="44.34465" lon="2.51778">
        <ele>652.3</ele>
        <time>2011-06-15T16:54:53Z</time>
      </trkpt>
      <trkpt lat="44.34468" lon="2.51773">
        <ele>652.4</ele>
        <time>2011-06-15T16:54:55Z</time>
      </trkpt>
      <trkpt lat="44.34469" lon="2.51771">
        <ele>652.6</ele>
        <time>2011-06-15T16:54:56Z</time>
      </trkpt>
      <trkpt lat="44.34471" lon="2.51768">
        <ele>652.7</ele>
        <time>2011-06-15T16:54:57Z</time>
      </trkpt>
      <trkpt lat="44.34474" lon="2.51765">
        <ele>652.4</ele>
        <time>2011-06-15T16:54:58Z</time>
      </trkpt>
      <trkpt lat="44.34476" lon="2.51762">
        <ele>652.2</ele>
        <time>2011-06-15T16:54:59Z</time>
      </trkpt>
      <trkpt lat="44.34478" lon="2.51759">
        <ele>652.1</ele>
        <time>2011-06-15T16:55:00Z</time>
      </trkpt>
      <trkpt lat="44.3448" lon="2.51756">
        <ele>652.1</ele>
        <time>2011-06-15T16:55:01Z</time>
      </trkpt>
      <trkpt lat="44.34482" lon="2.51753">
        <ele>652.1</ele>
        <time>2011-06-15T16:55:02Z</time>
      </trkpt>
      <trkpt lat="44.34485" lon="2.5175">
        <ele>652.1</ele>
        <time>2011-06-15T16:55:03Z</time>
      </trkpt>
      <trkpt lat="44.34487" lon="2.51747">
        <ele>652.1</ele>
        <time>2011-06-15T16:55:04Z</time>
      </trkpt>
      <trkpt lat="44.34489" lon="2.51743">
        <ele>652.2</ele>
        <time>2011-06-15T16:55:05Z</time>
      </trkpt>
      <trkpt lat="44.34491" lon="2.5174">
        <ele>652.2</ele>
        <time>2011-06-15T16:55:06Z</time>
      </trkpt>
      <trkpt lat="44.34493" lon="2.51736">
        <ele>651.9</ele>
        <time>2011-06-15T16:55:07Z</time>
      </trkpt>
      <trkpt lat="44.34496" lon="2.51733">
        <ele>651.7</ele>
        <time>2011-06-15T16:55:08Z</time>
      </trkpt>
      <trkpt lat="44.34498" lon="2.51729">
        <ele>651.5</ele>
        <time>2011-06-15T16:55:09Z</time>
      </trkpt>
      <trkpt lat="44.345" lon="2.51725">
        <ele>651.3</ele>
        <time>2011-06-15T16:55:10Z</time>
      </trkpt>
      <trkpt lat="44.34502" lon="2.51721">
        <ele>651.9</ele>
        <time>2011-06-15T16:55:11Z</time>
      </trkpt>
      <trkpt lat="44.34505" lon="2.51717">
        <ele>652.2</ele>
        <time>2011-06-15T16:55:12Z</time>
      </trkpt>
      <trkpt lat="44.34507" lon="2.51713">
        <ele>652.5</ele>
        <time>2011-06-15T16:55:13Z</time>
      </trkpt>
      <trkpt lat="44.34509" lon="2.51709">
        <ele>652.3</ele>
        <time>2011-06-15T16:55:14Z</time>
      </trkpt>
      <trkpt lat="44.34512" lon="2.51705">
        <ele>652.2</ele>
        <time>2011-06-15T16:55:15Z</time>
      </trkpt>
      <trkpt lat="44.34515" lon="2.51702">
        <ele>652.1</ele>
        <time>2011-06-15T16:55:16Z</time>
      </trkpt>
      <trkpt lat="44.34517" lon="2.51698">
        <ele>652</ele>
        <time>2011-06-15T16:55:17Z</time>
      </trkpt>
      <trkpt lat="44.3452" lon="2.51694">
        <ele>651.9</ele>
        <time>2011-06-15T16:55:18Z</time>
      </trkpt>
      <trkpt lat="44.34522" lon="2.51691">
        <ele>651.8</ele>
        <time>2011-06-15T16:55:19Z</time>
      </trkpt>
      <trkpt lat="44.34525" lon="2.51687">
        <ele>652</ele>
        <time>2011-06-15T16:55:20Z</time>
      </trkpt>
      <trkpt lat="44.34527" lon="2.51683">
        <ele>652.2</ele>
        <time>2011-06-15T16:55:21Z</time>
      </trkpt>
      <trkpt lat="44.3453" lon="2.5168">
        <ele>652.3</ele>
        <time>2011-06-15T16:55:22Z</time>
      </trkpt>
      <trkpt lat="44.34533" lon="2.51676">
        <ele>652</ele>
        <time>2011-06-15T16:55:23Z</time>
      </trkpt>
      <trkpt lat="44.34536" lon="2.51673">
        <ele>651.8</ele>
        <time>2011-06-15T16:55:24Z</time>
      </trkpt>
      <trkpt lat="44.34538" lon="2.51669">
        <ele>651.6</ele>
        <time>2011-06-15T16:55:25Z</time>
      </trkpt>
      <trkpt lat="44.34541" lon="2.51666">
        <ele>651.5</ele>
        <time>2011-06-15T16:55:26Z</time>
      </trkpt>
      <trkpt lat="44.34543" lon="2.51663">
        <ele>651.7</ele>
        <time>2011-06-15T16:55:27Z</time>
      </trkpt>
      <trkpt lat="44.34545" lon="2.51659">
        <ele>651.9</ele>
        <time>2011-06-15T16:55:28Z</time>
      </trkpt>
      <trkpt lat="44.34547" lon="2.51655">
        <ele>652.1</ele>
        <time>2011-06-15T16:55:29Z</time>
      </trkpt>
      <trkpt lat="44.34548" lon="2.51651">
        <ele>651.9</ele>
        <time>2011-06-15T16:55:30Z</time>
      </trkpt>
      <trkpt lat="44.34549" lon="2.51646">
        <ele>651.8</ele>
        <time>2011-06-15T16:55:31Z</time>
      </trkpt>
      <trkpt lat="44.34549" lon="2.51642">
        <ele>651.7</ele>
        <time>2011-06-15T16:55:32Z</time>
      </trkpt>
      <trkpt lat="44.34548" lon="2.51637">
        <ele>652.1</ele>
        <time>2011-06-15T16:55:33Z</time>
      </trkpt>
      <trkpt lat="44.34548" lon="2.51632">
        <ele>652.4</ele>
        <time>2011-06-15T16:55:34Z</time>
      </trkpt>
      <trkpt lat="44.34547" lon="2.51628">
        <ele>652.7</ele>
        <time>2011-06-15T16:55:35Z</time>
      </trkpt>
      <trkpt lat="44.34546" lon="2.51623">
        <ele>652.5</ele>
        <time>2011-06-15T16:55:36Z</time>
      </trkpt>
      <trkpt lat="44.34545" lon="2.51619">
        <ele>652.4</ele>
        <time>2011-06-15T16:55:37Z</time>
      </trkpt>
      <trkpt lat="44.34544" lon="2.51614">
        <ele>652.4</ele>
        <time>2011-06-15T16:55:38Z</time>
      </trkpt>
      <trkpt lat="44.34544" lon="2.51609">
        <ele>652.5</ele>
        <time>2011-06-15T16:55:39Z</time>
      </trkpt>
      <trkpt lat="44.34543" lon="2.51604">
        <ele>652.6</ele>
        <time>2011-06-15T16:55:40Z</time>
      </trkpt>
      <trkpt lat="44.34542" lon="2.516">
        <ele>652.6</ele>
        <time>2011-06-15T16:55:41Z</time>
      </trkpt>
      <trkpt lat="44.34541" lon="2.51595">
        <ele>652.7</ele>
        <time>2011-06-15T16:55:42Z</time>
      </trkpt>
      <trkpt lat="44.3454" lon="2.51591">
        <ele>652.6</ele>
        <time>2011-06-15T16:55:43Z</time>
      </trkpt>
      <trkpt lat="44.3454" lon="2.51586">
        <ele>652.6</ele>
        <time>2011-06-15T16:55:44Z</time>
      </trkpt>
      <trkpt lat="44.34539" lon="2.51581">
        <ele>652.6</ele>
        <time>2011-06-15T16:55:45Z</time>
      </trkpt>
      <trkpt lat="44.34538" lon="2.51576">
        <ele>652.6</ele>
        <time>2011-06-15T16:55:46Z</time>
      </trkpt>
      <trkpt lat="44.34537" lon="2.51571">
        <ele>652.7</ele>
        <time>2011-06-15T16:55:47Z</time>
      </trkpt>
      <trkpt lat="44.34537" lon="2.51567">
        <ele>652.8</ele>
        <time>2011-06-15T16:55:48Z</time>
      </trkpt>
      <trkpt lat="44.34536" lon="2.51562">
        <ele>653.1</ele>
        <time>2011-06-15T16:55:49Z</time>
      </trkpt>
      <trkpt lat="44.34535" lon="2.51557">
        <ele>653.3</ele>
        <time>2011-06-15T16:55:50Z</time>
      </trkpt>
      <trkpt lat="44.34535" lon="2.51552">
        <ele>653.5</ele>
        <time>2011-06-15T16:55:51Z</time>
      </trkpt>
      <trkpt lat="44.34534" lon="2.51547">
        <ele>653.8</ele>
        <time>2011-06-15T16:55:52Z</time>
      </trkpt>
      <trkpt lat="44.34534" lon="2.51542">
        <ele>654</ele>
        <time>2011-06-15T16:55:53Z</time>
      </trkpt>
      <trkpt lat="44.34533" lon="2.51537">
        <ele>654.2</ele>
        <time>2011-06-15T16:55:54Z</time>
      </trkpt>
      <trkpt lat="44.34532" lon="2.51533">
        <ele>654.4</ele>
        <time>2011-06-15T16:55:55Z</time>
      </trkpt>
      <trkpt lat="44.34532" lon="2.51528">
        <ele>654.6</ele>
        <time>2011-06-15T16:55:56Z</time>
      </trkpt>
      <trkpt lat="44.34531" lon="2.51523">
        <ele>654.7</ele>
        <time>2011-06-15T16:55:57Z</time>
      </trkpt>
      <trkpt lat="44.34531" lon="2.51518">
        <ele>654.7</ele>
        <time>2011-06-15T16:55:58Z</time>
      </trkpt>
      <trkpt lat="44.3453" lon="2.51513">
        <ele>654.6</ele>
        <time>2011-06-15T16:55:59Z</time>
      </trkpt>
      <trkpt lat="44.34529" lon="2.51509">
        <ele>654.6</ele>
        <time>2011-06-15T16:56:00Z</time>
      </trkpt>
      <trkpt lat="44.34529" lon="2.51504">
        <ele>654.6</ele>
        <time>2011-06-15T16:56:01Z</time>
      </trkpt>
      <trkpt lat="44.34528" lon="2.51499">
        <ele>654.9</ele>
        <time>2011-06-15T16:56:02Z</time>
      </trkpt>
      <trkpt lat="44.34527" lon="2.51494">
        <ele>655.1</ele>
        <time>2011-06-15T16:56:03Z</time>
      </trkpt>
      <trkpt lat="44.34526" lon="2.51489">
        <ele>655.2</ele>
        <time>2011-06-15T16:56:04Z</time>
      </trkpt>
      <trkpt lat="44.34525" lon="2.51484">
        <ele>655.4</ele>
        <time>2011-06-15T16:56:05Z</time>
      </trkpt>
      <trkpt lat="44.34525" lon="2.51479">
        <ele>655.6</ele>
        <time>2011-06-15T16:56:06Z</time>
      </trkpt>
      <trkpt lat="44.34524" lon="2.51474">
        <ele>655.7</ele>
        <time>2011-06-15T16:56:07Z</time>
      </trkpt>
      <trkpt lat="44.34523" lon="2.5147">
        <ele>655.6</ele>
        <time>2011-06-15T16:56:08Z</time>
      </trkpt>
      <trkpt lat="44.34522" lon="2.51465">
        <ele>655.5</ele>
        <time>2011-06-15T16:56:09Z</time>
      </trkpt>
      <trkpt lat="44.34521" lon="2.5146">
        <ele>655.4</ele>
        <time>2011-06-15T16:56:10Z</time>
      </trkpt>
      <trkpt lat="44.3452" lon="2.51456">
        <ele>655.8</ele>
        <time>2011-06-15T16:56:11Z</time>
      </trkpt>
      <trkpt lat="44.34519" lon="2.51451">
        <ele>656.1</ele>
        <time>2011-06-15T16:56:12Z</time>
      </trkpt>
      <trkpt lat="44.34518" lon="2.51447">
        <ele>656.3</ele>
        <time>2011-06-15T16:56:13Z</time>
      </trkpt>
      <trkpt lat="44.34517" lon="2.51442">
        <ele>656.5</ele>
        <time>2011-06-15T16:56:14Z</time>
      </trkpt>
      <trkpt lat="44.34516" lon="2.51437">
        <ele>656.6</ele>
        <time>2011-06-15T16:56:15Z</time>
      </trkpt>
      <trkpt lat="44.34515" lon="2.51432">
        <ele>656.7</ele>
        <time>2011-06-15T16:56:16Z</time>
      </trkpt>
      <trkpt lat="44.34514" lon="2.51427">
        <ele>656.7</ele>
        <time>2011-06-15T16:56:17Z</time>
      </trkpt>
      <trkpt lat="44.34512" lon="2.51422">
        <ele>656.7</ele>
        <time>2011-06-15T16:56:18Z</time>
      </trkpt>
      <trkpt lat="44.34511" lon="2.51418">
        <ele>656.7</ele>
        <time>2011-06-15T16:56:19Z</time>
      </trkpt>
      <trkpt lat="44.34511" lon="2.51413">
        <ele>656.7</ele>
        <time>2011-06-15T16:56:20Z</time>
      </trkpt>
      <trkpt lat="44.3451" lon="2.51408">
        <ele>656.6</ele>
        <time>2011-06-15T16:56:21Z</time>
      </trkpt>
      <trkpt lat="44.34508" lon="2.51403">
        <ele>656.5</ele>
        <time>2011-06-15T16:56:22Z</time>
      </trkpt>
      <trkpt lat="44.34507" lon="2.51399">
        <ele>656.4</ele>
        <time>2011-06-15T16:56:23Z</time>
      </trkpt>
      <trkpt lat="44.34506" lon="2.51394">
        <ele>656.3</ele>
        <time>2011-06-15T16:56:24Z</time>
      </trkpt>
      <trkpt lat="44.34505" lon="2.51389">
        <ele>656.2</ele>
        <time>2011-06-15T16:56:25Z</time>
      </trkpt>
      <trkpt lat="44.34504" lon="2.51384">
        <ele>656.2</ele>
        <time>2011-06-15T16:56:26Z</time>
      </trkpt>
      <trkpt lat="44.34503" lon="2.51379">
        <ele>656.4</ele>
        <time>2011-06-15T16:56:27Z</time>
      </trkpt>
      <trkpt lat="44.34501" lon="2.51374">
        <ele>656.7</ele>
        <time>2011-06-15T16:56:28Z</time>
      </trkpt>
      <trkpt lat="44.345" lon="2.5137">
        <ele>656.8</ele>
        <time>2011-06-15T16:56:29Z</time>
      </trkpt>
      <trkpt lat="44.34498" lon="2.51365">
        <ele>656.4</ele>
        <time>2011-06-15T16:56:30Z</time>
      </trkpt>
      <trkpt lat="44.34497" lon="2.51359">
        <ele>656.2</ele>
        <time>2011-06-15T16:56:31Z</time>
      </trkpt>
      <trkpt lat="44.34495" lon="2.51354">
        <ele>655.9</ele>
        <time>2011-06-15T16:56:32Z</time>
      </trkpt>
      <trkpt lat="44.34493" lon="2.51349">
        <ele>655.8</ele>
        <time>2011-06-15T16:56:33Z</time>
      </trkpt>
      <trkpt lat="44.34492" lon="2.51343">
        <ele>655.8</ele>
        <time>2011-06-15T16:56:34Z</time>
      </trkpt>
      <trkpt lat="44.3449" lon="2.51338">
        <ele>655.8</ele>
        <time>2011-06-15T16:56:35Z</time>
      </trkpt>
      <trkpt lat="44.34488" lon="2.51332">
        <ele>655.8</ele>
        <time>2011-06-15T16:56:36Z</time>
      </trkpt>
      <trkpt lat="44.34487" lon="2.51327">
        <ele>655.9</ele>
        <time>2011-06-15T16:56:37Z</time>
      </trkpt>
      <trkpt lat="44.34485" lon="2.51321">
        <ele>656</ele>
        <time>2011-06-15T16:56:38Z</time>
      </trkpt>
      <trkpt lat="44.34483" lon="2.51316">
        <ele>656.1</ele>
        <time>2011-06-15T16:56:39Z</time>
      </trkpt>
      <trkpt lat="44.34482" lon="2.5131">
        <ele>656.3</ele>
        <time>2011-06-15T16:56:40Z</time>
      </trkpt>
      <trkpt lat="44.3448" lon="2.51305">
        <ele>656.4</ele>
        <time>2011-06-15T16:56:41Z</time>
      </trkpt>
      <trkpt lat="44.34479" lon="2.51299">
        <ele>656.5</ele>
        <time>2011-06-15T16:56:42Z</time>
      </trkpt>
      <trkpt lat="44.34477" lon="2.51293">
        <ele>656.2</ele>
        <time>2011-06-15T16:56:43Z</time>
      </trkpt>
      <trkpt lat="44.34476" lon="2.51288">
        <ele>656</ele>
        <time>2011-06-15T16:56:44Z</time>
      </trkpt>
      <trkpt lat="44.34475" lon="2.51282">
        <ele>655.8</ele>
        <time>2011-06-15T16:56:45Z</time>
      </trkpt>
      <trkpt lat="44.34473" lon="2.51276">
        <ele>656.2</ele>
        <time>2011-06-15T16:56:46Z</time>
      </trkpt>
      <trkpt lat="44.34472" lon="2.51271">
        <ele>656.5</ele>
        <time>2011-06-15T16:56:47Z</time>
      </trkpt>
      <trkpt lat="44.3447" lon="2.51265">
        <ele>656.7</ele>
        <time>2011-06-15T16:56:48Z</time>
      </trkpt>
      <trkpt lat="44.34469" lon="2.5126">
        <ele>656.9</ele>
        <time>2011-06-15T16:56:49Z</time>
      </trkpt>
      <trkpt lat="44.34468" lon="2.51254">
        <ele>657.1</ele>
        <time>2011-06-15T16:56:50Z</time>
      </trkpt>
      <trkpt lat="44.34467" lon="2.51248">
        <ele>657.2</ele>
        <time>2011-06-15T16:56:51Z</time>
      </trkpt>
      <trkpt lat="44.34465" lon="2.51243">
        <ele>657.3</ele>
        <time>2011-06-15T16:56:52Z</time>
      </trkpt>
      <trkpt lat="44.34465" lon="2.51237">
        <ele>657.4</ele>
        <time>2011-06-15T16:56:53Z</time>
      </trkpt>
      <trkpt lat="44.34464" lon="2.51232">
        <ele>657.5</ele>
        <time>2011-06-15T16:56:54Z</time>
      </trkpt>
      <trkpt lat="44.34463" lon="2.51226">
        <ele>657.5</ele>
        <time>2011-06-15T16:56:55Z</time>
      </trkpt>
      <trkpt lat="44.34462" lon="2.5122">
        <ele>657.4</ele>
        <time>2011-06-15T16:56:56Z</time>
      </trkpt>
      <trkpt lat="44.34462" lon="2.51214">
        <ele>657.4</ele>
        <time>2011-06-15T16:56:57Z</time>
      </trkpt>
      <trkpt lat="44.34461" lon="2.51209">
        <ele>657.3</ele>
        <time>2011-06-15T16:56:58Z</time>
      </trkpt>
      <trkpt lat="44.3446" lon="2.51203">
        <ele>657.4</ele>
        <time>2011-06-15T16:56:59Z</time>
      </trkpt>
      <trkpt lat="44.3446" lon="2.51197">
        <ele>657.4</ele>
        <time>2011-06-15T16:57:00Z</time>
      </trkpt>
      <trkpt lat="44.34459" lon="2.51192">
        <ele>657.5</ele>
        <time>2011-06-15T16:57:01Z</time>
      </trkpt>
      <trkpt lat="44.34459" lon="2.51186">
        <ele>657.3</ele>
        <time>2011-06-15T16:57:02Z</time>
      </trkpt>
      <trkpt lat="44.34458" lon="2.51181">
        <ele>657.1</ele>
        <time>2011-06-15T16:57:03Z</time>
      </trkpt>
      <trkpt lat="44.34458" lon="2.51176">
        <ele>657</ele>
        <time>2011-06-15T16:57:04Z</time>
      </trkpt>
      <trkpt lat="44.34458" lon="2.51172">
        <ele>657</ele>
        <time>2011-06-15T16:57:05Z</time>
      </trkpt>
      <trkpt lat="44.3446" lon="2.51169">
        <ele>657.2</ele>
        <time>2011-06-15T16:57:06Z</time>
      </trkpt>
      <trkpt lat="44.34462" lon="2.51166">
        <ele>657.3</ele>
        <time>2011-06-15T16:57:07Z</time>
      </trkpt>
      <trkpt lat="44.34465" lon="2.51164">
        <ele>657.4</ele>
        <time>2011-06-15T16:57:08Z</time>
      </trkpt>
      <trkpt lat="44.34467" lon="2.51162">
        <ele>657.3</ele>
        <time>2011-06-15T16:57:09Z</time>
      </trkpt>
      <trkpt lat="44.3447" lon="2.5116">
        <ele>657.2</ele>
        <time>2011-06-15T16:57:10Z</time>
      </trkpt>
      <trkpt lat="44.34473" lon="2.51158">
        <ele>657.1</ele>
        <time>2011-06-15T16:57:11Z</time>
      </trkpt>
      <trkpt lat="44.34476" lon="2.51156">
        <ele>657.3</ele>
        <time>2011-06-15T16:57:12Z</time>
      </trkpt>
      <trkpt lat="44.34479" lon="2.51154">
        <ele>657.5</ele>
        <time>2011-06-15T16:57:13Z</time>
      </trkpt>
      <trkpt lat="44.34483" lon="2.51151">
        <ele>657.6</ele>
        <time>2011-06-15T16:57:14Z</time>
      </trkpt>
      <trkpt lat="44.34486" lon="2.51149">
        <ele>657.6</ele>
        <time>2011-06-15T16:57:15Z</time>
      </trkpt>
      <trkpt lat="44.34489" lon="2.51147">
        <ele>657.7</ele>
        <time>2011-06-15T16:57:16Z</time>
      </trkpt>
      <trkpt lat="44.34492" lon="2.51144">
        <ele>657.7</ele>
        <time>2011-06-15T16:57:17Z</time>
      </trkpt>
      <trkpt lat="44.34496" lon="2.51142">
        <ele>657.3</ele>
        <time>2011-06-15T16:57:18Z</time>
      </trkpt>
      <trkpt lat="44.34499" lon="2.51139">
        <ele>657</ele>
        <time>2011-06-15T16:57:19Z</time>
      </trkpt>
      <trkpt lat="44.34502" lon="2.51137">
        <ele>656.8</ele>
        <time>2011-06-15T16:57:20Z</time>
      </trkpt>
      <trkpt lat="44.34506" lon="2.51134">
        <ele>656.6</ele>
        <time>2011-06-15T16:57:21Z</time>
      </trkpt>
      <trkpt lat="44.34509" lon="2.51132">
        <ele>656.7</ele>
        <time>2011-06-15T16:57:22Z</time>
      </trkpt>
      <trkpt lat="44.34512" lon="2.51129">
        <ele>656.7</ele>
        <time>2011-06-15T16:57:23Z</time>
      </trkpt>
      <trkpt lat="44.34516" lon="2.51127">
        <ele>656.8</ele>
        <time>2011-06-15T16:57:24Z</time>
      </trkpt>
      <trkpt lat="44.34519" lon="2.51125">
        <ele>656.8</ele>
        <time>2011-06-15T16:57:25Z</time>
      </trkpt>
      <trkpt lat="44.34523" lon="2.51123">
        <ele>656.8</ele>
        <time>2011-06-15T16:57:26Z</time>
      </trkpt>
      <trkpt lat="44.34527" lon="2.51122">
        <ele>656.8</ele>
        <time>2011-06-15T16:57:27Z</time>
      </trkpt>
      <trkpt lat="44.34531" lon="2.51121">
        <ele>656.7</ele>
        <time>2011-06-15T16:57:28Z</time>
      </trkpt>
      <trkpt lat="44.34536" lon="2.5112">
        <ele>656.6</ele>
        <time>2011-06-15T16:57:29Z</time>
      </trkpt>
      <trkpt lat="44.3454" lon="2.51119">
        <ele>656.5</ele>
        <time>2011-06-15T16:57:30Z</time>
      </trkpt>
      <trkpt lat="44.34544" lon="2.51118">
        <ele>656.1</ele>
        <time>2011-06-15T16:57:31Z</time>
      </trkpt>
      <trkpt lat="44.34549" lon="2.51117">
        <ele>655.7</ele>
        <time>2011-06-15T16:57:32Z</time>
      </trkpt>
      <trkpt lat="44.34554" lon="2.51117">
        <ele>655.5</ele>
        <time>2011-06-15T16:57:33Z</time>
      </trkpt>
      <trkpt lat="44.34558" lon="2.51116">
        <ele>655.1</ele>
        <time>2011-06-15T16:57:34Z</time>
      </trkpt>
      <trkpt lat="44.34563" lon="2.51115">
        <ele>654.8</ele>
        <time>2011-06-15T16:57:35Z</time>
      </trkpt>
      <trkpt lat="44.34566" lon="2.51112">
        <ele>654.6</ele>
        <time>2011-06-15T16:57:36Z</time>
      </trkpt>
      <trkpt lat="44.34569" lon="2.51108">
        <ele>654.1</ele>
        <time>2011-06-15T16:57:37Z</time>
      </trkpt>
      <trkpt lat="44.34571" lon="2.51104">
        <ele>653.7</ele>
        <time>2011-06-15T16:57:38Z</time>
      </trkpt>
      <trkpt lat="44.34573" lon="2.51099">
        <ele>653.4</ele>
        <time>2011-06-15T16:57:39Z</time>
      </trkpt>
      <trkpt lat="44.34575" lon="2.51094">
        <ele>653.2</ele>
        <time>2011-06-15T16:57:40Z</time>
      </trkpt>
      <trkpt lat="44.34577" lon="2.5109">
        <ele>652</ele>
        <time>2011-06-15T16:57:41Z</time>
      </trkpt>
      <trkpt lat="44.34579" lon="2.51085">
        <ele>651.2</ele>
        <time>2011-06-15T16:57:42Z</time>
      </trkpt>
      <trkpt lat="44.34581" lon="2.5108">
        <ele>650.5</ele>
        <time>2011-06-15T16:57:43Z</time>
      </trkpt>
      <trkpt lat="44.34583" lon="2.51075">
        <ele>650.3</ele>
        <time>2011-06-15T16:57:44Z</time>
      </trkpt>
      <trkpt lat="44.34586" lon="2.51071">
        <ele>650.1</ele>
        <time>2011-06-15T16:57:45Z</time>
      </trkpt>
      <trkpt lat="44.34589" lon="2.51066">
        <ele>650</ele>
        <time>2011-06-15T16:57:46Z</time>
      </trkpt>
      <trkpt lat="44.34591" lon="2.5106">
        <ele>650</ele>
        <time>2011-06-15T16:57:47Z</time>
      </trkpt>
      <trkpt lat="44.34593" lon="2.51053">
        <ele>650.1</ele>
        <time>2011-06-15T16:57:48Z</time>
      </trkpt>
      <trkpt lat="44.34595" lon="2.51047">
        <ele>650.1</ele>
        <time>2011-06-15T16:57:49Z</time>
      </trkpt>
      <trkpt lat="44.34598" lon="2.5104">
        <ele>649.4</ele>
        <time>2011-06-15T16:57:50Z</time>
      </trkpt>
      <trkpt lat="44.346" lon="2.51034">
        <ele>648.8</ele>
        <time>2011-06-15T16:57:51Z</time>
      </trkpt>
      <trkpt lat="44.34602" lon="2.51028">
        <ele>648.3</ele>
        <time>2011-06-15T16:57:52Z</time>
      </trkpt>
      <trkpt lat="44.34602" lon="2.51022">
        <ele>648.1</ele>
        <time>2011-06-15T16:57:53Z</time>
      </trkpt>
      <trkpt lat="44.34602" lon="2.51016">
        <ele>647.9</ele>
        <time>2011-06-15T16:57:54Z</time>
      </trkpt>
      <trkpt lat="44.34603" lon="2.5101">
        <ele>647.8</ele>
        <time>2011-06-15T16:57:55Z</time>
      </trkpt>
      <trkpt lat="44.34604" lon="2.51004">
        <ele>647.7</ele>
        <time>2011-06-15T16:57:56Z</time>
      </trkpt>
      <trkpt lat="44.34605" lon="2.50996">
        <ele>647</ele>
        <time>2011-06-15T16:57:57Z</time>
      </trkpt>
      <trkpt lat="44.34606" lon="2.50989">
        <ele>646.5</ele>
        <time>2011-06-15T16:57:58Z</time>
      </trkpt>
      <trkpt lat="44.34608" lon="2.50983">
        <ele>646.1</ele>
        <time>2011-06-15T16:57:59Z</time>
      </trkpt>
      <trkpt lat="44.34611" lon="2.50977">
        <ele>645.6</ele>
        <time>2011-06-15T16:58:00Z</time>
      </trkpt>
      <trkpt lat="44.34613" lon="2.50972">
        <ele>645.2</ele>
        <time>2011-06-15T16:58:01Z</time>
      </trkpt>
      <trkpt lat="44.34615" lon="2.50967">
        <ele>644.9</ele>
        <time>2011-06-15T16:58:02Z</time>
      </trkpt>
      <trkpt lat="44.34616" lon="2.50961">
        <ele>644</ele>
        <time>2011-06-15T16:58:03Z</time>
      </trkpt>
      <trkpt lat="44.34616" lon="2.50954">
        <ele>643.2</ele>
        <time>2011-06-15T16:58:04Z</time>
      </trkpt>
      <trkpt lat="44.34617" lon="2.50947">
        <ele>642.7</ele>
        <time>2011-06-15T16:58:05Z</time>
      </trkpt>
      <trkpt lat="44.34619" lon="2.50941">
        <ele>640.7</ele>
        <time>2011-06-15T16:58:06Z</time>
      </trkpt>
      <trkpt lat="44.34621" lon="2.50936">
        <ele>639.3</ele>
        <time>2011-06-15T16:58:07Z</time>
      </trkpt>
      <trkpt lat="44.34622" lon="2.5093">
        <ele>638.2</ele>
        <time>2011-06-15T16:58:08Z</time>
      </trkpt>
      <trkpt lat="44.34623" lon="2.50925">
        <ele>636.7</ele>
        <time>2011-06-15T16:58:09Z</time>
      </trkpt>
      <trkpt lat="44.34622" lon="2.50919">
        <ele>635.6</ele>
        <time>2011-06-15T16:58:10Z</time>
      </trkpt>
      <trkpt lat="44.34622" lon="2.50914">
        <ele>634.7</ele>
        <time>2011-06-15T16:58:11Z</time>
      </trkpt>
      <trkpt lat="44.34623" lon="2.50909">
        <ele>634.1</ele>
        <time>2011-06-15T16:58:12Z</time>
      </trkpt>
      <trkpt lat="44.34623" lon="2.50906">
        <ele>633.1</ele>
        <time>2011-06-15T16:58:13Z</time>
      </trkpt>
      <trkpt lat="44.34624" lon="2.50903">
        <ele>632.4</ele>
        <time>2011-06-15T16:58:14Z</time>
      </trkpt>
      <trkpt lat="44.34624" lon="2.50899">
        <ele>631.9</ele>
        <time>2011-06-15T16:58:15Z</time>
      </trkpt>
      <trkpt lat="44.34624" lon="2.50896">
        <ele>631.9</ele>
        <time>2011-06-15T16:58:16Z</time>
      </trkpt>
      <trkpt lat="44.34625" lon="2.50892">
        <ele>632</ele>
        <time>2011-06-15T16:58:17Z</time>
      </trkpt>
      <trkpt lat="44.34625" lon="2.50887">
        <ele>632</ele>
        <time>2011-06-15T16:58:18Z</time>
      </trkpt>
      <trkpt lat="44.34626" lon="2.5088">
        <ele>631.9</ele>
        <time>2011-06-15T16:58:19Z</time>
      </trkpt>
      <trkpt lat="44.34628" lon="2.50874">
        <ele>631.8</ele>
        <time>2011-06-15T16:58:20Z</time>
      </trkpt>
      <trkpt lat="44.34631" lon="2.50868">
        <ele>631.7</ele>
        <time>2011-06-15T16:58:21Z</time>
      </trkpt>
      <trkpt lat="44.34635" lon="2.50862">
        <ele>630.9</ele>
        <time>2011-06-15T16:58:22Z</time>
      </trkpt>
      <trkpt lat="44.34639" lon="2.50856">
        <ele>630.3</ele>
        <time>2011-06-15T16:58:23Z</time>
      </trkpt>
      <trkpt lat="44.34642" lon="2.50849">
        <ele>629.9</ele>
        <time>2011-06-15T16:58:24Z</time>
      </trkpt>
      <trkpt lat="44.34646" lon="2.50842">
        <ele>629.4</ele>
        <time>2011-06-15T16:58:25Z</time>
      </trkpt>
      <trkpt lat="44.34649" lon="2.50835">
        <ele>629</ele>
        <time>2011-06-15T16:58:26Z</time>
      </trkpt>
      <trkpt lat="44.3465" lon="2.50828">
        <ele>628.7</ele>
        <time>2011-06-15T16:58:27Z</time>
      </trkpt>
      <trkpt lat="44.34649" lon="2.50821">
        <ele>628.5</ele>
        <time>2011-06-15T16:58:28Z</time>
      </trkpt>
      <trkpt lat="44.34647" lon="2.50813">
        <ele>628.1</ele>
        <time>2011-06-15T16:58:29Z</time>
      </trkpt>
      <trkpt lat="44.34645" lon="2.50805">
        <ele>627.8</ele>
        <time>2011-06-15T16:58:30Z</time>
      </trkpt>
      <trkpt lat="44.34643" lon="2.50796">
        <ele>627.5</ele>
        <time>2011-06-15T16:58:31Z</time>
      </trkpt>
      <trkpt lat="44.34641" lon="2.50787">
        <ele>627.1</ele>
        <time>2011-06-15T16:58:32Z</time>
      </trkpt>
      <trkpt lat="44.34639" lon="2.50777">
        <ele>626.8</ele>
        <time>2011-06-15T16:58:33Z</time>
      </trkpt>
      <trkpt lat="44.34636" lon="2.50767">
        <ele>626.5</ele>
        <time>2011-06-15T16:58:34Z</time>
      </trkpt>
      <trkpt lat="44.34634" lon="2.50757">
        <ele>625.7</ele>
        <time>2011-06-15T16:58:35Z</time>
      </trkpt>
      <trkpt lat="44.3463" lon="2.50747">
        <ele>625.2</ele>
        <time>2011-06-15T16:58:36Z</time>
      </trkpt>
      <trkpt lat="44.34626" lon="2.50738">
        <ele>624.7</ele>
        <time>2011-06-15T16:58:37Z</time>
      </trkpt>
      <trkpt lat="44.34622" lon="2.50728">
        <ele>624.4</ele>
        <time>2011-06-15T16:58:38Z</time>
      </trkpt>
      <trkpt lat="44.34618" lon="2.50718">
        <ele>624.3</ele>
        <time>2011-06-15T16:58:39Z</time>
      </trkpt>
      <trkpt lat="44.34613" lon="2.50707">
        <ele>624.1</ele>
        <time>2011-06-15T16:58:40Z</time>
      </trkpt>
      <trkpt lat="44.34608" lon="2.50695">
        <ele>623</ele>
        <time>2011-06-15T16:58:41Z</time>
      </trkpt>
      <trkpt lat="44.34605" lon="2.50683">
        <ele>622.2</ele>
        <time>2011-06-15T16:58:42Z</time>
      </trkpt>
      <trkpt lat="44.34601" lon="2.50671">
        <ele>621.6</ele>
        <time>2011-06-15T16:58:43Z</time>
      </trkpt>
      <trkpt lat="44.34598" lon="2.50658">
        <ele>621.2</ele>
        <time>2011-06-15T16:58:44Z</time>
      </trkpt>
      <trkpt lat="44.34594" lon="2.50645">
        <ele>620</ele>
        <time>2011-06-15T16:58:45Z</time>
      </trkpt>
      <trkpt lat="44.34591" lon="2.50631">
        <ele>619.1</ele>
        <time>2011-06-15T16:58:46Z</time>
      </trkpt>
      <trkpt lat="44.34588" lon="2.50617">
        <ele>618.4</ele>
        <time>2011-06-15T16:58:47Z</time>
      </trkpt>
      <trkpt lat="44.34586" lon="2.50604">
        <ele>617.3</ele>
        <time>2011-06-15T16:58:48Z</time>
      </trkpt>
      <trkpt lat="44.34583" lon="2.50591">
        <ele>616.6</ele>
        <time>2011-06-15T16:58:49Z</time>
      </trkpt>
      <trkpt lat="44.34582" lon="2.50579">
        <ele>616</ele>
        <time>2011-06-15T16:58:50Z</time>
      </trkpt>
      <trkpt lat="44.3458" lon="2.50567">
        <ele>615.6</ele>
        <time>2011-06-15T16:58:51Z</time>
      </trkpt>
      <trkpt lat="44.34578" lon="2.50555">
        <ele>615.4</ele>
        <time>2011-06-15T16:58:52Z</time>
      </trkpt>
      <trkpt lat="44.34576" lon="2.50545">
        <ele>615.2</ele>
        <time>2011-06-15T16:58:53Z</time>
      </trkpt>
      <trkpt lat="44.34574" lon="2.50535">
        <ele>614.6</ele>
        <time>2011-06-15T16:58:54Z</time>
      </trkpt>
      <trkpt lat="44.34572" lon="2.50526">
        <ele>614.2</ele>
        <time>2011-06-15T16:58:55Z</time>
      </trkpt>
      <trkpt lat="44.3457" lon="2.50517">
        <ele>613.8</ele>
        <time>2011-06-15T16:58:56Z</time>
      </trkpt>
      <trkpt lat="44.34566" lon="2.5051">
        <ele>614</ele>
        <time>2011-06-15T16:58:57Z</time>
      </trkpt>
      <trkpt lat="44.34563" lon="2.50502">
        <ele>614</ele>
        <time>2011-06-15T16:58:58Z</time>
      </trkpt>
      <trkpt lat="44.34559" lon="2.50496">
        <ele>614.1</ele>
        <time>2011-06-15T16:58:59Z</time>
      </trkpt>
      <trkpt lat="44.34554" lon="2.5049">
        <ele>613.7</ele>
        <time>2011-06-15T16:59:00Z</time>
      </trkpt>
      <trkpt lat="44.34549" lon="2.50484">
        <ele>613.4</ele>
        <time>2011-06-15T16:59:01Z</time>
      </trkpt>
      <trkpt lat="44.34543" lon="2.50478">
        <ele>613.1</ele>
        <time>2011-06-15T16:59:02Z</time>
      </trkpt>
      <trkpt lat="44.34538" lon="2.50471">
        <ele>612.9</ele>
        <time>2011-06-15T16:59:03Z</time>
      </trkpt>
      <trkpt lat="44.34533" lon="2.50464">
        <ele>612.2</ele>
        <time>2011-06-15T16:59:04Z</time>
      </trkpt>
      <trkpt lat="44.34528" lon="2.50457">
        <ele>611.7</ele>
        <time>2011-06-15T16:59:05Z</time>
      </trkpt>
      <trkpt lat="44.34522" lon="2.5045">
        <ele>611.3</ele>
        <time>2011-06-15T16:59:06Z</time>
      </trkpt>
      <trkpt lat="44.34518" lon="2.50442">
        <ele>611.1</ele>
        <time>2011-06-15T16:59:07Z</time>
      </trkpt>
      <trkpt lat="44.34513" lon="2.50434">
        <ele>611</ele>
        <time>2011-06-15T16:59:08Z</time>
      </trkpt>
      <trkpt lat="44.34509" lon="2.50425">
        <ele>610.9</ele>
        <time>2011-06-15T16:59:09Z</time>
      </trkpt>
      <trkpt lat="44.34504" lon="2.50417">
        <ele>610.2</ele>
        <time>2011-06-15T16:59:10Z</time>
      </trkpt>
      <trkpt lat="44.345" lon="2.50408">
        <ele>609.8</ele>
        <time>2011-06-15T16:59:11Z</time>
      </trkpt>
      <trkpt lat="44.34495" lon="2.504">
        <ele>609.4</ele>
        <time>2011-06-15T16:59:12Z</time>
      </trkpt>
      <trkpt lat="44.34491" lon="2.5039">
        <ele>609</ele>
        <time>2011-06-15T16:59:13Z</time>
      </trkpt>
      <trkpt lat="44.34488" lon="2.5038">
        <ele>608.7</ele>
        <time>2011-06-15T16:59:14Z</time>
      </trkpt>
      <trkpt lat="44.34484" lon="2.5037">
        <ele>608.5</ele>
        <time>2011-06-15T16:59:15Z</time>
      </trkpt>
      <trkpt lat="44.34479" lon="2.50363">
        <ele>608</ele>
        <time>2011-06-15T16:59:16Z</time>
      </trkpt>
      <trkpt lat="44.34474" lon="2.50357">
        <ele>607.5</ele>
        <time>2011-06-15T16:59:17Z</time>
      </trkpt>
      <trkpt lat="44.34468" lon="2.50352">
        <ele>607.2</ele>
        <time>2011-06-15T16:59:18Z</time>
      </trkpt>
      <trkpt lat="44.34462" lon="2.50348">
        <ele>607</ele>
        <time>2011-06-15T16:59:19Z</time>
      </trkpt>
      <trkpt lat="44.34456" lon="2.50343">
        <ele>607.1</ele>
        <time>2011-06-15T16:59:20Z</time>
      </trkpt>
      <trkpt lat="44.3445" lon="2.50339">
        <ele>607.2</ele>
        <time>2011-06-15T16:59:21Z</time>
      </trkpt>
      <trkpt lat="44.34445" lon="2.50334">
        <ele>607.3</ele>
        <time>2011-06-15T16:59:22Z</time>
      </trkpt>
      <trkpt lat="44.3444" lon="2.50329">
        <ele>607.1</ele>
        <time>2011-06-15T16:59:23Z</time>
      </trkpt>
      <trkpt lat="44.34435" lon="2.50324">
        <ele>606.9</ele>
        <time>2011-06-15T16:59:24Z</time>
      </trkpt>
      <trkpt lat="44.34431" lon="2.50318">
        <ele>606.8</ele>
        <time>2011-06-15T16:59:25Z</time>
      </trkpt>
      <trkpt lat="44.34427" lon="2.50312">
        <ele>607.4</ele>
        <time>2011-06-15T16:59:26Z</time>
      </trkpt>
      <trkpt lat="44.34422" lon="2.50307">
        <ele>607.8</ele>
        <time>2011-06-15T16:59:27Z</time>
      </trkpt>
      <trkpt lat="44.34418" lon="2.50301">
        <ele>608.1</ele>
        <time>2011-06-15T16:59:28Z</time>
      </trkpt>
      <trkpt lat="44.34415" lon="2.50294">
        <ele>608.2</ele>
        <time>2011-06-15T16:59:29Z</time>
      </trkpt>
      <trkpt lat="44.34412" lon="2.50288">
        <ele>608.3</ele>
        <time>2011-06-15T16:59:30Z</time>
      </trkpt>
      <trkpt lat="44.34409" lon="2.50283">
        <ele>608.3</ele>
        <time>2011-06-15T16:59:31Z</time>
      </trkpt>
      <trkpt lat="44.34406" lon="2.50278">
        <ele>608.6</ele>
        <time>2011-06-15T16:59:32Z</time>
      </trkpt>
      <trkpt lat="44.34403" lon="2.50273">
        <ele>608.9</ele>
        <time>2011-06-15T16:59:33Z</time>
      </trkpt>
      <trkpt lat="44.344" lon="2.50268">
        <ele>609.1</ele>
        <time>2011-06-15T16:59:34Z</time>
      </trkpt>
      <trkpt lat="44.34398" lon="2.50263">
        <ele>609.2</ele>
        <time>2011-06-15T16:59:35Z</time>
      </trkpt>
      <trkpt lat="44.34395" lon="2.50258">
        <ele>609.8</ele>
        <time>2011-06-15T16:59:36Z</time>
      </trkpt>
      <trkpt lat="44.34393" lon="2.50252">
        <ele>610.3</ele>
        <time>2011-06-15T16:59:37Z</time>
      </trkpt>
      <trkpt lat="44.34391" lon="2.50247">
        <ele>610.6</ele>
        <time>2011-06-15T16:59:38Z</time>
      </trkpt>
      <trkpt lat="44.34389" lon="2.50242">
        <ele>611.4</ele>
        <time>2011-06-15T16:59:39Z</time>
      </trkpt>
      <trkpt lat="44.34387" lon="2.50238">
        <ele>612</ele>
        <time>2011-06-15T16:59:40Z</time>
      </trkpt>
      <trkpt lat="44.34385" lon="2.50234">
        <ele>612.5</ele>
        <time>2011-06-15T16:59:41Z</time>
      </trkpt>
      <trkpt lat="44.34382" lon="2.50231">
        <ele>612.8</ele>
        <time>2011-06-15T16:59:42Z</time>
      </trkpt>
      <trkpt lat="44.3438" lon="2.50227">
        <ele>613</ele>
        <time>2011-06-15T16:59:43Z</time>
      </trkpt>
      <trkpt lat="44.34378" lon="2.50224">
        <ele>613.1</ele>
        <time>2011-06-15T16:59:44Z</time>
      </trkpt>
      <trkpt lat="44.34375" lon="2.50222">
        <ele>613.3</ele>
        <time>2011-06-15T16:59:45Z</time>
      </trkpt>
      <trkpt lat="44.34373" lon="2.5022">
        <ele>613.5</ele>
        <time>2011-06-15T16:59:46Z</time>
      </trkpt>
      <trkpt lat="44.34369" lon="2.50218">
        <ele>613.6</ele>
        <time>2011-06-15T16:59:47Z</time>
      </trkpt>
      <trkpt lat="44.34366" lon="2.50216">
        <ele>613.7</ele>
        <time>2011-06-15T16:59:48Z</time>
      </trkpt>
      <trkpt lat="44.34361" lon="2.50214">
        <ele>613.8</ele>
        <time>2011-06-15T16:59:49Z</time>
      </trkpt>
      <trkpt lat="44.34356" lon="2.50212">
        <ele>613.8</ele>
        <time>2011-06-15T16:59:50Z</time>
      </trkpt>
      <trkpt lat="44.34351" lon="2.5021">
        <ele>613.9</ele>
        <time>2011-06-15T16:59:51Z</time>
      </trkpt>
      <trkpt lat="44.34345" lon="2.50207">
        <ele>613.8</ele>
        <time>2011-06-15T16:59:52Z</time>
      </trkpt>
      <trkpt lat="44.34339" lon="2.50205">
        <ele>613.7</ele>
        <time>2011-06-15T16:59:53Z</time>
      </trkpt>
      <trkpt lat="44.34333" lon="2.50202">
        <ele>613.6</ele>
        <time>2011-06-15T16:59:54Z</time>
      </trkpt>
      <trkpt lat="44.34327" lon="2.502">
        <ele>612.8</ele>
        <time>2011-06-15T16:59:55Z</time>
      </trkpt>
      <trkpt lat="44.34321" lon="2.50198">
        <ele>612.1</ele>
        <time>2011-06-15T16:59:56Z</time>
      </trkpt>
      <trkpt lat="44.34316" lon="2.50197">
        <ele>611.6</ele>
        <time>2011-06-15T16:59:57Z</time>
      </trkpt>
      <trkpt lat="44.3431" lon="2.50195">
        <ele>611.7</ele>
        <time>2011-06-15T16:59:58Z</time>
      </trkpt>
      <trkpt lat="44.34305" lon="2.50193">
        <ele>611.7</ele>
        <time>2011-06-15T16:59:59Z</time>
      </trkpt>
      <trkpt lat="44.343" lon="2.50191">
        <ele>611.7</ele>
        <time>2011-06-15T17:00:00Z</time>
      </trkpt>
      <trkpt lat="44.34296" lon="2.50189">
        <ele>612.1</ele>
        <time>2011-06-15T17:00:01Z</time>
      </trkpt>
      <trkpt lat="44.34292" lon="2.50187">
        <ele>612.4</ele>
        <time>2011-06-15T17:00:02Z</time>
      </trkpt>
      <trkpt lat="44.34288" lon="2.50185">
        <ele>612.6</ele>
        <time>2011-06-15T17:00:03Z</time>
      </trkpt>
      <trkpt lat="44.34284" lon="2.50184">
        <ele>613.1</ele>
        <time>2011-06-15T17:00:04Z</time>
      </trkpt>
      <trkpt lat="44.34281" lon="2.50181">
        <ele>613.5</ele>
        <time>2011-06-15T17:00:05Z</time>
      </trkpt>
      <trkpt lat="44.34277" lon="2.50179">
        <ele>613.8</ele>
        <time>2011-06-15T17:00:06Z</time>
      </trkpt>
      <trkpt lat="44.34274" lon="2.50177">
        <ele>614</ele>
        <time>2011-06-15T17:00:07Z</time>
      </trkpt>
      <trkpt lat="44.34271" lon="2.50174">
        <ele>613.9</ele>
        <time>2011-06-15T17:00:08Z</time>
      </trkpt>
      <trkpt lat="44.34267" lon="2.5017">
        <ele>613.8</ele>
        <time>2011-06-15T17:00:09Z</time>
      </trkpt>
      <trkpt lat="44.34263" lon="2.50165">
        <ele>613.7</ele>
        <time>2011-06-15T17:00:10Z</time>
      </trkpt>
      <trkpt lat="44.34259" lon="2.50159">
        <ele>613.3</ele>
        <time>2011-06-15T17:00:11Z</time>
      </trkpt>
      <trkpt lat="44.34256" lon="2.50151">
        <ele>613</ele>
        <time>2011-06-15T17:00:12Z</time>
      </trkpt>
      <trkpt lat="44.34253" lon="2.50143">
        <ele>612.7</ele>
        <time>2011-06-15T17:00:13Z</time>
      </trkpt>
      <trkpt lat="44.34249" lon="2.50137">
        <ele>612.3</ele>
        <time>2011-06-15T17:00:14Z</time>
      </trkpt>
      <trkpt lat="44.34246" lon="2.50133">
        <ele>612</ele>
        <time>2011-06-15T17:00:15Z</time>
      </trkpt>
      <trkpt lat="44.34243" lon="2.50131">
        <ele>611.8</ele>
        <time>2011-06-15T17:00:16Z</time>
      </trkpt>
      <trkpt lat="44.3424" lon="2.50127">
        <ele>610.9</ele>
        <time>2011-06-15T17:00:28Z</time>
      </trkpt>
      <trkpt lat="44.34236" lon="2.50125">
        <ele>610.7</ele>
        <time>2011-06-15T17:01:58Z</time>
      </trkpt>
      <trkpt lat="44.34236" lon="2.50125">
        <ele>610.5</ele>
        <time>2011-06-15T17:01:59Z</time>
      </trkpt>
      <trkpt lat="44.34233" lon="2.50115">
        <ele>610.6</ele>
        <time>2011-06-15T17:02:04Z</time>
      </trkpt>
      <trkpt lat="44.34232" lon="2.50111">
        <ele>610.7</ele>
        <time>2011-06-15T17:02:05Z</time>
      </trkpt>
      <trkpt lat="44.34231" lon="2.50107">
        <ele>610.4</ele>
        <time>2011-06-15T17:02:06Z</time>
      </trkpt>
      <trkpt lat="44.3423" lon="2.50102">
        <ele>610.1</ele>
        <time>2011-06-15T17:02:07Z</time>
      </trkpt>
      <trkpt lat="44.34228" lon="2.50096">
        <ele>609.9</ele>
        <time>2011-06-15T17:02:08Z</time>
      </trkpt>
      <trkpt lat="44.34226" lon="2.50089">
        <ele>609.4</ele>
        <time>2011-06-15T17:02:09Z</time>
      </trkpt>
      <trkpt lat="44.34224" lon="2.50082">
        <ele>609</ele>
        <time>2011-06-15T17:02:10Z</time>
      </trkpt>
      <trkpt lat="44.34222" lon="2.50074">
        <ele>608.7</ele>
        <time>2011-06-15T17:02:11Z</time>
      </trkpt>
      <trkpt lat="44.34219" lon="2.50066">
        <ele>608.5</ele>
        <time>2011-06-15T17:02:12Z</time>
      </trkpt>
      <trkpt lat="44.34215" lon="2.5006">
        <ele>608.3</ele>
        <time>2011-06-15T17:02:13Z</time>
      </trkpt>
      <trkpt lat="44.34209" lon="2.50054">
        <ele>608.1</ele>
        <time>2011-06-15T17:02:14Z</time>
      </trkpt>
      <trkpt lat="44.34203" lon="2.50052">
        <ele>607.2</ele>
        <time>2011-06-15T17:02:15Z</time>
      </trkpt>
      <trkpt lat="44.34197" lon="2.50052">
        <ele>606.5</ele>
        <time>2011-06-15T17:02:16Z</time>
      </trkpt>
      <trkpt lat="44.34191" lon="2.50053">
        <ele>605.9</ele>
        <time>2011-06-15T17:02:17Z</time>
      </trkpt>
      <trkpt lat="44.34185" lon="2.50051">
        <ele>605.1</ele>
        <time>2011-06-15T17:02:18Z</time>
      </trkpt>
      <trkpt lat="44.3418" lon="2.50046">
        <ele>604.6</ele>
        <time>2011-06-15T17:02:19Z</time>
      </trkpt>
      <trkpt lat="44.34176" lon="2.5004">
        <ele>604.1</ele>
        <time>2011-06-15T17:02:20Z</time>
      </trkpt>
      <trkpt lat="44.34172" lon="2.50033">
        <ele>603.8</ele>
        <time>2011-06-15T17:02:21Z</time>
      </trkpt>
      <trkpt lat="44.34168" lon="2.50027">
        <ele>603</ele>
        <time>2011-06-15T17:02:22Z</time>
      </trkpt>
      <trkpt lat="44.34163" lon="2.50021">
        <ele>602.4</ele>
        <time>2011-06-15T17:02:23Z</time>
      </trkpt>
      <trkpt lat="44.34158" lon="2.50015">
        <ele>602</ele>
        <time>2011-06-15T17:02:24Z</time>
      </trkpt>
      <trkpt lat="44.34152" lon="2.50009">
        <ele>601.6</ele>
        <time>2011-06-15T17:02:25Z</time>
      </trkpt>
      <trkpt lat="44.34148" lon="2.50002">
        <ele>601.4</ele>
        <time>2011-06-15T17:02:26Z</time>
      </trkpt>
      <trkpt lat="44.34142" lon="2.49995">
        <ele>601.2</ele>
        <time>2011-06-15T17:02:27Z</time>
      </trkpt>
      <trkpt lat="44.34137" lon="2.49989">
        <ele>599.9</ele>
        <time>2011-06-15T17:02:28Z</time>
      </trkpt>
      <trkpt lat="44.34134" lon="2.49981">
        <ele>598.9</ele>
        <time>2011-06-15T17:02:29Z</time>
      </trkpt>
      <trkpt lat="44.34131" lon="2.49972">
        <ele>598.2</ele>
        <time>2011-06-15T17:02:30Z</time>
      </trkpt>
      <trkpt lat="44.34128" lon="2.49963">
        <ele>597.5</ele>
        <time>2011-06-15T17:02:31Z</time>
      </trkpt>
      <trkpt lat="44.34126" lon="2.49954">
        <ele>597</ele>
        <time>2011-06-15T17:02:32Z</time>
      </trkpt>
      <trkpt lat="44.34124" lon="2.49945">
        <ele>596.7</ele>
        <time>2011-06-15T17:02:33Z</time>
      </trkpt>
      <trkpt lat="44.34122" lon="2.49935">
        <ele>595.4</ele>
        <time>2011-06-15T17:02:34Z</time>
      </trkpt>
      <trkpt lat="44.3412" lon="2.49925">
        <ele>594.5</ele>
        <time>2011-06-15T17:02:35Z</time>
      </trkpt>
      <trkpt lat="44.34117" lon="2.49915">
        <ele>593.8</ele>
        <time>2011-06-15T17:02:36Z</time>
      </trkpt>
      <trkpt lat="44.34114" lon="2.49909">
        <ele>593.3</ele>
        <time>2011-06-15T17:02:37Z</time>
      </trkpt>
      <trkpt lat="44.3411" lon="2.49904">
        <ele>592.5</ele>
        <time>2011-06-15T17:02:38Z</time>
      </trkpt>
      <trkpt lat="44.34107" lon="2.49899">
        <ele>591.9</ele>
        <time>2011-06-15T17:02:39Z</time>
      </trkpt>
      <trkpt lat="44.34106" lon="2.49893">
        <ele>591.5</ele>
        <time>2011-06-15T17:02:40Z</time>
      </trkpt>
      <trkpt lat="44.34105" lon="2.49888">
        <ele>590.3</ele>
        <time>2011-06-15T17:02:41Z</time>
      </trkpt>
      <trkpt lat="44.34106" lon="2.49882">
        <ele>589.4</ele>
        <time>2011-06-15T17:02:42Z</time>
      </trkpt>
      <trkpt lat="44.34105" lon="2.49876">
        <ele>588.7</ele>
        <time>2011-06-15T17:02:43Z</time>
      </trkpt>
      <trkpt lat="44.34103" lon="2.49873">
        <ele>587.5</ele>
        <time>2011-06-15T17:02:44Z</time>
      </trkpt>
      <trkpt lat="44.341" lon="2.49872">
        <ele>586.6</ele>
        <time>2011-06-15T17:02:45Z</time>
      </trkpt>
      <trkpt lat="44.34097" lon="2.49871">
        <ele>585.9</ele>
        <time>2011-06-15T17:02:46Z</time>
      </trkpt>
      <trkpt lat="44.34093" lon="2.49872">
        <ele>583.9</ele>
        <time>2011-06-15T17:02:48Z</time>
      </trkpt>
      <trkpt lat="44.3409" lon="2.49875">
        <ele>582.3</ele>
        <time>2011-06-15T17:02:50Z</time>
      </trkpt>
      <trkpt lat="44.34087" lon="2.49878">
        <ele>581.6</ele>
        <time>2011-06-15T17:02:51Z</time>
      </trkpt>
      <trkpt lat="44.34084" lon="2.49882">
        <ele>581.1</ele>
        <time>2011-06-15T17:02:52Z</time>
      </trkpt>
      <trkpt lat="44.34081" lon="2.49884">
        <ele>580.7</ele>
        <time>2011-06-15T17:02:53Z</time>
      </trkpt>
      <trkpt lat="44.34078" lon="2.49885">
        <ele>579.9</ele>
        <time>2011-06-15T17:02:54Z</time>
      </trkpt>
      <trkpt lat="44.34077" lon="2.49881">
        <ele>579.2</ele>
        <time>2011-06-15T17:02:55Z</time>
      </trkpt>
      <trkpt lat="44.34076" lon="2.49877">
        <ele>578.8</ele>
        <time>2011-06-15T17:02:56Z</time>
      </trkpt>
      <trkpt lat="44.34077" lon="2.49873">
        <ele>577.8</ele>
        <time>2011-06-15T17:02:57Z</time>
      </trkpt>
      <trkpt lat="44.34078" lon="2.49868">
        <ele>577.1</ele>
        <time>2011-06-15T17:02:58Z</time>
      </trkpt>
      <trkpt lat="44.34077" lon="2.49863">
        <ele>576.6</ele>
        <time>2011-06-15T17:02:59Z</time>
      </trkpt>
      <trkpt lat="44.34078" lon="2.49859">
        <ele>575.7</ele>
        <time>2011-06-15T17:03:00Z</time>
      </trkpt>
      <trkpt lat="44.3408" lon="2.49855">
        <ele>575.1</ele>
        <time>2011-06-15T17:03:01Z</time>
      </trkpt>
      <trkpt lat="44.34078" lon="2.4985">
        <ele>574.2</ele>
        <time>2011-06-15T17:03:03Z</time>
      </trkpt>
      <trkpt lat="44.34076" lon="2.4985">
        <ele>573.9</ele>
        <time>2011-06-15T17:03:04Z</time>
      </trkpt>
      <trkpt lat="44.34073" lon="2.49851">
        <ele>573.7</ele>
        <time>2011-06-15T17:03:05Z</time>
      </trkpt>
      <trkpt lat="44.3407" lon="2.49853">
        <ele>573.2</ele>
        <time>2011-06-15T17:03:06Z</time>
      </trkpt>
      <trkpt lat="44.34069" lon="2.49855">
        <ele>572.9</ele>
        <time>2011-06-15T17:03:07Z</time>
      </trkpt>
      <trkpt lat="44.34067" lon="2.49859">
        <ele>572.7</ele>
        <time>2011-06-15T17:03:08Z</time>
      </trkpt>
      <trkpt lat="44.34064" lon="2.49863">
        <ele>571.8</ele>
        <time>2011-06-15T17:03:09Z</time>
      </trkpt>
      <trkpt lat="44.34062" lon="2.49866">
        <ele>571.1</ele>
        <time>2011-06-15T17:03:10Z</time>
      </trkpt>
      <trkpt lat="44.34058" lon="2.49864">
        <ele>570.3</ele>
        <time>2011-06-15T17:03:12Z</time>
      </trkpt>
      <trkpt lat="44.34057" lon="2.49858">
        <ele>569.2</ele>
        <time>2011-06-15T17:04:08Z</time>
      </trkpt>
      <trkpt lat="44.34058" lon="2.49856">
        <ele>569.3</ele>
        <time>2011-06-15T17:04:09Z</time>
      </trkpt>
      <trkpt lat="44.34059" lon="2.49848">
        <ele>569</ele>
        <time>2011-06-15T17:04:14Z</time>
      </trkpt>
      <trkpt lat="44.34059" lon="2.49844">
        <ele>569.1</ele>
        <time>2011-06-15T17:04:15Z</time>
      </trkpt>
      <trkpt lat="44.34059" lon="2.49841">
        <ele>569.3</ele>
        <time>2011-06-15T17:04:16Z</time>
      </trkpt>
      <trkpt lat="44.34061" lon="2.49836">
        <ele>567.9</ele>
        <time>2011-06-15T17:04:18Z</time>
      </trkpt>
      <trkpt lat="44.34062" lon="2.49835">
        <ele>567.5</ele>
        <time>2011-06-15T17:04:19Z</time>
      </trkpt>
      <trkpt lat="44.34064" lon="2.49832">
        <ele>566.8</ele>
        <time>2011-06-15T17:04:20Z</time>
      </trkpt>
      <trkpt lat="44.34066" lon="2.49829">
        <ele>566.2</ele>
        <time>2011-06-15T17:04:21Z</time>
      </trkpt>
      <trkpt lat="44.34068" lon="2.49826">
        <ele>565.8</ele>
        <time>2011-06-15T17:04:22Z</time>
      </trkpt>
      <trkpt lat="44.3407" lon="2.49823">
        <ele>565.5</ele>
        <time>2011-06-15T17:04:23Z</time>
      </trkpt>
      <trkpt lat="44.34073" lon="2.4982">
        <ele>565.3</ele>
        <time>2011-06-15T17:04:24Z</time>
      </trkpt>
      <trkpt lat="44.34077" lon="2.49816">
        <ele>565.2</ele>
        <time>2011-06-15T17:04:25Z</time>
      </trkpt>
      <trkpt lat="44.34081" lon="2.49812">
        <ele>564.7</ele>
        <time>2011-06-15T17:04:26Z</time>
      </trkpt>
      <trkpt lat="44.34086" lon="2.49809">
        <ele>564.3</ele>
        <time>2011-06-15T17:04:27Z</time>
      </trkpt>
      <trkpt lat="44.34089" lon="2.49808">
        <ele>564.1</ele>
        <time>2011-06-15T17:04:28Z</time>
      </trkpt>
      <trkpt lat="44.34093" lon="2.49806">
        <ele>563.3</ele>
        <time>2011-06-15T17:04:29Z</time>
      </trkpt>
      <trkpt lat="44.34097" lon="2.49804">
        <ele>562.7</ele>
        <time>2011-06-15T17:04:30Z</time>
      </trkpt>
      <trkpt lat="44.34101" lon="2.49803">
        <ele>562.2</ele>
        <time>2011-06-15T17:04:31Z</time>
      </trkpt>
      <trkpt lat="44.34104" lon="2.49802">
        <ele>561.1</ele>
        <time>2011-06-15T17:04:32Z</time>
      </trkpt>
      <trkpt lat="44.34104" lon="2.49797">
        <ele>559.6</ele>
        <time>2011-06-15T17:04:34Z</time>
      </trkpt>
      <trkpt lat="44.34102" lon="2.49796">
        <ele>559.1</ele>
        <time>2011-06-15T17:04:35Z</time>
      </trkpt>
      <trkpt lat="44.34099" lon="2.49796">
        <ele>558.8</ele>
        <time>2011-06-15T17:04:36Z</time>
      </trkpt>
      <trkpt lat="44.34096" lon="2.49795">
        <ele>558.5</ele>
        <time>2011-06-15T17:04:37Z</time>
      </trkpt>
      <trkpt lat="44.34093" lon="2.49795">
        <ele>558.3</ele>
        <time>2011-06-15T17:04:38Z</time>
      </trkpt>
      <trkpt lat="44.34089" lon="2.49794">
        <ele>557.8</ele>
        <time>2011-06-15T17:04:39Z</time>
      </trkpt>
      <trkpt lat="44.34086" lon="2.49794">
        <ele>557.4</ele>
        <time>2011-06-15T17:04:40Z</time>
      </trkpt>
      <trkpt lat="44.34081" lon="2.49794">
        <ele>557.1</ele>
        <time>2011-06-15T17:04:41Z</time>
      </trkpt>
      <trkpt lat="44.34077" lon="2.49794">
        <ele>556.3</ele>
        <time>2011-06-15T17:04:42Z</time>
      </trkpt>
      <trkpt lat="44.34071" lon="2.49794">
        <ele>555.7</ele>
        <time>2011-06-15T17:04:43Z</time>
      </trkpt>
      <trkpt lat="44.34066" lon="2.49795">
        <ele>555.3</ele>
        <time>2011-06-15T17:04:44Z</time>
      </trkpt>
      <trkpt lat="44.34061" lon="2.49797">
        <ele>554.3</ele>
        <time>2011-06-15T17:04:45Z</time>
      </trkpt>
      <trkpt lat="44.34055" lon="2.49799">
        <ele>553.5</ele>
        <time>2011-06-15T17:04:46Z</time>
      </trkpt>
      <trkpt lat="44.3405" lon="2.49801">
        <ele>552.9</ele>
        <time>2011-06-15T17:04:47Z</time>
      </trkpt>
      <trkpt lat="44.34046" lon="2.49804">
        <ele>552.4</ele>
        <time>2011-06-15T17:04:48Z</time>
      </trkpt>
      <trkpt lat="44.34043" lon="2.49806">
        <ele>552</ele>
        <time>2011-06-15T17:04:49Z</time>
      </trkpt>
      <trkpt lat="44.34039" lon="2.49804">
        <ele>551.6</ele>
        <time>2011-06-15T17:04:52Z</time>
      </trkpt>
      <trkpt lat="44.34035" lon="2.49802">
        <ele>550.5</ele>
        <time>2011-06-15T17:05:11Z</time>
      </trkpt>
      <trkpt lat="44.34035" lon="2.49802">
        <ele>550.8</ele>
        <time>2011-06-15T17:05:12Z</time>
      </trkpt>
      <trkpt lat="44.34028" lon="2.49803">
        <ele>551.2</ele>
        <time>2011-06-15T17:05:53Z</time>
      </trkpt>
      <trkpt lat="44.34026" lon="2.498">
        <ele>551.2</ele>
        <time>2011-06-15T17:05:55Z</time>
      </trkpt>
      <trkpt lat="44.34024" lon="2.49796">
        <ele>551</ele>
        <time>2011-06-15T17:05:57Z</time>
      </trkpt>
      <trkpt lat="44.34021" lon="2.49792">
        <ele>550.9</ele>
        <time>2011-06-15T17:05:59Z</time>
      </trkpt>
      <trkpt lat="44.34019" lon="2.49788">
        <ele>550.7</ele>
        <time>2011-06-15T17:06:01Z</time>
      </trkpt>
      <trkpt lat="44.34016" lon="2.49783">
        <ele>550</ele>
        <time>2011-06-15T17:06:03Z</time>
      </trkpt>
      <trkpt lat="44.34014" lon="2.4978">
        <ele>549.8</ele>
        <time>2011-06-15T17:06:04Z</time>
      </trkpt>
      <trkpt lat="44.34012" lon="2.49777">
        <ele>549.6</ele>
        <time>2011-06-15T17:06:05Z</time>
      </trkpt>
      <trkpt lat="44.3401" lon="2.49774">
        <ele>549.5</ele>
        <time>2011-06-15T17:06:06Z</time>
      </trkpt>
      <trkpt lat="44.34008" lon="2.49771">
        <ele>549.4</ele>
        <time>2011-06-15T17:06:07Z</time>
      </trkpt>
      <trkpt lat="44.34005" lon="2.49768">
        <ele>549.4</ele>
        <time>2011-06-15T17:06:08Z</time>
      </trkpt>
      <trkpt lat="44.34002" lon="2.49765">
        <ele>549.5</ele>
        <time>2011-06-15T17:06:09Z</time>
      </trkpt>
      <trkpt lat="44.33998" lon="2.49762">
        <ele>549.5</ele>
        <time>2011-06-15T17:06:10Z</time>
      </trkpt>
      <trkpt lat="44.33996" lon="2.49759">
        <ele>549.5</ele>
        <time>2011-06-15T17:06:11Z</time>
      </trkpt>
      <trkpt lat="44.33993" lon="2.49756">
        <ele>549.5</ele>
        <time>2011-06-15T17:06:12Z</time>
      </trkpt>
      <trkpt lat="44.33991" lon="2.49751">
        <ele>549.5</ele>
        <time>2011-06-15T17:06:13Z</time>
      </trkpt>
      <trkpt lat="44.33989" lon="2.49746">
        <ele>549.5</ele>
        <time>2011-06-15T17:06:14Z</time>
      </trkpt>
      <trkpt lat="44.33987" lon="2.49742">
        <ele>549.4</ele>
        <time>2011-06-15T17:06:15Z</time>
      </trkpt>
      <trkpt lat="44.33985" lon="2.49737">
        <ele>549.3</ele>
        <time>2011-06-15T17:06:16Z</time>
      </trkpt>
      <trkpt lat="44.33983" lon="2.49732">
        <ele>549.3</ele>
        <time>2011-06-15T17:06:17Z</time>
      </trkpt>
      <trkpt lat="44.33981" lon="2.49726">
        <ele>548.9</ele>
        <time>2011-06-15T17:06:18Z</time>
      </trkpt>
      <trkpt lat="44.33979" lon="2.4972">
        <ele>548.6</ele>
        <time>2011-06-15T17:06:19Z</time>
      </trkpt>
      <trkpt lat="44.33976" lon="2.49714">
        <ele>548.3</ele>
        <time>2011-06-15T17:06:20Z</time>
      </trkpt>
      <trkpt lat="44.33974" lon="2.49709">
        <ele>548.4</ele>
        <time>2011-06-15T17:06:21Z</time>
      </trkpt>
      <trkpt lat="44.33971" lon="2.49703">
        <ele>548.5</ele>
        <time>2011-06-15T17:06:22Z</time>
      </trkpt>
      <trkpt lat="44.33969" lon="2.49698">
        <ele>548.5</ele>
        <time>2011-06-15T17:06:23Z</time>
      </trkpt>
      <trkpt lat="44.33967" lon="2.49693">
        <ele>548.5</ele>
        <time>2011-06-15T17:06:24Z</time>
      </trkpt>
      <trkpt lat="44.33964" lon="2.49688">
        <ele>548.5</ele>
        <time>2011-06-15T17:06:25Z</time>
      </trkpt>
      <trkpt lat="44.33962" lon="2.49683">
        <ele>548.5</ele>
        <time>2011-06-15T17:06:26Z</time>
      </trkpt>
      <trkpt lat="44.33961" lon="2.49678">
        <ele>548.4</ele>
        <time>2011-06-15T17:06:27Z</time>
      </trkpt>
      <trkpt lat="44.3396" lon="2.49673">
        <ele>548.3</ele>
        <time>2011-06-15T17:06:28Z</time>
      </trkpt>
      <trkpt lat="44.3396" lon="2.49667">
        <ele>548.2</ele>
        <time>2011-06-15T17:06:29Z</time>
      </trkpt>
      <trkpt lat="44.3396" lon="2.49662">
        <ele>548.2</ele>
        <time>2011-06-15T17:06:30Z</time>
      </trkpt>
      <trkpt lat="44.3396" lon="2.49656">
        <ele>547.9</ele>
        <time>2011-06-15T17:06:31Z</time>
      </trkpt>
      <trkpt lat="44.3396" lon="2.49651">
        <ele>547.8</ele>
        <time>2011-06-15T17:06:32Z</time>
      </trkpt>
      <trkpt lat="44.33961" lon="2.49645">
        <ele>547.6</ele>
        <time>2011-06-15T17:06:33Z</time>
      </trkpt>
      <trkpt lat="44.33961" lon="2.4964">
        <ele>547.8</ele>
        <time>2011-06-15T17:06:34Z</time>
      </trkpt>
      <trkpt lat="44.33963" lon="2.49635">
        <ele>547.9</ele>
        <time>2011-06-15T17:06:35Z</time>
      </trkpt>
      <trkpt lat="44.33964" lon="2.4963">
        <ele>548</ele>
        <time>2011-06-15T17:06:36Z</time>
      </trkpt>
      <trkpt lat="44.33965" lon="2.49625">
        <ele>548.3</ele>
        <time>2011-06-15T17:06:37Z</time>
      </trkpt>
      <trkpt lat="44.33967" lon="2.4962">
        <ele>548.5</ele>
        <time>2011-06-15T17:06:38Z</time>
      </trkpt>
      <trkpt lat="44.33969" lon="2.49616">
        <ele>548.6</ele>
        <time>2011-06-15T17:06:39Z</time>
      </trkpt>
      <trkpt lat="44.3397" lon="2.49612">
        <ele>549.2</ele>
        <time>2011-06-15T17:06:40Z</time>
      </trkpt>
      <trkpt lat="44.33972" lon="2.49608">
        <ele>549.6</ele>
        <time>2011-06-15T17:06:41Z</time>
      </trkpt>
      <trkpt lat="44.33974" lon="2.49604">
        <ele>549.9</ele>
        <time>2011-06-15T17:06:42Z</time>
      </trkpt>
      <trkpt lat="44.33976" lon="2.496">
        <ele>550.3</ele>
        <time>2011-06-15T17:06:43Z</time>
      </trkpt>
      <trkpt lat="44.33977" lon="2.49596">
        <ele>550.6</ele>
        <time>2011-06-15T17:06:44Z</time>
      </trkpt>
      <trkpt lat="44.33979" lon="2.49593">
        <ele>550.9</ele>
        <time>2011-06-15T17:06:45Z</time>
      </trkpt>
      <trkpt lat="44.3398" lon="2.4959">
        <ele>551.1</ele>
        <time>2011-06-15T17:06:46Z</time>
      </trkpt>
      <trkpt lat="44.33982" lon="2.49586">
        <ele>551.4</ele>
        <time>2011-06-15T17:06:47Z</time>
      </trkpt>
      <trkpt lat="44.33984" lon="2.49582">
        <ele>551.6</ele>
        <time>2011-06-15T17:06:48Z</time>
      </trkpt>
      <trkpt lat="44.33986" lon="2.49579">
        <ele>551.8</ele>
        <time>2011-06-15T17:06:49Z</time>
      </trkpt>
      <trkpt lat="44.33988" lon="2.49576">
        <ele>551.7</ele>
        <time>2011-06-15T17:06:50Z</time>
      </trkpt>
      <trkpt lat="44.33989" lon="2.49572">
        <ele>551.6</ele>
        <time>2011-06-15T17:06:51Z</time>
      </trkpt>
      <trkpt lat="44.33991" lon="2.49569">
        <ele>551.6</ele>
        <time>2011-06-15T17:06:52Z</time>
      </trkpt>
      <trkpt lat="44.33993" lon="2.49566">
        <ele>551.4</ele>
        <time>2011-06-15T17:06:53Z</time>
      </trkpt>
      <trkpt lat="44.33995" lon="2.49564">
        <ele>551.3</ele>
        <time>2011-06-15T17:06:54Z</time>
      </trkpt>
      <trkpt lat="44.33997" lon="2.49561">
        <ele>551.2</ele>
        <time>2011-06-15T17:06:55Z</time>
      </trkpt>
      <trkpt lat="44.33999" lon="2.49557">
        <ele>551.7</ele>
        <time>2011-06-15T17:06:56Z</time>
      </trkpt>
      <trkpt lat="44.34" lon="2.49554">
        <ele>552.1</ele>
        <time>2011-06-15T17:06:57Z</time>
      </trkpt>
      <trkpt lat="44.33998" lon="2.49548">
        <ele>552.6</ele>
        <time>2011-06-15T17:06:59Z</time>
      </trkpt>
      <trkpt lat="44.33996" lon="2.49548">
        <ele>552.7</ele>
        <time>2011-06-15T17:07:00Z</time>
      </trkpt>
      <trkpt lat="44.33993" lon="2.49548">
        <ele>552.9</ele>
        <time>2011-06-15T17:07:01Z</time>
      </trkpt>
      <trkpt lat="44.3399" lon="2.49548">
        <ele>553</ele>
        <time>2011-06-15T17:07:02Z</time>
      </trkpt>
      <trkpt lat="44.33987" lon="2.49549">
        <ele>552.9</ele>
        <time>2011-06-15T17:07:03Z</time>
      </trkpt>
      <trkpt lat="44.33983" lon="2.49551">
        <ele>552.9</ele>
        <time>2011-06-15T17:07:04Z</time>
      </trkpt>
      <trkpt lat="44.33978" lon="2.49553">
        <ele>552.9</ele>
        <time>2011-06-15T17:07:05Z</time>
      </trkpt>
      <trkpt lat="44.33974" lon="2.49555">
        <ele>552.6</ele>
        <time>2011-06-15T17:07:06Z</time>
      </trkpt>
      <trkpt lat="44.33968" lon="2.49557">
        <ele>552.4</ele>
        <time>2011-06-15T17:07:07Z</time>
      </trkpt>
      <trkpt lat="44.33963" lon="2.4956">
        <ele>552.2</ele>
        <time>2011-06-15T17:07:08Z</time>
      </trkpt>
      <trkpt lat="44.33957" lon="2.49562">
        <ele>552</ele>
        <time>2011-06-15T17:07:09Z</time>
      </trkpt>
      <trkpt lat="44.3395" lon="2.49564">
        <ele>551.9</ele>
        <time>2011-06-15T17:07:10Z</time>
      </trkpt>
      <trkpt lat="44.33943" lon="2.49566">
        <ele>551.8</ele>
        <time>2011-06-15T17:07:11Z</time>
      </trkpt>
      <trkpt lat="44.33937" lon="2.49568">
        <ele>550.9</ele>
        <time>2011-06-15T17:07:12Z</time>
      </trkpt>
      <trkpt lat="44.33929" lon="2.49567">
        <ele>550.2</ele>
        <time>2011-06-15T17:07:13Z</time>
      </trkpt>
      <trkpt lat="44.33921" lon="2.49566">
        <ele>549.7</ele>
        <time>2011-06-15T17:07:14Z</time>
      </trkpt>
      <trkpt lat="44.33914" lon="2.49564">
        <ele>549.3</ele>
        <time>2011-06-15T17:07:15Z</time>
      </trkpt>
      <trkpt lat="44.33906" lon="2.49561">
        <ele>549</ele>
        <time>2011-06-15T17:07:16Z</time>
      </trkpt>
      <trkpt lat="44.33899" lon="2.49556">
        <ele>548.7</ele>
        <time>2011-06-15T17:07:17Z</time>
      </trkpt>
      <trkpt lat="44.33893" lon="2.4955">
        <ele>547.8</ele>
        <time>2011-06-15T17:07:18Z</time>
      </trkpt>
      <trkpt lat="44.33887" lon="2.49543">
        <ele>547.1</ele>
        <time>2011-06-15T17:07:19Z</time>
      </trkpt>
      <trkpt lat="44.33882" lon="2.49535">
        <ele>546.6</ele>
        <time>2011-06-15T17:07:20Z</time>
      </trkpt>
      <trkpt lat="44.33877" lon="2.49527">
        <ele>546.2</ele>
        <time>2011-06-15T17:07:21Z</time>
      </trkpt>
      <trkpt lat="44.33872" lon="2.49519">
        <ele>546.4</ele>
        <time>2011-06-15T17:07:22Z</time>
      </trkpt>
      <trkpt lat="44.33867" lon="2.49511">
        <ele>546.5</ele>
        <time>2011-06-15T17:07:23Z</time>
      </trkpt>
      <trkpt lat="44.33862" lon="2.49504">
        <ele>546.5</ele>
        <time>2011-06-15T17:07:24Z</time>
      </trkpt>
      <trkpt lat="44.33857" lon="2.49496">
        <ele>545.8</ele>
        <time>2011-06-15T17:07:25Z</time>
      </trkpt>
      <trkpt lat="44.33852" lon="2.49489">
        <ele>545.2</ele>
        <time>2011-06-15T17:07:26Z</time>
      </trkpt>
      <trkpt lat="44.33847" lon="2.49481">
        <ele>544.7</ele>
        <time>2011-06-15T17:07:27Z</time>
      </trkpt>
      <trkpt lat="44.33843" lon="2.49473">
        <ele>544.5</ele>
        <time>2011-06-15T17:07:28Z</time>
      </trkpt>
      <trkpt lat="44.33838" lon="2.49465">
        <ele>544.3</ele>
        <time>2011-06-15T17:07:29Z</time>
      </trkpt>
      <trkpt lat="44.33833" lon="2.49458">
        <ele>544.2</ele>
        <time>2011-06-15T17:07:30Z</time>
      </trkpt>
      <trkpt lat="44.33828" lon="2.4945">
        <ele>543.9</ele>
        <time>2011-06-15T17:07:31Z</time>
      </trkpt>
      <trkpt lat="44.33823" lon="2.49443">
        <ele>543.6</ele>
        <time>2011-06-15T17:07:32Z</time>
      </trkpt>
      <trkpt lat="44.33819" lon="2.49435">
        <ele>543.5</ele>
        <time>2011-06-15T17:07:33Z</time>
      </trkpt>
      <trkpt lat="44.33814" lon="2.49428">
        <ele>543.3</ele>
        <time>2011-06-15T17:07:34Z</time>
      </trkpt>
      <trkpt lat="44.3381" lon="2.49421">
        <ele>543.1</ele>
        <time>2011-06-15T17:07:35Z</time>
      </trkpt>
      <trkpt lat="44.33806" lon="2.49415">
        <ele>543</ele>
        <time>2011-06-15T17:07:36Z</time>
      </trkpt>
      <trkpt lat="44.33802" lon="2.49408">
        <ele>543</ele>
        <time>2011-06-15T17:07:37Z</time>
      </trkpt>
      <trkpt lat="44.33798" lon="2.49402">
        <ele>542.7</ele>
        <time>2011-06-15T17:07:38Z</time>
      </trkpt>
      <trkpt lat="44.33795" lon="2.49396">
        <ele>542.5</ele>
        <time>2011-06-15T17:07:39Z</time>
      </trkpt>
      <trkpt lat="44.33791" lon="2.49391">
        <ele>542.4</ele>
        <time>2011-06-15T17:07:40Z</time>
      </trkpt>
      <trkpt lat="44.33787" lon="2.49386">
        <ele>542.7</ele>
        <time>2011-06-15T17:07:41Z</time>
      </trkpt>
      <trkpt lat="44.33784" lon="2.49381">
        <ele>542.9</ele>
        <time>2011-06-15T17:07:42Z</time>
      </trkpt>
      <trkpt lat="44.33781" lon="2.49377">
        <ele>543.1</ele>
        <time>2011-06-15T17:07:43Z</time>
      </trkpt>
      <trkpt lat="44.33779" lon="2.49373">
        <ele>543.5</ele>
        <time>2011-06-15T17:07:44Z</time>
      </trkpt>
      <trkpt lat="44.33776" lon="2.49368">
        <ele>543.8</ele>
        <time>2011-06-15T17:07:45Z</time>
      </trkpt>
      <trkpt lat="44.33774" lon="2.49364">
        <ele>544</ele>
        <time>2011-06-15T17:07:46Z</time>
      </trkpt>
      <trkpt lat="44.33771" lon="2.4936">
        <ele>544</ele>
        <time>2011-06-15T17:07:47Z</time>
      </trkpt>
      <trkpt lat="44.33769" lon="2.49357">
        <ele>544</ele>
        <time>2011-06-15T17:07:48Z</time>
      </trkpt>
      <trkpt lat="44.33767" lon="2.49354">
        <ele>544</ele>
        <time>2011-06-15T17:07:49Z</time>
      </trkpt>
      <trkpt lat="44.33765" lon="2.49349">
        <ele>544.4</ele>
        <time>2011-06-15T17:07:51Z</time>
      </trkpt>
      <trkpt lat="44.33764" lon="2.49344">
        <ele>544.5</ele>
        <time>2011-06-15T17:07:54Z</time>
      </trkpt>
      <trkpt lat="44.33767" lon="2.4934">
        <ele>544.3</ele>
        <time>2011-06-15T17:07:58Z</time>
      </trkpt>
      <trkpt lat="44.33763" lon="2.49339">
        <ele>544.5</ele>
        <time>2011-06-15T17:08:05Z</time>
      </trkpt>
      <trkpt lat="44.33761" lon="2.49344">
        <ele>545.7</ele>
        <time>2011-06-15T17:08:07Z</time>
      </trkpt>
      <trkpt lat="44.3376" lon="2.49347">
        <ele>546.1</ele>
        <time>2011-06-15T17:08:08Z</time>
      </trkpt>
      <trkpt lat="44.33758" lon="2.49349">
        <ele>546.4</ele>
        <time>2011-06-15T17:08:09Z</time>
      </trkpt>
      <trkpt lat="44.33756" lon="2.49352">
        <ele>546.1</ele>
        <time>2011-06-15T17:08:10Z</time>
      </trkpt>
      <trkpt lat="44.33754" lon="2.49354">
        <ele>545.9</ele>
        <time>2011-06-15T17:08:11Z</time>
      </trkpt>
      <trkpt lat="44.33752" lon="2.49357">
        <ele>545.7</ele>
        <time>2011-06-15T17:08:12Z</time>
      </trkpt>
      <trkpt lat="44.3375" lon="2.4936">
        <ele>545.4</ele>
        <time>2011-06-15T17:08:13Z</time>
      </trkpt>
      <trkpt lat="44.33749" lon="2.49363">
        <ele>545.1</ele>
        <time>2011-06-15T17:08:14Z</time>
      </trkpt>
      <trkpt lat="44.33747" lon="2.49365">
        <ele>544.9</ele>
        <time>2011-06-15T17:08:15Z</time>
      </trkpt>
      <trkpt lat="44.33745" lon="2.49367">
        <ele>545.1</ele>
        <time>2011-06-15T17:08:16Z</time>
      </trkpt>
      <trkpt lat="44.33743" lon="2.4937">
        <ele>545.4</ele>
        <time>2011-06-15T17:08:17Z</time>
      </trkpt>
      <trkpt lat="44.33741" lon="2.49371">
        <ele>545.5</ele>
        <time>2011-06-15T17:08:18Z</time>
      </trkpt>
      <trkpt lat="44.33738" lon="2.49373">
        <ele>545.4</ele>
        <time>2011-06-15T17:08:19Z</time>
      </trkpt>
      <trkpt lat="44.33736" lon="2.49375">
        <ele>545.4</ele>
        <time>2011-06-15T17:08:20Z</time>
      </trkpt>
      <trkpt lat="44.33734" lon="2.49378">
        <ele>545.3</ele>
        <time>2011-06-15T17:08:21Z</time>
      </trkpt>
      <trkpt lat="44.33732" lon="2.4938">
        <ele>545.9</ele>
        <time>2011-06-15T17:08:22Z</time>
      </trkpt>
      <trkpt lat="44.3373" lon="2.49383">
        <ele>546.4</ele>
        <time>2011-06-15T17:08:23Z</time>
      </trkpt>
      <trkpt lat="44.33727" lon="2.49384">
        <ele>546.7</ele>
        <time>2011-06-15T17:08:24Z</time>
      </trkpt>
      <trkpt lat="44.33724" lon="2.49386">
        <ele>547</ele>
        <time>2011-06-15T17:08:25Z</time>
      </trkpt>
      <trkpt lat="44.33722" lon="2.49388">
        <ele>547</ele>
        <time>2011-06-15T17:08:26Z</time>
      </trkpt>
      <trkpt lat="44.3372" lon="2.4939">
        <ele>547</ele>
        <time>2011-06-15T17:08:27Z</time>
      </trkpt>
      <trkpt lat="44.33717" lon="2.49392">
        <ele>546.9</ele>
        <time>2011-06-15T17:08:28Z</time>
      </trkpt>
      <trkpt lat="44.33715" lon="2.49394">
        <ele>547.1</ele>
        <time>2011-06-15T17:08:29Z</time>
      </trkpt>
      <trkpt lat="44.33713" lon="2.49397">
        <ele>547.3</ele>
        <time>2011-06-15T17:08:30Z</time>
      </trkpt>
      <trkpt lat="44.33711" lon="2.49399">
        <ele>547.4</ele>
        <time>2011-06-15T17:08:31Z</time>
      </trkpt>
      <trkpt lat="44.33708" lon="2.49402">
        <ele>548.1</ele>
        <time>2011-06-15T17:08:32Z</time>
      </trkpt>
      <trkpt lat="44.33706" lon="2.49405">
        <ele>548.6</ele>
        <time>2011-06-15T17:08:33Z</time>
      </trkpt>
      <trkpt lat="44.33704" lon="2.49408">
        <ele>549</ele>
        <time>2011-06-15T17:08:34Z</time>
      </trkpt>
      <trkpt lat="44.33701" lon="2.49411">
        <ele>549</ele>
        <time>2011-06-15T17:08:35Z</time>
      </trkpt>
      <trkpt lat="44.33699" lon="2.49413">
        <ele>549</ele>
        <time>2011-06-15T17:08:36Z</time>
      </trkpt>
      <trkpt lat="44.33697" lon="2.49416">
        <ele>549.1</ele>
        <time>2011-06-15T17:08:37Z</time>
      </trkpt>
      <trkpt lat="44.33694" lon="2.49419">
        <ele>549.4</ele>
        <time>2011-06-15T17:08:38Z</time>
      </trkpt>
      <trkpt lat="44.33692" lon="2.49421">
        <ele>549.7</ele>
        <time>2011-06-15T17:08:39Z</time>
      </trkpt>
      <trkpt lat="44.3369" lon="2.49424">
        <ele>549.9</ele>
        <time>2011-06-15T17:08:40Z</time>
      </trkpt>
      <trkpt lat="44.33688" lon="2.49427">
        <ele>550.3</ele>
        <time>2011-06-15T17:08:41Z</time>
      </trkpt>
      <trkpt lat="44.33685" lon="2.4943">
        <ele>550.6</ele>
        <time>2011-06-15T17:08:42Z</time>
      </trkpt>
      <trkpt lat="44.33683" lon="2.49432">
        <ele>550.8</ele>
        <time>2011-06-15T17:08:43Z</time>
      </trkpt>
      <trkpt lat="44.33681" lon="2.49434">
        <ele>551</ele>
        <time>2011-06-15T17:08:44Z</time>
      </trkpt>
      <trkpt lat="44.33679" lon="2.49436">
        <ele>551.1</ele>
        <time>2011-06-15T17:08:45Z</time>
      </trkpt>
      <trkpt lat="44.33677" lon="2.49438">
        <ele>551.2</ele>
        <time>2011-06-15T17:08:46Z</time>
      </trkpt>
      <trkpt lat="44.33675" lon="2.49441">
        <ele>551.3</ele>
        <time>2011-06-15T17:08:47Z</time>
      </trkpt>
      <trkpt lat="44.33673" lon="2.49443">
        <ele>551.3</ele>
        <time>2011-06-15T17:08:48Z</time>
      </trkpt>
      <trkpt lat="44.33671" lon="2.49446">
        <ele>551.4</ele>
        <time>2011-06-15T17:08:49Z</time>
      </trkpt>
      <trkpt lat="44.33669" lon="2.49448">
        <ele>551.5</ele>
        <time>2011-06-15T17:08:50Z</time>
      </trkpt>
      <trkpt lat="44.33666" lon="2.49451">
        <ele>551.5</ele>
        <time>2011-06-15T17:08:51Z</time>
      </trkpt>
      <trkpt lat="44.33664" lon="2.49453">
        <ele>551.6</ele>
        <time>2011-06-15T17:08:52Z</time>
      </trkpt>
      <trkpt lat="44.33661" lon="2.49455">
        <ele>551.7</ele>
        <time>2011-06-15T17:08:53Z</time>
      </trkpt>
      <trkpt lat="44.33659" lon="2.49457">
        <ele>552.2</ele>
        <time>2011-06-15T17:08:54Z</time>
      </trkpt>
      <trkpt lat="44.33657" lon="2.49459">
        <ele>552.6</ele>
        <time>2011-06-15T17:08:55Z</time>
      </trkpt>
      <trkpt lat="44.33655" lon="2.49462">
        <ele>552.9</ele>
        <time>2011-06-15T17:08:56Z</time>
      </trkpt>
      <trkpt lat="44.33652" lon="2.49464">
        <ele>552.9</ele>
        <time>2011-06-15T17:08:57Z</time>
      </trkpt>
      <trkpt lat="44.3365" lon="2.49467">
        <ele>552.9</ele>
        <time>2011-06-15T17:08:58Z</time>
      </trkpt>
      <trkpt lat="44.33648" lon="2.49469">
        <ele>552.8</ele>
        <time>2011-06-15T17:08:59Z</time>
      </trkpt>
      <trkpt lat="44.33645" lon="2.49472">
        <ele>552.8</ele>
        <time>2011-06-15T17:09:00Z</time>
      </trkpt>
      <trkpt lat="44.33643" lon="2.49475">
        <ele>553</ele>
        <time>2011-06-15T17:09:01Z</time>
      </trkpt>
      <trkpt lat="44.33641" lon="2.49478">
        <ele>553.1</ele>
        <time>2011-06-15T17:09:02Z</time>
      </trkpt>
      <trkpt lat="44.33639" lon="2.49481">
        <ele>553.2</ele>
        <time>2011-06-15T17:09:03Z</time>
      </trkpt>
      <trkpt lat="44.33637" lon="2.49484">
        <ele>553.4</ele>
        <time>2011-06-15T17:09:04Z</time>
      </trkpt>
      <trkpt lat="44.33635" lon="2.49486">
        <ele>553.5</ele>
        <time>2011-06-15T17:09:05Z</time>
      </trkpt>
      <trkpt lat="44.33633" lon="2.4949">
        <ele>553.6</ele>
        <time>2011-06-15T17:09:06Z</time>
      </trkpt>
      <trkpt lat="44.33631" lon="2.49492">
        <ele>553.9</ele>
        <time>2011-06-15T17:09:07Z</time>
      </trkpt>
      <trkpt lat="44.33629" lon="2.49495">
        <ele>554</ele>
        <time>2011-06-15T17:09:08Z</time>
      </trkpt>
      <trkpt lat="44.33627" lon="2.49498">
        <ele>554.2</ele>
        <time>2011-06-15T17:09:09Z</time>
      </trkpt>
      <trkpt lat="44.33626" lon="2.49501">
        <ele>554</ele>
        <time>2011-06-15T17:09:10Z</time>
      </trkpt>
      <trkpt lat="44.33625" lon="2.49504">
        <ele>553.9</ele>
        <time>2011-06-15T17:09:11Z</time>
      </trkpt>
      <trkpt lat="44.33624" lon="2.49508">
        <ele>553.8</ele>
        <time>2011-06-15T17:09:12Z</time>
      </trkpt>
      <trkpt lat="44.33623" lon="2.49511">
        <ele>554.4</ele>
        <time>2011-06-15T17:09:13Z</time>
      </trkpt>
      <trkpt lat="44.33623" lon="2.49515">
        <ele>554.8</ele>
        <time>2011-06-15T17:09:14Z</time>
      </trkpt>
      <trkpt lat="44.33622" lon="2.49518">
        <ele>555.1</ele>
        <time>2011-06-15T17:09:15Z</time>
      </trkpt>
      <trkpt lat="44.33622" lon="2.49522">
        <ele>555.4</ele>
        <time>2011-06-15T17:09:16Z</time>
      </trkpt>
      <trkpt lat="44.33621" lon="2.49526">
        <ele>555.3</ele>
        <time>2011-06-15T17:09:17Z</time>
      </trkpt>
      <trkpt lat="44.33621" lon="2.4953">
        <ele>555.2</ele>
        <time>2011-06-15T17:09:18Z</time>
      </trkpt>
      <trkpt lat="44.3362" lon="2.49534">
        <ele>555.2</ele>
        <time>2011-06-15T17:09:19Z</time>
      </trkpt>
      <trkpt lat="44.3362" lon="2.49538">
        <ele>555.7</ele>
        <time>2011-06-15T17:09:20Z</time>
      </trkpt>
      <trkpt lat="44.3362" lon="2.49541">
        <ele>556.1</ele>
        <time>2011-06-15T17:09:21Z</time>
      </trkpt>
      <trkpt lat="44.33619" lon="2.49544">
        <ele>556.4</ele>
        <time>2011-06-15T17:09:22Z</time>
      </trkpt>
      <trkpt lat="44.33619" lon="2.49548">
        <ele>556.4</ele>
        <time>2011-06-15T17:09:23Z</time>
      </trkpt>
      <trkpt lat="44.33619" lon="2.49551">
        <ele>556.4</ele>
        <time>2011-06-15T17:09:24Z</time>
      </trkpt>
      <trkpt lat="44.33619" lon="2.49555">
        <ele>556.4</ele>
        <time>2011-06-15T17:09:25Z</time>
      </trkpt>
      <trkpt lat="44.33619" lon="2.49558">
        <ele>556.4</ele>
        <time>2011-06-15T17:09:26Z</time>
      </trkpt>
      <trkpt lat="44.33618" lon="2.49562">
        <ele>556.4</ele>
        <time>2011-06-15T17:09:27Z</time>
      </trkpt>
      <trkpt lat="44.33618" lon="2.49565">
        <ele>556.4</ele>
        <time>2011-06-15T17:09:28Z</time>
      </trkpt>
      <trkpt lat="44.33617" lon="2.49569">
        <ele>556.3</ele>
        <time>2011-06-15T17:09:29Z</time>
      </trkpt>
      <trkpt lat="44.33617" lon="2.49573">
        <ele>556.2</ele>
        <time>2011-06-15T17:09:30Z</time>
      </trkpt>
      <trkpt lat="44.33616" lon="2.49577">
        <ele>556.2</ele>
        <time>2011-06-15T17:09:31Z</time>
      </trkpt>
      <trkpt lat="44.33615" lon="2.49581">
        <ele>556.2</ele>
        <time>2011-06-15T17:09:32Z</time>
      </trkpt>
      <trkpt lat="44.33614" lon="2.49584">
        <ele>556.5</ele>
        <time>2011-06-15T17:09:33Z</time>
      </trkpt>
      <trkpt lat="44.33612" lon="2.49588">
        <ele>556.8</ele>
        <time>2011-06-15T17:09:34Z</time>
      </trkpt>
      <trkpt lat="44.33611" lon="2.49591">
        <ele>557</ele>
        <time>2011-06-15T17:09:35Z</time>
      </trkpt>
      <trkpt lat="44.3361" lon="2.49594">
        <ele>557</ele>
        <time>2011-06-15T17:09:36Z</time>
      </trkpt>
      <trkpt lat="44.33609" lon="2.49598">
        <ele>556.9</ele>
        <time>2011-06-15T17:09:37Z</time>
      </trkpt>
      <trkpt lat="44.33608" lon="2.49601">
        <ele>556.9</ele>
        <time>2011-06-15T17:09:38Z</time>
      </trkpt>
      <trkpt lat="44.33607" lon="2.49605">
        <ele>556.7</ele>
        <time>2011-06-15T17:09:39Z</time>
      </trkpt>
      <trkpt lat="44.33606" lon="2.49608">
        <ele>556.6</ele>
        <time>2011-06-15T17:09:40Z</time>
      </trkpt>
      <trkpt lat="44.33605" lon="2.49611">
        <ele>556.5</ele>
        <time>2011-06-15T17:09:41Z</time>
      </trkpt>
      <trkpt lat="44.33605" lon="2.49614">
        <ele>557.1</ele>
        <time>2011-06-15T17:09:42Z</time>
      </trkpt>
      <trkpt lat="44.33604" lon="2.49617">
        <ele>557.6</ele>
        <time>2011-06-15T17:09:43Z</time>
      </trkpt>
      <trkpt lat="44.33604" lon="2.49621">
        <ele>558</ele>
        <time>2011-06-15T17:09:44Z</time>
      </trkpt>
      <trkpt lat="44.33604" lon="2.49624">
        <ele>558.2</ele>
        <time>2011-06-15T17:09:45Z</time>
      </trkpt>
      <trkpt lat="44.33604" lon="2.4963">
        <ele>558.6</ele>
        <time>2011-06-15T17:09:47Z</time>
      </trkpt>
      <trkpt lat="44.33605" lon="2.49633">
        <ele>558.5</ele>
        <time>2011-06-15T17:09:48Z</time>
      </trkpt>
      <trkpt lat="44.33606" lon="2.49636">
        <ele>558.5</ele>
        <time>2011-06-15T17:09:49Z</time>
      </trkpt>
      <trkpt lat="44.33607" lon="2.4964">
        <ele>558.4</ele>
        <time>2011-06-15T17:09:50Z</time>
      </trkpt>
      <trkpt lat="44.33609" lon="2.49645">
        <ele>558.4</ele>
        <time>2011-06-15T17:09:51Z</time>
      </trkpt>
      <trkpt lat="44.33609" lon="2.4965">
        <ele>558.2</ele>
        <time>2011-06-15T17:09:52Z</time>
      </trkpt>
      <trkpt lat="44.33611" lon="2.49655">
        <ele>558</ele>
        <time>2011-06-15T17:09:53Z</time>
      </trkpt>
      <trkpt lat="44.33612" lon="2.49662">
        <ele>557.9</ele>
        <time>2011-06-15T17:09:54Z</time>
      </trkpt>
      <trkpt lat="44.33614" lon="2.49671">
        <ele>557.1</ele>
        <time>2011-06-15T17:09:55Z</time>
      </trkpt>
      <trkpt lat="44.33616" lon="2.49679">
        <ele>556.5</ele>
        <time>2011-06-15T17:09:56Z</time>
      </trkpt>
      <trkpt lat="44.33617" lon="2.49688">
        <ele>556.1</ele>
        <time>2011-06-15T17:09:57Z</time>
      </trkpt>
      <trkpt lat="44.33619" lon="2.49697">
        <ele>555.3</ele>
        <time>2011-06-15T17:09:58Z</time>
      </trkpt>
      <trkpt lat="44.33621" lon="2.49706">
        <ele>554.7</ele>
        <time>2011-06-15T17:09:59Z</time>
      </trkpt>
      <trkpt lat="44.33624" lon="2.49715">
        <ele>554.2</ele>
        <time>2011-06-15T17:10:00Z</time>
      </trkpt>
      <trkpt lat="44.33626" lon="2.49725">
        <ele>553.6</ele>
        <time>2011-06-15T17:10:01Z</time>
      </trkpt>
      <trkpt lat="44.33629" lon="2.49732">
        <ele>553</ele>
        <time>2011-06-15T17:10:02Z</time>
      </trkpt>
      <trkpt lat="44.33632" lon="2.4974">
        <ele>552.7</ele>
        <time>2011-06-15T17:10:03Z</time>
      </trkpt>
      <trkpt lat="44.33635" lon="2.49749">
        <ele>551.7</ele>
        <time>2011-06-15T17:10:04Z</time>
      </trkpt>
      <trkpt lat="44.33639" lon="2.49757">
        <ele>551</ele>
        <time>2011-06-15T17:10:05Z</time>
      </trkpt>
      <trkpt lat="44.33643" lon="2.49765">
        <ele>550.5</ele>
        <time>2011-06-15T17:10:06Z</time>
      </trkpt>
      <trkpt lat="44.33648" lon="2.49773">
        <ele>550.1</ele>
        <time>2011-06-15T17:10:07Z</time>
      </trkpt>
      <trkpt lat="44.33653" lon="2.49782">
        <ele>549.4</ele>
        <time>2011-06-15T17:10:08Z</time>
      </trkpt>
      <trkpt lat="44.33658" lon="2.49791">
        <ele>548.9</ele>
        <time>2011-06-15T17:10:09Z</time>
      </trkpt>
      <trkpt lat="44.33662" lon="2.49801">
        <ele>548.6</ele>
        <time>2011-06-15T17:10:10Z</time>
      </trkpt>
      <trkpt lat="44.33665" lon="2.4981">
        <ele>547.9</ele>
        <time>2011-06-15T17:10:11Z</time>
      </trkpt>
      <trkpt lat="44.33667" lon="2.49819">
        <ele>547.4</ele>
        <time>2011-06-15T17:10:12Z</time>
      </trkpt>
      <trkpt lat="44.33669" lon="2.49826">
        <ele>547</ele>
        <time>2011-06-15T17:10:13Z</time>
      </trkpt>
      <trkpt lat="44.3367" lon="2.49832">
        <ele>546.9</ele>
        <time>2011-06-15T17:10:14Z</time>
      </trkpt>
      <trkpt lat="44.33672" lon="2.49838">
        <ele>546.9</ele>
        <time>2011-06-15T17:10:15Z</time>
      </trkpt>
      <trkpt lat="44.33674" lon="2.49843">
        <ele>546.9</ele>
        <time>2011-06-15T17:10:16Z</time>
      </trkpt>
      <trkpt lat="44.33676" lon="2.49848">
        <ele>547.5</ele>
        <time>2011-06-15T17:10:17Z</time>
      </trkpt>
      <trkpt lat="44.33678" lon="2.49853">
        <ele>548</ele>
        <time>2011-06-15T17:10:18Z</time>
      </trkpt>
      <trkpt lat="44.33681" lon="2.49858">
        <ele>548.3</ele>
        <time>2011-06-15T17:10:19Z</time>
      </trkpt>
      <trkpt lat="44.33684" lon="2.49863">
        <ele>548.1</ele>
        <time>2011-06-15T17:10:20Z</time>
      </trkpt>
      <trkpt lat="44.33687" lon="2.49868">
        <ele>548</ele>
        <time>2011-06-15T17:10:21Z</time>
      </trkpt>
      <trkpt lat="44.3369" lon="2.49873">
        <ele>547.9</ele>
        <time>2011-06-15T17:10:22Z</time>
      </trkpt>
      <trkpt lat="44.33693" lon="2.49878">
        <ele>547.8</ele>
        <time>2011-06-15T17:10:23Z</time>
      </trkpt>
      <trkpt lat="44.33697" lon="2.49882">
        <ele>547.5</ele>
        <time>2011-06-15T17:10:24Z</time>
      </trkpt>
      <trkpt lat="44.337" lon="2.49887">
        <ele>547.3</ele>
        <time>2011-06-15T17:10:25Z</time>
      </trkpt>
      <trkpt lat="44.33704" lon="2.49892">
        <ele>547.1</ele>
        <time>2011-06-15T17:10:26Z</time>
      </trkpt>
      <trkpt lat="44.33707" lon="2.49898">
        <ele>547</ele>
        <time>2011-06-15T17:10:27Z</time>
      </trkpt>
      <trkpt lat="44.33711" lon="2.49903">
        <ele>546.8</ele>
        <time>2011-06-15T17:10:28Z</time>
      </trkpt>
      <trkpt lat="44.33715" lon="2.49907">
        <ele>546.7</ele>
        <time>2011-06-15T17:10:29Z</time>
      </trkpt>
      <trkpt lat="44.33719" lon="2.4991">
        <ele>546.2</ele>
        <time>2011-06-15T17:10:30Z</time>
      </trkpt>
      <trkpt lat="44.33724" lon="2.49914">
        <ele>545.9</ele>
        <time>2011-06-15T17:10:31Z</time>
      </trkpt>
      <trkpt lat="44.33728" lon="2.49916">
        <ele>545.6</ele>
        <time>2011-06-15T17:10:32Z</time>
      </trkpt>
      <trkpt lat="44.33731" lon="2.49919">
        <ele>545.8</ele>
        <time>2011-06-15T17:10:33Z</time>
      </trkpt>
      <trkpt lat="44.33735" lon="2.49922">
        <ele>546</ele>
        <time>2011-06-15T17:10:34Z</time>
      </trkpt>
      <trkpt lat="44.33739" lon="2.49925">
        <ele>546.1</ele>
        <time>2011-06-15T17:10:35Z</time>
      </trkpt>
      <trkpt lat="44.33742" lon="2.49929">
        <ele>546.1</ele>
        <time>2011-06-15T17:10:36Z</time>
      </trkpt>
      <trkpt lat="44.33745" lon="2.49931">
        <ele>546</ele>
        <time>2011-06-15T17:10:37Z</time>
      </trkpt>
      <trkpt lat="44.33748" lon="2.49934">
        <ele>546</ele>
        <time>2011-06-15T17:10:38Z</time>
      </trkpt>
      <trkpt lat="44.33751" lon="2.49937">
        <ele>546</ele>
        <time>2011-06-15T17:10:39Z</time>
      </trkpt>
      <trkpt lat="44.33755" lon="2.49941">
        <ele>546.1</ele>
        <time>2011-06-15T17:10:40Z</time>
      </trkpt>
      <trkpt lat="44.3376" lon="2.49944">
        <ele>546.2</ele>
        <time>2011-06-15T17:10:41Z</time>
      </trkpt>
      <trkpt lat="44.33763" lon="2.49947">
        <ele>546.3</ele>
        <time>2011-06-15T17:10:42Z</time>
      </trkpt>
      <trkpt lat="44.33767" lon="2.4995">
        <ele>546.7</ele>
        <time>2011-06-15T17:10:43Z</time>
      </trkpt>
      <trkpt lat="44.3377" lon="2.49954">
        <ele>547</ele>
        <time>2011-06-15T17:10:44Z</time>
      </trkpt>
      <trkpt lat="44.33774" lon="2.49956">
        <ele>547.2</ele>
        <time>2011-06-15T17:10:45Z</time>
      </trkpt>
      <trkpt lat="44.33777" lon="2.49958">
        <ele>546.9</ele>
        <time>2011-06-15T17:10:46Z</time>
      </trkpt>
      <trkpt lat="44.33781" lon="2.4996">
        <ele>546.6</ele>
        <time>2011-06-15T17:10:47Z</time>
      </trkpt>
      <trkpt lat="44.33784" lon="2.49962">
        <ele>546.3</ele>
        <time>2011-06-15T17:10:48Z</time>
      </trkpt>
      <trkpt lat="44.33788" lon="2.49964">
        <ele>546.5</ele>
        <time>2011-06-15T17:10:49Z</time>
      </trkpt>
      <trkpt lat="44.33791" lon="2.49966">
        <ele>546.6</ele>
        <time>2011-06-15T17:10:50Z</time>
      </trkpt>
      <trkpt lat="44.33795" lon="2.49969">
        <ele>546.7</ele>
        <time>2011-06-15T17:10:51Z</time>
      </trkpt>
      <trkpt lat="44.33798" lon="2.49972">
        <ele>547.1</ele>
        <time>2011-06-15T17:10:52Z</time>
      </trkpt>
      <trkpt lat="44.33802" lon="2.49975">
        <ele>547.5</ele>
        <time>2011-06-15T17:10:53Z</time>
      </trkpt>
      <trkpt lat="44.33805" lon="2.49978">
        <ele>547.7</ele>
        <time>2011-06-15T17:10:54Z</time>
      </trkpt>
      <trkpt lat="44.33808" lon="2.49981">
        <ele>547.9</ele>
        <time>2011-06-15T17:10:55Z</time>
      </trkpt>
      <trkpt lat="44.33811" lon="2.49985">
        <ele>548.3</ele>
        <time>2011-06-15T17:10:56Z</time>
      </trkpt>
      <trkpt lat="44.33814" lon="2.49989">
        <ele>548.5</ele>
        <time>2011-06-15T17:10:57Z</time>
      </trkpt>
      <trkpt lat="44.33817" lon="2.49993">
        <ele>548.7</ele>
        <time>2011-06-15T17:10:58Z</time>
      </trkpt>
      <trkpt lat="44.33819" lon="2.49997">
        <ele>548.4</ele>
        <time>2011-06-15T17:10:59Z</time>
      </trkpt>
      <trkpt lat="44.33822" lon="2.50001">
        <ele>548.3</ele>
        <time>2011-06-15T17:11:00Z</time>
      </trkpt>
      <trkpt lat="44.33824" lon="2.50005">
        <ele>548.1</ele>
        <time>2011-06-15T17:11:01Z</time>
      </trkpt>
      <trkpt lat="44.33826" lon="2.50009">
        <ele>548.1</ele>
        <time>2011-06-15T17:11:02Z</time>
      </trkpt>
      <trkpt lat="44.33829" lon="2.50013">
        <ele>548.1</ele>
        <time>2011-06-15T17:11:03Z</time>
      </trkpt>
      <trkpt lat="44.33831" lon="2.50018">
        <ele>548.1</ele>
        <time>2011-06-15T17:11:04Z</time>
      </trkpt>
      <trkpt lat="44.33832" lon="2.50022">
        <ele>548.7</ele>
        <time>2011-06-15T17:11:05Z</time>
      </trkpt>
      <trkpt lat="44.33834" lon="2.50026">
        <ele>549</ele>
        <time>2011-06-15T17:11:06Z</time>
      </trkpt>
      <trkpt lat="44.33836" lon="2.50029">
        <ele>549.3</ele>
        <time>2011-06-15T17:11:07Z</time>
      </trkpt>
      <trkpt lat="44.33837" lon="2.50033">
        <ele>549.9</ele>
        <time>2011-06-15T17:11:08Z</time>
      </trkpt>
      <trkpt lat="44.33839" lon="2.50036">
        <ele>550.3</ele>
        <time>2011-06-15T17:11:09Z</time>
      </trkpt>
      <trkpt lat="44.33841" lon="2.5004">
        <ele>550.6</ele>
        <time>2011-06-15T17:11:10Z</time>
      </trkpt>
      <trkpt lat="44.33842" lon="2.50044">
        <ele>550.8</ele>
        <time>2011-06-15T17:11:11Z</time>
      </trkpt>
      <trkpt lat="44.33844" lon="2.50047">
        <ele>551.1</ele>
        <time>2011-06-15T17:11:12Z</time>
      </trkpt>
      <trkpt lat="44.33845" lon="2.50051">
        <ele>551.4</ele>
        <time>2011-06-15T17:11:13Z</time>
      </trkpt>
      <trkpt lat="44.33847" lon="2.50055">
        <ele>551.6</ele>
        <time>2011-06-15T17:11:14Z</time>
      </trkpt>
      <trkpt lat="44.33848" lon="2.50059">
        <ele>551.9</ele>
        <time>2011-06-15T17:11:15Z</time>
      </trkpt>
      <trkpt lat="44.33849" lon="2.50063">
        <ele>552.1</ele>
        <time>2011-06-15T17:11:16Z</time>
      </trkpt>
      <trkpt lat="44.3385" lon="2.50067">
        <ele>552.3</ele>
        <time>2011-06-15T17:11:17Z</time>
      </trkpt>
      <trkpt lat="44.33851" lon="2.50071">
        <ele>552.8</ele>
        <time>2011-06-15T17:11:18Z</time>
      </trkpt>
      <trkpt lat="44.33851" lon="2.50075">
        <ele>553.2</ele>
        <time>2011-06-15T17:11:19Z</time>
      </trkpt>
      <trkpt lat="44.33852" lon="2.50078">
        <ele>553.5</ele>
        <time>2011-06-15T17:11:20Z</time>
      </trkpt>
      <trkpt lat="44.33853" lon="2.50081">
        <ele>553.7</ele>
        <time>2011-06-15T17:11:21Z</time>
      </trkpt>
      <trkpt lat="44.33853" lon="2.50084">
        <ele>553.8</ele>
        <time>2011-06-15T17:11:22Z</time>
      </trkpt>
      <trkpt lat="44.33854" lon="2.50088">
        <ele>553.9</ele>
        <time>2011-06-15T17:11:23Z</time>
      </trkpt>
      <trkpt lat="44.33854" lon="2.50092">
        <ele>553.9</ele>
        <time>2011-06-15T17:11:24Z</time>
      </trkpt>
      <trkpt lat="44.33856" lon="2.50097">
        <ele>554</ele>
        <time>2011-06-15T17:11:26Z</time>
      </trkpt>
      <trkpt lat="44.33859" lon="2.50101">
        <ele>554.1</ele>
        <time>2011-06-15T17:11:28Z</time>
      </trkpt>
      <trkpt lat="44.33862" lon="2.50105">
        <ele>554.3</ele>
        <time>2011-06-15T17:11:30Z</time>
      </trkpt>
      <trkpt lat="44.33866" lon="2.50106">
        <ele>555.2</ele>
        <time>2011-06-15T17:11:32Z</time>
      </trkpt>
      <trkpt lat="44.33869" lon="2.50107">
        <ele>555.4</ele>
        <time>2011-06-15T17:11:34Z</time>
      </trkpt>
      <trkpt lat="44.33872" lon="2.50109">
        <ele>555.2</ele>
        <time>2011-06-15T17:11:36Z</time>
      </trkpt>
      <trkpt lat="44.33875" lon="2.50112">
        <ele>555.2</ele>
        <time>2011-06-15T17:11:38Z</time>
      </trkpt>
      <trkpt lat="44.33878" lon="2.50114">
        <ele>555.5</ele>
        <time>2011-06-15T17:11:40Z</time>
      </trkpt>
      <trkpt lat="44.33881" lon="2.50116">
        <ele>555.9</ele>
        <time>2011-06-15T17:11:42Z</time>
      </trkpt>
      <trkpt lat="44.33884" lon="2.50118">
        <ele>556.8</ele>
        <time>2011-06-15T17:11:44Z</time>
      </trkpt>
      <trkpt lat="44.33886" lon="2.5012">
        <ele>557.2</ele>
        <time>2011-06-15T17:11:46Z</time>
      </trkpt>
      <trkpt lat="44.33889" lon="2.50124">
        <ele>557.9</ele>
        <time>2011-06-15T17:11:48Z</time>
      </trkpt>
      <trkpt lat="44.3389" lon="2.50128">
        <ele>558.2</ele>
        <time>2011-06-15T17:11:50Z</time>
      </trkpt>
      <trkpt lat="44.3389" lon="2.50134">
        <ele>558.6</ele>
        <time>2011-06-15T17:11:53Z</time>
      </trkpt>
      <trkpt lat="44.3389" lon="2.50138">
        <ele>558.7</ele>
        <time>2011-06-15T17:11:55Z</time>
      </trkpt>
      <trkpt lat="44.3389" lon="2.50142">
        <ele>559.5</ele>
        <time>2011-06-15T17:11:57Z</time>
      </trkpt>
      <trkpt lat="44.3389" lon="2.50148">
        <ele>560.9</ele>
        <time>2011-06-15T17:12:00Z</time>
      </trkpt>
      <trkpt lat="44.3389" lon="2.50154">
        <ele>561.5</ele>
        <time>2011-06-15T17:12:03Z</time>
      </trkpt>
      <trkpt lat="44.3389" lon="2.5016">
        <ele>561.7</ele>
        <time>2011-06-15T17:12:06Z</time>
      </trkpt>
      <trkpt lat="44.33891" lon="2.50166">
        <ele>562.5</ele>
        <time>2011-06-15T17:12:09Z</time>
      </trkpt>
      <trkpt lat="44.3389" lon="2.50171">
        <ele>563.8</ele>
        <time>2011-06-15T17:12:12Z</time>
      </trkpt>
      <trkpt lat="44.3389" lon="2.50176">
        <ele>564.5</ele>
        <time>2011-06-15T17:12:15Z</time>
      </trkpt>
      <trkpt lat="44.33892" lon="2.50182">
        <ele>564.7</ele>
        <time>2011-06-15T17:12:18Z</time>
      </trkpt>
      <trkpt lat="44.33892" lon="2.50183">
        <ele>564.8</ele>
        <time>2011-06-15T17:12:19Z</time>
      </trkpt>
      <trkpt lat="44.33891" lon="2.50193">
        <ele>565.6</ele>
        <time>2011-06-15T17:12:24Z</time>
      </trkpt>
      <trkpt lat="44.33892" lon="2.50199">
        <ele>566.2</ele>
        <time>2011-06-15T17:12:27Z</time>
      </trkpt>
      <trkpt lat="44.33891" lon="2.50205">
        <ele>566.4</ele>
        <time>2011-06-15T17:12:30Z</time>
      </trkpt>
      <trkpt lat="44.33892" lon="2.5021">
        <ele>568.1</ele>
        <time>2011-06-15T17:12:33Z</time>
      </trkpt>
      <trkpt lat="44.33892" lon="2.50216">
        <ele>568.7</ele>
        <time>2011-06-15T17:12:36Z</time>
      </trkpt>
      <trkpt lat="44.33892" lon="2.50221">
        <ele>568.9</ele>
        <time>2011-06-15T17:12:39Z</time>
      </trkpt>
      <trkpt lat="44.33891" lon="2.50227">
        <ele>569.5</ele>
        <time>2011-06-15T17:12:42Z</time>
      </trkpt>
      <trkpt lat="44.33891" lon="2.50231">
        <ele>570.4</ele>
        <time>2011-06-15T17:12:45Z</time>
      </trkpt>
      <trkpt lat="44.33891" lon="2.50237">
        <ele>570.8</ele>
        <time>2011-06-15T17:12:48Z</time>
      </trkpt>
      <trkpt lat="44.33891" lon="2.50241">
        <ele>570.6</ele>
        <time>2011-06-15T17:12:51Z</time>
      </trkpt>
      <trkpt lat="44.33891" lon="2.50246">
        <ele>571</ele>
        <time>2011-06-15T17:12:54Z</time>
      </trkpt>
      <trkpt lat="44.33892" lon="2.50252">
        <ele>572</ele>
        <time>2011-06-15T17:12:57Z</time>
      </trkpt>
      <trkpt lat="44.33892" lon="2.50257">
        <ele>572.7</ele>
        <time>2011-06-15T17:13:00Z</time>
      </trkpt>
      <trkpt lat="44.33893" lon="2.50263">
        <ele>573</ele>
        <time>2011-06-15T17:13:03Z</time>
      </trkpt>
      <trkpt lat="44.33894" lon="2.50268">
        <ele>573.6</ele>
        <time>2011-06-15T17:13:06Z</time>
      </trkpt>
      <trkpt lat="44.33894" lon="2.50273">
        <ele>574.7</ele>
        <time>2011-06-15T17:13:09Z</time>
      </trkpt>
      <trkpt lat="44.33895" lon="2.50279">
        <ele>574.9</ele>
        <time>2011-06-15T17:13:12Z</time>
      </trkpt>
      <trkpt lat="44.33896" lon="2.50284">
        <ele>574.8</ele>
        <time>2011-06-15T17:13:15Z</time>
      </trkpt>
      <trkpt lat="44.33897" lon="2.5029">
        <ele>576</ele>
        <time>2011-06-15T17:13:18Z</time>
      </trkpt>
      <trkpt lat="44.33897" lon="2.50296">
        <ele>577</ele>
        <time>2011-06-15T17:13:21Z</time>
      </trkpt>
      <trkpt lat="44.33898" lon="2.50297">
        <ele>577.1</ele>
        <time>2011-06-15T17:13:22Z</time>
      </trkpt>
      <trkpt lat="44.33899" lon="2.50307">
        <ele>577.3</ele>
        <time>2011-06-15T17:13:27Z</time>
      </trkpt>
      <trkpt lat="44.339" lon="2.50312">
        <ele>578</ele>
        <time>2011-06-15T17:13:30Z</time>
      </trkpt>
      <trkpt lat="44.33901" lon="2.50316">
        <ele>578.2</ele>
        <time>2011-06-15T17:13:32Z</time>
      </trkpt>
      <trkpt lat="44.33902" lon="2.50322">
        <ele>578.7</ele>
        <time>2011-06-15T17:13:35Z</time>
      </trkpt>
      <trkpt lat="44.33902" lon="2.50328">
        <ele>579.5</ele>
        <time>2011-06-15T17:13:38Z</time>
      </trkpt>
      <trkpt lat="44.33903" lon="2.50334">
        <ele>579.6</ele>
        <time>2011-06-15T17:13:41Z</time>
      </trkpt>
      <trkpt lat="44.33905" lon="2.5034">
        <ele>580.3</ele>
        <time>2011-06-15T17:13:44Z</time>
      </trkpt>
      <trkpt lat="44.33907" lon="2.50345">
        <ele>581.3</ele>
        <time>2011-06-15T17:13:47Z</time>
      </trkpt>
      <trkpt lat="44.33908" lon="2.5035">
        <ele>582.2</ele>
        <time>2011-06-15T17:13:50Z</time>
      </trkpt>
      <trkpt lat="44.3391" lon="2.50355">
        <ele>583.1</ele>
        <time>2011-06-15T17:13:53Z</time>
      </trkpt>
      <trkpt lat="44.3391" lon="2.50361">
        <ele>584.1</ele>
        <time>2011-06-15T17:13:57Z</time>
      </trkpt>
      <trkpt lat="44.33911" lon="2.50367">
        <ele>585</ele>
        <time>2011-06-15T17:14:02Z</time>
      </trkpt>
      <trkpt lat="44.33912" lon="2.50371">
        <ele>585.2</ele>
        <time>2011-06-15T17:14:05Z</time>
      </trkpt>
      <trkpt lat="44.33913" lon="2.50376">
        <ele>585.2</ele>
        <time>2011-06-15T17:14:07Z</time>
      </trkpt>
      <trkpt lat="44.33914" lon="2.5038">
        <ele>585.3</ele>
        <time>2011-06-15T17:14:09Z</time>
      </trkpt>
      <trkpt lat="44.33914" lon="2.50386">
        <ele>585.2</ele>
        <time>2011-06-15T17:14:11Z</time>
      </trkpt>
      <trkpt lat="44.33915" lon="2.50392">
        <ele>584.9</ele>
        <time>2011-06-15T17:14:13Z</time>
      </trkpt>
      <trkpt lat="44.33915" lon="2.50395">
        <ele>584.7</ele>
        <time>2011-06-15T17:14:14Z</time>
      </trkpt>
      <trkpt lat="44.33915" lon="2.50399">
        <ele>584.5</ele>
        <time>2011-06-15T17:14:15Z</time>
      </trkpt>
      <trkpt lat="44.33915" lon="2.50404">
        <ele>584.4</ele>
        <time>2011-06-15T17:14:16Z</time>
      </trkpt>
      <trkpt lat="44.33915" lon="2.50408">
        <ele>584.1</ele>
        <time>2011-06-15T17:14:17Z</time>
      </trkpt>
      <trkpt lat="44.33915" lon="2.50412">
        <ele>583.9</ele>
        <time>2011-06-15T17:14:18Z</time>
      </trkpt>
      <trkpt lat="44.33915" lon="2.50416">
        <ele>583.7</ele>
        <time>2011-06-15T17:14:19Z</time>
      </trkpt>
      <trkpt lat="44.33914" lon="2.5042">
        <ele>583.4</ele>
        <time>2011-06-15T17:14:20Z</time>
      </trkpt>
      <trkpt lat="44.33914" lon="2.50424">
        <ele>583.2</ele>
        <time>2011-06-15T17:14:21Z</time>
      </trkpt>
      <trkpt lat="44.33913" lon="2.50429">
        <ele>583</ele>
        <time>2011-06-15T17:14:22Z</time>
      </trkpt>
      <trkpt lat="44.33913" lon="2.50434">
        <ele>583.3</ele>
        <time>2011-06-15T17:14:23Z</time>
      </trkpt>
      <trkpt lat="44.33912" lon="2.5044">
        <ele>583.6</ele>
        <time>2011-06-15T17:14:24Z</time>
      </trkpt>
      <trkpt lat="44.33911" lon="2.50447">
        <ele>583.8</ele>
        <time>2011-06-15T17:14:25Z</time>
      </trkpt>
      <trkpt lat="44.33908" lon="2.50453">
        <ele>582.6</ele>
        <time>2011-06-15T17:14:26Z</time>
      </trkpt>
      <trkpt lat="44.33905" lon="2.5046">
        <ele>581.7</ele>
        <time>2011-06-15T17:14:27Z</time>
      </trkpt>
      <trkpt lat="44.33901" lon="2.50466">
        <ele>581.1</ele>
        <time>2011-06-15T17:14:28Z</time>
      </trkpt>
      <trkpt lat="44.33896" lon="2.50473">
        <ele>580.5</ele>
        <time>2011-06-15T17:14:29Z</time>
      </trkpt>
      <trkpt lat="44.33891" lon="2.50481">
        <ele>580.1</ele>
        <time>2011-06-15T17:14:30Z</time>
      </trkpt>
      <trkpt lat="44.33885" lon="2.50489">
        <ele>579.7</ele>
        <time>2011-06-15T17:14:31Z</time>
      </trkpt>
      <trkpt lat="44.3388" lon="2.50498">
        <ele>579.5</ele>
        <time>2011-06-15T17:14:32Z</time>
      </trkpt>
      <trkpt lat="44.33874" lon="2.50506">
        <ele>578.9</ele>
        <time>2011-06-15T17:14:33Z</time>
      </trkpt>
      <trkpt lat="44.33868" lon="2.50515">
        <ele>578.4</ele>
        <time>2011-06-15T17:14:34Z</time>
      </trkpt>
      <trkpt lat="44.33862" lon="2.50525">
        <ele>578.1</ele>
        <time>2011-06-15T17:14:35Z</time>
      </trkpt>
      <trkpt lat="44.33857" lon="2.50534">
        <ele>577.5</ele>
        <time>2011-06-15T17:14:36Z</time>
      </trkpt>
      <trkpt lat="44.33851" lon="2.50543">
        <ele>577.1</ele>
        <time>2011-06-15T17:14:37Z</time>
      </trkpt>
      <trkpt lat="44.33845" lon="2.50553">
        <ele>576.8</ele>
        <time>2011-06-15T17:14:38Z</time>
      </trkpt>
      <trkpt lat="44.33839" lon="2.50562">
        <ele>576.2</ele>
        <time>2011-06-15T17:14:39Z</time>
      </trkpt>
      <trkpt lat="44.33834" lon="2.50572">
        <ele>575.8</ele>
        <time>2011-06-15T17:14:40Z</time>
      </trkpt>
      <trkpt lat="44.33829" lon="2.50583">
        <ele>575.5</ele>
        <time>2011-06-15T17:14:41Z</time>
      </trkpt>
      <trkpt lat="44.33826" lon="2.50594">
        <ele>574.8</ele>
        <time>2011-06-15T17:14:42Z</time>
      </trkpt>
      <trkpt lat="44.33824" lon="2.50605">
        <ele>574.3</ele>
        <time>2011-06-15T17:14:43Z</time>
      </trkpt>
      <trkpt lat="44.33825" lon="2.50617">
        <ele>573.9</ele>
        <time>2011-06-15T17:14:44Z</time>
      </trkpt>
      <trkpt lat="44.33827" lon="2.50627">
        <ele>573.1</ele>
        <time>2011-06-15T17:14:45Z</time>
      </trkpt>
      <trkpt lat="44.33828" lon="2.50637">
        <ele>572.5</ele>
        <time>2011-06-15T17:14:46Z</time>
      </trkpt>
      <trkpt lat="44.33827" lon="2.50644">
        <ele>572</ele>
        <time>2011-06-15T17:14:47Z</time>
      </trkpt>
      <trkpt lat="44.33825" lon="2.50648">
        <ele>571.6</ele>
        <time>2011-06-15T17:14:48Z</time>
      </trkpt>
      <trkpt lat="44.33823" lon="2.50651">
        <ele>571.6</ele>
        <time>2011-06-15T17:14:49Z</time>
      </trkpt>
      <trkpt lat="44.33821" lon="2.50653">
        <ele>571.6</ele>
        <time>2011-06-15T17:14:50Z</time>
      </trkpt>
      <trkpt lat="44.33818" lon="2.50658">
        <ele>572</ele>
        <time>2011-06-15T17:14:52Z</time>
      </trkpt>
      <trkpt lat="44.33816" lon="2.50662">
        <ele>572.5</ele>
        <time>2011-06-15T17:14:54Z</time>
      </trkpt>
      <trkpt lat="44.33814" lon="2.50667">
        <ele>574</ele>
        <time>2011-06-15T17:14:57Z</time>
      </trkpt>
      <trkpt lat="44.33813" lon="2.50672">
        <ele>575.7</ele>
        <time>2011-06-15T17:15:00Z</time>
      </trkpt>
      <trkpt lat="44.33812" lon="2.50677">
        <ele>576.4</ele>
        <time>2011-06-15T17:15:02Z</time>
      </trkpt>
      <trkpt lat="44.33811" lon="2.50681">
        <ele>576.8</ele>
        <time>2011-06-15T17:15:04Z</time>
      </trkpt>
      <trkpt lat="44.3381" lon="2.50685">
        <ele>577.3</ele>
        <time>2011-06-15T17:15:06Z</time>
      </trkpt>
      <trkpt lat="44.33808" lon="2.5069">
        <ele>578</ele>
        <time>2011-06-15T17:15:09Z</time>
      </trkpt>
      <trkpt lat="44.33806" lon="2.50696">
        <ele>578.9</ele>
        <time>2011-06-15T17:15:12Z</time>
      </trkpt>
      <trkpt lat="44.33804" lon="2.50699">
        <ele>579.1</ele>
        <time>2011-06-15T17:15:14Z</time>
      </trkpt>
      <trkpt lat="44.33802" lon="2.50703">
        <ele>578.9</ele>
        <time>2011-06-15T17:15:16Z</time>
      </trkpt>
      <trkpt lat="44.338" lon="2.50707">
        <ele>578.9</ele>
        <time>2011-06-15T17:15:18Z</time>
      </trkpt>
      <trkpt lat="44.33799" lon="2.50711">
        <ele>579</ele>
        <time>2011-06-15T17:15:20Z</time>
      </trkpt>
      <trkpt lat="44.33797" lon="2.50715">
        <ele>580</ele>
        <time>2011-06-15T17:15:22Z</time>
      </trkpt>
      <trkpt lat="44.33795" lon="2.5072">
        <ele>580.7</ele>
        <time>2011-06-15T17:15:25Z</time>
      </trkpt>
      <trkpt lat="44.33794" lon="2.50722">
        <ele>580.9</ele>
        <time>2011-06-15T17:15:26Z</time>
      </trkpt>
      <trkpt lat="44.33791" lon="2.50729">
        <ele>580.5</ele>
        <time>2011-06-15T17:15:30Z</time>
      </trkpt>
      <trkpt lat="44.33789" lon="2.50733">
        <ele>580.4</ele>
        <time>2011-06-15T17:15:32Z</time>
      </trkpt>
      <trkpt lat="44.33787" lon="2.50737">
        <ele>581.2</ele>
        <time>2011-06-15T17:15:34Z</time>
      </trkpt>
      <trkpt lat="44.33785" lon="2.50741">
        <ele>581.6</ele>
        <time>2011-06-15T17:15:37Z</time>
      </trkpt>
      <trkpt lat="44.33783" lon="2.50745">
        <ele>581.6</ele>
        <time>2011-06-15T17:15:39Z</time>
      </trkpt>
      <trkpt lat="44.3378" lon="2.50748">
        <ele>582.3</ele>
        <time>2011-06-15T17:15:41Z</time>
      </trkpt>
      <trkpt lat="44.33778" lon="2.50751">
        <ele>582.8</ele>
        <time>2011-06-15T17:15:43Z</time>
      </trkpt>
      <trkpt lat="44.33775" lon="2.50753">
        <ele>583.1</ele>
        <time>2011-06-15T17:15:45Z</time>
      </trkpt>
      <trkpt lat="44.33772" lon="2.50756">
        <ele>584</ele>
        <time>2011-06-15T17:15:47Z</time>
      </trkpt>
      <trkpt lat="44.33769" lon="2.50758">
        <ele>584.4</ele>
        <time>2011-06-15T17:15:49Z</time>
      </trkpt>
      <trkpt lat="44.33766" lon="2.50761">
        <ele>584.4</ele>
        <time>2011-06-15T17:15:51Z</time>
      </trkpt>
      <trkpt lat="44.33764" lon="2.50763">
        <ele>584.1</ele>
        <time>2011-06-15T17:15:53Z</time>
      </trkpt>
      <trkpt lat="44.3376" lon="2.50766">
        <ele>584.4</ele>
        <time>2011-06-15T17:15:56Z</time>
      </trkpt>
      <trkpt lat="44.33757" lon="2.50768">
        <ele>584.8</ele>
        <time>2011-06-15T17:15:59Z</time>
      </trkpt>
      <trkpt lat="44.33753" lon="2.50771">
        <ele>584.7</ele>
        <time>2011-06-15T17:16:04Z</time>
      </trkpt>
      <trkpt lat="44.3375" lon="2.50774">
        <ele>583.5</ele>
        <time>2011-06-15T17:16:12Z</time>
      </trkpt>
      <trkpt lat="44.33747" lon="2.50779">
        <ele>584.2</ele>
        <time>2011-06-15T17:16:27Z</time>
      </trkpt>
      <trkpt lat="44.33747" lon="2.5078">
        <ele>584.4</ele>
        <time>2011-06-15T17:16:28Z</time>
      </trkpt>
      <trkpt lat="44.3374" lon="2.50781">
        <ele>584.7</ele>
        <time>2011-06-15T17:17:43Z</time>
      </trkpt>
      <trkpt lat="44.3374" lon="2.5078">
        <ele>584.7</ele>
        <time>2011-06-15T17:17:44Z</time>
      </trkpt>
      <trkpt lat="44.33733" lon="2.50778">
        <ele>585</ele>
        <time>2011-06-15T17:17:54Z</time>
      </trkpt>
      <trkpt lat="44.3373" lon="2.50778">
        <ele>585</ele>
        <time>2011-06-15T17:17:56Z</time>
      </trkpt>
      <trkpt lat="44.33725" lon="2.50778">
        <ele>585</ele>
        <time>2011-06-15T17:17:59Z</time>
      </trkpt>
      <trkpt lat="44.33722" lon="2.50778">
        <ele>585</ele>
        <time>2011-06-15T17:18:01Z</time>
      </trkpt>
      <trkpt lat="44.33719" lon="2.50778">
        <ele>585</ele>
        <time>2011-06-15T17:18:03Z</time>
      </trkpt>
      <trkpt lat="44.33716" lon="2.50779">
        <ele>585.1</ele>
        <time>2011-06-15T17:18:05Z</time>
      </trkpt>
      <trkpt lat="44.33712" lon="2.5078">
        <ele>586.6</ele>
        <time>2011-06-15T17:18:07Z</time>
      </trkpt>
      <trkpt lat="44.33709" lon="2.5078">
        <ele>587.5</ele>
        <time>2011-06-15T17:18:09Z</time>
      </trkpt>
      <trkpt lat="44.33706" lon="2.5078">
        <ele>587.4</ele>
        <time>2011-06-15T17:18:11Z</time>
      </trkpt>
      <trkpt lat="44.33702" lon="2.50781">
        <ele>587.4</ele>
        <time>2011-06-15T17:18:13Z</time>
      </trkpt>
      <trkpt lat="44.33699" lon="2.50782">
        <ele>587.6</ele>
        <time>2011-06-15T17:18:15Z</time>
      </trkpt>
      <trkpt lat="44.33696" lon="2.50783">
        <ele>588.2</ele>
        <time>2011-06-15T17:18:17Z</time>
      </trkpt>
      <trkpt lat="44.33693" lon="2.50783">
        <ele>588.6</ele>
        <time>2011-06-15T17:18:19Z</time>
      </trkpt>
      <trkpt lat="44.3369" lon="2.50785">
        <ele>588.9</ele>
        <time>2011-06-15T17:18:21Z</time>
      </trkpt>
      <trkpt lat="44.33687" lon="2.50786">
        <ele>589</ele>
        <time>2011-06-15T17:18:23Z</time>
      </trkpt>
      <trkpt lat="44.33684" lon="2.50788">
        <ele>588.9</ele>
        <time>2011-06-15T17:18:25Z</time>
      </trkpt>
      <trkpt lat="44.33681" lon="2.50791">
        <ele>589.5</ele>
        <time>2011-06-15T17:18:28Z</time>
      </trkpt>
      <trkpt lat="44.33678" lon="2.50794">
        <ele>589.9</ele>
        <time>2011-06-15T17:18:30Z</time>
      </trkpt>
      <trkpt lat="44.33676" lon="2.50797">
        <ele>589.9</ele>
        <time>2011-06-15T17:18:32Z</time>
      </trkpt>
      <trkpt lat="44.33673" lon="2.508">
        <ele>589.7</ele>
        <time>2011-06-15T17:18:34Z</time>
      </trkpt>
      <trkpt lat="44.33671" lon="2.50802">
        <ele>590.4</ele>
        <time>2011-06-15T17:18:36Z</time>
      </trkpt>
      <trkpt lat="44.33669" lon="2.50806">
        <ele>591.2</ele>
        <time>2011-06-15T17:18:38Z</time>
      </trkpt>
      <trkpt lat="44.33667" lon="2.50808">
        <ele>591.9</ele>
        <time>2011-06-15T17:18:40Z</time>
      </trkpt>
      <trkpt lat="44.33664" lon="2.50811">
        <ele>592</ele>
        <time>2011-06-15T17:18:42Z</time>
      </trkpt>
      <trkpt lat="44.33662" lon="2.50814">
        <ele>591.8</ele>
        <time>2011-06-15T17:18:44Z</time>
      </trkpt>
      <trkpt lat="44.33661" lon="2.50816">
        <ele>592.1</ele>
        <time>2011-06-15T17:18:45Z</time>
      </trkpt>
      <trkpt lat="44.33659" lon="2.50822">
        <ele>593</ele>
        <time>2011-06-15T17:18:48Z</time>
      </trkpt>
      <trkpt lat="44.33655" lon="2.50824">
        <ele>593.5</ele>
        <time>2011-06-15T17:18:50Z</time>
      </trkpt>
      <trkpt lat="44.33652" lon="2.50825">
        <ele>593.9</ele>
        <time>2011-06-15T17:18:52Z</time>
      </trkpt>
      <trkpt lat="44.33648" lon="2.50827">
        <ele>594.5</ele>
        <time>2011-06-15T17:18:55Z</time>
      </trkpt>
      <trkpt lat="44.33644" lon="2.50828">
        <ele>595.1</ele>
        <time>2011-06-15T17:18:59Z</time>
      </trkpt>
      <trkpt lat="44.3364" lon="2.5083">
        <ele>596</ele>
        <time>2011-06-15T17:19:04Z</time>
      </trkpt>
      <trkpt lat="44.33637" lon="2.50831">
        <ele>595.7</ele>
        <time>2011-06-15T17:19:07Z</time>
      </trkpt>
      <trkpt lat="44.33634" lon="2.50832">
        <ele>594.9</ele>
        <time>2011-06-15T17:19:09Z</time>
      </trkpt>
      <trkpt lat="44.33631" lon="2.50833">
        <ele>595.2</ele>
        <time>2011-06-15T17:19:11Z</time>
      </trkpt>
      <trkpt lat="44.33627" lon="2.50833">
        <ele>595.4</ele>
        <time>2011-06-15T17:19:13Z</time>
      </trkpt>
      <trkpt lat="44.33623" lon="2.50833">
        <ele>595.6</ele>
        <time>2011-06-15T17:19:15Z</time>
      </trkpt>
      <trkpt lat="44.33621" lon="2.50834">
        <ele>595.6</ele>
        <time>2011-06-15T17:19:16Z</time>
      </trkpt>
      <trkpt lat="44.33617" lon="2.50834">
        <ele>596.1</ele>
        <time>2011-06-15T17:19:18Z</time>
      </trkpt>
      <trkpt lat="44.33613" lon="2.50836">
        <ele>596.4</ele>
        <time>2011-06-15T17:19:20Z</time>
      </trkpt>
      <trkpt lat="44.3361" lon="2.50837">
        <ele>596.6</ele>
        <time>2011-06-15T17:19:22Z</time>
      </trkpt>
      <trkpt lat="44.33605" lon="2.50839">
        <ele>596.8</ele>
        <time>2011-06-15T17:19:24Z</time>
      </trkpt>
      <trkpt lat="44.33601" lon="2.5084">
        <ele>597</ele>
        <time>2011-06-15T17:19:27Z</time>
      </trkpt>
      <trkpt lat="44.33598" lon="2.50841">
        <ele>597.5</ele>
        <time>2011-06-15T17:19:29Z</time>
      </trkpt>
      <trkpt lat="44.33594" lon="2.50843">
        <ele>598</ele>
        <time>2011-06-15T17:19:31Z</time>
      </trkpt>
      <trkpt lat="44.3359" lon="2.50845">
        <ele>599</ele>
        <time>2011-06-15T17:19:33Z</time>
      </trkpt>
      <trkpt lat="44.33587" lon="2.50846">
        <ele>600.2</ele>
        <time>2011-06-15T17:19:35Z</time>
      </trkpt>
      <trkpt lat="44.33584" lon="2.50849">
        <ele>600.1</ele>
        <time>2011-06-15T17:19:38Z</time>
      </trkpt>
      <trkpt lat="44.3358" lon="2.50852">
        <ele>600.6</ele>
        <time>2011-06-15T17:19:41Z</time>
      </trkpt>
      <trkpt lat="44.33577" lon="2.50854">
        <ele>601.2</ele>
        <time>2011-06-15T17:19:44Z</time>
      </trkpt>
      <trkpt lat="44.33573" lon="2.50858">
        <ele>601.8</ele>
        <time>2011-06-15T17:19:47Z</time>
      </trkpt>
      <trkpt lat="44.33572" lon="2.50859">
        <ele>601.9</ele>
        <time>2011-06-15T17:19:48Z</time>
      </trkpt>
      <trkpt lat="44.33567" lon="2.50864">
        <ele>603.2</ele>
        <time>2011-06-15T17:19:53Z</time>
      </trkpt>
      <trkpt lat="44.33563" lon="2.50867">
        <ele>603.9</ele>
        <time>2011-06-15T17:19:56Z</time>
      </trkpt>
      <trkpt lat="44.33561" lon="2.5087">
        <ele>604.1</ele>
        <time>2011-06-15T17:19:58Z</time>
      </trkpt>
      <trkpt lat="44.33558" lon="2.50873">
        <ele>604.1</ele>
        <time>2011-06-15T17:20:00Z</time>
      </trkpt>
      <trkpt lat="44.33556" lon="2.50877">
        <ele>604.3</ele>
        <time>2011-06-15T17:20:02Z</time>
      </trkpt>
      <trkpt lat="44.33554" lon="2.5088">
        <ele>604.5</ele>
        <time>2011-06-15T17:20:04Z</time>
      </trkpt>
      <trkpt lat="44.33551" lon="2.50884">
        <ele>605.6</ele>
        <time>2011-06-15T17:20:07Z</time>
      </trkpt>
      <trkpt lat="44.33549" lon="2.50888">
        <ele>606.4</ele>
        <time>2011-06-15T17:20:10Z</time>
      </trkpt>
      <trkpt lat="44.33546" lon="2.50891">
        <ele>607.1</ele>
        <time>2011-06-15T17:20:12Z</time>
      </trkpt>
      <trkpt lat="44.33544" lon="2.50895">
        <ele>608.3</ele>
        <time>2011-06-15T17:20:15Z</time>
      </trkpt>
      <trkpt lat="44.33541" lon="2.509">
        <ele>608.6</ele>
        <time>2011-06-15T17:20:18Z</time>
      </trkpt>
      <trkpt lat="44.33539" lon="2.50904">
        <ele>609</ele>
        <time>2011-06-15T17:20:21Z</time>
      </trkpt>
      <trkpt lat="44.33537" lon="2.50907">
        <ele>609.6</ele>
        <time>2011-06-15T17:20:23Z</time>
      </trkpt>
      <trkpt lat="44.33535" lon="2.5091">
        <ele>609.2</ele>
        <time>2011-06-15T17:20:25Z</time>
      </trkpt>
      <trkpt lat="44.33532" lon="2.50915">
        <ele>609.5</ele>
        <time>2011-06-15T17:20:28Z</time>
      </trkpt>
      <trkpt lat="44.33529" lon="2.50918">
        <ele>609.9</ele>
        <time>2011-06-15T17:20:31Z</time>
      </trkpt>
      <trkpt lat="44.33527" lon="2.50922">
        <ele>611.4</ele>
        <time>2011-06-15T17:20:34Z</time>
      </trkpt>
      <trkpt lat="44.33526" lon="2.50928">
        <ele>611.8</ele>
        <time>2011-06-15T17:20:40Z</time>
      </trkpt>
      <trkpt lat="44.33523" lon="2.50931">
        <ele>612</ele>
        <time>2011-06-15T17:20:51Z</time>
      </trkpt>
      <trkpt lat="44.33522" lon="2.50932">
        <ele>612.2</ele>
        <time>2011-06-15T17:20:52Z</time>
      </trkpt>
      <trkpt lat="44.33518" lon="2.5094">
        <ele>612.6</ele>
        <time>2011-06-15T17:21:09Z</time>
      </trkpt>
      <trkpt lat="44.33516" lon="2.50944">
        <ele>612.6</ele>
        <time>2011-06-15T17:21:12Z</time>
      </trkpt>
      <trkpt lat="44.33513" lon="2.50948">
        <ele>613.3</ele>
        <time>2011-06-15T17:21:15Z</time>
      </trkpt>
      <trkpt lat="44.33512" lon="2.50952">
        <ele>613.9</ele>
        <time>2011-06-15T17:21:17Z</time>
      </trkpt>
      <trkpt lat="44.3351" lon="2.50957">
        <ele>615.4</ele>
        <time>2011-06-15T17:21:20Z</time>
      </trkpt>
      <trkpt lat="44.33508" lon="2.50963">
        <ele>616.8</ele>
        <time>2011-06-15T17:21:38Z</time>
      </trkpt>
      <trkpt lat="44.33504" lon="2.50965">
        <ele>616.3</ele>
        <time>2011-06-15T17:22:18Z</time>
      </trkpt>
      <trkpt lat="44.33503" lon="2.50966">
        <ele>616.5</ele>
        <time>2011-06-15T17:22:19Z</time>
      </trkpt>
      <trkpt lat="44.335" lon="2.50974">
        <ele>618.4</ele>
        <time>2011-06-15T17:22:25Z</time>
      </trkpt>
      <trkpt lat="44.33498" lon="2.50978">
        <ele>618.9</ele>
        <time>2011-06-15T17:22:28Z</time>
      </trkpt>
      <trkpt lat="44.33496" lon="2.50983">
        <ele>619.5</ele>
        <time>2011-06-15T17:22:30Z</time>
      </trkpt>
      <trkpt lat="44.33494" lon="2.50987">
        <ele>619.8</ele>
        <time>2011-06-15T17:22:32Z</time>
      </trkpt>
      <trkpt lat="44.33492" lon="2.50991">
        <ele>620.1</ele>
        <time>2011-06-15T17:22:34Z</time>
      </trkpt>
      <trkpt lat="44.33491" lon="2.50995">
        <ele>620.4</ele>
        <time>2011-06-15T17:22:36Z</time>
      </trkpt>
      <trkpt lat="44.3349" lon="2.51">
        <ele>620.9</ele>
        <time>2011-06-15T17:22:38Z</time>
      </trkpt>
      <trkpt lat="44.33488" lon="2.51004">
        <ele>622.2</ele>
        <time>2011-06-15T17:22:41Z</time>
      </trkpt>
      <trkpt lat="44.33486" lon="2.5101">
        <ele>623.4</ele>
        <time>2011-06-15T17:22:44Z</time>
      </trkpt>
      <trkpt lat="44.33484" lon="2.51013">
        <ele>623.7</ele>
        <time>2011-06-15T17:22:46Z</time>
      </trkpt>
      <trkpt lat="44.33483" lon="2.51017">
        <ele>624.3</ele>
        <time>2011-06-15T17:22:48Z</time>
      </trkpt>
      <trkpt lat="44.33481" lon="2.51022">
        <ele>624.5</ele>
        <time>2011-06-15T17:22:52Z</time>
      </trkpt>
      <trkpt lat="44.33479" lon="2.51028">
        <ele>625.3</ele>
        <time>2011-06-15T17:22:55Z</time>
      </trkpt>
      <trkpt lat="44.33477" lon="2.51033">
        <ele>626.6</ele>
        <time>2011-06-15T17:22:58Z</time>
      </trkpt>
      <trkpt lat="44.33475" lon="2.51038">
        <ele>626.8</ele>
        <time>2011-06-15T17:23:02Z</time>
      </trkpt>
      <trkpt lat="44.33473" lon="2.51043">
        <ele>627.4</ele>
        <time>2011-06-15T17:23:06Z</time>
      </trkpt>
      <trkpt lat="44.33472" lon="2.51048">
        <ele>628.6</ele>
        <time>2011-06-15T17:23:10Z</time>
      </trkpt>
      <trkpt lat="44.33471" lon="2.51054">
        <ele>629.3</ele>
        <time>2011-06-15T17:23:14Z</time>
      </trkpt>
      <trkpt lat="44.3347" lon="2.51059">
        <ele>630.3</ele>
        <time>2011-06-15T17:23:17Z</time>
      </trkpt>
      <trkpt lat="44.33469" lon="2.51063">
        <ele>631.5</ele>
        <time>2011-06-15T17:23:20Z</time>
      </trkpt>
      <trkpt lat="44.33468" lon="2.51066">
        <ele>631.9</ele>
        <time>2011-06-15T17:23:21Z</time>
      </trkpt>
      <trkpt lat="44.33466" lon="2.51073">
        <ele>632.8</ele>
        <time>2011-06-15T17:23:24Z</time>
      </trkpt>
      <trkpt lat="44.33465" lon="2.51078">
        <ele>632.9</ele>
        <time>2011-06-15T17:23:27Z</time>
      </trkpt>
      <trkpt lat="44.33464" lon="2.51082">
        <ele>633.8</ele>
        <time>2011-06-15T17:23:30Z</time>
      </trkpt>
      <trkpt lat="44.33462" lon="2.51087">
        <ele>633.8</ele>
        <time>2011-06-15T17:23:33Z</time>
      </trkpt>
      <trkpt lat="44.33461" lon="2.51093">
        <ele>634.7</ele>
        <time>2011-06-15T17:23:40Z</time>
      </trkpt>
      <trkpt lat="44.33461" lon="2.51098">
        <ele>634.8</ele>
        <time>2011-06-15T17:23:43Z</time>
      </trkpt>
      <trkpt lat="44.33461" lon="2.51103">
        <ele>636.1</ele>
        <time>2011-06-15T17:23:46Z</time>
      </trkpt>
      <trkpt lat="44.33459" lon="2.51109">
        <ele>636.6</ele>
        <time>2011-06-15T17:23:51Z</time>
      </trkpt>
      <trkpt lat="44.33458" lon="2.51113">
        <ele>636.8</ele>
        <time>2011-06-15T17:23:54Z</time>
      </trkpt>
      <trkpt lat="44.33456" lon="2.51118">
        <ele>637</ele>
        <time>2011-06-15T17:23:58Z</time>
      </trkpt>
      <trkpt lat="44.33455" lon="2.51124">
        <ele>637.1</ele>
        <time>2011-06-15T17:24:13Z</time>
      </trkpt>
      <trkpt lat="44.33453" lon="2.51129">
        <ele>637.2</ele>
        <time>2011-06-15T17:24:31Z</time>
      </trkpt>
      <trkpt lat="44.33453" lon="2.51129">
        <ele>637</ele>
        <time>2011-06-15T17:24:32Z</time>
      </trkpt>
      <trkpt lat="44.33453" lon="2.5113">
        <ele>637.6</ele>
        <time>2011-06-15T17:25:40Z</time>
      </trkpt>
      <trkpt lat="44.33453" lon="2.5113">
        <ele>637.4</ele>
        <time>2011-06-15T17:25:41Z</time>
      </trkpt>
      <trkpt lat="44.33449" lon="2.51139">
        <ele>637.7</ele>
        <time>2011-06-15T17:26:54Z</time>
      </trkpt>
      <trkpt lat="44.33448" lon="2.5114">
        <ele>637.7</ele>
        <time>2011-06-15T17:26:55Z</time>
      </trkpt>
      <trkpt lat="44.33445" lon="2.51148">
        <ele>638.5</ele>
        <time>2011-06-15T17:26:59Z</time>
      </trkpt>
      <trkpt lat="44.33443" lon="2.51151">
        <ele>638.7</ele>
        <time>2011-06-15T17:27:01Z</time>
      </trkpt>
      <trkpt lat="44.3344" lon="2.51155">
        <ele>639.1</ele>
        <time>2011-06-15T17:27:03Z</time>
      </trkpt>
      <trkpt lat="44.33438" lon="2.51159">
        <ele>639.5</ele>
        <time>2011-06-15T17:27:05Z</time>
      </trkpt>
      <trkpt lat="44.33435" lon="2.51163">
        <ele>639.8</ele>
        <time>2011-06-15T17:27:07Z</time>
      </trkpt>
      <trkpt lat="44.33433" lon="2.51166">
        <ele>639.9</ele>
        <time>2011-06-15T17:27:09Z</time>
      </trkpt>
      <trkpt lat="44.33431" lon="2.5117">
        <ele>639.9</ele>
        <time>2011-06-15T17:27:11Z</time>
      </trkpt>
      <trkpt lat="44.33428" lon="2.51173">
        <ele>640.3</ele>
        <time>2011-06-15T17:27:13Z</time>
      </trkpt>
      <trkpt lat="44.33425" lon="2.51177">
        <ele>640.7</ele>
        <time>2011-06-15T17:27:16Z</time>
      </trkpt>
      <trkpt lat="44.33422" lon="2.51181">
        <ele>640.9</ele>
        <time>2011-06-15T17:27:18Z</time>
      </trkpt>
      <trkpt lat="44.3342" lon="2.51184">
        <ele>641.9</ele>
        <time>2011-06-15T17:27:20Z</time>
      </trkpt>
      <trkpt lat="44.33417" lon="2.51188">
        <ele>641.9</ele>
        <time>2011-06-15T17:27:22Z</time>
      </trkpt>
      <trkpt lat="44.33414" lon="2.51192">
        <ele>641.6</ele>
        <time>2011-06-15T17:27:24Z</time>
      </trkpt>
      <trkpt lat="44.33411" lon="2.51196">
        <ele>642.2</ele>
        <time>2011-06-15T17:27:26Z</time>
      </trkpt>
      <trkpt lat="44.33408" lon="2.512">
        <ele>642.8</ele>
        <time>2011-06-15T17:27:28Z</time>
      </trkpt>
      <trkpt lat="44.33407" lon="2.51203">
        <ele>643.1</ele>
        <time>2011-06-15T17:27:29Z</time>
      </trkpt>
      <trkpt lat="44.33403" lon="2.51206">
        <ele>643.5</ele>
        <time>2011-06-15T17:27:31Z</time>
      </trkpt>
      <trkpt lat="44.33401" lon="2.5121">
        <ele>643.7</ele>
        <time>2011-06-15T17:27:33Z</time>
      </trkpt>
      <trkpt lat="44.33399" lon="2.51213">
        <ele>644.2</ele>
        <time>2011-06-15T17:27:35Z</time>
      </trkpt>
      <trkpt lat="44.33397" lon="2.51217">
        <ele>644.7</ele>
        <time>2011-06-15T17:27:37Z</time>
      </trkpt>
      <trkpt lat="44.33394" lon="2.51221">
        <ele>645.2</ele>
        <time>2011-06-15T17:27:39Z</time>
      </trkpt>
      <trkpt lat="44.33392" lon="2.51224">
        <ele>645.7</ele>
        <time>2011-06-15T17:27:41Z</time>
      </trkpt>
      <trkpt lat="44.33389" lon="2.51228">
        <ele>646.2</ele>
        <time>2011-06-15T17:27:43Z</time>
      </trkpt>
      <trkpt lat="44.33387" lon="2.51233">
        <ele>646.6</ele>
        <time>2011-06-15T17:27:45Z</time>
      </trkpt>
      <trkpt lat="44.33385" lon="2.51237">
        <ele>646.8</ele>
        <time>2011-06-15T17:27:47Z</time>
      </trkpt>
      <trkpt lat="44.33383" lon="2.51243">
        <ele>647</ele>
        <time>2011-06-15T17:27:50Z</time>
      </trkpt>
      <trkpt lat="44.33381" lon="2.51248">
        <ele>647.4</ele>
        <time>2011-06-15T17:27:53Z</time>
      </trkpt>
      <trkpt lat="44.33379" lon="2.51251">
        <ele>648</ele>
        <time>2011-06-15T17:27:55Z</time>
      </trkpt>
      <trkpt lat="44.33378" lon="2.51253">
        <ele>648.2</ele>
        <time>2011-06-15T17:27:56Z</time>
      </trkpt>
      <trkpt lat="44.33375" lon="2.5126">
        <ele>649.7</ele>
        <time>2011-06-15T17:28:00Z</time>
      </trkpt>
      <trkpt lat="44.33374" lon="2.51265">
        <ele>649.6</ele>
        <time>2011-06-15T17:28:02Z</time>
      </trkpt>
      <trkpt lat="44.33372" lon="2.5127">
        <ele>650.3</ele>
        <time>2011-06-15T17:28:04Z</time>
      </trkpt>
      <trkpt lat="44.33369" lon="2.51274">
        <ele>650.6</ele>
        <time>2011-06-15T17:28:06Z</time>
      </trkpt>
      <trkpt lat="44.33367" lon="2.51279">
        <ele>650.8</ele>
        <time>2011-06-15T17:28:08Z</time>
      </trkpt>
      <trkpt lat="44.33366" lon="2.51284">
        <ele>650.9</ele>
        <time>2011-06-15T17:28:10Z</time>
      </trkpt>
      <trkpt lat="44.33365" lon="2.51289">
        <ele>651</ele>
        <time>2011-06-15T17:28:12Z</time>
      </trkpt>
      <trkpt lat="44.33364" lon="2.51294">
        <ele>651.4</ele>
        <time>2011-06-15T17:28:14Z</time>
      </trkpt>
      <trkpt lat="44.33362" lon="2.51298">
        <ele>652.2</ele>
        <time>2011-06-15T17:28:16Z</time>
      </trkpt>
      <trkpt lat="44.33362" lon="2.51303">
        <ele>653.1</ele>
        <time>2011-06-15T17:28:19Z</time>
      </trkpt>
      <trkpt lat="44.3336" lon="2.51307">
        <ele>653.2</ele>
        <time>2011-06-15T17:28:22Z</time>
      </trkpt>
      <trkpt lat="44.33357" lon="2.51312">
        <ele>654</ele>
        <time>2011-06-15T17:28:24Z</time>
      </trkpt>
      <trkpt lat="44.33355" lon="2.51315">
        <ele>654.1</ele>
        <time>2011-06-15T17:28:26Z</time>
      </trkpt>
      <trkpt lat="44.33352" lon="2.51318">
        <ele>653.9</ele>
        <time>2011-06-15T17:28:28Z</time>
      </trkpt>
      <trkpt lat="44.33349" lon="2.51321">
        <ele>654.4</ele>
        <time>2011-06-15T17:28:30Z</time>
      </trkpt>
      <trkpt lat="44.33346" lon="2.51325">
        <ele>654.7</ele>
        <time>2011-06-15T17:28:32Z</time>
      </trkpt>
      <trkpt lat="44.33343" lon="2.51327">
        <ele>654.8</ele>
        <time>2011-06-15T17:28:34Z</time>
      </trkpt>
      <trkpt lat="44.33339" lon="2.51331">
        <ele>654.3</ele>
        <time>2011-06-15T17:28:37Z</time>
      </trkpt>
      <trkpt lat="44.33336" lon="2.51332">
        <ele>654.2</ele>
        <time>2011-06-15T17:28:39Z</time>
      </trkpt>
      <trkpt lat="44.33333" lon="2.51335">
        <ele>654.2</ele>
        <time>2011-06-15T17:28:41Z</time>
      </trkpt>
      <trkpt lat="44.33331" lon="2.51338">
        <ele>653.9</ele>
        <time>2011-06-15T17:28:43Z</time>
      </trkpt>
      <trkpt lat="44.33328" lon="2.5134">
        <ele>654</ele>
        <time>2011-06-15T17:28:45Z</time>
      </trkpt>
      <trkpt lat="44.33325" lon="2.51342">
        <ele>654.2</ele>
        <time>2011-06-15T17:28:47Z</time>
      </trkpt>
      <trkpt lat="44.33322" lon="2.51344">
        <ele>654.2</ele>
        <time>2011-06-15T17:28:49Z</time>
      </trkpt>
      <trkpt lat="44.33318" lon="2.51346">
        <ele>654.5</ele>
        <time>2011-06-15T17:28:51Z</time>
      </trkpt>
      <trkpt lat="44.33315" lon="2.51348">
        <ele>654.9</ele>
        <time>2011-06-15T17:28:53Z</time>
      </trkpt>
      <trkpt lat="44.33313" lon="2.51351">
        <ele>655.1</ele>
        <time>2011-06-15T17:28:54Z</time>
      </trkpt>
      <trkpt lat="44.33312" lon="2.51354">
        <ele>655.1</ele>
        <time>2011-06-15T17:28:55Z</time>
      </trkpt>
      <trkpt lat="44.3331" lon="2.51359">
        <ele>655.1</ele>
        <time>2011-06-15T17:28:57Z</time>
      </trkpt>
      <trkpt lat="44.3331" lon="2.51361">
        <ele>655.3</ele>
        <time>2011-06-15T17:28:58Z</time>
      </trkpt>
      <trkpt lat="44.33309" lon="2.5137">
        <ele>655</ele>
        <time>2011-06-15T17:29:01Z</time>
      </trkpt>
      <trkpt lat="44.33308" lon="2.51376">
        <ele>654.4</ele>
        <time>2011-06-15T17:29:03Z</time>
      </trkpt>
      <trkpt lat="44.33305" lon="2.5138">
        <ele>654.8</ele>
        <time>2011-06-15T17:29:05Z</time>
      </trkpt>
      <trkpt lat="44.33304" lon="2.51384">
        <ele>654.9</ele>
        <time>2011-06-15T17:29:06Z</time>
      </trkpt>
      <trkpt lat="44.33303" lon="2.51386">
        <ele>655.4</ele>
        <time>2011-06-15T17:29:07Z</time>
      </trkpt>
      <trkpt lat="44.33301" lon="2.51389">
        <ele>655.8</ele>
        <time>2011-06-15T17:29:08Z</time>
      </trkpt>
      <trkpt lat="44.33299" lon="2.51391">
        <ele>656.1</ele>
        <time>2011-06-15T17:29:09Z</time>
      </trkpt>
      <trkpt lat="44.33297" lon="2.51393">
        <ele>656.3</ele>
        <time>2011-06-15T17:29:10Z</time>
      </trkpt>
      <trkpt lat="44.33295" lon="2.51395">
        <ele>656.7</ele>
        <time>2011-06-15T17:29:11Z</time>
      </trkpt>
      <trkpt lat="44.33292" lon="2.51399">
        <ele>657.2</ele>
        <time>2011-06-15T17:29:13Z</time>
      </trkpt>
      <trkpt lat="44.33289" lon="2.51403">
        <ele>657.2</ele>
        <time>2011-06-15T17:29:15Z</time>
      </trkpt>
      <trkpt lat="44.33286" lon="2.51407">
        <ele>656.9</ele>
        <time>2011-06-15T17:29:17Z</time>
      </trkpt>
      <trkpt lat="44.33283" lon="2.5141">
        <ele>656.6</ele>
        <time>2011-06-15T17:29:19Z</time>
      </trkpt>
      <trkpt lat="44.3328" lon="2.51414">
        <ele>657.9</ele>
        <time>2011-06-15T17:29:23Z</time>
      </trkpt>
      <trkpt lat="44.33277" lon="2.51418">
        <ele>658.1</ele>
        <time>2011-06-15T17:29:33Z</time>
      </trkpt>
      <trkpt lat="44.33274" lon="2.51423">
        <ele>658.2</ele>
        <time>2011-06-15T17:29:47Z</time>
      </trkpt>
      <trkpt lat="44.33271" lon="2.51428">
        <ele>657.7</ele>
        <time>2011-06-15T17:30:28Z</time>
      </trkpt>
      <trkpt lat="44.33271" lon="2.51428">
        <ele>657.5</ele>
        <time>2011-06-15T17:30:29Z</time>
      </trkpt>
      <trkpt lat="44.33271" lon="2.51426">
        <ele>657.5</ele>
        <time>2011-06-15T17:32:46Z</time>
      </trkpt>
      <trkpt lat="44.33271" lon="2.51425">
        <ele>657.5</ele>
        <time>2011-06-15T17:32:47Z</time>
      </trkpt>
      <trkpt lat="44.33275" lon="2.51423">
        <ele>657.9</ele>
        <time>2011-06-15T17:35:26Z</time>
      </trkpt>
      <trkpt lat="44.33279" lon="2.51418">
        <ele>657.4</ele>
        <time>2011-06-15T17:35:28Z</time>
      </trkpt>
      <trkpt lat="44.33282" lon="2.51416">
        <ele>657.2</ele>
        <time>2011-06-15T17:35:29Z</time>
      </trkpt>
      <trkpt lat="44.33285" lon="2.51413">
        <ele>657.3</ele>
        <time>2011-06-15T17:35:30Z</time>
      </trkpt>
      <trkpt lat="44.33289" lon="2.51409">
        <ele>657.4</ele>
        <time>2011-06-15T17:35:31Z</time>
      </trkpt>
      <trkpt lat="44.33292" lon="2.51404">
        <ele>657.5</ele>
        <time>2011-06-15T17:35:32Z</time>
      </trkpt>
      <trkpt lat="44.33296" lon="2.51399">
        <ele>657.6</ele>
        <time>2011-06-15T17:35:33Z</time>
      </trkpt>
      <trkpt lat="44.33299" lon="2.51393">
        <ele>656.9</ele>
        <time>2011-06-15T17:35:34Z</time>
      </trkpt>
      <trkpt lat="44.333" lon="2.51386">
        <ele>656.4</ele>
        <time>2011-06-15T17:35:35Z</time>
      </trkpt>
      <trkpt lat="44.33301" lon="2.51379">
        <ele>656</ele>
        <time>2011-06-15T17:35:36Z</time>
      </trkpt>
      <trkpt lat="44.33302" lon="2.51373">
        <ele>655.6</ele>
        <time>2011-06-15T17:35:37Z</time>
      </trkpt>
      <trkpt lat="44.33306" lon="2.51368">
        <ele>655.2</ele>
        <time>2011-06-15T17:35:38Z</time>
      </trkpt>
      <trkpt lat="44.3331" lon="2.51366">
        <ele>654.9</ele>
        <time>2011-06-15T17:35:39Z</time>
      </trkpt>
      <trkpt lat="44.33314" lon="2.51364">
        <ele>654.9</ele>
        <time>2011-06-15T17:35:40Z</time>
      </trkpt>
      <trkpt lat="44.33318" lon="2.51361">
        <ele>654.8</ele>
        <time>2011-06-15T17:35:41Z</time>
      </trkpt>
      <trkpt lat="44.33322" lon="2.51358">
        <ele>654.8</ele>
        <time>2011-06-15T17:35:42Z</time>
      </trkpt>
      <trkpt lat="44.33325" lon="2.51354">
        <ele>654.2</ele>
        <time>2011-06-15T17:35:43Z</time>
      </trkpt>
      <trkpt lat="44.33328" lon="2.51353">
        <ele>653.7</ele>
        <time>2011-06-15T17:35:44Z</time>
      </trkpt>
      <trkpt lat="44.33331" lon="2.5135">
        <ele>653.3</ele>
        <time>2011-06-15T17:35:45Z</time>
      </trkpt>
      <trkpt lat="44.33335" lon="2.51347">
        <ele>653.2</ele>
        <time>2011-06-15T17:35:46Z</time>
      </trkpt>
      <trkpt lat="44.33339" lon="2.51343">
        <ele>653</ele>
        <time>2011-06-15T17:35:47Z</time>
      </trkpt>
      <trkpt lat="44.33343" lon="2.51339">
        <ele>652.9</ele>
        <time>2011-06-15T17:35:48Z</time>
      </trkpt>
      <trkpt lat="44.33347" lon="2.51336">
        <ele>652.9</ele>
        <time>2011-06-15T17:35:49Z</time>
      </trkpt>
      <trkpt lat="44.33351" lon="2.51331">
        <ele>652.5</ele>
        <time>2011-06-15T17:35:50Z</time>
      </trkpt>
      <trkpt lat="44.33354" lon="2.51328">
        <ele>652.2</ele>
        <time>2011-06-15T17:35:51Z</time>
      </trkpt>
      <trkpt lat="44.33359" lon="2.51324">
        <ele>652</ele>
        <time>2011-06-15T17:35:52Z</time>
      </trkpt>
      <trkpt lat="44.33365" lon="2.51321">
        <ele>652.1</ele>
        <time>2011-06-15T17:35:53Z</time>
      </trkpt>
      <trkpt lat="44.3337" lon="2.51317">
        <ele>652.1</ele>
        <time>2011-06-15T17:35:54Z</time>
      </trkpt>
      <trkpt lat="44.33376" lon="2.51313">
        <ele>652.2</ele>
        <time>2011-06-15T17:35:55Z</time>
      </trkpt>
      <trkpt lat="44.33382" lon="2.51308">
        <ele>651.7</ele>
        <time>2011-06-15T17:35:56Z</time>
      </trkpt>
      <trkpt lat="44.33388" lon="2.51305">
        <ele>651.4</ele>
        <time>2011-06-15T17:35:57Z</time>
      </trkpt>
      <trkpt lat="44.33394" lon="2.513">
        <ele>651.1</ele>
        <time>2011-06-15T17:35:58Z</time>
      </trkpt>
      <trkpt lat="44.33398" lon="2.51294">
        <ele>650.4</ele>
        <time>2011-06-15T17:35:59Z</time>
      </trkpt>
      <trkpt lat="44.33403" lon="2.51288">
        <ele>649.8</ele>
        <time>2011-06-15T17:36:00Z</time>
      </trkpt>
      <trkpt lat="44.33407" lon="2.5128">
        <ele>649.4</ele>
        <time>2011-06-15T17:36:01Z</time>
      </trkpt>
      <trkpt lat="44.33411" lon="2.51272">
        <ele>648.7</ele>
        <time>2011-06-15T17:36:02Z</time>
      </trkpt>
      <trkpt lat="44.33416" lon="2.51265">
        <ele>648.2</ele>
        <time>2011-06-15T17:36:03Z</time>
      </trkpt>
      <trkpt lat="44.3342" lon="2.51259">
        <ele>647.8</ele>
        <time>2011-06-15T17:36:04Z</time>
      </trkpt>
      <trkpt lat="44.33423" lon="2.51253">
        <ele>647.5</ele>
        <time>2011-06-15T17:36:05Z</time>
      </trkpt>
      <trkpt lat="44.33424" lon="2.51246">
        <ele>647.3</ele>
        <time>2011-06-15T17:36:06Z</time>
      </trkpt>
      <trkpt lat="44.33426" lon="2.51239">
        <ele>647.2</ele>
        <time>2011-06-15T17:36:07Z</time>
      </trkpt>
      <trkpt lat="44.33429" lon="2.51232">
        <ele>647.1</ele>
        <time>2011-06-15T17:36:08Z</time>
      </trkpt>
      <trkpt lat="44.33431" lon="2.51224">
        <ele>646.5</ele>
        <time>2011-06-15T17:36:09Z</time>
      </trkpt>
      <trkpt lat="44.33434" lon="2.51218">
        <ele>646</ele>
        <time>2011-06-15T17:36:10Z</time>
      </trkpt>
      <trkpt lat="44.33436" lon="2.51214">
        <ele>645.7</ele>
        <time>2011-06-15T17:36:11Z</time>
      </trkpt>
      <trkpt lat="44.3344" lon="2.5121">
        <ele>644.9</ele>
        <time>2011-06-15T17:36:12Z</time>
      </trkpt>
      <trkpt lat="44.33443" lon="2.51206">
        <ele>644.2</ele>
        <time>2011-06-15T17:36:13Z</time>
      </trkpt>
      <trkpt lat="44.33445" lon="2.51201">
        <ele>643.8</ele>
        <time>2011-06-15T17:36:14Z</time>
      </trkpt>
      <trkpt lat="44.33447" lon="2.51197">
        <ele>642.8</ele>
        <time>2011-06-15T17:36:15Z</time>
      </trkpt>
      <trkpt lat="44.33449" lon="2.51191">
        <ele>642</ele>
        <time>2011-06-15T17:36:16Z</time>
      </trkpt>
      <trkpt lat="44.33452" lon="2.51185">
        <ele>641.5</ele>
        <time>2011-06-15T17:36:17Z</time>
      </trkpt>
      <trkpt lat="44.33455" lon="2.5118">
        <ele>641.5</ele>
        <time>2011-06-15T17:36:18Z</time>
      </trkpt>
      <trkpt lat="44.33458" lon="2.51175">
        <ele>641.6</ele>
        <time>2011-06-15T17:36:19Z</time>
      </trkpt>
      <trkpt lat="44.3346" lon="2.51169">
        <ele>641.6</ele>
        <time>2011-06-15T17:36:20Z</time>
      </trkpt>
      <trkpt lat="44.33463" lon="2.51164">
        <ele>641.6</ele>
        <time>2011-06-15T17:36:21Z</time>
      </trkpt>
      <trkpt lat="44.33464" lon="2.51159">
        <ele>641.3</ele>
        <time>2011-06-15T17:36:22Z</time>
      </trkpt>
      <trkpt lat="44.33465" lon="2.51154">
        <ele>641.1</ele>
        <time>2011-06-15T17:36:23Z</time>
      </trkpt>
      <trkpt lat="44.33464" lon="2.51149">
        <ele>640.9</ele>
        <time>2011-06-15T17:36:24Z</time>
      </trkpt>
      <trkpt lat="44.33464" lon="2.51144">
        <ele>640.1</ele>
        <time>2011-06-15T17:36:25Z</time>
      </trkpt>
      <trkpt lat="44.33464" lon="2.51139">
        <ele>639.6</ele>
        <time>2011-06-15T17:36:26Z</time>
      </trkpt>
      <trkpt lat="44.33466" lon="2.51135">
        <ele>639.2</ele>
        <time>2011-06-15T17:36:27Z</time>
      </trkpt>
      <trkpt lat="44.3347" lon="2.51132">
        <ele>638.1</ele>
        <time>2011-06-15T17:36:28Z</time>
      </trkpt>
      <trkpt lat="44.33473" lon="2.51129">
        <ele>637.2</ele>
        <time>2011-06-15T17:36:29Z</time>
      </trkpt>
      <trkpt lat="44.33474" lon="2.51123">
        <ele>637</ele>
        <time>2011-06-15T17:36:33Z</time>
      </trkpt>
      <trkpt lat="44.33476" lon="2.51118">
        <ele>637.4</ele>
        <time>2011-06-15T17:36:38Z</time>
      </trkpt>
      <trkpt lat="44.33476" lon="2.51112">
        <ele>637.5</ele>
        <time>2011-06-15T17:36:47Z</time>
      </trkpt>
      <trkpt lat="44.33476" lon="2.51106">
        <ele>637.4</ele>
        <time>2011-06-15T17:37:03Z</time>
      </trkpt>
      <trkpt lat="44.33479" lon="2.51102">
        <ele>638</ele>
        <time>2011-06-15T17:37:06Z</time>
      </trkpt>
      <trkpt lat="44.3348" lon="2.51098">
        <ele>638.3</ele>
        <time>2011-06-15T17:37:08Z</time>
      </trkpt>
      <trkpt lat="44.33482" lon="2.51094">
        <ele>637.3</ele>
        <time>2011-06-15T17:37:10Z</time>
      </trkpt>
      <trkpt lat="44.33485" lon="2.51089">
        <ele>636.8</ele>
        <time>2011-06-15T17:37:12Z</time>
      </trkpt>
      <trkpt lat="44.33486" lon="2.51086">
        <ele>636.7</ele>
        <time>2011-06-15T17:37:13Z</time>
      </trkpt>
      <trkpt lat="44.33487" lon="2.51082">
        <ele>636.7</ele>
        <time>2011-06-15T17:37:14Z</time>
      </trkpt>
      <trkpt lat="44.33487" lon="2.51078">
        <ele>636.7</ele>
        <time>2011-06-15T17:37:15Z</time>
      </trkpt>
      <trkpt lat="44.33487" lon="2.51073">
        <ele>636.5</ele>
        <time>2011-06-15T17:37:16Z</time>
      </trkpt>
      <trkpt lat="44.33489" lon="2.51068">
        <ele>636.4</ele>
        <time>2011-06-15T17:37:17Z</time>
      </trkpt>
      <trkpt lat="44.33492" lon="2.51064">
        <ele>636.3</ele>
        <time>2011-06-15T17:37:18Z</time>
      </trkpt>
      <trkpt lat="44.33495" lon="2.51058">
        <ele>635.5</ele>
        <time>2011-06-15T17:37:19Z</time>
      </trkpt>
      <trkpt lat="44.33497" lon="2.51052">
        <ele>634.9</ele>
        <time>2011-06-15T17:37:20Z</time>
      </trkpt>
      <trkpt lat="44.33499" lon="2.51045">
        <ele>634.4</ele>
        <time>2011-06-15T17:37:21Z</time>
      </trkpt>
      <trkpt lat="44.33502" lon="2.5104">
        <ele>633.7</ele>
        <time>2011-06-15T17:37:22Z</time>
      </trkpt>
      <trkpt lat="44.33507" lon="2.51035">
        <ele>633.2</ele>
        <time>2011-06-15T17:37:23Z</time>
      </trkpt>
      <trkpt lat="44.33511" lon="2.51031">
        <ele>632.8</ele>
        <time>2011-06-15T17:37:24Z</time>
      </trkpt>
      <trkpt lat="44.33515" lon="2.51025">
        <ele>631.9</ele>
        <time>2011-06-15T17:37:25Z</time>
      </trkpt>
      <trkpt lat="44.33516" lon="2.51018">
        <ele>631.3</ele>
        <time>2011-06-15T17:37:26Z</time>
      </trkpt>
      <trkpt lat="44.33517" lon="2.51011">
        <ele>630.8</ele>
        <time>2011-06-15T17:37:27Z</time>
      </trkpt>
      <trkpt lat="44.3352" lon="2.51005">
        <ele>630.4</ele>
        <time>2011-06-15T17:37:28Z</time>
      </trkpt>
      <trkpt lat="44.33522" lon="2.50999">
        <ele>629.7</ele>
        <time>2011-06-15T17:37:29Z</time>
      </trkpt>
      <trkpt lat="44.33524" lon="2.50994">
        <ele>629.1</ele>
        <time>2011-06-15T17:37:30Z</time>
      </trkpt>
      <trkpt lat="44.33526" lon="2.50988">
        <ele>628.8</ele>
        <time>2011-06-15T17:37:31Z</time>
      </trkpt>
      <trkpt lat="44.33528" lon="2.50984">
        <ele>628.3</ele>
        <time>2011-06-15T17:37:32Z</time>
      </trkpt>
      <trkpt lat="44.3353" lon="2.50979">
        <ele>627.9</ele>
        <time>2011-06-15T17:37:33Z</time>
      </trkpt>
      <trkpt lat="44.33533" lon="2.50974">
        <ele>627.6</ele>
        <time>2011-06-15T17:37:34Z</time>
      </trkpt>
      <trkpt lat="44.33538" lon="2.50966">
        <ele>626.3</ele>
        <time>2011-06-15T17:37:35Z</time>
      </trkpt>
      <trkpt lat="44.33541" lon="2.50958">
        <ele>625.3</ele>
        <time>2011-06-15T17:37:36Z</time>
      </trkpt>
      <trkpt lat="44.33542" lon="2.50953">
        <ele>624.6</ele>
        <time>2011-06-15T17:37:37Z</time>
      </trkpt>
      <trkpt lat="44.33543" lon="2.50947">
        <ele>623.7</ele>
        <time>2011-06-15T17:37:38Z</time>
      </trkpt>
      <trkpt lat="44.33546" lon="2.50939">
        <ele>623</ele>
        <time>2011-06-15T17:37:39Z</time>
      </trkpt>
      <trkpt lat="44.3355" lon="2.50932">
        <ele>622.5</ele>
        <time>2011-06-15T17:37:40Z</time>
      </trkpt>
      <trkpt lat="44.33554" lon="2.50927">
        <ele>621.3</ele>
        <time>2011-06-15T17:37:41Z</time>
      </trkpt>
      <trkpt lat="44.3356" lon="2.50923">
        <ele>620.4</ele>
        <time>2011-06-15T17:37:42Z</time>
      </trkpt>
      <trkpt lat="44.33564" lon="2.50919">
        <ele>619.7</ele>
        <time>2011-06-15T17:37:43Z</time>
      </trkpt>
      <trkpt lat="44.33567" lon="2.50913">
        <ele>619.2</ele>
        <time>2011-06-15T17:37:44Z</time>
      </trkpt>
      <trkpt lat="44.33572" lon="2.5091">
        <ele>618.8</ele>
        <time>2011-06-15T17:37:45Z</time>
      </trkpt>
      <trkpt lat="44.33576" lon="2.50907">
        <ele>618.6</ele>
        <time>2011-06-15T17:37:46Z</time>
      </trkpt>
      <trkpt lat="44.3358" lon="2.50905">
        <ele>618.3</ele>
        <time>2011-06-15T17:37:47Z</time>
      </trkpt>
      <trkpt lat="44.33584" lon="2.50901">
        <ele>617.9</ele>
        <time>2011-06-15T17:37:48Z</time>
      </trkpt>
      <trkpt lat="44.33587" lon="2.50896">
        <ele>617.5</ele>
        <time>2011-06-15T17:37:49Z</time>
      </trkpt>
      <trkpt lat="44.33588" lon="2.5089">
        <ele>617.3</ele>
        <time>2011-06-15T17:37:50Z</time>
      </trkpt>
      <trkpt lat="44.33589" lon="2.50885">
        <ele>616.2</ele>
        <time>2011-06-15T17:37:51Z</time>
      </trkpt>
      <trkpt lat="44.33591" lon="2.50881">
        <ele>615.3</ele>
        <time>2011-06-15T17:37:52Z</time>
      </trkpt>
      <trkpt lat="44.33594" lon="2.50878">
        <ele>614.7</ele>
        <time>2011-06-15T17:37:53Z</time>
      </trkpt>
      <trkpt lat="44.33599" lon="2.50875">
        <ele>613.5</ele>
        <time>2011-06-15T17:37:54Z</time>
      </trkpt>
      <trkpt lat="44.33603" lon="2.50872">
        <ele>612.7</ele>
        <time>2011-06-15T17:37:55Z</time>
      </trkpt>
      <trkpt lat="44.33608" lon="2.50868">
        <ele>612</ele>
        <time>2011-06-15T17:37:56Z</time>
      </trkpt>
      <trkpt lat="44.33614" lon="2.50863">
        <ele>610.1</ele>
        <time>2011-06-15T17:37:57Z</time>
      </trkpt>
      <trkpt lat="44.3362" lon="2.50858">
        <ele>608.6</ele>
        <time>2011-06-15T17:37:58Z</time>
      </trkpt>
      <trkpt lat="44.33627" lon="2.50853">
        <ele>607.6</ele>
        <time>2011-06-15T17:37:59Z</time>
      </trkpt>
      <trkpt lat="44.33633" lon="2.50847">
        <ele>605.1</ele>
        <time>2011-06-15T17:38:00Z</time>
      </trkpt>
      <trkpt lat="44.33638" lon="2.50843">
        <ele>603.2</ele>
        <time>2011-06-15T17:38:01Z</time>
      </trkpt>
      <trkpt lat="44.33644" lon="2.5084">
        <ele>601.8</ele>
        <time>2011-06-15T17:38:02Z</time>
      </trkpt>
      <trkpt lat="44.33648" lon="2.50838">
        <ele>600.7</ele>
        <time>2011-06-15T17:38:03Z</time>
      </trkpt>
      <trkpt lat="44.33653" lon="2.50834">
        <ele>599.9</ele>
        <time>2011-06-15T17:38:04Z</time>
      </trkpt>
      <trkpt lat="44.33657" lon="2.50829">
        <ele>599.3</ele>
        <time>2011-06-15T17:38:05Z</time>
      </trkpt>
      <trkpt lat="44.33661" lon="2.50827">
        <ele>598.9</ele>
        <time>2011-06-15T17:38:06Z</time>
      </trkpt>
      <trkpt lat="44.33664" lon="2.50822">
        <ele>598.2</ele>
        <time>2011-06-15T17:38:07Z</time>
      </trkpt>
      <trkpt lat="44.33666" lon="2.50817">
        <ele>597.7</ele>
        <time>2011-06-15T17:38:08Z</time>
      </trkpt>
      <trkpt lat="44.3367" lon="2.5081">
        <ele>597.4</ele>
        <time>2011-06-15T17:38:09Z</time>
      </trkpt>
      <trkpt lat="44.33674" lon="2.50805">
        <ele>595.9</ele>
        <time>2011-06-15T17:38:10Z</time>
      </trkpt>
      <trkpt lat="44.33678" lon="2.50801">
        <ele>594.9</ele>
        <time>2011-06-15T17:38:11Z</time>
      </trkpt>
      <trkpt lat="44.33683" lon="2.50797">
        <ele>594.1</ele>
        <time>2011-06-15T17:38:12Z</time>
      </trkpt>
      <trkpt lat="44.33688" lon="2.50794">
        <ele>592.9</ele>
        <time>2011-06-15T17:38:13Z</time>
      </trkpt>
      <trkpt lat="44.33693" lon="2.50791">
        <ele>592.1</ele>
        <time>2011-06-15T17:38:14Z</time>
      </trkpt>
      <trkpt lat="44.33698" lon="2.5079">
        <ele>591.4</ele>
        <time>2011-06-15T17:38:15Z</time>
      </trkpt>
      <trkpt lat="44.33704" lon="2.50788">
        <ele>591</ele>
        <time>2011-06-15T17:38:16Z</time>
      </trkpt>
      <trkpt lat="44.33709" lon="2.50786">
        <ele>590.7</ele>
        <time>2011-06-15T17:38:17Z</time>
      </trkpt>
      <trkpt lat="44.33715" lon="2.50785">
        <ele>590.5</ele>
        <time>2011-06-15T17:38:18Z</time>
      </trkpt>
      <trkpt lat="44.33719" lon="2.50783">
        <ele>590.3</ele>
        <time>2011-06-15T17:38:19Z</time>
      </trkpt>
      <trkpt lat="44.33723" lon="2.50781">
        <ele>589.1</ele>
        <time>2011-06-15T17:38:21Z</time>
      </trkpt>
      <trkpt lat="44.33726" lon="2.50779">
        <ele>587.3</ele>
        <time>2011-06-15T17:38:31Z</time>
      </trkpt>
      <trkpt lat="44.33727" lon="2.50778">
        <ele>587.3</ele>
        <time>2011-06-15T17:38:32Z</time>
      </trkpt>
      <trkpt lat="44.33735" lon="2.50781">
        <ele>586.9</ele>
        <time>2011-06-15T17:39:16Z</time>
      </trkpt>
      <trkpt lat="44.33739" lon="2.50783">
        <ele>587.8</ele>
        <time>2011-06-15T17:39:29Z</time>
      </trkpt>
      <trkpt lat="44.33741" lon="2.50787">
        <ele>586.6</ele>
        <time>2011-06-15T17:39:37Z</time>
      </trkpt>
      <trkpt lat="44.33742" lon="2.50789">
        <ele>586.6</ele>
        <time>2011-06-15T17:39:38Z</time>
      </trkpt>
      <trkpt lat="44.33746" lon="2.50794">
        <ele>585.9</ele>
        <time>2011-06-15T17:39:41Z</time>
      </trkpt>
      <trkpt lat="44.33749" lon="2.50795">
        <ele>585.8</ele>
        <time>2011-06-15T17:39:42Z</time>
      </trkpt>
      <trkpt lat="44.33751" lon="2.50794">
        <ele>585.4</ele>
        <time>2011-06-15T17:39:43Z</time>
      </trkpt>
      <trkpt lat="44.33753" lon="2.50794">
        <ele>585.1</ele>
        <time>2011-06-15T17:39:44Z</time>
      </trkpt>
      <trkpt lat="44.33756" lon="2.50795">
        <ele>584.8</ele>
        <time>2011-06-15T17:39:45Z</time>
      </trkpt>
      <trkpt lat="44.3376" lon="2.50798">
        <ele>583.9</ele>
        <time>2011-06-15T17:39:46Z</time>
      </trkpt>
      <trkpt lat="44.33764" lon="2.50801">
        <ele>583.1</ele>
        <time>2011-06-15T17:39:47Z</time>
      </trkpt>
      <trkpt lat="44.33768" lon="2.50804">
        <ele>582.5</ele>
        <time>2011-06-15T17:39:48Z</time>
      </trkpt>
      <trkpt lat="44.33772" lon="2.50806">
        <ele>581.7</ele>
        <time>2011-06-15T17:39:49Z</time>
      </trkpt>
      <trkpt lat="44.33778" lon="2.50809">
        <ele>581.1</ele>
        <time>2011-06-15T17:39:50Z</time>
      </trkpt>
      <trkpt lat="44.33783" lon="2.50812">
        <ele>580.6</ele>
        <time>2011-06-15T17:39:51Z</time>
      </trkpt>
      <trkpt lat="44.33788" lon="2.50815">
        <ele>579.1</ele>
        <time>2011-06-15T17:39:52Z</time>
      </trkpt>
      <trkpt lat="44.33794" lon="2.50817">
        <ele>578</ele>
        <time>2011-06-15T17:39:53Z</time>
      </trkpt>
      <trkpt lat="44.338" lon="2.5082">
        <ele>577.2</ele>
        <time>2011-06-15T17:39:54Z</time>
      </trkpt>
      <trkpt lat="44.33806" lon="2.50824">
        <ele>576.5</ele>
        <time>2011-06-15T17:39:55Z</time>
      </trkpt>
      <trkpt lat="44.33812" lon="2.50827">
        <ele>575.9</ele>
        <time>2011-06-15T17:39:56Z</time>
      </trkpt>
      <trkpt lat="44.33819" lon="2.5083">
        <ele>575.5</ele>
        <time>2011-06-15T17:39:57Z</time>
      </trkpt>
      <trkpt lat="44.33828" lon="2.50832">
        <ele>575.2</ele>
        <time>2011-06-15T17:39:58Z</time>
      </trkpt>
      <trkpt lat="44.33834" lon="2.50836">
        <ele>574.4</ele>
        <time>2011-06-15T17:39:59Z</time>
      </trkpt>
      <trkpt lat="44.3384" lon="2.5084">
        <ele>573.7</ele>
        <time>2011-06-15T17:40:00Z</time>
      </trkpt>
      <trkpt lat="44.33846" lon="2.50844">
        <ele>573.3</ele>
        <time>2011-06-15T17:40:01Z</time>
      </trkpt>
      <trkpt lat="44.33851" lon="2.5085">
        <ele>572.8</ele>
        <time>2011-06-15T17:40:02Z</time>
      </trkpt>
      <trkpt lat="44.33854" lon="2.50855">
        <ele>572.4</ele>
        <time>2011-06-15T17:40:03Z</time>
      </trkpt>
      <trkpt lat="44.33856" lon="2.50862">
        <ele>572.1</ele>
        <time>2011-06-15T17:40:04Z</time>
      </trkpt>
      <trkpt lat="44.33859" lon="2.50868">
        <ele>570.9</ele>
        <time>2011-06-15T17:40:05Z</time>
      </trkpt>
      <trkpt lat="44.33862" lon="2.50875">
        <ele>570</ele>
        <time>2011-06-15T17:40:06Z</time>
      </trkpt>
      <trkpt lat="44.33866" lon="2.50882">
        <ele>569.3</ele>
        <time>2011-06-15T17:40:07Z</time>
      </trkpt>
      <trkpt lat="44.3387" lon="2.50889">
        <ele>568.1</ele>
        <time>2011-06-15T17:40:08Z</time>
      </trkpt>
      <trkpt lat="44.33876" lon="2.50895">
        <ele>567.2</ele>
        <time>2011-06-15T17:40:09Z</time>
      </trkpt>
      <trkpt lat="44.33881" lon="2.50901">
        <ele>566.5</ele>
        <time>2011-06-15T17:40:10Z</time>
      </trkpt>
      <trkpt lat="44.33886" lon="2.50905">
        <ele>565.4</ele>
        <time>2011-06-15T17:40:11Z</time>
      </trkpt>
      <trkpt lat="44.33892" lon="2.50911">
        <ele>564.5</ele>
        <time>2011-06-15T17:40:12Z</time>
      </trkpt>
      <trkpt lat="44.33898" lon="2.50915">
        <ele>563.9</ele>
        <time>2011-06-15T17:40:13Z</time>
      </trkpt>
      <trkpt lat="44.33904" lon="2.50917">
        <ele>563.4</ele>
        <time>2011-06-15T17:40:14Z</time>
      </trkpt>
      <trkpt lat="44.33909" lon="2.50921">
        <ele>562.9</ele>
        <time>2011-06-15T17:40:15Z</time>
      </trkpt>
      <trkpt lat="44.33916" lon="2.50923">
        <ele>562.5</ele>
        <time>2011-06-15T17:40:16Z</time>
      </trkpt>
      <trkpt lat="44.33923" lon="2.50924">
        <ele>562.2</ele>
        <time>2011-06-15T17:40:17Z</time>
      </trkpt>
      <trkpt lat="44.3393" lon="2.50925">
        <ele>561.9</ele>
        <time>2011-06-15T17:40:18Z</time>
      </trkpt>
      <trkpt lat="44.33938" lon="2.50924">
        <ele>561.7</ele>
        <time>2011-06-15T17:40:19Z</time>
      </trkpt>
      <trkpt lat="44.33946" lon="2.50924">
        <ele>561.5</ele>
        <time>2011-06-15T17:40:20Z</time>
      </trkpt>
      <trkpt lat="44.33953" lon="2.50923">
        <ele>560.8</ele>
        <time>2011-06-15T17:40:21Z</time>
      </trkpt>
      <trkpt lat="44.33961" lon="2.50923">
        <ele>560.2</ele>
        <time>2011-06-15T17:40:22Z</time>
      </trkpt>
      <trkpt lat="44.33969" lon="2.50924">
        <ele>559.8</ele>
        <time>2011-06-15T17:40:23Z</time>
      </trkpt>
      <trkpt lat="44.33978" lon="2.50925">
        <ele>558.8</ele>
        <time>2011-06-15T17:40:24Z</time>
      </trkpt>
      <trkpt lat="44.33986" lon="2.50927">
        <ele>558.1</ele>
        <time>2011-06-15T17:40:25Z</time>
      </trkpt>
      <trkpt lat="44.33993" lon="2.50929">
        <ele>557.5</ele>
        <time>2011-06-15T17:40:26Z</time>
      </trkpt>
      <trkpt lat="44.33999" lon="2.50931">
        <ele>556.7</ele>
        <time>2011-06-15T17:40:27Z</time>
      </trkpt>
      <trkpt lat="44.34005" lon="2.50933">
        <ele>556</ele>
        <time>2011-06-15T17:40:28Z</time>
      </trkpt>
      <trkpt lat="44.34011" lon="2.5093">
        <ele>555.6</ele>
        <time>2011-06-15T17:40:29Z</time>
      </trkpt>
      <trkpt lat="44.34018" lon="2.50926">
        <ele>554.5</ele>
        <time>2011-06-15T17:40:30Z</time>
      </trkpt>
      <trkpt lat="44.34023" lon="2.5092">
        <ele>553.7</ele>
        <time>2011-06-15T17:40:31Z</time>
      </trkpt>
      <trkpt lat="44.34028" lon="2.50917">
        <ele>553.1</ele>
        <time>2011-06-15T17:40:32Z</time>
      </trkpt>
      <trkpt lat="44.34031" lon="2.50916">
        <ele>552.7</ele>
        <time>2011-06-15T17:40:33Z</time>
      </trkpt>
      <trkpt lat="44.34034" lon="2.50915">
        <ele>552.8</ele>
        <time>2011-06-15T17:40:35Z</time>
      </trkpt>
      <trkpt lat="44.34037" lon="2.50915">
        <ele>552.5</ele>
        <time>2011-06-15T17:40:37Z</time>
      </trkpt>
      <trkpt lat="44.3404" lon="2.50915">
        <ele>552.3</ele>
        <time>2011-06-15T17:40:38Z</time>
      </trkpt>
      <trkpt lat="44.34042" lon="2.50916">
        <ele>552.1</ele>
        <time>2011-06-15T17:40:39Z</time>
      </trkpt>
      <trkpt lat="44.34048" lon="2.50919">
        <ele>551.8</ele>
        <time>2011-06-15T17:40:43Z</time>
      </trkpt>
      <trkpt lat="44.34051" lon="2.50921">
        <ele>551.5</ele>
        <time>2011-06-15T17:40:46Z</time>
      </trkpt>
      <trkpt lat="44.34055" lon="2.50923">
        <ele>550.8</ele>
        <time>2011-06-15T17:40:58Z</time>
      </trkpt>
      <trkpt lat="44.34057" lon="2.50927">
        <ele>551</ele>
        <time>2011-06-15T17:41:01Z</time>
      </trkpt>
      <trkpt lat="44.3406" lon="2.5093">
        <ele>551.3</ele>
        <time>2011-06-15T17:41:03Z</time>
      </trkpt>
      <trkpt lat="44.34062" lon="2.50932">
        <ele>551.4</ele>
        <time>2011-06-15T17:41:04Z</time>
      </trkpt>
      <trkpt lat="44.34064" lon="2.50933">
        <ele>551.5</ele>
        <time>2011-06-15T17:41:05Z</time>
      </trkpt>
      <trkpt lat="44.34067" lon="2.50936">
        <ele>551.6</ele>
        <time>2011-06-15T17:41:06Z</time>
      </trkpt>
      <trkpt lat="44.34069" lon="2.50938">
        <ele>551.7</ele>
        <time>2011-06-15T17:41:07Z</time>
      </trkpt>
      <trkpt lat="44.34071" lon="2.50941">
        <ele>551.8</ele>
        <time>2011-06-15T17:41:08Z</time>
      </trkpt>
      <trkpt lat="44.34073" lon="2.50944">
        <ele>551.7</ele>
        <time>2011-06-15T17:41:09Z</time>
      </trkpt>
      <trkpt lat="44.34075" lon="2.50947">
        <ele>551.6</ele>
        <time>2011-06-15T17:41:10Z</time>
      </trkpt>
      <trkpt lat="44.34077" lon="2.50951">
        <ele>551.6</ele>
        <time>2011-06-15T17:41:11Z</time>
      </trkpt>
      <trkpt lat="44.34079" lon="2.50955">
        <ele>551.5</ele>
        <time>2011-06-15T17:41:12Z</time>
      </trkpt>
      <trkpt lat="44.3408" lon="2.5096">
        <ele>551.5</ele>
        <time>2011-06-15T17:41:13Z</time>
      </trkpt>
      <trkpt lat="44.3408" lon="2.50964">
        <ele>551.5</ele>
        <time>2011-06-15T17:41:14Z</time>
      </trkpt>
      <trkpt lat="44.34079" lon="2.50968">
        <ele>552</ele>
        <time>2011-06-15T17:41:15Z</time>
      </trkpt>
      <trkpt lat="44.34078" lon="2.50971">
        <ele>552.4</ele>
        <time>2011-06-15T17:41:16Z</time>
      </trkpt>
      <trkpt lat="44.34077" lon="2.50974">
        <ele>552.7</ele>
        <time>2011-06-15T17:41:17Z</time>
      </trkpt>
      <trkpt lat="44.34076" lon="2.50977">
        <ele>552.6</ele>
        <time>2011-06-15T17:41:18Z</time>
      </trkpt>
      <trkpt lat="44.34075" lon="2.50981">
        <ele>552.5</ele>
        <time>2011-06-15T17:41:19Z</time>
      </trkpt>
      <trkpt lat="44.34074" lon="2.50984">
        <ele>552.4</ele>
        <time>2011-06-15T17:41:20Z</time>
      </trkpt>
      <trkpt lat="44.34073" lon="2.50987">
        <ele>552.1</ele>
        <time>2011-06-15T17:41:21Z</time>
      </trkpt>
      <trkpt lat="44.34071" lon="2.5099">
        <ele>551.9</ele>
        <time>2011-06-15T17:41:22Z</time>
      </trkpt>
      <trkpt lat="44.3407" lon="2.50993">
        <ele>551.7</ele>
        <time>2011-06-15T17:41:23Z</time>
      </trkpt>
      <trkpt lat="44.34069" lon="2.50996">
        <ele>551.6</ele>
        <time>2011-06-15T17:41:24Z</time>
      </trkpt>
      <trkpt lat="44.34067" lon="2.50999">
        <ele>552.3</ele>
        <time>2011-06-15T17:41:25Z</time>
      </trkpt>
      <trkpt lat="44.34066" lon="2.51002">
        <ele>552.8</ele>
        <time>2011-06-15T17:41:26Z</time>
      </trkpt>
      <trkpt lat="44.34065" lon="2.51005">
        <ele>553.2</ele>
        <time>2011-06-15T17:41:27Z</time>
      </trkpt>
      <trkpt lat="44.34063" lon="2.51007">
        <ele>553.1</ele>
        <time>2011-06-15T17:41:28Z</time>
      </trkpt>
      <trkpt lat="44.34062" lon="2.5101">
        <ele>553</ele>
        <time>2011-06-15T17:41:29Z</time>
      </trkpt>
      <trkpt lat="44.3406" lon="2.51012">
        <ele>552.9</ele>
        <time>2011-06-15T17:41:30Z</time>
      </trkpt>
      <trkpt lat="44.34058" lon="2.51015">
        <ele>553.2</ele>
        <time>2011-06-15T17:41:31Z</time>
      </trkpt>
      <trkpt lat="44.34057" lon="2.51017">
        <ele>553.4</ele>
        <time>2011-06-15T17:41:32Z</time>
      </trkpt>
      <trkpt lat="44.34055" lon="2.51019">
        <ele>553.6</ele>
        <time>2011-06-15T17:41:33Z</time>
      </trkpt>
      <trkpt lat="44.34053" lon="2.51022">
        <ele>553.6</ele>
        <time>2011-06-15T17:41:34Z</time>
      </trkpt>
      <trkpt lat="44.34051" lon="2.51025">
        <ele>553.6</ele>
        <time>2011-06-15T17:41:35Z</time>
      </trkpt>
      <trkpt lat="44.34048" lon="2.51029">
        <ele>553.6</ele>
        <time>2011-06-15T17:41:37Z</time>
      </trkpt>
      <trkpt lat="44.34045" lon="2.51031">
        <ele>553.7</ele>
        <time>2011-06-15T17:41:39Z</time>
      </trkpt>
      <trkpt lat="44.34044" lon="2.51034">
        <ele>553.7</ele>
        <time>2011-06-15T17:41:40Z</time>
      </trkpt>
      <trkpt lat="44.34041" lon="2.51039">
        <ele>554.3</ele>
        <time>2011-06-15T17:41:42Z</time>
      </trkpt>
      <trkpt lat="44.34038" lon="2.51043">
        <ele>554.6</ele>
        <time>2011-06-15T17:41:44Z</time>
      </trkpt>
      <trkpt lat="44.34035" lon="2.51048">
        <ele>554.7</ele>
        <time>2011-06-15T17:41:46Z</time>
      </trkpt>
      <trkpt lat="44.34033" lon="2.5105">
        <ele>555</ele>
        <time>2011-06-15T17:41:47Z</time>
      </trkpt>
      <trkpt lat="44.34031" lon="2.51052">
        <ele>555.3</ele>
        <time>2011-06-15T17:41:48Z</time>
      </trkpt>
      <trkpt lat="44.34029" lon="2.51054">
        <ele>555.5</ele>
        <time>2011-06-15T17:41:49Z</time>
      </trkpt>
      <trkpt lat="44.34028" lon="2.51056">
        <ele>555.2</ele>
        <time>2011-06-15T17:41:50Z</time>
      </trkpt>
      <trkpt lat="44.34026" lon="2.51058">
        <ele>555</ele>
        <time>2011-06-15T17:41:51Z</time>
      </trkpt>
      <trkpt lat="44.34024" lon="2.5106">
        <ele>554.9</ele>
        <time>2011-06-15T17:41:52Z</time>
      </trkpt>
      <trkpt lat="44.34022" lon="2.51062">
        <ele>554.8</ele>
        <time>2011-06-15T17:41:53Z</time>
      </trkpt>
      <trkpt lat="44.3402" lon="2.51063">
        <ele>554.9</ele>
        <time>2011-06-15T17:41:54Z</time>
      </trkpt>
      <trkpt lat="44.34018" lon="2.51065">
        <ele>555</ele>
        <time>2011-06-15T17:41:55Z</time>
      </trkpt>
      <trkpt lat="44.34014" lon="2.51066">
        <ele>555.2</ele>
        <time>2011-06-15T17:41:57Z</time>
      </trkpt>
      <trkpt lat="44.3401" lon="2.51068">
        <ele>555.4</ele>
        <time>2011-06-15T17:41:59Z</time>
      </trkpt>
      <trkpt lat="44.34007" lon="2.5107">
        <ele>556.3</ele>
        <time>2011-06-15T17:42:01Z</time>
      </trkpt>
      <trkpt lat="44.34004" lon="2.51071">
        <ele>556.2</ele>
        <time>2011-06-15T17:42:03Z</time>
      </trkpt>
      <trkpt lat="44.34" lon="2.51072">
        <ele>555.7</ele>
        <time>2011-06-15T17:42:05Z</time>
      </trkpt>
      <trkpt lat="44.33997" lon="2.51073">
        <ele>555.1</ele>
        <time>2011-06-15T17:42:07Z</time>
      </trkpt>
      <trkpt lat="44.33993" lon="2.51074">
        <ele>555.1</ele>
        <time>2011-06-15T17:42:09Z</time>
      </trkpt>
      <trkpt lat="44.33989" lon="2.51076">
        <ele>555.3</ele>
        <time>2011-06-15T17:42:11Z</time>
      </trkpt>
      <trkpt lat="44.33985" lon="2.51078">
        <ele>555.6</ele>
        <time>2011-06-15T17:42:13Z</time>
      </trkpt>
      <trkpt lat="44.33981" lon="2.51078">
        <ele>555.7</ele>
        <time>2011-06-15T17:42:16Z</time>
      </trkpt>
      <trkpt lat="44.33978" lon="2.51079">
        <ele>555.5</ele>
        <time>2011-06-15T17:42:18Z</time>
      </trkpt>
      <trkpt lat="44.33974" lon="2.5108">
        <ele>556.7</ele>
        <time>2011-06-15T17:42:20Z</time>
      </trkpt>
      <trkpt lat="44.3397" lon="2.5108">
        <ele>557.3</ele>
        <time>2011-06-15T17:42:22Z</time>
      </trkpt>
      <trkpt lat="44.33966" lon="2.51081">
        <ele>557.7</ele>
        <time>2011-06-15T17:42:24Z</time>
      </trkpt>
      <trkpt lat="44.33962" lon="2.51082">
        <ele>558.3</ele>
        <time>2011-06-15T17:42:26Z</time>
      </trkpt>
      <trkpt lat="44.33959" lon="2.51082">
        <ele>558.6</ele>
        <time>2011-06-15T17:42:28Z</time>
      </trkpt>
      <trkpt lat="44.33956" lon="2.51082">
        <ele>558.6</ele>
        <time>2011-06-15T17:42:29Z</time>
      </trkpt>
      <trkpt lat="44.33954" lon="2.51082">
        <ele>558.6</ele>
        <time>2011-06-15T17:42:30Z</time>
      </trkpt>
      <trkpt lat="44.3395" lon="2.51082">
        <ele>559</ele>
        <time>2011-06-15T17:42:32Z</time>
      </trkpt>
      <trkpt lat="44.33946" lon="2.51082">
        <ele>559.6</ele>
        <time>2011-06-15T17:42:34Z</time>
      </trkpt>
      <trkpt lat="44.33942" lon="2.51081">
        <ele>560.2</ele>
        <time>2011-06-15T17:42:36Z</time>
      </trkpt>
      <trkpt lat="44.33938" lon="2.5108">
        <ele>559.9</ele>
        <time>2011-06-15T17:42:38Z</time>
      </trkpt>
      <trkpt lat="44.33936" lon="2.51079">
        <ele>559.6</ele>
        <time>2011-06-15T17:42:39Z</time>
      </trkpt>
      <trkpt lat="44.33934" lon="2.51078">
        <ele>559.3</ele>
        <time>2011-06-15T17:42:40Z</time>
      </trkpt>
      <trkpt lat="44.33932" lon="2.51078">
        <ele>560.1</ele>
        <time>2011-06-15T17:42:41Z</time>
      </trkpt>
      <trkpt lat="44.33927" lon="2.51076">
        <ele>561.1</ele>
        <time>2011-06-15T17:42:43Z</time>
      </trkpt>
      <trkpt lat="44.33923" lon="2.51073">
        <ele>561.3</ele>
        <time>2011-06-15T17:42:45Z</time>
      </trkpt>
      <trkpt lat="44.3392" lon="2.51072">
        <ele>561.1</ele>
        <time>2011-06-15T17:42:47Z</time>
      </trkpt>
      <trkpt lat="44.33916" lon="2.5107">
        <ele>561.5</ele>
        <time>2011-06-15T17:42:49Z</time>
      </trkpt>
      <trkpt lat="44.33913" lon="2.51069">
        <ele>561.7</ele>
        <time>2011-06-15T17:42:51Z</time>
      </trkpt>
      <trkpt lat="44.3391" lon="2.51066">
        <ele>561.7</ele>
        <time>2011-06-15T17:42:53Z</time>
      </trkpt>
      <trkpt lat="44.33906" lon="2.51064">
        <ele>562.2</ele>
        <time>2011-06-15T17:42:55Z</time>
      </trkpt>
      <trkpt lat="44.33903" lon="2.51063">
        <ele>562.6</ele>
        <time>2011-06-15T17:42:57Z</time>
      </trkpt>
      <trkpt lat="44.33899" lon="2.51061">
        <ele>563.1</ele>
        <time>2011-06-15T17:43:00Z</time>
      </trkpt>
      <trkpt lat="44.33896" lon="2.51059">
        <ele>563.6</ele>
        <time>2011-06-15T17:43:03Z</time>
      </trkpt>
      <trkpt lat="44.33892" lon="2.51057">
        <ele>564.3</ele>
        <time>2011-06-15T17:43:06Z</time>
      </trkpt>
      <trkpt lat="44.33888" lon="2.51055">
        <ele>564.8</ele>
        <time>2011-06-15T17:43:09Z</time>
      </trkpt>
      <trkpt lat="44.33884" lon="2.51052">
        <ele>565.9</ele>
        <time>2011-06-15T17:43:12Z</time>
      </trkpt>
      <trkpt lat="44.3388" lon="2.51049">
        <ele>565.9</ele>
        <time>2011-06-15T17:43:15Z</time>
      </trkpt>
      <trkpt lat="44.33878" lon="2.51047">
        <ele>566.7</ele>
        <time>2011-06-15T17:43:17Z</time>
      </trkpt>
      <trkpt lat="44.33875" lon="2.51045">
        <ele>567.1</ele>
        <time>2011-06-15T17:43:19Z</time>
      </trkpt>
      <trkpt lat="44.33872" lon="2.51043">
        <ele>567.3</ele>
        <time>2011-06-15T17:43:21Z</time>
      </trkpt>
      <trkpt lat="44.33869" lon="2.5104">
        <ele>568.1</ele>
        <time>2011-06-15T17:43:23Z</time>
      </trkpt>
      <trkpt lat="44.33867" lon="2.51038">
        <ele>569</ele>
        <time>2011-06-15T17:43:25Z</time>
      </trkpt>
      <trkpt lat="44.33864" lon="2.51036">
        <ele>569.4</ele>
        <time>2011-06-15T17:43:27Z</time>
      </trkpt>
      <trkpt lat="44.33861" lon="2.51034">
        <ele>569.2</ele>
        <time>2011-06-15T17:43:29Z</time>
      </trkpt>
      <trkpt lat="44.33857" lon="2.51032">
        <ele>568.9</ele>
        <time>2011-06-15T17:43:32Z</time>
      </trkpt>
      <trkpt lat="44.33854" lon="2.51031">
        <ele>569</ele>
        <time>2011-06-15T17:43:34Z</time>
      </trkpt>
      <trkpt lat="44.3385" lon="2.51031">
        <ele>569.6</ele>
        <time>2011-06-15T17:43:36Z</time>
      </trkpt>
      <trkpt lat="44.33846" lon="2.51032">
        <ele>570.3</ele>
        <time>2011-06-15T17:43:38Z</time>
      </trkpt>
      <trkpt lat="44.33842" lon="2.51033">
        <ele>570.3</ele>
        <time>2011-06-15T17:43:40Z</time>
      </trkpt>
      <trkpt lat="44.33839" lon="2.51035">
        <ele>570.4</ele>
        <time>2011-06-15T17:43:42Z</time>
      </trkpt>
      <trkpt lat="44.33837" lon="2.51037">
        <ele>570.4</ele>
        <time>2011-06-15T17:43:43Z</time>
      </trkpt>
      <trkpt lat="44.33832" lon="2.51041">
        <ele>570.9</ele>
        <time>2011-06-15T17:43:46Z</time>
      </trkpt>
      <trkpt lat="44.33829" lon="2.51044">
        <ele>571.7</ele>
        <time>2011-06-15T17:43:48Z</time>
      </trkpt>
      <trkpt lat="44.33827" lon="2.51048">
        <ele>572.5</ele>
        <time>2011-06-15T17:43:50Z</time>
      </trkpt>
      <trkpt lat="44.33825" lon="2.51052">
        <ele>572.9</ele>
        <time>2011-06-15T17:43:52Z</time>
      </trkpt>
      <trkpt lat="44.33822" lon="2.51056">
        <ele>573.3</ele>
        <time>2011-06-15T17:43:55Z</time>
      </trkpt>
      <trkpt lat="44.3382" lon="2.5106">
        <ele>573.3</ele>
        <time>2011-06-15T17:43:58Z</time>
      </trkpt>
      <trkpt lat="44.33818" lon="2.51064">
        <ele>572.8</ele>
        <time>2011-06-15T17:44:00Z</time>
      </trkpt>
      <trkpt lat="44.33816" lon="2.51069">
        <ele>573</ele>
        <time>2011-06-15T17:44:02Z</time>
      </trkpt>
      <trkpt lat="44.33814" lon="2.51073">
        <ele>573</ele>
        <time>2011-06-15T17:44:04Z</time>
      </trkpt>
      <trkpt lat="44.33812" lon="2.51077">
        <ele>572.8</ele>
        <time>2011-06-15T17:44:06Z</time>
      </trkpt>
      <trkpt lat="44.33811" lon="2.51082">
        <ele>573.8</ele>
        <time>2011-06-15T17:44:10Z</time>
      </trkpt>
      <trkpt lat="44.3381" lon="2.51086">
        <ele>573.8</ele>
        <time>2011-06-15T17:44:12Z</time>
      </trkpt>
      <trkpt lat="44.33808" lon="2.5109">
        <ele>574</ele>
        <time>2011-06-15T17:44:14Z</time>
      </trkpt>
      <trkpt lat="44.33805" lon="2.51094">
        <ele>574.3</ele>
        <time>2011-06-15T17:44:16Z</time>
      </trkpt>
      <trkpt lat="44.33804" lon="2.51099">
        <ele>575.2</ele>
        <time>2011-06-15T17:44:18Z</time>
      </trkpt>
      <trkpt lat="44.33802" lon="2.51103">
        <ele>575.5</ele>
        <time>2011-06-15T17:44:20Z</time>
      </trkpt>
      <trkpt lat="44.33801" lon="2.51109">
        <ele>575.6</ele>
        <time>2011-06-15T17:44:23Z</time>
      </trkpt>
      <trkpt lat="44.33799" lon="2.51114">
        <ele>576.1</ele>
        <time>2011-06-15T17:44:26Z</time>
      </trkpt>
      <trkpt lat="44.33797" lon="2.51119">
        <ele>576.4</ele>
        <time>2011-06-15T17:44:29Z</time>
      </trkpt>
      <trkpt lat="44.33796" lon="2.51123">
        <ele>576.9</ele>
        <time>2011-06-15T17:44:31Z</time>
      </trkpt>
      <trkpt lat="44.33795" lon="2.51128">
        <ele>577.6</ele>
        <time>2011-06-15T17:44:33Z</time>
      </trkpt>
      <trkpt lat="44.33794" lon="2.51133">
        <ele>578.5</ele>
        <time>2011-06-15T17:44:35Z</time>
      </trkpt>
      <trkpt lat="44.33793" lon="2.51138">
        <ele>577.9</ele>
        <time>2011-06-15T17:44:37Z</time>
      </trkpt>
      <trkpt lat="44.33792" lon="2.51143">
        <ele>578</ele>
        <time>2011-06-15T17:44:39Z</time>
      </trkpt>
      <trkpt lat="44.33791" lon="2.51147">
        <ele>578.3</ele>
        <time>2011-06-15T17:44:41Z</time>
      </trkpt>
      <trkpt lat="44.33791" lon="2.51152">
        <ele>579.3</ele>
        <time>2011-06-15T17:44:43Z</time>
      </trkpt>
      <trkpt lat="44.33791" lon="2.51155">
        <ele>579.8</ele>
        <time>2011-06-15T17:44:44Z</time>
      </trkpt>
      <trkpt lat="44.33789" lon="2.5116">
        <ele>580.1</ele>
        <time>2011-06-15T17:44:47Z</time>
      </trkpt>
      <trkpt lat="44.33788" lon="2.51165">
        <ele>580.4</ele>
        <time>2011-06-15T17:44:49Z</time>
      </trkpt>
      <trkpt lat="44.33787" lon="2.51169">
        <ele>580.8</ele>
        <time>2011-06-15T17:44:51Z</time>
      </trkpt>
      <trkpt lat="44.33787" lon="2.51174">
        <ele>581.1</ele>
        <time>2011-06-15T17:44:53Z</time>
      </trkpt>
      <trkpt lat="44.33787" lon="2.51178">
        <ele>581.4</ele>
        <time>2011-06-15T17:44:55Z</time>
      </trkpt>
      <trkpt lat="44.33787" lon="2.51183">
        <ele>581.8</ele>
        <time>2011-06-15T17:44:57Z</time>
      </trkpt>
      <trkpt lat="44.33786" lon="2.51187">
        <ele>582.2</ele>
        <time>2011-06-15T17:44:59Z</time>
      </trkpt>
      <trkpt lat="44.33785" lon="2.51192">
        <ele>582.5</ele>
        <time>2011-06-15T17:45:01Z</time>
      </trkpt>
      <trkpt lat="44.33784" lon="2.51198">
        <ele>583.3</ele>
        <time>2011-06-15T17:45:04Z</time>
      </trkpt>
      <trkpt lat="44.33783" lon="2.51204">
        <ele>583.2</ele>
        <time>2011-06-15T17:45:07Z</time>
      </trkpt>
      <trkpt lat="44.33782" lon="2.51208">
        <ele>583.4</ele>
        <time>2011-06-15T17:45:09Z</time>
      </trkpt>
      <trkpt lat="44.33781" lon="2.51212">
        <ele>583.9</ele>
        <time>2011-06-15T17:45:11Z</time>
      </trkpt>
      <trkpt lat="44.3378" lon="2.51216">
        <ele>584.3</ele>
        <time>2011-06-15T17:45:13Z</time>
      </trkpt>
      <trkpt lat="44.33779" lon="2.51221">
        <ele>584.7</ele>
        <time>2011-06-15T17:45:15Z</time>
      </trkpt>
      <trkpt lat="44.33779" lon="2.51225">
        <ele>585</ele>
        <time>2011-06-15T17:45:17Z</time>
      </trkpt>
      <trkpt lat="44.33777" lon="2.51229">
        <ele>584.8</ele>
        <time>2011-06-15T17:45:19Z</time>
      </trkpt>
      <trkpt lat="44.33777" lon="2.51234">
        <ele>584.7</ele>
        <time>2011-06-15T17:45:21Z</time>
      </trkpt>
      <trkpt lat="44.33776" lon="2.51239">
        <ele>584.6</ele>
        <time>2011-06-15T17:45:23Z</time>
      </trkpt>
      <trkpt lat="44.33775" lon="2.51243">
        <ele>585.5</ele>
        <time>2011-06-15T17:45:25Z</time>
      </trkpt>
      <trkpt lat="44.33775" lon="2.51248">
        <ele>586.2</ele>
        <time>2011-06-15T17:45:27Z</time>
      </trkpt>
      <trkpt lat="44.33774" lon="2.51252">
        <ele>586.7</ele>
        <time>2011-06-15T17:45:29Z</time>
      </trkpt>
      <trkpt lat="44.33773" lon="2.51257">
        <ele>587.1</ele>
        <time>2011-06-15T17:45:31Z</time>
      </trkpt>
      <trkpt lat="44.33772" lon="2.51261">
        <ele>587.3</ele>
        <time>2011-06-15T17:45:33Z</time>
      </trkpt>
      <trkpt lat="44.33771" lon="2.51265">
        <ele>587.5</ele>
        <time>2011-06-15T17:45:35Z</time>
      </trkpt>
      <trkpt lat="44.3377" lon="2.5127">
        <ele>588</ele>
        <time>2011-06-15T17:45:37Z</time>
      </trkpt>
      <trkpt lat="44.33769" lon="2.51274">
        <ele>588.5</ele>
        <time>2011-06-15T17:45:39Z</time>
      </trkpt>
      <trkpt lat="44.33768" lon="2.51278">
        <ele>588.5</ele>
        <time>2011-06-15T17:45:41Z</time>
      </trkpt>
      <trkpt lat="44.33767" lon="2.51283">
        <ele>588.3</ele>
        <time>2011-06-15T17:45:43Z</time>
      </trkpt>
      <trkpt lat="44.33766" lon="2.51287">
        <ele>588</ele>
        <time>2011-06-15T17:45:45Z</time>
      </trkpt>
      <trkpt lat="44.33766" lon="2.51289">
        <ele>588.4</ele>
        <time>2011-06-15T17:45:46Z</time>
      </trkpt>
      <trkpt lat="44.33764" lon="2.51296">
        <ele>589.1</ele>
        <time>2011-06-15T17:45:49Z</time>
      </trkpt>
      <trkpt lat="44.33764" lon="2.513">
        <ele>589.5</ele>
        <time>2011-06-15T17:45:51Z</time>
      </trkpt>
      <trkpt lat="44.33763" lon="2.51305">
        <ele>589.9</ele>
        <time>2011-06-15T17:45:53Z</time>
      </trkpt>
      <trkpt lat="44.33762" lon="2.51309">
        <ele>590.2</ele>
        <time>2011-06-15T17:45:55Z</time>
      </trkpt>
      <trkpt lat="44.33761" lon="2.51313">
        <ele>590.5</ele>
        <time>2011-06-15T17:45:57Z</time>
      </trkpt>
      <trkpt lat="44.33761" lon="2.51318">
        <ele>590.9</ele>
        <time>2011-06-15T17:45:59Z</time>
      </trkpt>
      <trkpt lat="44.3376" lon="2.51322">
        <ele>591.3</ele>
        <time>2011-06-15T17:46:01Z</time>
      </trkpt>
      <trkpt lat="44.3376" lon="2.51326">
        <ele>591.4</ele>
        <time>2011-06-15T17:46:03Z</time>
      </trkpt>
      <trkpt lat="44.33759" lon="2.5133">
        <ele>591.3</ele>
        <time>2011-06-15T17:46:05Z</time>
      </trkpt>
      <trkpt lat="44.33758" lon="2.51335">
        <ele>591.7</ele>
        <time>2011-06-15T17:46:07Z</time>
      </trkpt>
      <trkpt lat="44.33757" lon="2.51339">
        <ele>592.2</ele>
        <time>2011-06-15T17:46:09Z</time>
      </trkpt>
      <trkpt lat="44.33755" lon="2.51343">
        <ele>592.6</ele>
        <time>2011-06-15T17:46:11Z</time>
      </trkpt>
      <trkpt lat="44.33754" lon="2.51348">
        <ele>593.2</ele>
        <time>2011-06-15T17:46:13Z</time>
      </trkpt>
      <trkpt lat="44.33754" lon="2.51353">
        <ele>593.4</ele>
        <time>2011-06-15T17:46:15Z</time>
      </trkpt>
      <trkpt lat="44.33754" lon="2.51357">
        <ele>593.4</ele>
        <time>2011-06-15T17:46:17Z</time>
      </trkpt>
      <trkpt lat="44.33753" lon="2.51361">
        <ele>593.2</ele>
        <time>2011-06-15T17:46:19Z</time>
      </trkpt>
      <trkpt lat="44.33753" lon="2.51366">
        <ele>593.1</ele>
        <time>2011-06-15T17:46:21Z</time>
      </trkpt>
      <trkpt lat="44.33752" lon="2.51371">
        <ele>594.1</ele>
        <time>2011-06-15T17:46:23Z</time>
      </trkpt>
      <trkpt lat="44.33751" lon="2.51375">
        <ele>594.5</ele>
        <time>2011-06-15T17:46:25Z</time>
      </trkpt>
      <trkpt lat="44.3375" lon="2.51379">
        <ele>594.7</ele>
        <time>2011-06-15T17:46:27Z</time>
      </trkpt>
      <trkpt lat="44.33749" lon="2.51384">
        <ele>594.9</ele>
        <time>2011-06-15T17:46:29Z</time>
      </trkpt>
      <trkpt lat="44.33748" lon="2.51389">
        <ele>595.7</ele>
        <time>2011-06-15T17:46:31Z</time>
      </trkpt>
      <trkpt lat="44.33748" lon="2.51395">
        <ele>596.4</ele>
        <time>2011-06-15T17:46:34Z</time>
      </trkpt>
      <trkpt lat="44.33747" lon="2.51399">
        <ele>596.2</ele>
        <time>2011-06-15T17:46:36Z</time>
      </trkpt>
      <trkpt lat="44.33746" lon="2.51403">
        <ele>596.2</ele>
        <time>2011-06-15T17:46:38Z</time>
      </trkpt>
      <trkpt lat="44.33746" lon="2.51408">
        <ele>596.3</ele>
        <time>2011-06-15T17:46:40Z</time>
      </trkpt>
      <trkpt lat="44.33746" lon="2.51412">
        <ele>597.2</ele>
        <time>2011-06-15T17:46:42Z</time>
      </trkpt>
      <trkpt lat="44.33746" lon="2.51417">
        <ele>597.5</ele>
        <time>2011-06-15T17:46:44Z</time>
      </trkpt>
      <trkpt lat="44.33746" lon="2.51421">
        <ele>597.5</ele>
        <time>2011-06-15T17:46:46Z</time>
      </trkpt>
      <trkpt lat="44.33747" lon="2.51423">
        <ele>597.8</ele>
        <time>2011-06-15T17:46:47Z</time>
      </trkpt>
      <trkpt lat="44.33749" lon="2.5143">
        <ele>598.7</ele>
        <time>2011-06-15T17:46:50Z</time>
      </trkpt>
      <trkpt lat="44.33751" lon="2.51434">
        <ele>599.2</ele>
        <time>2011-06-15T17:46:52Z</time>
      </trkpt>
      <trkpt lat="44.33755" lon="2.51436">
        <ele>600</ele>
        <time>2011-06-15T17:46:55Z</time>
      </trkpt>
      <trkpt lat="44.33759" lon="2.51435">
        <ele>599.4</ele>
        <time>2011-06-15T17:46:58Z</time>
      </trkpt>
      <trkpt lat="44.33762" lon="2.51432">
        <ele>599.2</ele>
        <time>2011-06-15T17:47:00Z</time>
      </trkpt>
      <trkpt lat="44.33764" lon="2.51429">
        <ele>599.4</ele>
        <time>2011-06-15T17:47:02Z</time>
      </trkpt>
      <trkpt lat="44.33767" lon="2.51426">
        <ele>601.1</ele>
        <time>2011-06-15T17:47:04Z</time>
      </trkpt>
      <trkpt lat="44.33769" lon="2.51423">
        <ele>601.7</ele>
        <time>2011-06-15T17:47:06Z</time>
      </trkpt>
      <trkpt lat="44.33772" lon="2.51419">
        <ele>601.8</ele>
        <time>2011-06-15T17:47:08Z</time>
      </trkpt>
      <trkpt lat="44.33774" lon="2.51415">
        <ele>602.2</ele>
        <time>2011-06-15T17:47:10Z</time>
      </trkpt>
      <trkpt lat="44.33777" lon="2.51412">
        <ele>602.6</ele>
        <time>2011-06-15T17:47:12Z</time>
      </trkpt>
      <trkpt lat="44.33779" lon="2.51408">
        <ele>601.9</ele>
        <time>2011-06-15T17:47:14Z</time>
      </trkpt>
      <trkpt lat="44.3378" lon="2.51404">
        <ele>601.9</ele>
        <time>2011-06-15T17:47:16Z</time>
      </trkpt>
      <trkpt lat="44.33783" lon="2.51402">
        <ele>602.1</ele>
        <time>2011-06-15T17:47:18Z</time>
      </trkpt>
      <trkpt lat="44.33786" lon="2.51397">
        <ele>602.2</ele>
        <time>2011-06-15T17:47:21Z</time>
      </trkpt>
      <trkpt lat="44.33788" lon="2.51394">
        <ele>602.4</ele>
        <time>2011-06-15T17:47:23Z</time>
      </trkpt>
      <trkpt lat="44.3379" lon="2.51391">
        <ele>603</ele>
        <time>2011-06-15T17:47:25Z</time>
      </trkpt>
      <trkpt lat="44.33793" lon="2.51389">
        <ele>603.6</ele>
        <time>2011-06-15T17:47:27Z</time>
      </trkpt>
      <trkpt lat="44.33796" lon="2.51386">
        <ele>604</ele>
        <time>2011-06-15T17:47:29Z</time>
      </trkpt>
      <trkpt lat="44.33798" lon="2.51384">
        <ele>604.4</ele>
        <time>2011-06-15T17:47:31Z</time>
      </trkpt>
      <trkpt lat="44.33801" lon="2.51381">
        <ele>604.5</ele>
        <time>2011-06-15T17:47:33Z</time>
      </trkpt>
      <trkpt lat="44.33804" lon="2.51379">
        <ele>604.8</ele>
        <time>2011-06-15T17:47:35Z</time>
      </trkpt>
      <trkpt lat="44.33806" lon="2.51376">
        <ele>605.1</ele>
        <time>2011-06-15T17:47:37Z</time>
      </trkpt>
      <trkpt lat="44.33809" lon="2.51374">
        <ele>605.5</ele>
        <time>2011-06-15T17:47:39Z</time>
      </trkpt>
      <trkpt lat="44.33813" lon="2.51371">
        <ele>605.7</ele>
        <time>2011-06-15T17:47:42Z</time>
      </trkpt>
      <trkpt lat="44.33816" lon="2.51369">
        <ele>605.9</ele>
        <time>2011-06-15T17:47:45Z</time>
      </trkpt>
      <trkpt lat="44.33818" lon="2.51365">
        <ele>606.2</ele>
        <time>2011-06-15T17:47:48Z</time>
      </trkpt>
      <trkpt lat="44.33819" lon="2.51364">
        <ele>606.4</ele>
        <time>2011-06-15T17:47:49Z</time>
      </trkpt>
      <trkpt lat="44.33823" lon="2.51369">
        <ele>606.9</ele>
        <time>2011-06-15T17:47:55Z</time>
      </trkpt>
      <trkpt lat="44.33824" lon="2.51374">
        <ele>607.5</ele>
        <time>2011-06-15T17:47:58Z</time>
      </trkpt>
      <trkpt lat="44.33823" lon="2.51379">
        <ele>608.1</ele>
        <time>2011-06-15T17:48:01Z</time>
      </trkpt>
      <trkpt lat="44.33822" lon="2.51385">
        <ele>608.7</ele>
        <time>2011-06-15T17:48:04Z</time>
      </trkpt>
      <trkpt lat="44.33821" lon="2.5139">
        <ele>608.7</ele>
        <time>2011-06-15T17:48:07Z</time>
      </trkpt>
      <trkpt lat="44.33819" lon="2.51395">
        <ele>609.4</ele>
        <time>2011-06-15T17:48:10Z</time>
      </trkpt>
      <trkpt lat="44.33818" lon="2.51401">
        <ele>610.8</ele>
        <time>2011-06-15T17:48:13Z</time>
      </trkpt>
      <trkpt lat="44.33817" lon="2.51407">
        <ele>611.7</ele>
        <time>2011-06-15T17:48:16Z</time>
      </trkpt>
      <trkpt lat="44.33816" lon="2.51412">
        <ele>611.6</ele>
        <time>2011-06-15T17:48:19Z</time>
      </trkpt>
      <trkpt lat="44.33815" lon="2.51418">
        <ele>611.8</ele>
        <time>2011-06-15T17:48:22Z</time>
      </trkpt>
      <trkpt lat="44.33814" lon="2.51424">
        <ele>611.7</ele>
        <time>2011-06-15T17:48:25Z</time>
      </trkpt>
      <trkpt lat="44.33813" lon="2.51428">
        <ele>611.8</ele>
        <time>2011-06-15T17:48:27Z</time>
      </trkpt>
      <trkpt lat="44.33812" lon="2.51434">
        <ele>612.3</ele>
        <time>2011-06-15T17:48:30Z</time>
      </trkpt>
      <trkpt lat="44.33811" lon="2.5144">
        <ele>612.8</ele>
        <time>2011-06-15T17:48:33Z</time>
      </trkpt>
      <trkpt lat="44.33811" lon="2.51446">
        <ele>613.3</ele>
        <time>2011-06-15T17:48:36Z</time>
      </trkpt>
      <trkpt lat="44.33811" lon="2.51452">
        <ele>613.7</ele>
        <time>2011-06-15T17:48:39Z</time>
      </trkpt>
      <trkpt lat="44.33812" lon="2.51458">
        <ele>614.7</ele>
        <time>2011-06-15T17:48:42Z</time>
      </trkpt>
      <trkpt lat="44.33813" lon="2.51464">
        <ele>615.3</ele>
        <time>2011-06-15T17:48:45Z</time>
      </trkpt>
      <trkpt lat="44.33814" lon="2.51469">
        <ele>615.6</ele>
        <time>2011-06-15T17:48:48Z</time>
      </trkpt>
      <trkpt lat="44.33816" lon="2.51474">
        <ele>616</ele>
        <time>2011-06-15T17:48:51Z</time>
      </trkpt>
      <trkpt lat="44.33816" lon="2.51476">
        <ele>615.9</ele>
        <time>2011-06-15T17:48:52Z</time>
      </trkpt>
      <trkpt lat="44.33819" lon="2.51483">
        <ele>616.8</ele>
        <time>2011-06-15T17:48:58Z</time>
      </trkpt>
      <trkpt lat="44.33822" lon="2.51486">
        <ele>617.1</ele>
        <time>2011-06-15T17:49:01Z</time>
      </trkpt>
      <trkpt lat="44.33824" lon="2.51492">
        <ele>617.6</ele>
        <time>2011-06-15T17:49:05Z</time>
      </trkpt>
      <trkpt lat="44.33826" lon="2.51497">
        <ele>618</ele>
        <time>2011-06-15T17:49:09Z</time>
      </trkpt>
      <trkpt lat="44.33829" lon="2.515">
        <ele>618.4</ele>
        <time>2011-06-15T17:49:13Z</time>
      </trkpt>
      <trkpt lat="44.33832" lon="2.51504">
        <ele>619.3</ele>
        <time>2011-06-15T17:49:17Z</time>
      </trkpt>
      <trkpt lat="44.33835" lon="2.51506">
        <ele>620.1</ele>
        <time>2011-06-15T17:49:20Z</time>
      </trkpt>
      <trkpt lat="44.33839" lon="2.51508">
        <ele>620.5</ele>
        <time>2011-06-15T17:49:23Z</time>
      </trkpt>
      <trkpt lat="44.33842" lon="2.51511">
        <ele>622</ele>
        <time>2011-06-15T17:49:27Z</time>
      </trkpt>
      <trkpt lat="44.33846" lon="2.51515">
        <ele>623.2</ele>
        <time>2011-06-15T17:49:46Z</time>
      </trkpt>
      <trkpt lat="44.3385" lon="2.51512">
        <ele>622.8</ele>
        <time>2011-06-15T17:50:53Z</time>
      </trkpt>
      <trkpt lat="44.3385" lon="2.51512">
        <ele>622.7</ele>
        <time>2011-06-15T17:50:54Z</time>
      </trkpt>
      <trkpt lat="44.33849" lon="2.51502">
        <ele>623.6</ele>
        <time>2011-06-15T17:51:09Z</time>
      </trkpt>
      <trkpt lat="44.33848" lon="2.51498">
        <ele>624.1</ele>
        <time>2011-06-15T17:51:11Z</time>
      </trkpt>
      <trkpt lat="44.33848" lon="2.51492">
        <ele>623.2</ele>
        <time>2011-06-15T17:51:14Z</time>
      </trkpt>
      <trkpt lat="44.33849" lon="2.51487">
        <ele>624.5</ele>
        <time>2011-06-15T17:51:17Z</time>
      </trkpt>
      <trkpt lat="44.3385" lon="2.51482">
        <ele>624.4</ele>
        <time>2011-06-15T17:51:20Z</time>
      </trkpt>
      <trkpt lat="44.33852" lon="2.51478">
        <ele>624.4</ele>
        <time>2011-06-15T17:51:22Z</time>
      </trkpt>
      <trkpt lat="44.33854" lon="2.51475">
        <ele>624.4</ele>
        <time>2011-06-15T17:51:24Z</time>
      </trkpt>
      <trkpt lat="44.33856" lon="2.51472">
        <ele>625.4</ele>
        <time>2011-06-15T17:51:26Z</time>
      </trkpt>
      <trkpt lat="44.33858" lon="2.51468">
        <ele>625.9</ele>
        <time>2011-06-15T17:51:28Z</time>
      </trkpt>
      <trkpt lat="44.33861" lon="2.51466">
        <ele>626.2</ele>
        <time>2011-06-15T17:51:30Z</time>
      </trkpt>
      <trkpt lat="44.33865" lon="2.51464">
        <ele>626.7</ele>
        <time>2011-06-15T17:51:33Z</time>
      </trkpt>
      <trkpt lat="44.33868" lon="2.51462">
        <ele>626.2</ele>
        <time>2011-06-15T17:51:35Z</time>
      </trkpt>
      <trkpt lat="44.33872" lon="2.51462">
        <ele>625.9</ele>
        <time>2011-06-15T17:51:37Z</time>
      </trkpt>
      <trkpt lat="44.33875" lon="2.51461">
        <ele>626.4</ele>
        <time>2011-06-15T17:51:39Z</time>
      </trkpt>
      <trkpt lat="44.33878" lon="2.5146">
        <ele>626.9</ele>
        <time>2011-06-15T17:51:41Z</time>
      </trkpt>
      <trkpt lat="44.33881" lon="2.51457">
        <ele>627.2</ele>
        <time>2011-06-15T17:51:43Z</time>
      </trkpt>
      <trkpt lat="44.33884" lon="2.51455">
        <ele>627.9</ele>
        <time>2011-06-15T17:51:45Z</time>
      </trkpt>
      <trkpt lat="44.33887" lon="2.51453">
        <ele>628.1</ele>
        <time>2011-06-15T17:51:48Z</time>
      </trkpt>
      <trkpt lat="44.33891" lon="2.51451">
        <ele>629.7</ele>
        <time>2011-06-15T17:51:51Z</time>
      </trkpt>
      <trkpt lat="44.33895" lon="2.5145">
        <ele>630.6</ele>
        <time>2011-06-15T17:51:54Z</time>
      </trkpt>
      <trkpt lat="44.33896" lon="2.51449">
        <ele>630.6</ele>
        <time>2011-06-15T17:51:55Z</time>
      </trkpt>
      <trkpt lat="44.33902" lon="2.51447">
        <ele>631.3</ele>
        <time>2011-06-15T17:52:00Z</time>
      </trkpt>
      <trkpt lat="44.33905" lon="2.51447">
        <ele>631.6</ele>
        <time>2011-06-15T17:52:02Z</time>
      </trkpt>
      <trkpt lat="44.33908" lon="2.51448">
        <ele>631.9</ele>
        <time>2011-06-15T17:52:04Z</time>
      </trkpt>
      <trkpt lat="44.33912" lon="2.51449">
        <ele>632.5</ele>
        <time>2011-06-15T17:52:06Z</time>
      </trkpt>
      <trkpt lat="44.33914" lon="2.51452">
        <ele>633</ele>
        <time>2011-06-15T17:52:08Z</time>
      </trkpt>
      <trkpt lat="44.33916" lon="2.51455">
        <ele>633.5</ele>
        <time>2011-06-15T17:52:10Z</time>
      </trkpt>
      <trkpt lat="44.33917" lon="2.5146">
        <ele>633.9</ele>
        <time>2011-06-15T17:52:12Z</time>
      </trkpt>
      <trkpt lat="44.33918" lon="2.51464">
        <ele>634.9</ele>
        <time>2011-06-15T17:52:14Z</time>
      </trkpt>
      <trkpt lat="44.33918" lon="2.51468">
        <ele>635.4</ele>
        <time>2011-06-15T17:52:16Z</time>
      </trkpt>
      <trkpt lat="44.33917" lon="2.51474">
        <ele>635.7</ele>
        <time>2011-06-15T17:52:19Z</time>
      </trkpt>
      <trkpt lat="44.33917" lon="2.5148">
        <ele>636</ele>
        <time>2011-06-15T17:52:22Z</time>
      </trkpt>
      <trkpt lat="44.33916" lon="2.51486">
        <ele>636.3</ele>
        <time>2011-06-15T17:52:25Z</time>
      </trkpt>
      <trkpt lat="44.33916" lon="2.51491">
        <ele>636.9</ele>
        <time>2011-06-15T17:52:28Z</time>
      </trkpt>
      <trkpt lat="44.33915" lon="2.51497">
        <ele>637.5</ele>
        <time>2011-06-15T17:52:31Z</time>
      </trkpt>
      <trkpt lat="44.33915" lon="2.51503">
        <ele>638</ele>
        <time>2011-06-15T17:52:34Z</time>
      </trkpt>
      <trkpt lat="44.33915" lon="2.51508">
        <ele>638.2</ele>
        <time>2011-06-15T17:52:36Z</time>
      </trkpt>
      <trkpt lat="44.33915" lon="2.51514">
        <ele>639</ele>
        <time>2011-06-15T17:52:39Z</time>
      </trkpt>
      <trkpt lat="44.33915" lon="2.5152">
        <ele>640</ele>
        <time>2011-06-15T17:52:42Z</time>
      </trkpt>
      <trkpt lat="44.33916" lon="2.51526">
        <ele>641.2</ele>
        <time>2011-06-15T17:52:45Z</time>
      </trkpt>
      <trkpt lat="44.33917" lon="2.51532">
        <ele>641.5</ele>
        <time>2011-06-15T17:52:48Z</time>
      </trkpt>
      <trkpt lat="44.33919" lon="2.51537">
        <ele>641.5</ele>
        <time>2011-06-15T17:52:51Z</time>
      </trkpt>
      <trkpt lat="44.33921" lon="2.51542">
        <ele>641.7</ele>
        <time>2011-06-15T17:52:55Z</time>
      </trkpt>
      <trkpt lat="44.33922" lon="2.51543">
        <ele>641.7</ele>
        <time>2011-06-15T17:52:56Z</time>
      </trkpt>
      <trkpt lat="44.33927" lon="2.51551">
        <ele>642.4</ele>
        <time>2011-06-15T17:53:46Z</time>
      </trkpt>
      <trkpt lat="44.33929" lon="2.51555">
        <ele>642.9</ele>
        <time>2011-06-15T17:53:49Z</time>
      </trkpt>
      <trkpt lat="44.33931" lon="2.51558">
        <ele>643.3</ele>
        <time>2011-06-15T17:53:51Z</time>
      </trkpt>
      <trkpt lat="44.33933" lon="2.51562">
        <ele>643.4</ele>
        <time>2011-06-15T17:53:53Z</time>
      </trkpt>
      <trkpt lat="44.33935" lon="2.51566">
        <ele>643.7</ele>
        <time>2011-06-15T17:53:55Z</time>
      </trkpt>
      <trkpt lat="44.33938" lon="2.51569">
        <ele>644</ele>
        <time>2011-06-15T17:53:57Z</time>
      </trkpt>
      <trkpt lat="44.33939" lon="2.51571">
        <ele>644.4</ele>
        <time>2011-06-15T17:53:58Z</time>
      </trkpt>
      <trkpt lat="44.33942" lon="2.51576">
        <ele>645.1</ele>
        <time>2011-06-15T17:54:01Z</time>
      </trkpt>
      <trkpt lat="44.33944" lon="2.5158">
        <ele>645.4</ele>
        <time>2011-06-15T17:54:03Z</time>
      </trkpt>
      <trkpt lat="44.33945" lon="2.51585">
        <ele>646.1</ele>
        <time>2011-06-15T17:54:05Z</time>
      </trkpt>
      <trkpt lat="44.33946" lon="2.5159">
        <ele>646.4</ele>
        <time>2011-06-15T17:54:07Z</time>
      </trkpt>
      <trkpt lat="44.33947" lon="2.51596">
        <ele>647.1</ele>
        <time>2011-06-15T17:54:09Z</time>
      </trkpt>
      <trkpt lat="44.33947" lon="2.51602">
        <ele>647.4</ele>
        <time>2011-06-15T17:54:11Z</time>
      </trkpt>
      <trkpt lat="44.33948" lon="2.51605">
        <ele>647.5</ele>
        <time>2011-06-15T17:54:12Z</time>
      </trkpt>
      <trkpt lat="44.33948" lon="2.51608">
        <ele>647.6</ele>
        <time>2011-06-15T17:54:13Z</time>
      </trkpt>
      <trkpt lat="44.33949" lon="2.51611">
        <ele>648.2</ele>
        <time>2011-06-15T17:54:14Z</time>
      </trkpt>
      <trkpt lat="44.3395" lon="2.51614">
        <ele>648.7</ele>
        <time>2011-06-15T17:54:15Z</time>
      </trkpt>
      <trkpt lat="44.3395" lon="2.51618">
        <ele>649</ele>
        <time>2011-06-15T17:54:16Z</time>
      </trkpt>
      <trkpt lat="44.33952" lon="2.51621">
        <ele>649.8</ele>
        <time>2011-06-15T17:54:17Z</time>
      </trkpt>
      <trkpt lat="44.33953" lon="2.51624">
        <ele>650.4</ele>
        <time>2011-06-15T17:54:18Z</time>
      </trkpt>
      <trkpt lat="44.33953" lon="2.51627">
        <ele>650.8</ele>
        <time>2011-06-15T17:54:19Z</time>
      </trkpt>
      <trkpt lat="44.33955" lon="2.5163">
        <ele>651.1</ele>
        <time>2011-06-15T17:54:20Z</time>
      </trkpt>
      <trkpt lat="44.33956" lon="2.51633">
        <ele>651.1</ele>
        <time>2011-06-15T17:54:21Z</time>
      </trkpt>
      <trkpt lat="44.33958" lon="2.51638">
        <ele>651.1</ele>
        <time>2011-06-15T17:54:23Z</time>
      </trkpt>
      <trkpt lat="44.3396" lon="2.5164">
        <ele>651.4</ele>
        <time>2011-06-15T17:54:24Z</time>
      </trkpt>
      <trkpt lat="44.33961" lon="2.51642">
        <ele>651.7</ele>
        <time>2011-06-15T17:54:25Z</time>
      </trkpt>
      <trkpt lat="44.33963" lon="2.51645">
        <ele>651.9</ele>
        <time>2011-06-15T17:54:26Z</time>
      </trkpt>
      <trkpt lat="44.33966" lon="2.51648">
        <ele>652.6</ele>
        <time>2011-06-15T17:54:28Z</time>
      </trkpt>
      <trkpt lat="44.33971" lon="2.5165">
        <ele>653.5</ele>
        <time>2011-06-15T17:54:30Z</time>
      </trkpt>
      <trkpt lat="44.33974" lon="2.51651">
        <ele>654.4</ele>
        <time>2011-06-15T17:54:32Z</time>
      </trkpt>
      <trkpt lat="44.33978" lon="2.51652">
        <ele>654.8</ele>
        <time>2011-06-15T17:54:34Z</time>
      </trkpt>
      <trkpt lat="44.33981" lon="2.51654">
        <ele>655</ele>
        <time>2011-06-15T17:54:36Z</time>
      </trkpt>
      <trkpt lat="44.33985" lon="2.51656">
        <ele>655.1</ele>
        <time>2011-06-15T17:54:38Z</time>
      </trkpt>
      <trkpt lat="44.33989" lon="2.51658">
        <ele>656.5</ele>
        <time>2011-06-15T17:54:41Z</time>
      </trkpt>
      <trkpt lat="44.33993" lon="2.5166">
        <ele>656.9</ele>
        <time>2011-06-15T17:54:44Z</time>
      </trkpt>
      <trkpt lat="44.33997" lon="2.51663">
        <ele>656.7</ele>
        <time>2011-06-15T17:54:47Z</time>
      </trkpt>
      <trkpt lat="44.34" lon="2.51665">
        <ele>656.9</ele>
        <time>2011-06-15T17:54:49Z</time>
      </trkpt>
      <trkpt lat="44.34002" lon="2.51669">
        <ele>657.3</ele>
        <time>2011-06-15T17:54:51Z</time>
      </trkpt>
      <trkpt lat="44.34005" lon="2.51672">
        <ele>657.7</ele>
        <time>2011-06-15T17:54:53Z</time>
      </trkpt>
      <trkpt lat="44.34008" lon="2.51675">
        <ele>657.9</ele>
        <time>2011-06-15T17:54:55Z</time>
      </trkpt>
      <trkpt lat="44.34011" lon="2.51678">
        <ele>657.5</ele>
        <time>2011-06-15T17:54:57Z</time>
      </trkpt>
      <trkpt lat="44.34014" lon="2.51679">
        <ele>657.9</ele>
        <time>2011-06-15T17:54:59Z</time>
      </trkpt>
      <trkpt lat="44.34016" lon="2.5168">
        <ele>658.3</ele>
        <time>2011-06-15T17:55:00Z</time>
      </trkpt>
      <trkpt lat="44.34021" lon="2.51684">
        <ele>658.6</ele>
        <time>2011-06-15T17:55:03Z</time>
      </trkpt>
      <trkpt lat="44.34024" lon="2.51687">
        <ele>658.7</ele>
        <time>2011-06-15T17:55:05Z</time>
      </trkpt>
      <trkpt lat="44.34027" lon="2.51688">
        <ele>658.7</ele>
        <time>2011-06-15T17:55:07Z</time>
      </trkpt>
      <trkpt lat="44.34029" lon="2.51689">
        <ele>659.2</ele>
        <time>2011-06-15T17:55:08Z</time>
      </trkpt>
      <trkpt lat="44.34032" lon="2.51691">
        <ele>659.5</ele>
        <time>2011-06-15T17:55:09Z</time>
      </trkpt>
      <trkpt lat="44.34034" lon="2.51692">
        <ele>659.7</ele>
        <time>2011-06-15T17:55:10Z</time>
      </trkpt>
      <trkpt lat="44.34037" lon="2.51693">
        <ele>659.9</ele>
        <time>2011-06-15T17:55:11Z</time>
      </trkpt>
      <trkpt lat="44.34041" lon="2.51695">
        <ele>660.5</ele>
        <time>2011-06-15T17:55:13Z</time>
      </trkpt>
      <trkpt lat="44.34045" lon="2.51696">
        <ele>660.9</ele>
        <time>2011-06-15T17:55:15Z</time>
      </trkpt>
      <trkpt lat="44.34048" lon="2.51698">
        <ele>661.1</ele>
        <time>2011-06-15T17:55:17Z</time>
      </trkpt>
      <trkpt lat="44.34052" lon="2.517">
        <ele>660.9</ele>
        <time>2011-06-15T17:55:19Z</time>
      </trkpt>
      <trkpt lat="44.34056" lon="2.51701">
        <ele>661.5</ele>
        <time>2011-06-15T17:55:21Z</time>
      </trkpt>
      <trkpt lat="44.34059" lon="2.51702">
        <ele>662.4</ele>
        <time>2011-06-15T17:55:23Z</time>
      </trkpt>
      <trkpt lat="44.34063" lon="2.51702">
        <ele>662.1</ele>
        <time>2011-06-15T17:55:25Z</time>
      </trkpt>
      <trkpt lat="44.34066" lon="2.51703">
        <ele>661.9</ele>
        <time>2011-06-15T17:55:27Z</time>
      </trkpt>
      <trkpt lat="44.3407" lon="2.51704">
        <ele>662.1</ele>
        <time>2011-06-15T17:55:29Z</time>
      </trkpt>
      <trkpt lat="44.34073" lon="2.51704">
        <ele>661.9</ele>
        <time>2011-06-15T17:55:31Z</time>
      </trkpt>
      <trkpt lat="44.34077" lon="2.51706">
        <ele>661.5</ele>
        <time>2011-06-15T17:55:33Z</time>
      </trkpt>
      <trkpt lat="44.3408" lon="2.51709">
        <ele>661.6</ele>
        <time>2011-06-15T17:55:35Z</time>
      </trkpt>
      <trkpt lat="44.34083" lon="2.5171">
        <ele>661.7</ele>
        <time>2011-06-15T17:55:37Z</time>
      </trkpt>
      <trkpt lat="44.34087" lon="2.5171">
        <ele>661.8</ele>
        <time>2011-06-15T17:55:39Z</time>
      </trkpt>
      <trkpt lat="44.3409" lon="2.51712">
        <ele>661.3</ele>
        <time>2011-06-15T17:55:41Z</time>
      </trkpt>
      <trkpt lat="44.34093" lon="2.51714">
        <ele>661.5</ele>
        <time>2011-06-15T17:55:43Z</time>
      </trkpt>
      <trkpt lat="44.34096" lon="2.51716">
        <ele>661.8</ele>
        <time>2011-06-15T17:55:45Z</time>
      </trkpt>
      <trkpt lat="44.34098" lon="2.5172">
        <ele>661.9</ele>
        <time>2011-06-15T17:55:47Z</time>
      </trkpt>
      <trkpt lat="44.341" lon="2.51722">
        <ele>661.9</ele>
        <time>2011-06-15T17:55:48Z</time>
      </trkpt>
      <trkpt lat="44.34102" lon="2.51724">
        <ele>661.9</ele>
        <time>2011-06-15T17:55:49Z</time>
      </trkpt>
      <trkpt lat="44.34103" lon="2.51726">
        <ele>661.7</ele>
        <time>2011-06-15T17:55:50Z</time>
      </trkpt>
      <trkpt lat="44.34105" lon="2.51729">
        <ele>661.5</ele>
        <time>2011-06-15T17:55:51Z</time>
      </trkpt>
      <trkpt lat="44.34106" lon="2.51732">
        <ele>661.4</ele>
        <time>2011-06-15T17:55:52Z</time>
      </trkpt>
      <trkpt lat="44.34108" lon="2.51735">
        <ele>661.4</ele>
        <time>2011-06-15T17:55:53Z</time>
      </trkpt>
      <trkpt lat="44.34109" lon="2.51737">
        <ele>661.4</ele>
        <time>2011-06-15T17:55:54Z</time>
      </trkpt>
      <trkpt lat="44.3411" lon="2.5174">
        <ele>661.4</ele>
        <time>2011-06-15T17:55:55Z</time>
      </trkpt>
      <trkpt lat="44.34112" lon="2.51743">
        <ele>661.3</ele>
        <time>2011-06-15T17:55:56Z</time>
      </trkpt>
      <trkpt lat="44.34113" lon="2.51746">
        <ele>661.2</ele>
        <time>2011-06-15T17:55:57Z</time>
      </trkpt>
      <trkpt lat="44.34115" lon="2.51749">
        <ele>661.1</ele>
        <time>2011-06-15T17:55:58Z</time>
      </trkpt>
      <trkpt lat="44.34117" lon="2.51751">
        <ele>661.6</ele>
        <time>2011-06-15T17:55:59Z</time>
      </trkpt>
      <trkpt lat="44.34119" lon="2.51754">
        <ele>662</ele>
        <time>2011-06-15T17:56:00Z</time>
      </trkpt>
      <trkpt lat="44.34121" lon="2.51757">
        <ele>662.3</ele>
        <time>2011-06-15T17:56:01Z</time>
      </trkpt>
      <trkpt lat="44.34123" lon="2.5176">
        <ele>662.5</ele>
        <time>2011-06-15T17:56:02Z</time>
      </trkpt>
      <trkpt lat="44.34124" lon="2.51763">
        <ele>662.5</ele>
        <time>2011-06-15T17:56:03Z</time>
      </trkpt>
      <trkpt lat="44.34127" lon="2.51766">
        <ele>662.4</ele>
        <time>2011-06-15T17:56:04Z</time>
      </trkpt>
      <trkpt lat="44.34129" lon="2.51769">
        <ele>662.4</ele>
        <time>2011-06-15T17:56:05Z</time>
      </trkpt>
      <trkpt lat="44.34132" lon="2.51772">
        <ele>661.8</ele>
        <time>2011-06-15T17:56:06Z</time>
      </trkpt>
      <trkpt lat="44.34134" lon="2.51775">
        <ele>661.4</ele>
        <time>2011-06-15T17:56:07Z</time>
      </trkpt>
      <trkpt lat="44.34137" lon="2.51777">
        <ele>661</ele>
        <time>2011-06-15T17:56:08Z</time>
      </trkpt>
      <trkpt lat="44.3414" lon="2.5178">
        <ele>660.6</ele>
        <time>2011-06-15T17:56:09Z</time>
      </trkpt>
      <trkpt lat="44.34142" lon="2.51783">
        <ele>660.3</ele>
        <time>2011-06-15T17:56:10Z</time>
      </trkpt>
      <trkpt lat="44.34145" lon="2.51786">
        <ele>660.1</ele>
        <time>2011-06-15T17:56:11Z</time>
      </trkpt>
      <trkpt lat="44.34148" lon="2.51789">
        <ele>659.9</ele>
        <time>2011-06-15T17:56:12Z</time>
      </trkpt>
      <trkpt lat="44.34151" lon="2.51791">
        <ele>659.7</ele>
        <time>2011-06-15T17:56:13Z</time>
      </trkpt>
      <trkpt lat="44.34154" lon="2.51794">
        <ele>659.5</ele>
        <time>2011-06-15T17:56:14Z</time>
      </trkpt>
      <trkpt lat="44.34157" lon="2.51797">
        <ele>659.2</ele>
        <time>2011-06-15T17:56:15Z</time>
      </trkpt>
      <trkpt lat="44.3416" lon="2.518">
        <ele>659</ele>
        <time>2011-06-15T17:56:16Z</time>
      </trkpt>
      <trkpt lat="44.34162" lon="2.51803">
        <ele>658.9</ele>
        <time>2011-06-15T17:56:17Z</time>
      </trkpt>
      <trkpt lat="44.34165" lon="2.51805">
        <ele>658.8</ele>
        <time>2011-06-15T17:56:18Z</time>
      </trkpt>
      <trkpt lat="44.34168" lon="2.51808">
        <ele>658.9</ele>
        <time>2011-06-15T17:56:19Z</time>
      </trkpt>
      <trkpt lat="44.3417" lon="2.5181">
        <ele>659</ele>
        <time>2011-06-15T17:56:20Z</time>
      </trkpt>
      <trkpt lat="44.34173" lon="2.51813">
        <ele>659.1</ele>
        <time>2011-06-15T17:56:21Z</time>
      </trkpt>
      <trkpt lat="44.34176" lon="2.51816">
        <ele>658.7</ele>
        <time>2011-06-15T17:56:22Z</time>
      </trkpt>
      <trkpt lat="44.34179" lon="2.51818">
        <ele>658.3</ele>
        <time>2011-06-15T17:56:23Z</time>
      </trkpt>
      <trkpt lat="44.34182" lon="2.51822">
        <ele>658.1</ele>
        <time>2011-06-15T17:56:24Z</time>
      </trkpt>
      <trkpt lat="44.34185" lon="2.51825">
        <ele>657.9</ele>
        <time>2011-06-15T17:56:25Z</time>
      </trkpt>
      <trkpt lat="44.34188" lon="2.51827">
        <ele>657.8</ele>
        <time>2011-06-15T17:56:26Z</time>
      </trkpt>
      <trkpt lat="44.34191" lon="2.5183">
        <ele>657.7</ele>
        <time>2011-06-15T17:56:27Z</time>
      </trkpt>
      <trkpt lat="44.34194" lon="2.51833">
        <ele>657.8</ele>
        <time>2011-06-15T17:56:28Z</time>
      </trkpt>
      <trkpt lat="44.34197" lon="2.51836">
        <ele>658</ele>
        <time>2011-06-15T17:56:29Z</time>
      </trkpt>
      <trkpt lat="44.342" lon="2.51839">
        <ele>658.1</ele>
        <time>2011-06-15T17:56:30Z</time>
      </trkpt>
      <trkpt lat="44.34203" lon="2.51842">
        <ele>658.2</ele>
        <time>2011-06-15T17:56:31Z</time>
      </trkpt>
      <trkpt lat="44.34207" lon="2.51844">
        <ele>658.3</ele>
        <time>2011-06-15T17:56:32Z</time>
      </trkpt>
      <trkpt lat="44.3421" lon="2.51847">
        <ele>658.4</ele>
        <time>2011-06-15T17:56:33Z</time>
      </trkpt>
      <trkpt lat="44.34213" lon="2.5185">
        <ele>658.5</ele>
        <time>2011-06-15T17:56:34Z</time>
      </trkpt>
      <trkpt lat="44.34217" lon="2.51853">
        <ele>658.4</ele>
        <time>2011-06-15T17:56:35Z</time>
      </trkpt>
      <trkpt lat="44.3422" lon="2.51856">
        <ele>658.4</ele>
        <time>2011-06-15T17:56:36Z</time>
      </trkpt>
      <trkpt lat="44.34223" lon="2.51859">
        <ele>658.4</ele>
        <time>2011-06-15T17:56:37Z</time>
      </trkpt>
      <trkpt lat="44.34226" lon="2.51861">
        <ele>658.3</ele>
        <time>2011-06-15T17:56:38Z</time>
      </trkpt>
      <trkpt lat="44.34229" lon="2.51864">
        <ele>658.2</ele>
        <time>2011-06-15T17:56:39Z</time>
      </trkpt>
      <trkpt lat="44.34232" lon="2.51866">
        <ele>658.2</ele>
        <time>2011-06-15T17:56:40Z</time>
      </trkpt>
      <trkpt lat="44.34234" lon="2.51868">
        <ele>658.5</ele>
        <time>2011-06-15T17:56:41Z</time>
      </trkpt>
      <trkpt lat="44.34236" lon="2.5187">
        <ele>658.8</ele>
        <time>2011-06-15T17:56:42Z</time>
      </trkpt>
      <trkpt lat="44.34239" lon="2.51871">
        <ele>659</ele>
        <time>2011-06-15T17:56:43Z</time>
      </trkpt>
      <trkpt lat="44.34241" lon="2.51873">
        <ele>658.9</ele>
        <time>2011-06-15T17:56:44Z</time>
      </trkpt>
      <trkpt lat="44.34244" lon="2.51874">
        <ele>658.9</ele>
        <time>2011-06-15T17:56:45Z</time>
      </trkpt>
      <trkpt lat="44.34248" lon="2.51876">
        <ele>658.8</ele>
        <time>2011-06-15T17:56:46Z</time>
      </trkpt>
      <trkpt lat="44.34251" lon="2.51878">
        <ele>658.6</ele>
        <time>2011-06-15T17:56:47Z</time>
      </trkpt>
      <trkpt lat="44.34254" lon="2.51879">
        <ele>658.4</ele>
        <time>2011-06-15T17:56:48Z</time>
      </trkpt>
      <trkpt lat="44.34257" lon="2.51879">
        <ele>658.3</ele>
        <time>2011-06-15T17:56:49Z</time>
      </trkpt>
      <trkpt lat="44.3426" lon="2.5188">
        <ele>658.2</ele>
        <time>2011-06-15T17:56:50Z</time>
      </trkpt>
      <trkpt lat="44.34263" lon="2.51879">
        <ele>658</ele>
        <time>2011-06-15T17:56:51Z</time>
      </trkpt>
      <trkpt lat="44.34266" lon="2.5188">
        <ele>657.9</ele>
        <time>2011-06-15T17:56:52Z</time>
      </trkpt>
      <trkpt lat="44.3427" lon="2.51879">
        <ele>657.8</ele>
        <time>2011-06-15T17:56:53Z</time>
      </trkpt>
      <trkpt lat="44.34273" lon="2.51879">
        <ele>657.9</ele>
        <time>2011-06-15T17:56:54Z</time>
      </trkpt>
      <trkpt lat="44.34276" lon="2.51878">
        <ele>657.9</ele>
        <time>2011-06-15T17:56:55Z</time>
      </trkpt>
      <trkpt lat="44.3428" lon="2.51877">
        <ele>657.9</ele>
        <time>2011-06-15T17:56:56Z</time>
      </trkpt>
      <trkpt lat="44.34283" lon="2.51876">
        <ele>658</ele>
        <time>2011-06-15T17:56:57Z</time>
      </trkpt>
      <trkpt lat="44.34287" lon="2.51877">
        <ele>658</ele>
        <time>2011-06-15T17:56:58Z</time>
      </trkpt>
      <trkpt lat="44.3429" lon="2.51876">
        <ele>658</ele>
        <time>2011-06-15T17:56:59Z</time>
      </trkpt>
      <trkpt lat="44.34294" lon="2.51876">
        <ele>658.2</ele>
        <time>2011-06-15T17:57:00Z</time>
      </trkpt>
      <trkpt lat="44.34298" lon="2.51875">
        <ele>658.3</ele>
        <time>2011-06-15T17:57:01Z</time>
      </trkpt>
      <trkpt lat="44.34301" lon="2.51874">
        <ele>658.4</ele>
        <time>2011-06-15T17:57:02Z</time>
      </trkpt>
      <trkpt lat="44.34305" lon="2.51874">
        <ele>657.8</ele>
        <time>2011-06-15T17:57:03Z</time>
      </trkpt>
      <trkpt lat="44.34309" lon="2.51873">
        <ele>657.3</ele>
        <time>2011-06-15T17:57:04Z</time>
      </trkpt>
      <trkpt lat="44.34313" lon="2.51873">
        <ele>657</ele>
        <time>2011-06-15T17:57:05Z</time>
      </trkpt>
      <trkpt lat="44.34317" lon="2.51872">
        <ele>657.5</ele>
        <time>2011-06-15T17:57:06Z</time>
      </trkpt>
      <trkpt lat="44.3432" lon="2.51872">
        <ele>657.8</ele>
        <time>2011-06-15T17:57:07Z</time>
      </trkpt>
      <trkpt lat="44.34324" lon="2.51871">
        <ele>658.1</ele>
        <time>2011-06-15T17:57:08Z</time>
      </trkpt>
      <trkpt lat="44.34327" lon="2.51871">
        <ele>658.3</ele>
        <time>2011-06-15T17:57:09Z</time>
      </trkpt>
      <trkpt lat="44.3433" lon="2.5187">
        <ele>658.3</ele>
        <time>2011-06-15T17:57:10Z</time>
      </trkpt>
      <trkpt lat="44.34333" lon="2.5187">
        <ele>658.3</ele>
        <time>2011-06-15T17:57:11Z</time>
      </trkpt>
      <trkpt lat="44.34336" lon="2.5187">
        <ele>658.3</ele>
        <time>2011-06-15T17:57:12Z</time>
      </trkpt>
      <trkpt lat="44.34339" lon="2.51871">
        <ele>658.4</ele>
        <time>2011-06-15T17:57:13Z</time>
      </trkpt>
      <trkpt lat="44.34341" lon="2.51875">
        <ele>658.6</ele>
        <time>2011-06-15T17:57:15Z</time>
      </trkpt>
      <trkpt lat="44.34341" lon="2.51881">
        <ele>658.1</ele>
        <time>2011-06-15T17:57:17Z</time>
      </trkpt>
      <trkpt lat="44.34341" lon="2.51885">
        <ele>658</ele>
        <time>2011-06-15T17:57:18Z</time>
      </trkpt>
      <trkpt lat="44.34341" lon="2.51889">
        <ele>658</ele>
        <time>2011-06-15T17:57:19Z</time>
      </trkpt>
      <trkpt lat="44.34341" lon="2.51892">
        <ele>657.9</ele>
        <time>2011-06-15T17:57:20Z</time>
      </trkpt>
      <trkpt lat="44.34341" lon="2.51895">
        <ele>657.9</ele>
        <time>2011-06-15T17:57:21Z</time>
      </trkpt>
      <trkpt lat="44.34341" lon="2.51899">
        <ele>658.1</ele>
        <time>2011-06-15T17:57:22Z</time>
      </trkpt>
      <trkpt lat="44.34341" lon="2.51904">
        <ele>658.2</ele>
        <time>2011-06-15T17:57:23Z</time>
      </trkpt>
      <trkpt lat="44.34341" lon="2.51908">
        <ele>658.3</ele>
        <time>2011-06-15T17:57:24Z</time>
      </trkpt>
      <trkpt lat="44.34341" lon="2.51913">
        <ele>658.4</ele>
        <time>2011-06-15T17:57:25Z</time>
      </trkpt>
      <trkpt lat="44.34342" lon="2.51917">
        <ele>658.6</ele>
        <time>2011-06-15T17:57:26Z</time>
      </trkpt>
      <trkpt lat="44.34342" lon="2.51921">
        <ele>658.7</ele>
        <time>2011-06-15T17:57:27Z</time>
      </trkpt>
      <trkpt lat="44.34342" lon="2.51926">
        <ele>658.8</ele>
        <time>2011-06-15T17:57:28Z</time>
      </trkpt>
      <trkpt lat="44.34342" lon="2.5193">
        <ele>658.9</ele>
        <time>2011-06-15T17:57:29Z</time>
      </trkpt>
      <trkpt lat="44.34343" lon="2.51935">
        <ele>658.9</ele>
        <time>2011-06-15T17:57:30Z</time>
      </trkpt>
      <trkpt lat="44.34343" lon="2.51939">
        <ele>659</ele>
        <time>2011-06-15T17:57:31Z</time>
      </trkpt>
      <trkpt lat="44.34343" lon="2.51944">
        <ele>658.5</ele>
        <time>2011-06-15T17:57:32Z</time>
      </trkpt>
      <trkpt lat="44.34343" lon="2.51948">
        <ele>658.1</ele>
        <time>2011-06-15T17:57:33Z</time>
      </trkpt>
      <trkpt lat="44.34343" lon="2.51952">
        <ele>657.9</ele>
        <time>2011-06-15T17:57:34Z</time>
      </trkpt>
      <trkpt lat="44.34343" lon="2.51957">
        <ele>658</ele>
        <time>2011-06-15T17:57:35Z</time>
      </trkpt>
      <trkpt lat="44.34344" lon="2.51961">
        <ele>658.1</ele>
        <time>2011-06-15T17:57:36Z</time>
      </trkpt>
      <trkpt lat="44.34344" lon="2.51966">
        <ele>658.2</ele>
        <time>2011-06-15T17:57:37Z</time>
      </trkpt>
      <trkpt lat="44.34344" lon="2.5197">
        <ele>658.4</ele>
        <time>2011-06-15T17:57:38Z</time>
      </trkpt>
      <trkpt lat="44.34344" lon="2.51975">
        <ele>658.5</ele>
        <time>2011-06-15T17:57:39Z</time>
      </trkpt>
      <trkpt lat="44.34345" lon="2.51979">
        <ele>658.5</ele>
        <time>2011-06-15T17:57:40Z</time>
      </trkpt>
      <trkpt lat="44.34345" lon="2.51984">
        <ele>658.6</ele>
        <time>2011-06-15T17:57:41Z</time>
      </trkpt>
      <trkpt lat="44.34345" lon="2.51988">
        <ele>658.9</ele>
        <time>2011-06-15T17:57:42Z</time>
      </trkpt>
      <trkpt lat="44.34345" lon="2.51992">
        <ele>659.2</ele>
        <time>2011-06-15T17:57:43Z</time>
      </trkpt>
      <trkpt lat="44.34346" lon="2.51996">
        <ele>659.4</ele>
        <time>2011-06-15T17:57:44Z</time>
      </trkpt>
      <trkpt lat="44.34346" lon="2.52001">
        <ele>659.2</ele>
        <time>2011-06-15T17:57:45Z</time>
      </trkpt>
      <trkpt lat="44.34346" lon="2.52005">
        <ele>659</ele>
        <time>2011-06-15T17:57:46Z</time>
      </trkpt>
      <trkpt lat="44.34346" lon="2.5201">
        <ele>658.9</ele>
        <time>2011-06-15T17:57:47Z</time>
      </trkpt>
      <trkpt lat="44.34346" lon="2.52014">
        <ele>658.7</ele>
        <time>2011-06-15T17:57:48Z</time>
      </trkpt>
      <trkpt lat="44.34346" lon="2.5202">
        <ele>658.5</ele>
        <time>2011-06-15T17:57:49Z</time>
      </trkpt>
      <trkpt lat="44.34346" lon="2.52026">
        <ele>658.4</ele>
        <time>2011-06-15T17:57:50Z</time>
      </trkpt>
      <trkpt lat="44.34347" lon="2.5203">
        <ele>658.4</ele>
        <time>2011-06-15T17:57:51Z</time>
      </trkpt>
      <trkpt lat="44.34347" lon="2.52034">
        <ele>658.4</ele>
        <time>2011-06-15T17:57:52Z</time>
      </trkpt>
      <trkpt lat="44.34349" lon="2.52039">
        <ele>658.4</ele>
        <time>2011-06-15T17:57:53Z</time>
      </trkpt>
      <trkpt lat="44.34353" lon="2.52043">
        <ele>658.1</ele>
        <time>2011-06-15T17:57:54Z</time>
      </trkpt>
      <trkpt lat="44.34357" lon="2.52044">
        <ele>657.8</ele>
        <time>2011-06-15T17:57:55Z</time>
      </trkpt>
      <trkpt lat="44.3436" lon="2.52044">
        <ele>657.6</ele>
        <time>2011-06-15T17:57:56Z</time>
      </trkpt>
      <trkpt lat="44.34363" lon="2.52043">
        <ele>657.5</ele>
        <time>2011-06-15T17:57:57Z</time>
      </trkpt>
      <trkpt lat="44.34366" lon="2.52043">
        <ele>657.5</ele>
        <time>2011-06-15T17:57:58Z</time>
      </trkpt>
      <trkpt lat="44.34369" lon="2.52043">
        <ele>657.5</ele>
        <time>2011-06-15T17:57:59Z</time>
      </trkpt>
      <trkpt lat="44.34372" lon="2.52043">
        <ele>657.5</ele>
        <time>2011-06-15T17:58:00Z</time>
      </trkpt>
      <trkpt lat="44.34375" lon="2.52042">
        <ele>657.8</ele>
        <time>2011-06-15T17:58:01Z</time>
      </trkpt>
      <trkpt lat="44.34378" lon="2.52042">
        <ele>657.9</ele>
        <time>2011-06-15T17:58:02Z</time>
      </trkpt>
      <trkpt lat="44.34381" lon="2.52042">
        <ele>658</ele>
        <time>2011-06-15T17:58:03Z</time>
      </trkpt>
      <trkpt lat="44.34384" lon="2.52042">
        <ele>658.5</ele>
        <time>2011-06-15T17:58:04Z</time>
      </trkpt>
      <trkpt lat="44.34387" lon="2.52042">
        <ele>658.8</ele>
        <time>2011-06-15T17:58:05Z</time>
      </trkpt>
      <trkpt lat="44.34389" lon="2.52042">
        <ele>659</ele>
        <time>2011-06-15T17:58:06Z</time>
      </trkpt>
      <trkpt lat="44.34392" lon="2.52042">
        <ele>659.2</ele>
        <time>2011-06-15T17:58:07Z</time>
      </trkpt>
      <trkpt lat="44.34395" lon="2.52042">
        <ele>659.4</ele>
        <time>2011-06-15T17:58:08Z</time>
      </trkpt>
      <trkpt lat="44.34398" lon="2.52043">
        <ele>659.5</ele>
        <time>2011-06-15T17:58:09Z</time>
      </trkpt>
      <trkpt lat="44.344" lon="2.52044">
        <ele>659.3</ele>
        <time>2011-06-15T17:58:10Z</time>
      </trkpt>
      <trkpt lat="44.34403" lon="2.52046">
        <ele>659.2</ele>
        <time>2011-06-15T17:58:11Z</time>
      </trkpt>
      <trkpt lat="44.34405" lon="2.52048">
        <ele>659.1</ele>
        <time>2011-06-15T17:58:12Z</time>
      </trkpt>
      <trkpt lat="44.34406" lon="2.52051">
        <ele>659</ele>
        <time>2011-06-15T17:58:13Z</time>
      </trkpt>
      <trkpt lat="44.34406" lon="2.52054">
        <ele>659.5</ele>
        <time>2011-06-15T17:58:14Z</time>
      </trkpt>
      <trkpt lat="44.34406" lon="2.52057">
        <ele>659.9</ele>
        <time>2011-06-15T17:58:15Z</time>
      </trkpt>
      <trkpt lat="44.34406" lon="2.52061">
        <ele>660.2</ele>
        <time>2011-06-15T17:58:16Z</time>
      </trkpt>
      <trkpt lat="44.34407" lon="2.52064">
        <ele>660.5</ele>
        <time>2011-06-15T17:58:17Z</time>
      </trkpt>
      <trkpt lat="44.34408" lon="2.52068">
        <ele>660.8</ele>
        <time>2011-06-15T17:58:18Z</time>
      </trkpt>
      <trkpt lat="44.34408" lon="2.52071">
        <ele>661</ele>
        <time>2011-06-15T17:58:19Z</time>
      </trkpt>
      <trkpt lat="44.34409" lon="2.52075">
        <ele>660.5</ele>
        <time>2011-06-15T17:58:20Z</time>
      </trkpt>
      <trkpt lat="44.34409" lon="2.52078">
        <ele>660.2</ele>
        <time>2011-06-15T17:58:21Z</time>
      </trkpt>
      <trkpt lat="44.34409" lon="2.52081">
        <ele>660</ele>
        <time>2011-06-15T17:58:22Z</time>
      </trkpt>
      <trkpt lat="44.34409" lon="2.52085">
        <ele>660</ele>
        <time>2011-06-15T17:58:23Z</time>
      </trkpt>
      <trkpt lat="44.34409" lon="2.52088">
        <ele>660</ele>
        <time>2011-06-15T17:58:24Z</time>
      </trkpt>
      <trkpt lat="44.3441" lon="2.52092">
        <ele>660</ele>
        <time>2011-06-15T17:58:25Z</time>
      </trkpt>
      <trkpt lat="44.3441" lon="2.52096">
        <ele>659.8</ele>
        <time>2011-06-15T17:58:26Z</time>
      </trkpt>
      <trkpt lat="44.34411" lon="2.521">
        <ele>659.7</ele>
        <time>2011-06-15T17:58:27Z</time>
      </trkpt>
      <trkpt lat="44.34411" lon="2.52104">
        <ele>659.6</ele>
        <time>2011-06-15T17:58:28Z</time>
      </trkpt>
      <trkpt lat="44.34412" lon="2.52108">
        <ele>659.5</ele>
        <time>2011-06-15T17:58:29Z</time>
      </trkpt>
      <trkpt lat="44.34412" lon="2.52112">
        <ele>659.4</ele>
        <time>2011-06-15T17:58:30Z</time>
      </trkpt>
      <trkpt lat="44.34413" lon="2.52115">
        <ele>659.4</ele>
        <time>2011-06-15T17:58:31Z</time>
      </trkpt>
      <trkpt lat="44.34414" lon="2.52119">
        <ele>659.3</ele>
        <time>2011-06-15T17:58:32Z</time>
      </trkpt>
      <trkpt lat="44.34414" lon="2.52124">
        <ele>659.9</ele>
        <time>2011-06-15T17:58:33Z</time>
      </trkpt>
      <trkpt lat="44.34414" lon="2.52128">
        <ele>660.4</ele>
        <time>2011-06-15T17:58:34Z</time>
      </trkpt>
      <trkpt lat="44.34415" lon="2.52132">
        <ele>660.7</ele>
        <time>2011-06-15T17:58:35Z</time>
      </trkpt>
      <trkpt lat="44.34415" lon="2.52136">
        <ele>660.5</ele>
        <time>2011-06-15T17:58:36Z</time>
      </trkpt>
      <trkpt lat="44.34416" lon="2.5214">
        <ele>660.4</ele>
        <time>2011-06-15T17:58:37Z</time>
      </trkpt>
      <trkpt lat="44.34416" lon="2.52144">
        <ele>660.4</ele>
        <time>2011-06-15T17:58:38Z</time>
      </trkpt>
      <trkpt lat="44.34417" lon="2.52149">
        <ele>660.5</ele>
        <time>2011-06-15T17:58:39Z</time>
      </trkpt>
      <trkpt lat="44.34418" lon="2.52153">
        <ele>660.6</ele>
        <time>2011-06-15T17:58:40Z</time>
      </trkpt>
      <trkpt lat="44.34418" lon="2.52157">
        <ele>660.7</ele>
        <time>2011-06-15T17:58:41Z</time>
      </trkpt>
      <trkpt lat="44.34419" lon="2.52161">
        <ele>660.6</ele>
        <time>2011-06-15T17:58:42Z</time>
      </trkpt>
      <trkpt lat="44.3442" lon="2.52166">
        <ele>660.5</ele>
        <time>2011-06-15T17:58:43Z</time>
      </trkpt>
      <trkpt lat="44.3442" lon="2.5217">
        <ele>660.4</ele>
        <time>2011-06-15T17:58:44Z</time>
      </trkpt>
      <trkpt lat="44.34421" lon="2.52174">
        <ele>660.5</ele>
        <time>2011-06-15T17:58:45Z</time>
      </trkpt>
      <trkpt lat="44.34422" lon="2.52178">
        <ele>660.6</ele>
        <time>2011-06-15T17:58:46Z</time>
      </trkpt>
      <trkpt lat="44.34423" lon="2.52183">
        <ele>660.7</ele>
        <time>2011-06-15T17:58:47Z</time>
      </trkpt>
      <trkpt lat="44.34423" lon="2.52188">
        <ele>660.7</ele>
        <time>2011-06-15T17:58:48Z</time>
      </trkpt>
      <trkpt lat="44.34424" lon="2.52194">
        <ele>660.5</ele>
        <time>2011-06-15T17:58:49Z</time>
      </trkpt>
      <trkpt lat="44.34424" lon="2.522">
        <ele>660.3</ele>
        <time>2011-06-15T17:58:50Z</time>
      </trkpt>
      <trkpt lat="44.34425" lon="2.52206">
        <ele>660.1</ele>
        <time>2011-06-15T17:58:51Z</time>
      </trkpt>
      <trkpt lat="44.34425" lon="2.52213">
        <ele>659.9</ele>
        <time>2011-06-15T17:58:52Z</time>
      </trkpt>
      <trkpt lat="44.34425" lon="2.5222">
        <ele>659.7</ele>
        <time>2011-06-15T17:58:53Z</time>
      </trkpt>
      <trkpt lat="44.34425" lon="2.52228">
        <ele>659.6</ele>
        <time>2011-06-15T17:58:54Z</time>
      </trkpt>
      <trkpt lat="44.34426" lon="2.52237">
        <ele>659.1</ele>
        <time>2011-06-15T17:58:55Z</time>
      </trkpt>
      <trkpt lat="44.34426" lon="2.52246">
        <ele>658.8</ele>
        <time>2011-06-15T17:58:56Z</time>
      </trkpt>
      <trkpt lat="44.34426" lon="2.52255">
        <ele>658.6</ele>
        <time>2011-06-15T17:58:57Z</time>
      </trkpt>
      <trkpt lat="44.34425" lon="2.52265">
        <ele>657.9</ele>
        <time>2011-06-15T17:58:58Z</time>
      </trkpt>
      <trkpt lat="44.34424" lon="2.52275">
        <ele>657.4</ele>
        <time>2011-06-15T17:58:59Z</time>
      </trkpt>
      <trkpt lat="44.34424" lon="2.52285">
        <ele>657.1</ele>
        <time>2011-06-15T17:59:00Z</time>
      </trkpt>
      <trkpt lat="44.34423" lon="2.52295">
        <ele>656.2</ele>
        <time>2011-06-15T17:59:01Z</time>
      </trkpt>
      <trkpt lat="44.34422" lon="2.52305">
        <ele>655.5</ele>
        <time>2011-06-15T17:59:02Z</time>
      </trkpt>
      <trkpt lat="44.34421" lon="2.52315">
        <ele>655</ele>
        <time>2011-06-15T17:59:03Z</time>
      </trkpt>
      <trkpt lat="44.3442" lon="2.52324">
        <ele>654.6</ele>
        <time>2011-06-15T17:59:04Z</time>
      </trkpt>
      <trkpt lat="44.34419" lon="2.52333">
        <ele>654.4</ele>
        <time>2011-06-15T17:59:05Z</time>
      </trkpt>
      <trkpt lat="44.34418" lon="2.52341">
        <ele>654.3</ele>
        <time>2011-06-15T17:59:06Z</time>
      </trkpt>
      <trkpt lat="44.34418" lon="2.5235">
        <ele>654.2</ele>
        <time>2011-06-15T17:59:07Z</time>
      </trkpt>
      <trkpt lat="44.34417" lon="2.52358">
        <ele>654.4</ele>
        <time>2011-06-15T17:59:08Z</time>
      </trkpt>
      <trkpt lat="44.34417" lon="2.52365">
        <ele>654.6</ele>
        <time>2011-06-15T17:59:09Z</time>
      </trkpt>
      <trkpt lat="44.34417" lon="2.52373">
        <ele>654.8</ele>
        <time>2011-06-15T17:59:10Z</time>
      </trkpt>
      <trkpt lat="44.34417" lon="2.5238">
        <ele>655</ele>
        <time>2011-06-15T17:59:11Z</time>
      </trkpt>
      <trkpt lat="44.34417" lon="2.52387">
        <ele>655.1</ele>
        <time>2011-06-15T17:59:12Z</time>
      </trkpt>
      <trkpt lat="44.34416" lon="2.52394">
        <ele>655.2</ele>
        <time>2011-06-15T17:59:13Z</time>
      </trkpt>
      <trkpt lat="44.34416" lon="2.52402">
        <ele>655.4</ele>
        <time>2011-06-15T17:59:14Z</time>
      </trkpt>
      <trkpt lat="44.34415" lon="2.52409">
        <ele>655.6</ele>
        <time>2011-06-15T17:59:15Z</time>
      </trkpt>
      <trkpt lat="44.34415" lon="2.52416">
        <ele>655.7</ele>
        <time>2011-06-15T17:59:16Z</time>
      </trkpt>
      <trkpt lat="44.34414" lon="2.52423">
        <ele>655.4</ele>
        <time>2011-06-15T17:59:17Z</time>
      </trkpt>
      <trkpt lat="44.34413" lon="2.5243">
        <ele>655.3</ele>
        <time>2011-06-15T17:59:18Z</time>
      </trkpt>
      <trkpt lat="44.34412" lon="2.52437">
        <ele>655.1</ele>
        <time>2011-06-15T17:59:19Z</time>
      </trkpt>
      <trkpt lat="44.3441" lon="2.52444">
        <ele>655</ele>
        <time>2011-06-15T17:59:20Z</time>
      </trkpt>
      <trkpt lat="44.34409" lon="2.52451">
        <ele>655</ele>
        <time>2011-06-15T17:59:21Z</time>
      </trkpt>
      <trkpt lat="44.34408" lon="2.52457">
        <ele>655</ele>
        <time>2011-06-15T17:59:22Z</time>
      </trkpt>
      <trkpt lat="44.34406" lon="2.52464">
        <ele>655</ele>
        <time>2011-06-15T17:59:23Z</time>
      </trkpt>
      <trkpt lat="44.34405" lon="2.5247">
        <ele>655.1</ele>
        <time>2011-06-15T17:59:24Z</time>
      </trkpt>
      <trkpt lat="44.34403" lon="2.52476">
        <ele>655.1</ele>
        <time>2011-06-15T17:59:25Z</time>
      </trkpt>
      <trkpt lat="44.34401" lon="2.52482">
        <ele>655.1</ele>
        <time>2011-06-15T17:59:26Z</time>
      </trkpt>
      <trkpt lat="44.34399" lon="2.52488">
        <ele>655.1</ele>
        <time>2011-06-15T17:59:27Z</time>
      </trkpt>
      <trkpt lat="44.34397" lon="2.52493">
        <ele>655</ele>
        <time>2011-06-15T17:59:28Z</time>
      </trkpt>
      <trkpt lat="44.34394" lon="2.52498">
        <ele>655</ele>
        <time>2011-06-15T17:59:29Z</time>
      </trkpt>
      <trkpt lat="44.34392" lon="2.52503">
        <ele>655.1</ele>
        <time>2011-06-15T17:59:30Z</time>
      </trkpt>
      <trkpt lat="44.34389" lon="2.52507">
        <ele>655.2</ele>
        <time>2011-06-15T17:59:31Z</time>
      </trkpt>
      <trkpt lat="44.34387" lon="2.52512">
        <ele>655.2</ele>
        <time>2011-06-15T17:59:32Z</time>
      </trkpt>
      <trkpt lat="44.34384" lon="2.52517">
        <ele>655.6</ele>
        <time>2011-06-15T17:59:33Z</time>
      </trkpt>
      <trkpt lat="44.34381" lon="2.52522">
        <ele>655.9</ele>
        <time>2011-06-15T17:59:34Z</time>
      </trkpt>
      <trkpt lat="44.34379" lon="2.52527">
        <ele>656.2</ele>
        <time>2011-06-15T17:59:35Z</time>
      </trkpt>
      <trkpt lat="44.34376" lon="2.52532">
        <ele>655.9</ele>
        <time>2011-06-15T17:59:36Z</time>
      </trkpt>
      <trkpt lat="44.34373" lon="2.52537">
        <ele>655.7</ele>
        <time>2011-06-15T17:59:37Z</time>
      </trkpt>
      <trkpt lat="44.34371" lon="2.52542">
        <ele>655.6</ele>
        <time>2011-06-15T17:59:38Z</time>
      </trkpt>
      <trkpt lat="44.34368" lon="2.52547">
        <ele>655.4</ele>
        <time>2011-06-15T17:59:39Z</time>
      </trkpt>
      <trkpt lat="44.34366" lon="2.52552">
        <ele>655.7</ele>
        <time>2011-06-15T17:59:40Z</time>
      </trkpt>
      <trkpt lat="44.34363" lon="2.52557">
        <ele>655.8</ele>
        <time>2011-06-15T17:59:41Z</time>
      </trkpt>
      <trkpt lat="44.34361" lon="2.52562">
        <ele>655.9</ele>
        <time>2011-06-15T17:59:42Z</time>
      </trkpt>
      <trkpt lat="44.34359" lon="2.52567">
        <ele>656.4</ele>
        <time>2011-06-15T17:59:43Z</time>
      </trkpt>
      <trkpt lat="44.34356" lon="2.52572">
        <ele>656.7</ele>
        <time>2011-06-15T17:59:44Z</time>
      </trkpt>
      <trkpt lat="44.34354" lon="2.52577">
        <ele>657</ele>
        <time>2011-06-15T17:59:45Z</time>
      </trkpt>
      <trkpt lat="44.34352" lon="2.52582">
        <ele>656.7</ele>
        <time>2011-06-15T17:59:46Z</time>
      </trkpt>
      <trkpt lat="44.3435" lon="2.52587">
        <ele>656.5</ele>
        <time>2011-06-15T17:59:47Z</time>
      </trkpt>
      <trkpt lat="44.34348" lon="2.52592">
        <ele>656.3</ele>
        <time>2011-06-15T17:59:48Z</time>
      </trkpt>
      <trkpt lat="44.34347" lon="2.52597">
        <ele>656.2</ele>
        <time>2011-06-15T17:59:49Z</time>
      </trkpt>
      <trkpt lat="44.34346" lon="2.52602">
        <ele>656.1</ele>
        <time>2011-06-15T17:59:50Z</time>
      </trkpt>
      <trkpt lat="44.34345" lon="2.52608">
        <ele>656</ele>
        <time>2011-06-15T17:59:51Z</time>
      </trkpt>
      <trkpt lat="44.34344" lon="2.52613">
        <ele>656</ele>
        <time>2011-06-15T17:59:52Z</time>
      </trkpt>
      <trkpt lat="44.34343" lon="2.52618">
        <ele>656.4</ele>
        <time>2011-06-15T17:59:53Z</time>
      </trkpt>
      <trkpt lat="44.34342" lon="2.52623">
        <ele>656.7</ele>
        <time>2011-06-15T17:59:54Z</time>
      </trkpt>
      <trkpt lat="44.34342" lon="2.52629">
        <ele>657</ele>
        <time>2011-06-15T17:59:55Z</time>
      </trkpt>
      <trkpt lat="44.34342" lon="2.52634">
        <ele>657</ele>
        <time>2011-06-15T17:59:56Z</time>
      </trkpt>
      <trkpt lat="44.34342" lon="2.52639">
        <ele>657</ele>
        <time>2011-06-15T17:59:57Z</time>
      </trkpt>
      <trkpt lat="44.34341" lon="2.52644">
        <ele>657.1</ele>
        <time>2011-06-15T17:59:58Z</time>
      </trkpt>
      <trkpt lat="44.3434" lon="2.52649">
        <ele>657.6</ele>
        <time>2011-06-15T17:59:59Z</time>
      </trkpt>
      <trkpt lat="44.3434" lon="2.52654">
        <ele>658</ele>
        <time>2011-06-15T18:00:00Z</time>
      </trkpt>
      <trkpt lat="44.3434" lon="2.52659">
        <ele>658.3</ele>
        <time>2011-06-15T18:00:01Z</time>
      </trkpt>
      <trkpt lat="44.34339" lon="2.52664">
        <ele>658.5</ele>
        <time>2011-06-15T18:00:02Z</time>
      </trkpt>
      <trkpt lat="44.34339" lon="2.52669">
        <ele>658.7</ele>
        <time>2011-06-15T18:00:03Z</time>
      </trkpt>
      <trkpt lat="44.34338" lon="2.52674">
        <ele>658.8</ele>
        <time>2011-06-15T18:00:04Z</time>
      </trkpt>
      <trkpt lat="44.34338" lon="2.52679">
        <ele>658.6</ele>
        <time>2011-06-15T18:00:05Z</time>
      </trkpt>
      <trkpt lat="44.34337" lon="2.52684">
        <ele>658.4</ele>
        <time>2011-06-15T18:00:06Z</time>
      </trkpt>
      <trkpt lat="44.34337" lon="2.5269">
        <ele>658.3</ele>
        <time>2011-06-15T18:00:07Z</time>
      </trkpt>
      <trkpt lat="44.34336" lon="2.52695">
        <ele>658.4</ele>
        <time>2011-06-15T18:00:08Z</time>
      </trkpt>
      <trkpt lat="44.34336" lon="2.527">
        <ele>658.5</ele>
        <time>2011-06-15T18:00:09Z</time>
      </trkpt>
      <trkpt lat="44.34337" lon="2.52705">
        <ele>658.6</ele>
        <time>2011-06-15T18:00:10Z</time>
      </trkpt>
      <trkpt lat="44.34338" lon="2.5271">
        <ele>658.6</ele>
        <time>2011-06-15T18:00:11Z</time>
      </trkpt>
      <trkpt lat="44.34339" lon="2.52715">
        <ele>658.7</ele>
        <time>2011-06-15T18:00:12Z</time>
      </trkpt>
      <trkpt lat="44.34338" lon="2.5272">
        <ele>658.7</ele>
        <time>2011-06-15T18:00:13Z</time>
      </trkpt>
      <trkpt lat="44.34336" lon="2.52724">
        <ele>658.8</ele>
        <time>2011-06-15T18:00:14Z</time>
      </trkpt>
      <trkpt lat="44.34335" lon="2.52728">
        <ele>659.2</ele>
        <time>2011-06-15T18:00:15Z</time>
      </trkpt>
      <trkpt lat="44.34332" lon="2.52732">
        <ele>659.5</ele>
        <time>2011-06-15T18:00:16Z</time>
      </trkpt>
      <trkpt lat="44.3433" lon="2.52737">
        <ele>659.7</ele>
        <time>2011-06-15T18:00:17Z</time>
      </trkpt>
      <trkpt lat="44.34328" lon="2.52742">
        <ele>659.6</ele>
        <time>2011-06-15T18:00:18Z</time>
      </trkpt>
      <trkpt lat="44.34326" lon="2.52747">
        <ele>659.4</ele>
        <time>2011-06-15T18:00:19Z</time>
      </trkpt>
      <trkpt lat="44.34325" lon="2.52753">
        <ele>659.4</ele>
        <time>2011-06-15T18:00:20Z</time>
      </trkpt>
      <trkpt lat="44.34324" lon="2.52758">
        <ele>659.2</ele>
        <time>2011-06-15T18:00:21Z</time>
      </trkpt>
      <trkpt lat="44.34322" lon="2.52764">
        <ele>659</ele>
        <time>2011-06-15T18:00:22Z</time>
      </trkpt>
      <trkpt lat="44.34321" lon="2.52769">
        <ele>658.9</ele>
        <time>2011-06-15T18:00:23Z</time>
      </trkpt>
      <trkpt lat="44.34319" lon="2.52774">
        <ele>659</ele>
        <time>2011-06-15T18:00:24Z</time>
      </trkpt>
      <trkpt lat="44.34317" lon="2.52779">
        <ele>659.1</ele>
        <time>2011-06-15T18:00:25Z</time>
      </trkpt>
      <trkpt lat="44.34316" lon="2.52784">
        <ele>659.1</ele>
        <time>2011-06-15T18:00:26Z</time>
      </trkpt>
      <trkpt lat="44.34315" lon="2.52789">
        <ele>659.2</ele>
        <time>2011-06-15T18:00:27Z</time>
      </trkpt>
      <trkpt lat="44.34313" lon="2.52794">
        <ele>659.4</ele>
        <time>2011-06-15T18:00:28Z</time>
      </trkpt>
      <trkpt lat="44.34312" lon="2.52799">
        <ele>659.6</ele>
        <time>2011-06-15T18:00:29Z</time>
      </trkpt>
      <trkpt lat="44.3431" lon="2.52804">
        <ele>659.7</ele>
        <time>2011-06-15T18:00:30Z</time>
      </trkpt>
      <trkpt lat="44.34309" lon="2.52809">
        <ele>659.2</ele>
        <time>2011-06-15T18:00:31Z</time>
      </trkpt>
      <trkpt lat="44.34307" lon="2.52814">
        <ele>658.8</ele>
        <time>2011-06-15T18:00:32Z</time>
      </trkpt>
      <trkpt lat="44.34305" lon="2.52818">
        <ele>658.5</ele>
        <time>2011-06-15T18:00:33Z</time>
      </trkpt>
      <trkpt lat="44.34302" lon="2.52822">
        <ele>658.7</ele>
        <time>2011-06-15T18:00:34Z</time>
      </trkpt>
      <trkpt lat="44.34298" lon="2.52826">
        <ele>659</ele>
        <time>2011-06-15T18:00:35Z</time>
      </trkpt>
      <trkpt lat="44.34294" lon="2.52829">
        <ele>659.1</ele>
        <time>2011-06-15T18:00:36Z</time>
      </trkpt>
      <trkpt lat="44.3429" lon="2.52832">
        <ele>658.8</ele>
        <time>2011-06-15T18:00:37Z</time>
      </trkpt>
      <trkpt lat="44.34286" lon="2.52836">
        <ele>658.6</ele>
        <time>2011-06-15T18:00:38Z</time>
      </trkpt>
      <trkpt lat="44.34281" lon="2.5284">
        <ele>658.4</ele>
        <time>2011-06-15T18:00:39Z</time>
      </trkpt>
      <trkpt lat="44.34277" lon="2.52843">
        <ele>657.5</ele>
        <time>2011-06-15T18:00:40Z</time>
      </trkpt>
      <trkpt lat="44.34273" lon="2.52848">
        <ele>656.9</ele>
        <time>2011-06-15T18:00:41Z</time>
      </trkpt>
      <trkpt lat="44.34268" lon="2.52852">
        <ele>656.4</ele>
        <time>2011-06-15T18:00:42Z</time>
      </trkpt>
      <trkpt lat="44.34264" lon="2.52856">
        <ele>656</ele>
        <time>2011-06-15T18:00:43Z</time>
      </trkpt>
      <trkpt lat="44.34261" lon="2.52861">
        <ele>655.8</ele>
        <time>2011-06-15T18:00:44Z</time>
      </trkpt>
      <trkpt lat="44.34257" lon="2.52866">
        <ele>655.6</ele>
        <time>2011-06-15T18:00:45Z</time>
      </trkpt>
      <trkpt lat="44.34254" lon="2.52871">
        <ele>655.5</ele>
        <time>2011-06-15T18:00:46Z</time>
      </trkpt>
      <trkpt lat="44.3425" lon="2.52876">
        <ele>655.1</ele>
        <time>2011-06-15T18:00:47Z</time>
      </trkpt>
      <trkpt lat="44.34247" lon="2.5288">
        <ele>654.8</ele>
        <time>2011-06-15T18:00:48Z</time>
      </trkpt>
      <trkpt lat="44.34244" lon="2.52884">
        <ele>654.6</ele>
        <time>2011-06-15T18:00:49Z</time>
      </trkpt>
      <trkpt lat="44.3424" lon="2.52888">
        <ele>654.7</ele>
        <time>2011-06-15T18:00:50Z</time>
      </trkpt>
      <trkpt lat="44.34237" lon="2.52892">
        <ele>654.8</ele>
        <time>2011-06-15T18:00:51Z</time>
      </trkpt>
      <trkpt lat="44.34234" lon="2.52897">
        <ele>654.9</ele>
        <time>2011-06-15T18:00:52Z</time>
      </trkpt>
      <trkpt lat="44.34231" lon="2.52901">
        <ele>654.7</ele>
        <time>2011-06-15T18:00:53Z</time>
      </trkpt>
      <trkpt lat="44.34228" lon="2.52905">
        <ele>654.7</ele>
        <time>2011-06-15T18:00:54Z</time>
      </trkpt>
      <trkpt lat="44.34225" lon="2.5291">
        <ele>654.6</ele>
        <time>2011-06-15T18:00:55Z</time>
      </trkpt>
      <trkpt lat="44.34222" lon="2.52914">
        <ele>654.8</ele>
        <time>2011-06-15T18:00:56Z</time>
      </trkpt>
      <trkpt lat="44.34219" lon="2.52918">
        <ele>654.9</ele>
        <time>2011-06-15T18:00:57Z</time>
      </trkpt>
      <trkpt lat="44.34216" lon="2.52923">
        <ele>655</ele>
        <time>2011-06-15T18:00:58Z</time>
      </trkpt>
      <trkpt lat="44.34213" lon="2.52927">
        <ele>655.1</ele>
        <time>2011-06-15T18:00:59Z</time>
      </trkpt>
      <trkpt lat="44.3421" lon="2.52932">
        <ele>655</ele>
        <time>2011-06-15T18:01:00Z</time>
      </trkpt>
      <trkpt lat="44.34207" lon="2.52936">
        <ele>655</ele>
        <time>2011-06-15T18:01:01Z</time>
      </trkpt>
      <trkpt lat="44.34204" lon="2.52941">
        <ele>655</ele>
        <time>2011-06-15T18:01:02Z</time>
      </trkpt>
      <trkpt lat="44.34201" lon="2.52946">
        <ele>655</ele>
        <time>2011-06-15T18:01:03Z</time>
      </trkpt>
      <trkpt lat="44.34199" lon="2.52951">
        <ele>655</ele>
        <time>2011-06-15T18:01:04Z</time>
      </trkpt>
      <trkpt lat="44.34197" lon="2.52956">
        <ele>655.1</ele>
        <time>2011-06-15T18:01:05Z</time>
      </trkpt>
      <trkpt lat="44.34195" lon="2.52961">
        <ele>655.3</ele>
        <time>2011-06-15T18:01:06Z</time>
      </trkpt>
      <trkpt lat="44.34193" lon="2.52966">
        <ele>655.5</ele>
        <time>2011-06-15T18:01:07Z</time>
      </trkpt>
      <trkpt lat="44.34191" lon="2.52971">
        <ele>655.6</ele>
        <time>2011-06-15T18:01:08Z</time>
      </trkpt>
      <trkpt lat="44.34189" lon="2.52977">
        <ele>655.6</ele>
        <time>2011-06-15T18:01:09Z</time>
      </trkpt>
      <trkpt lat="44.34188" lon="2.52982">
        <ele>655.6</ele>
        <time>2011-06-15T18:01:10Z</time>
      </trkpt>
      <trkpt lat="44.34187" lon="2.52987">
        <ele>655.6</ele>
        <time>2011-06-15T18:01:11Z</time>
      </trkpt>
      <trkpt lat="44.34185" lon="2.52993">
        <ele>655.8</ele>
        <time>2011-06-15T18:01:12Z</time>
      </trkpt>
      <trkpt lat="44.34185" lon="2.52998">
        <ele>655.9</ele>
        <time>2011-06-15T18:01:13Z</time>
      </trkpt>
      <trkpt lat="44.34184" lon="2.53004">
        <ele>656</ele>
        <time>2011-06-15T18:01:14Z</time>
      </trkpt>
      <trkpt lat="44.34184" lon="2.53009">
        <ele>656.2</ele>
        <time>2011-06-15T18:01:15Z</time>
      </trkpt>
      <trkpt lat="44.34184" lon="2.53015">
        <ele>656.5</ele>
        <time>2011-06-15T18:01:16Z</time>
      </trkpt>
      <trkpt lat="44.34183" lon="2.5302">
        <ele>656.6</ele>
        <time>2011-06-15T18:01:17Z</time>
      </trkpt>
      <trkpt lat="44.34182" lon="2.53025">
        <ele>656.7</ele>
        <time>2011-06-15T18:01:18Z</time>
      </trkpt>
      <trkpt lat="44.34181" lon="2.5303">
        <ele>656.4</ele>
        <time>2011-06-15T18:01:19Z</time>
      </trkpt>
      <trkpt lat="44.3418" lon="2.53035">
        <ele>656.1</ele>
        <time>2011-06-15T18:01:20Z</time>
      </trkpt>
      <trkpt lat="44.34179" lon="2.53041">
        <ele>655.9</ele>
        <time>2011-06-15T18:01:21Z</time>
      </trkpt>
      <trkpt lat="44.34178" lon="2.53046">
        <ele>655.9</ele>
        <time>2011-06-15T18:01:22Z</time>
      </trkpt>
      <trkpt lat="44.34177" lon="2.53052">
        <ele>655.9</ele>
        <time>2011-06-15T18:01:23Z</time>
      </trkpt>
      <trkpt lat="44.34177" lon="2.53057">
        <ele>655.8</ele>
        <time>2011-06-15T18:01:24Z</time>
      </trkpt>
      <trkpt lat="44.34176" lon="2.53063">
        <ele>656</ele>
        <time>2011-06-15T18:01:25Z</time>
      </trkpt>
      <trkpt lat="44.34175" lon="2.53069">
        <ele>656.1</ele>
        <time>2011-06-15T18:01:26Z</time>
      </trkpt>
      <trkpt lat="44.34175" lon="2.53076">
        <ele>656.1</ele>
        <time>2011-06-15T18:01:27Z</time>
      </trkpt>
      <trkpt lat="44.34176" lon="2.53082">
        <ele>655.7</ele>
        <time>2011-06-15T18:01:28Z</time>
      </trkpt>
      <trkpt lat="44.34175" lon="2.53089">
        <ele>655.3</ele>
        <time>2011-06-15T18:01:29Z</time>
      </trkpt>
      <trkpt lat="44.34175" lon="2.53096">
        <ele>655</ele>
        <time>2011-06-15T18:01:30Z</time>
      </trkpt>
      <trkpt lat="44.34174" lon="2.53102">
        <ele>655</ele>
        <time>2011-06-15T18:01:31Z</time>
      </trkpt>
      <trkpt lat="44.34174" lon="2.53109">
        <ele>655</ele>
        <time>2011-06-15T18:01:32Z</time>
      </trkpt>
      <trkpt lat="44.34175" lon="2.53115">
        <ele>655</ele>
        <time>2011-06-15T18:01:33Z</time>
      </trkpt>
      <trkpt lat="44.34176" lon="2.5312">
        <ele>655</ele>
        <time>2011-06-15T18:01:34Z</time>
      </trkpt>
      <trkpt lat="44.34178" lon="2.53125">
        <ele>654.9</ele>
        <time>2011-06-15T18:01:35Z</time>
      </trkpt>
      <trkpt lat="44.34179" lon="2.5313">
        <ele>654.9</ele>
        <time>2011-06-15T18:01:36Z</time>
      </trkpt>
      <trkpt lat="44.3418" lon="2.53135">
        <ele>654.9</ele>
        <time>2011-06-15T18:01:37Z</time>
      </trkpt>
      <trkpt lat="44.34181" lon="2.5314">
        <ele>655</ele>
        <time>2011-06-15T18:01:38Z</time>
      </trkpt>
      <trkpt lat="44.34183" lon="2.53145">
        <ele>655.1</ele>
        <time>2011-06-15T18:01:39Z</time>
      </trkpt>
      <trkpt lat="44.34184" lon="2.53151">
        <ele>655.2</ele>
        <time>2011-06-15T18:01:40Z</time>
      </trkpt>
      <trkpt lat="44.34186" lon="2.53156">
        <ele>655.3</ele>
        <time>2011-06-15T18:01:41Z</time>
      </trkpt>
      <trkpt lat="44.34187" lon="2.53161">
        <ele>655.3</ele>
        <time>2011-06-15T18:01:42Z</time>
      </trkpt>
      <trkpt lat="44.34188" lon="2.53166">
        <ele>655.4</ele>
        <time>2011-06-15T18:01:43Z</time>
      </trkpt>
      <trkpt lat="44.34189" lon="2.53171">
        <ele>655.4</ele>
        <time>2011-06-15T18:01:44Z</time>
      </trkpt>
      <trkpt lat="44.34191" lon="2.53175">
        <ele>655.5</ele>
        <time>2011-06-15T18:01:45Z</time>
      </trkpt>
      <trkpt lat="44.34193" lon="2.53179">
        <ele>655.5</ele>
        <time>2011-06-15T18:01:46Z</time>
      </trkpt>
      <trkpt lat="44.34194" lon="2.53182">
        <ele>655.3</ele>
        <time>2011-06-15T18:01:47Z</time>
      </trkpt>
      <trkpt lat="44.34196" lon="2.53186">
        <ele>655.1</ele>
        <time>2011-06-15T18:01:48Z</time>
      </trkpt>
      <trkpt lat="44.34198" lon="2.53189">
        <ele>655</ele>
        <time>2011-06-15T18:01:49Z</time>
      </trkpt>
      <trkpt lat="44.342" lon="2.53193">
        <ele>654.9</ele>
        <time>2011-06-15T18:01:50Z</time>
      </trkpt>
      <trkpt lat="44.34204" lon="2.53196">
        <ele>654.5</ele>
        <time>2011-06-15T18:01:51Z</time>
      </trkpt>
      <trkpt lat="44.34207" lon="2.532">
        <ele>654.2</ele>
        <time>2011-06-15T18:01:52Z</time>
      </trkpt>
      <trkpt lat="44.34211" lon="2.53204">
        <ele>653.9</ele>
        <time>2011-06-15T18:01:53Z</time>
      </trkpt>
      <trkpt lat="44.34214" lon="2.53208">
        <ele>653.8</ele>
        <time>2011-06-15T18:01:54Z</time>
      </trkpt>
      <trkpt lat="44.34218" lon="2.53212">
        <ele>653.8</ele>
        <time>2011-06-15T18:01:55Z</time>
      </trkpt>
      <trkpt lat="44.34222" lon="2.53216">
        <ele>653.7</ele>
        <time>2011-06-15T18:01:56Z</time>
      </trkpt>
      <trkpt lat="44.34225" lon="2.5322">
        <ele>653.5</ele>
        <time>2011-06-15T18:01:57Z</time>
      </trkpt>
      <trkpt lat="44.34227" lon="2.53225">
        <ele>653.3</ele>
        <time>2011-06-15T18:01:58Z</time>
      </trkpt>
      <trkpt lat="44.3423" lon="2.5323">
        <ele>653.2</ele>
        <time>2011-06-15T18:01:59Z</time>
      </trkpt>
      <trkpt lat="44.34233" lon="2.53235">
        <ele>653.1</ele>
        <time>2011-06-15T18:02:00Z</time>
      </trkpt>
      <trkpt lat="44.34236" lon="2.5324">
        <ele>653.1</ele>
        <time>2011-06-15T18:02:01Z</time>
      </trkpt>
      <trkpt lat="44.34238" lon="2.53246">
        <ele>653.1</ele>
        <time>2011-06-15T18:02:02Z</time>
      </trkpt>
      <trkpt lat="44.34241" lon="2.53251">
        <ele>653</ele>
        <time>2011-06-15T18:02:03Z</time>
      </trkpt>
      <trkpt lat="44.34242" lon="2.53256">
        <ele>652.9</ele>
        <time>2011-06-15T18:02:04Z</time>
      </trkpt>
      <trkpt lat="44.34244" lon="2.53261">
        <ele>652.9</ele>
        <time>2011-06-15T18:02:05Z</time>
      </trkpt>
      <trkpt lat="44.34247" lon="2.53264">
        <ele>652.8</ele>
        <time>2011-06-15T18:02:06Z</time>
      </trkpt>
      <trkpt lat="44.3425" lon="2.53268">
        <ele>652.8</ele>
        <time>2011-06-15T18:02:07Z</time>
      </trkpt>
      <trkpt lat="44.34251" lon="2.53271">
        <ele>652.8</ele>
        <time>2011-06-15T18:02:08Z</time>
      </trkpt>
      <trkpt lat="44.34253" lon="2.53274">
        <ele>652.8</ele>
        <time>2011-06-15T18:02:09Z</time>
      </trkpt>
      <trkpt lat="44.34255" lon="2.53277">
        <ele>652.7</ele>
        <time>2011-06-15T18:02:10Z</time>
      </trkpt>
      <trkpt lat="44.34258" lon="2.5328">
        <ele>652.7</ele>
        <time>2011-06-15T18:02:11Z</time>
      </trkpt>
      <trkpt lat="44.34261" lon="2.53283">
        <ele>652.7</ele>
        <time>2011-06-15T18:02:12Z</time>
      </trkpt>
      <trkpt lat="44.34265" lon="2.53286">
        <ele>652.5</ele>
        <time>2011-06-15T18:02:13Z</time>
      </trkpt>
      <trkpt lat="44.34268" lon="2.5329">
        <ele>652.3</ele>
        <time>2011-06-15T18:02:14Z</time>
      </trkpt>
      <trkpt lat="44.34272" lon="2.53294">
        <ele>652.2</ele>
        <time>2011-06-15T18:02:15Z</time>
      </trkpt>
      <trkpt lat="44.34276" lon="2.53298">
        <ele>652.4</ele>
        <time>2011-06-15T18:02:16Z</time>
      </trkpt>
      <trkpt lat="44.34279" lon="2.53303">
        <ele>652.5</ele>
        <time>2011-06-15T18:02:17Z</time>
      </trkpt>
      <trkpt lat="44.34281" lon="2.5331">
        <ele>652.6</ele>
        <time>2011-06-15T18:02:18Z</time>
      </trkpt>
      <trkpt lat="44.34283" lon="2.53316">
        <ele>652.4</ele>
        <time>2011-06-15T18:02:19Z</time>
      </trkpt>
      <trkpt lat="44.34283" lon="2.53322">
        <ele>652.2</ele>
        <time>2011-06-15T18:02:20Z</time>
      </trkpt>
      <trkpt lat="44.34283" lon="2.53328">
        <ele>652.1</ele>
        <time>2011-06-15T18:02:21Z</time>
      </trkpt>
      <trkpt lat="44.34282" lon="2.53334">
        <ele>652</ele>
        <time>2011-06-15T18:02:22Z</time>
      </trkpt>
      <trkpt lat="44.34282" lon="2.53339">
        <ele>651.9</ele>
        <time>2011-06-15T18:02:23Z</time>
      </trkpt>
      <trkpt lat="44.34281" lon="2.53345">
        <ele>651.8</ele>
        <time>2011-06-15T18:02:24Z</time>
      </trkpt>
      <trkpt lat="44.3428" lon="2.53351">
        <ele>651.7</ele>
        <time>2011-06-15T18:02:25Z</time>
      </trkpt>
      <trkpt lat="44.3428" lon="2.53357">
        <ele>651.8</ele>
        <time>2011-06-15T18:02:26Z</time>
      </trkpt>
      <trkpt lat="44.34279" lon="2.53362">
        <ele>651.8</ele>
        <time>2011-06-15T18:02:27Z</time>
      </trkpt>
      <trkpt lat="44.34279" lon="2.53367">
        <ele>651.9</ele>
        <time>2011-06-15T18:02:28Z</time>
      </trkpt>
      <trkpt lat="44.34278" lon="2.53373">
        <ele>651.8</ele>
        <time>2011-06-15T18:02:29Z</time>
      </trkpt>
      <trkpt lat="44.34277" lon="2.53379">
        <ele>651.8</ele>
        <time>2011-06-15T18:02:30Z</time>
      </trkpt>
      <trkpt lat="44.34277" lon="2.53384">
        <ele>651.7</ele>
        <time>2011-06-15T18:02:31Z</time>
      </trkpt>
      <trkpt lat="44.34276" lon="2.5339">
        <ele>651.8</ele>
        <time>2011-06-15T18:02:32Z</time>
      </trkpt>
      <trkpt lat="44.34276" lon="2.53396">
        <ele>651.8</ele>
        <time>2011-06-15T18:02:33Z</time>
      </trkpt>
      <trkpt lat="44.34275" lon="2.53403">
        <ele>651.8</ele>
        <time>2011-06-15T18:02:34Z</time>
      </trkpt>
      <trkpt lat="44.34274" lon="2.53411">
        <ele>651.7</ele>
        <time>2011-06-15T18:02:35Z</time>
      </trkpt>
      <trkpt lat="44.34272" lon="2.53419">
        <ele>651.7</ele>
        <time>2011-06-15T18:02:36Z</time>
      </trkpt>
      <trkpt lat="44.34271" lon="2.53427">
        <ele>651.6</ele>
        <time>2011-06-15T18:02:37Z</time>
      </trkpt>
      <trkpt lat="44.3427" lon="2.53436">
        <ele>651.6</ele>
        <time>2011-06-15T18:02:38Z</time>
      </trkpt>
      <trkpt lat="44.34269" lon="2.53447">
        <ele>651.2</ele>
        <time>2011-06-15T18:02:39Z</time>
      </trkpt>
      <trkpt lat="44.34269" lon="2.53458">
        <ele>650.9</ele>
        <time>2011-06-15T18:02:40Z</time>
      </trkpt>
      <trkpt lat="44.3427" lon="2.53468">
        <ele>650.7</ele>
        <time>2011-06-15T18:02:41Z</time>
      </trkpt>
      <trkpt lat="44.34272" lon="2.53479">
        <ele>649.6</ele>
        <time>2011-06-15T18:02:42Z</time>
      </trkpt>
      <trkpt lat="44.34275" lon="2.5349">
        <ele>648.8</ele>
        <time>2011-06-15T18:02:43Z</time>
      </trkpt>
      <trkpt lat="44.34277" lon="2.53501">
        <ele>648.2</ele>
        <time>2011-06-15T18:02:44Z</time>
      </trkpt>
      <trkpt lat="44.34279" lon="2.5351">
        <ele>647.7</ele>
        <time>2011-06-15T18:02:45Z</time>
      </trkpt>
      <trkpt lat="44.3428" lon="2.5352">
        <ele>647.4</ele>
        <time>2011-06-15T18:02:46Z</time>
      </trkpt>
      <trkpt lat="44.34278" lon="2.53529">
        <ele>647.1</ele>
        <time>2011-06-15T18:02:47Z</time>
      </trkpt>
      <trkpt lat="44.34276" lon="2.53539">
        <ele>646.3</ele>
        <time>2011-06-15T18:02:48Z</time>
      </trkpt>
      <trkpt lat="44.34274" lon="2.53548">
        <ele>645.6</ele>
        <time>2011-06-15T18:02:49Z</time>
      </trkpt>
      <trkpt lat="44.34274" lon="2.53557">
        <ele>645.2</ele>
        <time>2011-06-15T18:02:50Z</time>
      </trkpt>
      <trkpt lat="44.34274" lon="2.53567">
        <ele>644</ele>
        <time>2011-06-15T18:02:51Z</time>
      </trkpt>
      <trkpt lat="44.34273" lon="2.53576">
        <ele>643.2</ele>
        <time>2011-06-15T18:02:52Z</time>
      </trkpt>
      <trkpt lat="44.34272" lon="2.53585">
        <ele>642.5</ele>
        <time>2011-06-15T18:02:53Z</time>
      </trkpt>
      <trkpt lat="44.34269" lon="2.53604">
        <ele>641</ele>
        <time>2011-06-15T18:02:55Z</time>
      </trkpt>
      <trkpt lat="44.34268" lon="2.53613">
        <ele>639.8</ele>
        <time>2011-06-15T18:02:56Z</time>
      </trkpt>
      <trkpt lat="44.34266" lon="2.53622">
        <ele>638.9</ele>
        <time>2011-06-15T18:02:57Z</time>
      </trkpt>
      <trkpt lat="44.34263" lon="2.53631">
        <ele>637.7</ele>
        <time>2011-06-15T18:02:58Z</time>
      </trkpt>
      <trkpt lat="44.3426" lon="2.53638">
        <ele>636.9</ele>
        <time>2011-06-15T18:02:59Z</time>
      </trkpt>
      <trkpt lat="44.34259" lon="2.53645">
        <ele>636.2</ele>
        <time>2011-06-15T18:03:00Z</time>
      </trkpt>
      <trkpt lat="44.34259" lon="2.53651">
        <ele>634.6</ele>
        <time>2011-06-15T18:03:01Z</time>
      </trkpt>
      <trkpt lat="44.34261" lon="2.53657">
        <ele>633.4</ele>
        <time>2011-06-15T18:03:02Z</time>
      </trkpt>
      <trkpt lat="44.34264" lon="2.53663">
        <ele>632.5</ele>
        <time>2011-06-15T18:03:03Z</time>
      </trkpt>
      <trkpt lat="44.34268" lon="2.53668">
        <ele>631.4</ele>
        <time>2011-06-15T18:03:04Z</time>
      </trkpt>
      <trkpt lat="44.34273" lon="2.53673">
        <ele>630.5</ele>
        <time>2011-06-15T18:03:05Z</time>
      </trkpt>
      <trkpt lat="44.34278" lon="2.53678">
        <ele>629.9</ele>
        <time>2011-06-15T18:03:06Z</time>
      </trkpt>
      <trkpt lat="44.34285" lon="2.53682">
        <ele>628.3</ele>
        <time>2011-06-15T18:03:07Z</time>
      </trkpt>
      <trkpt lat="44.34292" lon="2.53685">
        <ele>627.1</ele>
        <time>2011-06-15T18:03:08Z</time>
      </trkpt>
      <trkpt lat="44.34299" lon="2.53687">
        <ele>626.2</ele>
        <time>2011-06-15T18:03:09Z</time>
      </trkpt>
      <trkpt lat="44.34306" lon="2.53687">
        <ele>625.1</ele>
        <time>2011-06-15T18:03:10Z</time>
      </trkpt>
      <trkpt lat="44.34314" lon="2.53685">
        <ele>624.2</ele>
        <time>2011-06-15T18:03:11Z</time>
      </trkpt>
      <trkpt lat="44.3432" lon="2.5368">
        <ele>623.6</ele>
        <time>2011-06-15T18:03:12Z</time>
      </trkpt>
      <trkpt lat="44.34326" lon="2.53674">
        <ele>623.1</ele>
        <time>2011-06-15T18:03:13Z</time>
      </trkpt>
      <trkpt lat="44.34331" lon="2.53668">
        <ele>621.8</ele>
        <time>2011-06-15T18:03:14Z</time>
      </trkpt>
      <trkpt lat="44.34335" lon="2.53661">
        <ele>620.7</ele>
        <time>2011-06-15T18:03:15Z</time>
      </trkpt>
      <trkpt lat="44.34339" lon="2.53657">
        <ele>620</ele>
        <time>2011-06-15T18:03:16Z</time>
      </trkpt>
      <trkpt lat="44.34342" lon="2.53657">
        <ele>618.7</ele>
        <time>2011-06-15T18:03:17Z</time>
      </trkpt>
      <trkpt lat="44.34343" lon="2.5366">
        <ele>617.8</ele>
        <time>2011-06-15T18:03:18Z</time>
      </trkpt>
      <trkpt lat="44.34344" lon="2.53663">
        <ele>617.1</ele>
        <time>2011-06-15T18:03:19Z</time>
      </trkpt>
      <trkpt lat="44.34344" lon="2.53667">
        <ele>616.7</ele>
        <time>2011-06-15T18:03:20Z</time>
      </trkpt>
      <trkpt lat="44.34343" lon="2.53672">
        <ele>616.5</ele>
        <time>2011-06-15T18:03:21Z</time>
      </trkpt>
      <trkpt lat="44.34343" lon="2.53678">
        <ele>616.3</ele>
        <time>2011-06-15T18:03:22Z</time>
      </trkpt>
      <trkpt lat="44.34343" lon="2.53685">
        <ele>615.5</ele>
        <time>2011-06-15T18:03:23Z</time>
      </trkpt>
      <trkpt lat="44.34342" lon="2.53692">
        <ele>614.8</ele>
        <time>2011-06-15T18:03:24Z</time>
      </trkpt>
      <trkpt lat="44.34342" lon="2.53698">
        <ele>614.3</ele>
        <time>2011-06-15T18:03:25Z</time>
      </trkpt>
      <trkpt lat="44.34342" lon="2.53702">
        <ele>613.2</ele>
        <time>2011-06-15T18:03:26Z</time>
      </trkpt>
      <trkpt lat="44.34344" lon="2.53706">
        <ele>611.5</ele>
        <time>2011-06-15T18:03:31Z</time>
      </trkpt>
      <trkpt lat="44.34348" lon="2.53707">
        <ele>610.4</ele>
        <time>2011-06-15T18:03:36Z</time>
      </trkpt>
      <trkpt lat="44.34351" lon="2.5371">
        <ele>609.3</ele>
        <time>2011-06-15T18:03:47Z</time>
      </trkpt>
      <trkpt lat="44.34355" lon="2.53713">
        <ele>609.3</ele>
        <time>2011-06-15T18:03:50Z</time>
      </trkpt>
      <trkpt lat="44.34357" lon="2.53715">
        <ele>609.3</ele>
        <time>2011-06-15T18:03:51Z</time>
      </trkpt>
      <trkpt lat="44.34359" lon="2.53718">
        <ele>609.2</ele>
        <time>2011-06-15T18:03:52Z</time>
      </trkpt>
      <trkpt lat="44.34361" lon="2.53723">
        <ele>609.1</ele>
        <time>2011-06-15T18:03:53Z</time>
      </trkpt>
      <trkpt lat="44.34363" lon="2.5373">
        <ele>609.1</ele>
        <time>2011-06-15T18:03:54Z</time>
      </trkpt>
      <trkpt lat="44.34365" lon="2.53737">
        <ele>608.2</ele>
        <time>2011-06-15T18:03:55Z</time>
      </trkpt>
      <trkpt lat="44.34366" lon="2.53744">
        <ele>607.5</ele>
        <time>2011-06-15T18:03:56Z</time>
      </trkpt>
      <trkpt lat="44.34368" lon="2.53751">
        <ele>607</ele>
        <time>2011-06-15T18:03:57Z</time>
      </trkpt>
      <trkpt lat="44.34371" lon="2.53755">
        <ele>604.9</ele>
        <time>2011-06-15T18:03:58Z</time>
      </trkpt>
      <trkpt lat="44.34376" lon="2.53757">
        <ele>603.3</ele>
        <time>2011-06-15T18:03:59Z</time>
      </trkpt>
      <trkpt lat="44.34381" lon="2.53758">
        <ele>602.1</ele>
        <time>2011-06-15T18:04:00Z</time>
      </trkpt>
      <trkpt lat="44.34387" lon="2.53759">
        <ele>601.2</ele>
        <time>2011-06-15T18:04:01Z</time>
      </trkpt>
      <trkpt lat="44.34391" lon="2.53763">
        <ele>599.2</ele>
        <time>2011-06-15T18:04:02Z</time>
      </trkpt>
      <trkpt lat="44.34396" lon="2.53769">
        <ele>597.8</ele>
        <time>2011-06-15T18:04:03Z</time>
      </trkpt>
      <trkpt lat="44.34402" lon="2.53775">
        <ele>596.7</ele>
        <time>2011-06-15T18:04:04Z</time>
      </trkpt>
      <trkpt lat="44.34407" lon="2.5378">
        <ele>593.7</ele>
        <time>2011-06-15T18:04:05Z</time>
      </trkpt>
      <trkpt lat="44.34414" lon="2.53783">
        <ele>591.6</ele>
        <time>2011-06-15T18:04:06Z</time>
      </trkpt>
      <trkpt lat="44.34421" lon="2.53785">
        <ele>589.9</ele>
        <time>2011-06-15T18:04:07Z</time>
      </trkpt>
      <trkpt lat="44.34428" lon="2.53786">
        <ele>586.4</ele>
        <time>2011-06-15T18:04:08Z</time>
      </trkpt>
      <trkpt lat="44.34435" lon="2.53787">
        <ele>583.7</ele>
        <time>2011-06-15T18:04:09Z</time>
      </trkpt>
      <trkpt lat="44.34442" lon="2.53788">
        <ele>581.7</ele>
        <time>2011-06-15T18:04:10Z</time>
      </trkpt>
      <trkpt lat="44.34449" lon="2.53791">
        <ele>579.1</ele>
        <time>2011-06-15T18:04:11Z</time>
      </trkpt>
      <trkpt lat="44.34455" lon="2.53794">
        <ele>577.1</ele>
        <time>2011-06-15T18:04:12Z</time>
      </trkpt>
      <trkpt lat="44.3446" lon="2.53796">
        <ele>575.7</ele>
        <time>2011-06-15T18:04:13Z</time>
      </trkpt>
      <trkpt lat="44.34456" lon="2.53799">
        <ele>571.2</ele>
        <time>2011-06-15T18:04:36Z</time>
      </trkpt>
      <trkpt lat="44.34452" lon="2.53802">
        <ele>571</ele>
        <time>2011-06-15T18:05:01Z</time>
      </trkpt>
      <trkpt lat="44.34451" lon="2.53808">
        <ele>570.8</ele>
        <time>2011-06-15T18:05:04Z</time>
      </trkpt>
      <trkpt lat="44.34449" lon="2.53813">
        <ele>569.9</ele>
        <time>2011-06-15T18:05:06Z</time>
      </trkpt>
      <trkpt lat="44.34449" lon="2.53816">
        <ele>569.6</ele>
        <time>2011-06-15T18:05:07Z</time>
      </trkpt>
      <trkpt lat="44.34448" lon="2.5382">
        <ele>569.4</ele>
        <time>2011-06-15T18:05:08Z</time>
      </trkpt>
      <trkpt lat="44.34447" lon="2.53823">
        <ele>569.5</ele>
        <time>2011-06-15T18:05:09Z</time>
      </trkpt>
      <trkpt lat="44.34446" lon="2.53826">
        <ele>569.5</ele>
        <time>2011-06-15T18:05:10Z</time>
      </trkpt>
      <trkpt lat="44.34445" lon="2.5383">
        <ele>569.6</ele>
        <time>2011-06-15T18:05:11Z</time>
      </trkpt>
      <trkpt lat="44.34444" lon="2.53833">
        <ele>569.5</ele>
        <time>2011-06-15T18:05:12Z</time>
      </trkpt>
      <trkpt lat="44.34442" lon="2.53837">
        <ele>569.5</ele>
        <time>2011-06-15T18:05:13Z</time>
      </trkpt>
      <trkpt lat="44.34441" lon="2.53841">
        <ele>569.4</ele>
        <time>2011-06-15T18:05:14Z</time>
      </trkpt>
      <trkpt lat="44.34439" lon="2.53846">
        <ele>569.6</ele>
        <time>2011-06-15T18:05:15Z</time>
      </trkpt>
      <trkpt lat="44.34438" lon="2.5385">
        <ele>569.8</ele>
        <time>2011-06-15T18:05:16Z</time>
      </trkpt>
      <trkpt lat="44.34437" lon="2.53855">
        <ele>569.9</ele>
        <time>2011-06-15T18:05:17Z</time>
      </trkpt>
      <trkpt lat="44.34436" lon="2.53859">
        <ele>569.9</ele>
        <time>2011-06-15T18:05:18Z</time>
      </trkpt>
      <trkpt lat="44.34435" lon="2.53864">
        <ele>569.9</ele>
        <time>2011-06-15T18:05:19Z</time>
      </trkpt>
      <trkpt lat="44.34434" lon="2.53869">
        <ele>569.9</ele>
        <time>2011-06-15T18:05:20Z</time>
      </trkpt>
      <trkpt lat="44.34433" lon="2.53874">
        <ele>570</ele>
        <time>2011-06-15T18:05:21Z</time>
      </trkpt>
      <trkpt lat="44.34431" lon="2.5388">
        <ele>570</ele>
        <time>2011-06-15T18:05:22Z</time>
      </trkpt>
      <trkpt lat="44.34429" lon="2.53885">
        <ele>570</ele>
        <time>2011-06-15T18:05:23Z</time>
      </trkpt>
      <trkpt lat="44.34427" lon="2.53891">
        <ele>569.7</ele>
        <time>2011-06-15T18:05:24Z</time>
      </trkpt>
      <trkpt lat="44.34425" lon="2.53896">
        <ele>569.5</ele>
        <time>2011-06-15T18:05:25Z</time>
      </trkpt>
      <trkpt lat="44.34423" lon="2.53901">
        <ele>569.3</ele>
        <time>2011-06-15T18:05:26Z</time>
      </trkpt>
      <trkpt lat="44.34421" lon="2.53906">
        <ele>569.2</ele>
        <time>2011-06-15T18:05:27Z</time>
      </trkpt>
      <trkpt lat="44.34418" lon="2.53911">
        <ele>568.9</ele>
        <time>2011-06-15T18:05:28Z</time>
      </trkpt>
      <trkpt lat="44.34416" lon="2.53915">
        <ele>568.6</ele>
        <time>2011-06-15T18:05:29Z</time>
      </trkpt>
      <trkpt lat="44.34414" lon="2.53919">
        <ele>568.4</ele>
        <time>2011-06-15T18:05:30Z</time>
      </trkpt>
      <trkpt lat="44.34411" lon="2.53924">
        <ele>568.6</ele>
        <time>2011-06-15T18:05:31Z</time>
      </trkpt>
      <trkpt lat="44.34408" lon="2.53928">
        <ele>568.7</ele>
        <time>2011-06-15T18:05:32Z</time>
      </trkpt>
      <trkpt lat="44.34405" lon="2.53932">
        <ele>568.8</ele>
        <time>2011-06-15T18:05:33Z</time>
      </trkpt>
      <trkpt lat="44.34402" lon="2.53936">
        <ele>568.8</ele>
        <time>2011-06-15T18:05:34Z</time>
      </trkpt>
      <trkpt lat="44.344" lon="2.5394">
        <ele>568.9</ele>
        <time>2011-06-15T18:05:35Z</time>
      </trkpt>
      <trkpt lat="44.34397" lon="2.53944">
        <ele>568.9</ele>
        <time>2011-06-15T18:05:36Z</time>
      </trkpt>
      <trkpt lat="44.34394" lon="2.53947">
        <ele>569</ele>
        <time>2011-06-15T18:05:37Z</time>
      </trkpt>
      <trkpt lat="44.34391" lon="2.53951">
        <ele>569</ele>
        <time>2011-06-15T18:05:38Z</time>
      </trkpt>
      <trkpt lat="44.34388" lon="2.53955">
        <ele>569.1</ele>
        <time>2011-06-15T18:05:39Z</time>
      </trkpt>
      <trkpt lat="44.34385" lon="2.53959">
        <ele>568.9</ele>
        <time>2011-06-15T18:05:40Z</time>
      </trkpt>
      <trkpt lat="44.34382" lon="2.53964">
        <ele>568.8</ele>
        <time>2011-06-15T18:05:41Z</time>
      </trkpt>
      <trkpt lat="44.34379" lon="2.53968">
        <ele>568.8</ele>
        <time>2011-06-15T18:05:42Z</time>
      </trkpt>
      <trkpt lat="44.34377" lon="2.53973">
        <ele>568.7</ele>
        <time>2011-06-15T18:05:43Z</time>
      </trkpt>
      <trkpt lat="44.34375" lon="2.53979">
        <ele>568.5</ele>
        <time>2011-06-15T18:05:44Z</time>
      </trkpt>
      <trkpt lat="44.34374" lon="2.53985">
        <ele>568.4</ele>
        <time>2011-06-15T18:05:45Z</time>
      </trkpt>
      <trkpt lat="44.34372" lon="2.53991">
        <ele>568.3</ele>
        <time>2011-06-15T18:05:46Z</time>
      </trkpt>
      <trkpt lat="44.34371" lon="2.53996">
        <ele>568.2</ele>
        <time>2011-06-15T18:05:47Z</time>
      </trkpt>
      <trkpt lat="44.34369" lon="2.54002">
        <ele>568.2</ele>
        <time>2011-06-15T18:05:48Z</time>
      </trkpt>
      <trkpt lat="44.34368" lon="2.54008">
        <ele>568.1</ele>
        <time>2011-06-15T18:05:49Z</time>
      </trkpt>
      <trkpt lat="44.34367" lon="2.54016">
        <ele>567.5</ele>
        <time>2011-06-15T18:05:50Z</time>
      </trkpt>
      <trkpt lat="44.34367" lon="2.54022">
        <ele>567</ele>
        <time>2011-06-15T18:05:51Z</time>
      </trkpt>
      <trkpt lat="44.34368" lon="2.54029">
        <ele>566.6</ele>
        <time>2011-06-15T18:05:52Z</time>
      </trkpt>
      <trkpt lat="44.3437" lon="2.54034">
        <ele>566.1</ele>
        <time>2011-06-15T18:05:53Z</time>
      </trkpt>
      <trkpt lat="44.34374" lon="2.54039">
        <ele>565.8</ele>
        <time>2011-06-15T18:05:54Z</time>
      </trkpt>
      <trkpt lat="44.34378" lon="2.54045">
        <ele>565.5</ele>
        <time>2011-06-15T18:05:55Z</time>
      </trkpt>
      <trkpt lat="44.34382" lon="2.54051">
        <ele>564.8</ele>
        <time>2011-06-15T18:05:56Z</time>
      </trkpt>
      <trkpt lat="44.34386" lon="2.54057">
        <ele>564.3</ele>
        <time>2011-06-15T18:05:57Z</time>
      </trkpt>
      <trkpt lat="44.3439" lon="2.54062">
        <ele>564</ele>
        <time>2011-06-15T18:05:58Z</time>
      </trkpt>
      <trkpt lat="44.34394" lon="2.54069">
        <ele>563.7</ele>
        <time>2011-06-15T18:05:59Z</time>
      </trkpt>
      <trkpt lat="44.34398" lon="2.54076">
        <ele>562.4</ele>
        <time>2011-06-15T18:06:00Z</time>
      </trkpt>
      <trkpt lat="44.34402" lon="2.54084">
        <ele>561.4</ele>
        <time>2011-06-15T18:06:01Z</time>
      </trkpt>
      <trkpt lat="44.34406" lon="2.54091">
        <ele>560.7</ele>
        <time>2011-06-15T18:06:02Z</time>
      </trkpt>
      <trkpt lat="44.34409" lon="2.54099">
        <ele>559.8</ele>
        <time>2011-06-15T18:06:03Z</time>
      </trkpt>
      <trkpt lat="44.34413" lon="2.54107">
        <ele>559.2</ele>
        <time>2011-06-15T18:06:04Z</time>
      </trkpt>
      <trkpt lat="44.34416" lon="2.54113">
        <ele>558.7</ele>
        <time>2011-06-15T18:06:05Z</time>
      </trkpt>
      <trkpt lat="44.3442" lon="2.5412">
        <ele>558.3</ele>
        <time>2011-06-15T18:06:06Z</time>
      </trkpt>
      <trkpt lat="44.34424" lon="2.54126">
        <ele>558.1</ele>
        <time>2011-06-15T18:06:07Z</time>
      </trkpt>
      <trkpt lat="44.34427" lon="2.54132">
        <ele>557.9</ele>
        <time>2011-06-15T18:06:08Z</time>
      </trkpt>
      <trkpt lat="44.3443" lon="2.54137">
        <ele>557.6</ele>
        <time>2011-06-15T18:06:09Z</time>
      </trkpt>
      <trkpt lat="44.34433" lon="2.54143">
        <ele>557.4</ele>
        <time>2011-06-15T18:06:10Z</time>
      </trkpt>
      <trkpt lat="44.34437" lon="2.54148">
        <ele>557.2</ele>
        <time>2011-06-15T18:06:11Z</time>
      </trkpt>
      <trkpt lat="44.3444" lon="2.54154">
        <ele>557.4</ele>
        <time>2011-06-15T18:06:12Z</time>
      </trkpt>
      <trkpt lat="44.34443" lon="2.54159">
        <ele>557.4</ele>
        <time>2011-06-15T18:06:13Z</time>
      </trkpt>
      <trkpt lat="44.34445" lon="2.54165">
        <ele>557.5</ele>
        <time>2011-06-15T18:06:14Z</time>
      </trkpt>
      <trkpt lat="44.34448" lon="2.5417">
        <ele>557.6</ele>
        <time>2011-06-15T18:06:15Z</time>
      </trkpt>
      <trkpt lat="44.3445" lon="2.54176">
        <ele>557.6</ele>
        <time>2011-06-15T18:06:16Z</time>
      </trkpt>
      <trkpt lat="44.34452" lon="2.54181">
        <ele>557.7</ele>
        <time>2011-06-15T18:06:17Z</time>
      </trkpt>
      <trkpt lat="44.34454" lon="2.54187">
        <ele>557.7</ele>
        <time>2011-06-15T18:06:18Z</time>
      </trkpt>
      <trkpt lat="44.34457" lon="2.54191">
        <ele>557.3</ele>
        <time>2011-06-15T18:06:19Z</time>
      </trkpt>
      <trkpt lat="44.34459" lon="2.54196">
        <ele>557</ele>
        <time>2011-06-15T18:06:20Z</time>
      </trkpt>
      <trkpt lat="44.34461" lon="2.542">
        <ele>556.8</ele>
        <time>2011-06-15T18:06:21Z</time>
      </trkpt>
      <trkpt lat="44.34463" lon="2.54204">
        <ele>556.9</ele>
        <time>2011-06-15T18:06:22Z</time>
      </trkpt>
      <trkpt lat="44.34465" lon="2.54209">
        <ele>556.9</ele>
        <time>2011-06-15T18:06:23Z</time>
      </trkpt>
      <trkpt lat="44.34467" lon="2.54213">
        <ele>557</ele>
        <time>2011-06-15T18:06:24Z</time>
      </trkpt>
      <trkpt lat="44.34468" lon="2.54218">
        <ele>557.2</ele>
        <time>2011-06-15T18:06:25Z</time>
      </trkpt>
      <trkpt lat="44.3447" lon="2.54222">
        <ele>557.3</ele>
        <time>2011-06-15T18:06:26Z</time>
      </trkpt>
      <trkpt lat="44.34471" lon="2.54226">
        <ele>557.4</ele>
        <time>2011-06-15T18:06:27Z</time>
      </trkpt>
      <trkpt lat="44.34473" lon="2.5423">
        <ele>557</ele>
        <time>2011-06-15T18:06:28Z</time>
      </trkpt>
      <trkpt lat="44.34474" lon="2.54234">
        <ele>556.7</ele>
        <time>2011-06-15T18:06:29Z</time>
      </trkpt>
      <trkpt lat="44.34476" lon="2.54238">
        <ele>556.5</ele>
        <time>2011-06-15T18:06:30Z</time>
      </trkpt>
      <trkpt lat="44.34477" lon="2.54242">
        <ele>557</ele>
        <time>2011-06-15T18:06:31Z</time>
      </trkpt>
      <trkpt lat="44.34479" lon="2.54246">
        <ele>557.3</ele>
        <time>2011-06-15T18:06:32Z</time>
      </trkpt>
      <trkpt lat="44.34481" lon="2.5425">
        <ele>557.6</ele>
        <time>2011-06-15T18:06:33Z</time>
      </trkpt>
      <trkpt lat="44.34482" lon="2.54254">
        <ele>557.8</ele>
        <time>2011-06-15T18:06:34Z</time>
      </trkpt>
      <trkpt lat="44.34483" lon="2.54259">
        <ele>557.4</ele>
        <time>2011-06-15T18:06:35Z</time>
      </trkpt>
      <trkpt lat="44.34484" lon="2.54263">
        <ele>557.1</ele>
        <time>2011-06-15T18:06:36Z</time>
      </trkpt>
      <trkpt lat="44.34486" lon="2.54268">
        <ele>556.8</ele>
        <time>2011-06-15T18:06:37Z</time>
      </trkpt>
      <trkpt lat="44.34487" lon="2.54273">
        <ele>556.9</ele>
        <time>2011-06-15T18:06:38Z</time>
      </trkpt>
      <trkpt lat="44.34489" lon="2.54277">
        <ele>557</ele>
        <time>2011-06-15T18:06:39Z</time>
      </trkpt>
      <trkpt lat="44.3449" lon="2.54281">
        <ele>557.1</ele>
        <time>2011-06-15T18:06:40Z</time>
      </trkpt>
      <trkpt lat="44.34491" lon="2.54285">
        <ele>557</ele>
        <time>2011-06-15T18:06:41Z</time>
      </trkpt>
      <trkpt lat="44.34492" lon="2.54289">
        <ele>556.9</ele>
        <time>2011-06-15T18:06:42Z</time>
      </trkpt>
      <trkpt lat="44.34492" lon="2.54294">
        <ele>556.8</ele>
        <time>2011-06-15T18:06:43Z</time>
      </trkpt>
      <trkpt lat="44.34494" lon="2.54298">
        <ele>557</ele>
        <time>2011-06-15T18:06:44Z</time>
      </trkpt>
      <trkpt lat="44.34494" lon="2.54303">
        <ele>557.1</ele>
        <time>2011-06-15T18:06:45Z</time>
      </trkpt>
      <trkpt lat="44.34495" lon="2.54307">
        <ele>557.2</ele>
        <time>2011-06-15T18:06:46Z</time>
      </trkpt>
      <trkpt lat="44.34496" lon="2.54312">
        <ele>557.2</ele>
        <time>2011-06-15T18:06:47Z</time>
      </trkpt>
      <trkpt lat="44.34499" lon="2.54316">
        <ele>557.1</ele>
        <time>2011-06-15T18:06:48Z</time>
      </trkpt>
      <trkpt lat="44.34502" lon="2.5432">
        <ele>557.1</ele>
        <time>2011-06-15T18:06:49Z</time>
      </trkpt>
      <trkpt lat="44.34505" lon="2.54324">
        <ele>557.1</ele>
        <time>2011-06-15T18:06:50Z</time>
      </trkpt>
      <trkpt lat="44.34508" lon="2.54329">
        <ele>557.3</ele>
        <time>2011-06-15T18:06:51Z</time>
      </trkpt>
      <trkpt lat="44.34512" lon="2.54333">
        <ele>557.5</ele>
        <time>2011-06-15T18:06:52Z</time>
      </trkpt>
      <trkpt lat="44.34515" lon="2.54337">
        <ele>557.6</ele>
        <time>2011-06-15T18:06:53Z</time>
      </trkpt>
      <trkpt lat="44.34519" lon="2.5434">
        <ele>557.5</ele>
        <time>2011-06-15T18:06:54Z</time>
      </trkpt>
      <trkpt lat="44.34523" lon="2.54344">
        <ele>557.5</ele>
        <time>2011-06-15T18:06:55Z</time>
      </trkpt>
      <trkpt lat="44.34528" lon="2.54347">
        <ele>557.5</ele>
        <time>2011-06-15T18:06:56Z</time>
      </trkpt>
      <trkpt lat="44.34532" lon="2.54351">
        <ele>557.8</ele>
        <time>2011-06-15T18:06:57Z</time>
      </trkpt>
      <trkpt lat="44.34537" lon="2.54353">
        <ele>558</ele>
        <time>2011-06-15T18:06:58Z</time>
      </trkpt>
      <trkpt lat="44.34542" lon="2.54357">
        <ele>558.1</ele>
        <time>2011-06-15T18:06:59Z</time>
      </trkpt>
      <trkpt lat="44.34546" lon="2.5436">
        <ele>558.1</ele>
        <time>2011-06-15T18:07:00Z</time>
      </trkpt>
      <trkpt lat="44.34551" lon="2.54363">
        <ele>558.1</ele>
        <time>2011-06-15T18:07:01Z</time>
      </trkpt>
      <trkpt lat="44.34555" lon="2.54366">
        <ele>558.1</ele>
        <time>2011-06-15T18:07:02Z</time>
      </trkpt>
      <trkpt lat="44.34559" lon="2.54368">
        <ele>558.1</ele>
        <time>2011-06-15T18:07:03Z</time>
      </trkpt>
      <trkpt lat="44.34562" lon="2.54371">
        <ele>558.1</ele>
        <time>2011-06-15T18:07:04Z</time>
      </trkpt>
      <trkpt lat="44.34565" lon="2.54374">
        <ele>558.1</ele>
        <time>2011-06-15T18:07:05Z</time>
      </trkpt>
      <trkpt lat="44.34568" lon="2.54377">
        <ele>558.1</ele>
        <time>2011-06-15T18:07:06Z</time>
      </trkpt>
      <trkpt lat="44.34572" lon="2.54379">
        <ele>558.4</ele>
        <time>2011-06-15T18:07:07Z</time>
      </trkpt>
      <trkpt lat="44.34576" lon="2.54382">
        <ele>558.7</ele>
        <time>2011-06-15T18:07:08Z</time>
      </trkpt>
      <trkpt lat="44.34579" lon="2.54386">
        <ele>558.9</ele>
        <time>2011-06-15T18:07:09Z</time>
      </trkpt>
      <trkpt lat="44.34582" lon="2.54389">
        <ele>558.5</ele>
        <time>2011-06-15T18:07:10Z</time>
      </trkpt>
      <trkpt lat="44.34586" lon="2.54392">
        <ele>558.2</ele>
        <time>2011-06-15T18:07:11Z</time>
      </trkpt>
      <trkpt lat="44.34589" lon="2.54394">
        <ele>558</ele>
        <time>2011-06-15T18:07:12Z</time>
      </trkpt>
      <trkpt lat="44.34593" lon="2.54397">
        <ele>558.2</ele>
        <time>2011-06-15T18:07:13Z</time>
      </trkpt>
      <trkpt lat="44.34596" lon="2.54398">
        <ele>558.3</ele>
        <time>2011-06-15T18:07:14Z</time>
      </trkpt>
      <trkpt lat="44.346" lon="2.544">
        <ele>558.5</ele>
        <time>2011-06-15T18:07:15Z</time>
      </trkpt>
      <trkpt lat="44.34603" lon="2.54401">
        <ele>558.1</ele>
        <time>2011-06-15T18:07:16Z</time>
      </trkpt>
      <trkpt lat="44.34607" lon="2.54402">
        <ele>557.8</ele>
        <time>2011-06-15T18:07:17Z</time>
      </trkpt>
      <trkpt lat="44.3461" lon="2.54403">
        <ele>557.5</ele>
        <time>2011-06-15T18:07:18Z</time>
      </trkpt>
      <trkpt lat="44.34614" lon="2.54404">
        <ele>557.7</ele>
        <time>2011-06-15T18:07:19Z</time>
      </trkpt>
      <trkpt lat="44.34617" lon="2.54405">
        <ele>557.8</ele>
        <time>2011-06-15T18:07:20Z</time>
      </trkpt>
      <trkpt lat="44.34621" lon="2.54405">
        <ele>557.9</ele>
        <time>2011-06-15T18:07:21Z</time>
      </trkpt>
      <trkpt lat="44.34625" lon="2.54406">
        <ele>558</ele>
        <time>2011-06-15T18:07:22Z</time>
      </trkpt>
      <trkpt lat="44.34636" lon="2.54406">
        <ele>558.3</ele>
        <time>2011-06-15T18:07:25Z</time>
      </trkpt>
      <trkpt lat="44.3464" lon="2.54406">
        <ele>558.6</ele>
        <time>2011-06-15T18:07:26Z</time>
      </trkpt>
      <trkpt lat="44.34644" lon="2.54406">
        <ele>558.8</ele>
        <time>2011-06-15T18:07:27Z</time>
      </trkpt>
      <trkpt lat="44.34648" lon="2.54406">
        <ele>559</ele>
        <time>2011-06-15T18:07:28Z</time>
      </trkpt>
      <trkpt lat="44.34652" lon="2.54405">
        <ele>558.9</ele>
        <time>2011-06-15T18:07:29Z</time>
      </trkpt>
      <trkpt lat="44.34656" lon="2.54405">
        <ele>558.9</ele>
        <time>2011-06-15T18:07:30Z</time>
      </trkpt>
      <trkpt lat="44.34661" lon="2.54404">
        <ele>558.8</ele>
        <time>2011-06-15T18:07:31Z</time>
      </trkpt>
      <trkpt lat="44.3467" lon="2.54404">
        <ele>558.8</ele>
        <time>2011-06-15T18:07:33Z</time>
      </trkpt>
      <trkpt lat="44.34674" lon="2.54404">
        <ele>558.8</ele>
        <time>2011-06-15T18:07:34Z</time>
      </trkpt>
      <trkpt lat="44.34679" lon="2.54404">
        <ele>559.1</ele>
        <time>2011-06-15T18:07:35Z</time>
      </trkpt>
      <trkpt lat="44.34682" lon="2.54404">
        <ele>559.4</ele>
        <time>2011-06-15T18:07:36Z</time>
      </trkpt>
      <trkpt lat="44.34686" lon="2.54404">
        <ele>559.5</ele>
        <time>2011-06-15T18:07:37Z</time>
      </trkpt>
      <trkpt lat="44.3469" lon="2.54403">
        <ele>559.7</ele>
        <time>2011-06-15T18:07:38Z</time>
      </trkpt>
      <trkpt lat="44.34694" lon="2.54403">
        <ele>559</ele>
        <time>2011-06-15T18:07:39Z</time>
      </trkpt>
      <trkpt lat="44.34698" lon="2.54402">
        <ele>558.5</ele>
        <time>2011-06-15T18:07:40Z</time>
      </trkpt>
      <trkpt lat="44.34703" lon="2.54402">
        <ele>558.1</ele>
        <time>2011-06-15T18:07:41Z</time>
      </trkpt>
      <trkpt lat="44.34707" lon="2.54401">
        <ele>558.4</ele>
        <time>2011-06-15T18:07:42Z</time>
      </trkpt>
      <trkpt lat="44.34712" lon="2.544">
        <ele>558.6</ele>
        <time>2011-06-15T18:07:43Z</time>
      </trkpt>
      <trkpt lat="44.34717" lon="2.54399">
        <ele>558.7</ele>
        <time>2011-06-15T18:07:44Z</time>
      </trkpt>
      <trkpt lat="44.34723" lon="2.54399">
        <ele>558.9</ele>
        <time>2011-06-15T18:07:45Z</time>
      </trkpt>
      <trkpt lat="44.34729" lon="2.54398">
        <ele>559</ele>
        <time>2011-06-15T18:07:46Z</time>
      </trkpt>
      <trkpt lat="44.34735" lon="2.54398">
        <ele>559.1</ele>
        <time>2011-06-15T18:07:47Z</time>
      </trkpt>
      <trkpt lat="44.34741" lon="2.54398">
        <ele>559.2</ele>
        <time>2011-06-15T18:07:48Z</time>
      </trkpt>
      <trkpt lat="44.34747" lon="2.54397">
        <ele>559.3</ele>
        <time>2011-06-15T18:07:49Z</time>
      </trkpt>
      <trkpt lat="44.34753" lon="2.54396">
        <ele>559.4</ele>
        <time>2011-06-15T18:07:50Z</time>
      </trkpt>
      <trkpt lat="44.34759" lon="2.54395">
        <ele>559.9</ele>
        <time>2011-06-15T18:07:51Z</time>
      </trkpt>
      <trkpt lat="44.34765" lon="2.54393">
        <ele>560.3</ele>
        <time>2011-06-15T18:07:52Z</time>
      </trkpt>
      <trkpt lat="44.34771" lon="2.54391">
        <ele>560.6</ele>
        <time>2011-06-15T18:07:53Z</time>
      </trkpt>
      <trkpt lat="44.34777" lon="2.54388">
        <ele>560.8</ele>
        <time>2011-06-15T18:07:54Z</time>
      </trkpt>
      <trkpt lat="44.34781" lon="2.54386">
        <ele>561.8</ele>
        <time>2011-06-15T18:07:55Z</time>
      </trkpt>
      <trkpt lat="44.34784" lon="2.54384">
        <ele>562.4</ele>
        <time>2011-06-15T18:07:56Z</time>
      </trkpt>
      <trkpt lat="44.34788" lon="2.54384">
        <ele>563</ele>
        <time>2011-06-15T18:07:57Z</time>
      </trkpt>
      <trkpt lat="44.34793" lon="2.54384">
        <ele>563.9</ele>
        <time>2011-06-15T18:07:58Z</time>
      </trkpt>
      <trkpt lat="44.34797" lon="2.54385">
        <ele>564.7</ele>
        <time>2011-06-15T18:07:59Z</time>
      </trkpt>
      <trkpt lat="44.34801" lon="2.54386">
        <ele>565.2</ele>
        <time>2011-06-15T18:08:00Z</time>
      </trkpt>
      <trkpt lat="44.34806" lon="2.54387">
        <ele>564.8</ele>
        <time>2011-06-15T18:08:01Z</time>
      </trkpt>
      <trkpt lat="44.34811" lon="2.54387">
        <ele>564.6</ele>
        <time>2011-06-15T18:08:02Z</time>
      </trkpt>
      <trkpt lat="44.34815" lon="2.54385">
        <ele>564.4</ele>
        <time>2011-06-15T18:08:03Z</time>
      </trkpt>
      <trkpt lat="44.3482" lon="2.54382">
        <ele>564.2</ele>
        <time>2011-06-15T18:08:04Z</time>
      </trkpt>
      <trkpt lat="44.34825" lon="2.54379">
        <ele>564.1</ele>
        <time>2011-06-15T18:08:05Z</time>
      </trkpt>
      <trkpt lat="44.34829" lon="2.54375">
        <ele>564</ele>
        <time>2011-06-15T18:08:06Z</time>
      </trkpt>
      <trkpt lat="44.34834" lon="2.54372">
        <ele>563.8</ele>
        <time>2011-06-15T18:08:07Z</time>
      </trkpt>
      <trkpt lat="44.34839" lon="2.5437">
        <ele>563.6</ele>
        <time>2011-06-15T18:08:08Z</time>
      </trkpt>
      <trkpt lat="44.34845" lon="2.54369">
        <ele>563.5</ele>
        <time>2011-06-15T18:08:09Z</time>
      </trkpt>
      <trkpt lat="44.34851" lon="2.54368">
        <ele>563.1</ele>
        <time>2011-06-15T18:08:10Z</time>
      </trkpt>
      <trkpt lat="44.34857" lon="2.54367">
        <ele>562.9</ele>
        <time>2011-06-15T18:08:11Z</time>
      </trkpt>
      <trkpt lat="44.34863" lon="2.54364">
        <ele>562.7</ele>
        <time>2011-06-15T18:08:12Z</time>
      </trkpt>
      <trkpt lat="44.34869" lon="2.5436">
        <ele>562.5</ele>
        <time>2011-06-15T18:08:13Z</time>
      </trkpt>
      <trkpt lat="44.34873" lon="2.54355">
        <ele>562</ele>
        <time>2011-06-15T18:08:14Z</time>
      </trkpt>
      <trkpt lat="44.34877" lon="2.54349">
        <ele>561.6</ele>
        <time>2011-06-15T18:08:15Z</time>
      </trkpt>
      <trkpt lat="44.34879" lon="2.54343">
        <ele>561.3</ele>
        <time>2011-06-15T18:08:16Z</time>
      </trkpt>
      <trkpt lat="44.34881" lon="2.54337">
        <ele>561.4</ele>
        <time>2011-06-15T18:08:17Z</time>
      </trkpt>
      <trkpt lat="44.34882" lon="2.5433">
        <ele>561.4</ele>
        <time>2011-06-15T18:08:18Z</time>
      </trkpt>
      <trkpt lat="44.34883" lon="2.54324">
        <ele>561.4</ele>
        <time>2011-06-15T18:08:19Z</time>
      </trkpt>
      <trkpt lat="44.34884" lon="2.54318">
        <ele>561.5</ele>
        <time>2011-06-15T18:08:20Z</time>
      </trkpt>
      <trkpt lat="44.34885" lon="2.54311">
        <ele>561.6</ele>
        <time>2011-06-15T18:08:21Z</time>
      </trkpt>
      <trkpt lat="44.34886" lon="2.54305">
        <ele>561.7</ele>
        <time>2011-06-15T18:08:22Z</time>
      </trkpt>
      <trkpt lat="44.34888" lon="2.54299">
        <ele>561.7</ele>
        <time>2011-06-15T18:08:23Z</time>
      </trkpt>
      <trkpt lat="44.3489" lon="2.54294">
        <ele>561.7</ele>
        <time>2011-06-15T18:08:24Z</time>
      </trkpt>
      <trkpt lat="44.34892" lon="2.54289">
        <ele>561.7</ele>
        <time>2011-06-15T18:08:25Z</time>
      </trkpt>
      <trkpt lat="44.34894" lon="2.54284">
        <ele>561.5</ele>
        <time>2011-06-15T18:08:26Z</time>
      </trkpt>
      <trkpt lat="44.34896" lon="2.54278">
        <ele>561.3</ele>
        <time>2011-06-15T18:08:27Z</time>
      </trkpt>
      <trkpt lat="44.34898" lon="2.54274">
        <ele>561.2</ele>
        <time>2011-06-15T18:08:28Z</time>
      </trkpt>
      <trkpt lat="44.349" lon="2.54269">
        <ele>561</ele>
        <time>2011-06-15T18:08:29Z</time>
      </trkpt>
      <trkpt lat="44.34902" lon="2.54265">
        <ele>561</ele>
        <time>2011-06-15T18:08:30Z</time>
      </trkpt>
      <trkpt lat="44.34904" lon="2.5426">
        <ele>561</ele>
        <time>2011-06-15T18:08:31Z</time>
      </trkpt>
      <trkpt lat="44.34907" lon="2.54256">
        <ele>561</ele>
        <time>2011-06-15T18:08:32Z</time>
      </trkpt>
      <trkpt lat="44.34909" lon="2.54251">
        <ele>561</ele>
        <time>2011-06-15T18:08:33Z</time>
      </trkpt>
      <trkpt lat="44.34911" lon="2.54247">
        <ele>560.9</ele>
        <time>2011-06-15T18:08:34Z</time>
      </trkpt>
      <trkpt lat="44.34913" lon="2.54243">
        <ele>560.9</ele>
        <time>2011-06-15T18:08:35Z</time>
      </trkpt>
      <trkpt lat="44.34916" lon="2.5424">
        <ele>561.4</ele>
        <time>2011-06-15T18:08:36Z</time>
      </trkpt>
      <trkpt lat="44.34919" lon="2.54237">
        <ele>561.7</ele>
        <time>2011-06-15T18:08:37Z</time>
      </trkpt>
      <trkpt lat="44.34921" lon="2.54234">
        <ele>562</ele>
        <time>2011-06-15T18:08:38Z</time>
      </trkpt>
      <trkpt lat="44.34923" lon="2.5423">
        <ele>562.8</ele>
        <time>2011-06-15T18:08:39Z</time>
      </trkpt>
      <trkpt lat="44.34926" lon="2.54227">
        <ele>563.5</ele>
        <time>2011-06-15T18:08:40Z</time>
      </trkpt>
      <trkpt lat="44.34928" lon="2.54223">
        <ele>564</ele>
        <time>2011-06-15T18:08:41Z</time>
      </trkpt>
      <trkpt lat="44.34931" lon="2.54219">
        <ele>564.1</ele>
        <time>2011-06-15T18:08:42Z</time>
      </trkpt>
      <trkpt lat="44.34933" lon="2.54216">
        <ele>564.2</ele>
        <time>2011-06-15T18:08:43Z</time>
      </trkpt>
      <trkpt lat="44.34935" lon="2.54213">
        <ele>564.2</ele>
        <time>2011-06-15T18:08:44Z</time>
      </trkpt>
      <trkpt lat="44.34937" lon="2.5421">
        <ele>564.2</ele>
        <time>2011-06-15T18:08:45Z</time>
      </trkpt>
      <trkpt lat="44.34939" lon="2.54207">
        <ele>564.3</ele>
        <time>2011-06-15T18:08:46Z</time>
      </trkpt>
      <trkpt lat="44.34942" lon="2.54204">
        <ele>564.3</ele>
        <time>2011-06-15T18:08:47Z</time>
      </trkpt>
      <trkpt lat="44.34944" lon="2.54202">
        <ele>564.3</ele>
        <time>2011-06-15T18:08:48Z</time>
      </trkpt>
      <trkpt lat="44.34947" lon="2.54199">
        <ele>564.3</ele>
        <time>2011-06-15T18:08:49Z</time>
      </trkpt>
      <trkpt lat="44.34949" lon="2.54197">
        <ele>564.3</ele>
        <time>2011-06-15T18:08:50Z</time>
      </trkpt>
      <trkpt lat="44.34952" lon="2.54195">
        <ele>564.3</ele>
        <time>2011-06-15T18:08:51Z</time>
      </trkpt>
      <trkpt lat="44.34954" lon="2.54193">
        <ele>564.3</ele>
        <time>2011-06-15T18:08:52Z</time>
      </trkpt>
      <trkpt lat="44.34956" lon="2.54191">
        <ele>564.4</ele>
        <time>2011-06-15T18:08:53Z</time>
      </trkpt>
      <trkpt lat="44.34958" lon="2.54189">
        <ele>564.4</ele>
        <time>2011-06-15T18:08:54Z</time>
      </trkpt>
      <trkpt lat="44.3496" lon="2.54187">
        <ele>564.8</ele>
        <time>2011-06-15T18:08:55Z</time>
      </trkpt>
      <trkpt lat="44.34963" lon="2.54186">
        <ele>565.2</ele>
        <time>2011-06-15T18:08:56Z</time>
      </trkpt>
      <trkpt lat="44.34966" lon="2.54184">
        <ele>565.4</ele>
        <time>2011-06-15T18:08:57Z</time>
      </trkpt>
      <trkpt lat="44.34969" lon="2.54183">
        <ele>565.2</ele>
        <time>2011-06-15T18:08:58Z</time>
      </trkpt>
      <trkpt lat="44.34971" lon="2.54181">
        <ele>565</ele>
        <time>2011-06-15T18:08:59Z</time>
      </trkpt>
      <trkpt lat="44.34974" lon="2.5418">
        <ele>564.9</ele>
        <time>2011-06-15T18:09:00Z</time>
      </trkpt>
      <trkpt lat="44.34977" lon="2.54179">
        <ele>564.7</ele>
        <time>2011-06-15T18:09:01Z</time>
      </trkpt>
      <trkpt lat="44.34981" lon="2.54178">
        <ele>564.7</ele>
        <time>2011-06-15T18:09:02Z</time>
      </trkpt>
      <trkpt lat="44.34984" lon="2.54177">
        <ele>564.6</ele>
        <time>2011-06-15T18:09:03Z</time>
      </trkpt>
      <trkpt lat="44.34988" lon="2.54175">
        <ele>564.5</ele>
        <time>2011-06-15T18:09:04Z</time>
      </trkpt>
      <trkpt lat="44.34992" lon="2.54174">
        <ele>564.2</ele>
        <time>2011-06-15T18:09:05Z</time>
      </trkpt>
      <trkpt lat="44.34996" lon="2.54172">
        <ele>563.9</ele>
        <time>2011-06-15T18:09:06Z</time>
      </trkpt>
      <trkpt lat="44.35001" lon="2.54169">
        <ele>563.7</ele>
        <time>2011-06-15T18:09:07Z</time>
      </trkpt>
      <trkpt lat="44.35006" lon="2.54167">
        <ele>563.9</ele>
        <time>2011-06-15T18:09:08Z</time>
      </trkpt>
      <trkpt lat="44.35011" lon="2.54164">
        <ele>564</ele>
        <time>2011-06-15T18:09:09Z</time>
      </trkpt>
      <trkpt lat="44.35016" lon="2.54161">
        <ele>564.1</ele>
        <time>2011-06-15T18:09:10Z</time>
      </trkpt>
      <trkpt lat="44.35022" lon="2.54158">
        <ele>563.8</ele>
        <time>2011-06-15T18:09:11Z</time>
      </trkpt>
      <trkpt lat="44.35027" lon="2.54155">
        <ele>563.6</ele>
        <time>2011-06-15T18:09:12Z</time>
      </trkpt>
      <trkpt lat="44.35033" lon="2.54151">
        <ele>563.4</ele>
        <time>2011-06-15T18:09:13Z</time>
      </trkpt>
      <trkpt lat="44.35038" lon="2.54147">
        <ele>563</ele>
        <time>2011-06-15T18:09:14Z</time>
      </trkpt>
      <trkpt lat="44.35043" lon="2.54144">
        <ele>562.8</ele>
        <time>2011-06-15T18:09:15Z</time>
      </trkpt>
      <trkpt lat="44.35048" lon="2.54141">
        <ele>562.5</ele>
        <time>2011-06-15T18:09:16Z</time>
      </trkpt>
      <trkpt lat="44.35053" lon="2.54138">
        <ele>562.4</ele>
        <time>2011-06-15T18:09:17Z</time>
      </trkpt>
      <trkpt lat="44.35057" lon="2.54135">
        <ele>562.3</ele>
        <time>2011-06-15T18:09:18Z</time>
      </trkpt>
      <trkpt lat="44.35061" lon="2.54132">
        <ele>562.3</ele>
        <time>2011-06-15T18:09:19Z</time>
      </trkpt>
      <trkpt lat="44.35065" lon="2.54129">
        <ele>562.2</ele>
        <time>2011-06-15T18:09:20Z</time>
      </trkpt>
      <trkpt lat="44.35069" lon="2.54127">
        <ele>562.4</ele>
        <time>2011-06-15T18:09:21Z</time>
      </trkpt>
      <trkpt lat="44.35073" lon="2.54124">
        <ele>562.6</ele>
        <time>2011-06-15T18:09:22Z</time>
      </trkpt>
      <trkpt lat="44.35077" lon="2.54121">
        <ele>562.7</ele>
        <time>2011-06-15T18:09:23Z</time>
      </trkpt>
      <trkpt lat="44.3508" lon="2.54118">
        <ele>563.1</ele>
        <time>2011-06-15T18:09:24Z</time>
      </trkpt>
      <trkpt lat="44.35085" lon="2.54115">
        <ele>563.5</ele>
        <time>2011-06-15T18:09:25Z</time>
      </trkpt>
      <trkpt lat="44.35089" lon="2.54112">
        <ele>563.7</ele>
        <time>2011-06-15T18:09:26Z</time>
      </trkpt>
      <trkpt lat="44.35092" lon="2.54109">
        <ele>563.6</ele>
        <time>2011-06-15T18:09:27Z</time>
      </trkpt>
      <trkpt lat="44.35096" lon="2.54105">
        <ele>563.5</ele>
        <time>2011-06-15T18:09:28Z</time>
      </trkpt>
      <trkpt lat="44.35099" lon="2.54103">
        <ele>563.4</ele>
        <time>2011-06-15T18:09:29Z</time>
      </trkpt>
      <trkpt lat="44.35103" lon="2.54099">
        <ele>563.6</ele>
        <time>2011-06-15T18:09:30Z</time>
      </trkpt>
      <trkpt lat="44.35106" lon="2.54096">
        <ele>563.7</ele>
        <time>2011-06-15T18:09:31Z</time>
      </trkpt>
      <trkpt lat="44.3511" lon="2.54092">
        <ele>563.8</ele>
        <time>2011-06-15T18:09:32Z</time>
      </trkpt>
      <trkpt lat="44.35114" lon="2.54088">
        <ele>563.9</ele>
        <time>2011-06-15T18:09:33Z</time>
      </trkpt>
      <trkpt lat="44.35118" lon="2.54084">
        <ele>564</ele>
        <time>2011-06-15T18:09:34Z</time>
      </trkpt>
      <trkpt lat="44.35122" lon="2.5408">
        <ele>564</ele>
        <time>2011-06-15T18:09:35Z</time>
      </trkpt>
      <trkpt lat="44.35125" lon="2.54077">
        <ele>564.1</ele>
        <time>2011-06-15T18:09:36Z</time>
      </trkpt>
      <trkpt lat="44.35129" lon="2.54073">
        <ele>564</ele>
        <time>2011-06-15T18:09:37Z</time>
      </trkpt>
      <trkpt lat="44.35133" lon="2.54069">
        <ele>563.9</ele>
        <time>2011-06-15T18:09:38Z</time>
      </trkpt>
      <trkpt lat="44.35138" lon="2.54066">
        <ele>563.8</ele>
        <time>2011-06-15T18:09:39Z</time>
      </trkpt>
      <trkpt lat="44.35142" lon="2.54063">
        <ele>563.2</ele>
        <time>2011-06-15T18:09:40Z</time>
      </trkpt>
      <trkpt lat="44.35147" lon="2.5406">
        <ele>562.7</ele>
        <time>2011-06-15T18:09:41Z</time>
      </trkpt>
      <trkpt lat="44.35152" lon="2.54056">
        <ele>562.3</ele>
        <time>2011-06-15T18:09:42Z</time>
      </trkpt>
      <trkpt lat="44.35157" lon="2.54053">
        <ele>562.6</ele>
        <time>2011-06-15T18:09:43Z</time>
      </trkpt>
      <trkpt lat="44.35161" lon="2.5405">
        <ele>562.7</ele>
        <time>2011-06-15T18:09:44Z</time>
      </trkpt>
      <trkpt lat="44.35165" lon="2.54046">
        <ele>562.9</ele>
        <time>2011-06-15T18:09:45Z</time>
      </trkpt>
      <trkpt lat="44.3517" lon="2.54042">
        <ele>562.8</ele>
        <time>2011-06-15T18:09:46Z</time>
      </trkpt>
      <trkpt lat="44.35174" lon="2.54038">
        <ele>562.8</ele>
        <time>2011-06-15T18:09:47Z</time>
      </trkpt>
      <trkpt lat="44.35178" lon="2.54034">
        <ele>562.8</ele>
        <time>2011-06-15T18:09:48Z</time>
      </trkpt>
      <trkpt lat="44.35182" lon="2.5403">
        <ele>563</ele>
        <time>2011-06-15T18:09:49Z</time>
      </trkpt>
      <trkpt lat="44.35186" lon="2.54025">
        <ele>563.1</ele>
        <time>2011-06-15T18:09:50Z</time>
      </trkpt>
      <trkpt lat="44.3519" lon="2.54021">
        <ele>563.2</ele>
        <time>2011-06-15T18:09:51Z</time>
      </trkpt>
      <trkpt lat="44.35194" lon="2.54017">
        <ele>563.2</ele>
        <time>2011-06-15T18:09:52Z</time>
      </trkpt>
      <trkpt lat="44.35197" lon="2.54013">
        <ele>563</ele>
        <time>2011-06-15T18:09:53Z</time>
      </trkpt>
      <trkpt lat="44.35201" lon="2.54007">
        <ele>562.8</ele>
        <time>2011-06-15T18:09:54Z</time>
      </trkpt>
      <trkpt lat="44.35205" lon="2.54002">
        <ele>562.7</ele>
        <time>2011-06-15T18:09:55Z</time>
      </trkpt>
      <trkpt lat="44.35208" lon="2.53996">
        <ele>562.6</ele>
        <time>2011-06-15T18:09:56Z</time>
      </trkpt>
      <trkpt lat="44.35212" lon="2.53991">
        <ele>562.6</ele>
        <time>2011-06-15T18:09:57Z</time>
      </trkpt>
      <trkpt lat="44.35216" lon="2.53986">
        <ele>562.6</ele>
        <time>2011-06-15T18:09:58Z</time>
      </trkpt>
      <trkpt lat="44.3522" lon="2.5398">
        <ele>562.6</ele>
        <time>2011-06-15T18:09:59Z</time>
      </trkpt>
      <trkpt lat="44.35224" lon="2.53975">
        <ele>562.6</ele>
        <time>2011-06-15T18:10:00Z</time>
      </trkpt>
      <trkpt lat="44.35228" lon="2.5397">
        <ele>562.6</ele>
        <time>2011-06-15T18:10:01Z</time>
      </trkpt>
      <trkpt lat="44.35231" lon="2.53965">
        <ele>562.7</ele>
        <time>2011-06-15T18:10:02Z</time>
      </trkpt>
      <trkpt lat="44.35235" lon="2.53959">
        <ele>562.8</ele>
        <time>2011-06-15T18:10:03Z</time>
      </trkpt>
      <trkpt lat="44.35239" lon="2.53954">
        <ele>562.9</ele>
        <time>2011-06-15T18:10:04Z</time>
      </trkpt>
      <trkpt lat="44.35242" lon="2.53949">
        <ele>562.6</ele>
        <time>2011-06-15T18:10:05Z</time>
      </trkpt>
      <trkpt lat="44.35246" lon="2.53944">
        <ele>562.3</ele>
        <time>2011-06-15T18:10:06Z</time>
      </trkpt>
      <trkpt lat="44.35249" lon="2.53939">
        <ele>562.1</ele>
        <time>2011-06-15T18:10:07Z</time>
      </trkpt>
      <trkpt lat="44.35252" lon="2.53934">
        <ele>562</ele>
        <time>2011-06-15T18:10:08Z</time>
      </trkpt>
      <trkpt lat="44.35255" lon="2.53929">
        <ele>562.2</ele>
        <time>2011-06-15T18:10:09Z</time>
      </trkpt>
      <trkpt lat="44.35257" lon="2.53924">
        <ele>562.5</ele>
        <time>2011-06-15T18:10:10Z</time>
      </trkpt>
      <trkpt lat="44.3526" lon="2.5392">
        <ele>562.6</ele>
        <time>2011-06-15T18:10:11Z</time>
      </trkpt>
      <trkpt lat="44.35263" lon="2.53915">
        <ele>562.7</ele>
        <time>2011-06-15T18:10:12Z</time>
      </trkpt>
      <trkpt lat="44.35267" lon="2.53911">
        <ele>562.7</ele>
        <time>2011-06-15T18:10:13Z</time>
      </trkpt>
      <trkpt lat="44.3527" lon="2.53907">
        <ele>562.7</ele>
        <time>2011-06-15T18:10:14Z</time>
      </trkpt>
      <trkpt lat="44.35274" lon="2.53903">
        <ele>562.5</ele>
        <time>2011-06-15T18:10:15Z</time>
      </trkpt>
      <trkpt lat="44.35278" lon="2.53899">
        <ele>562.3</ele>
        <time>2011-06-15T18:10:16Z</time>
      </trkpt>
      <trkpt lat="44.35282" lon="2.53896">
        <ele>562.2</ele>
        <time>2011-06-15T18:10:17Z</time>
      </trkpt>
      <trkpt lat="44.35286" lon="2.53892">
        <ele>562.1</ele>
        <time>2011-06-15T18:10:18Z</time>
      </trkpt>
      <trkpt lat="44.3529" lon="2.53889">
        <ele>562</ele>
        <time>2011-06-15T18:10:19Z</time>
      </trkpt>
      <trkpt lat="44.35293" lon="2.53885">
        <ele>561.9</ele>
        <time>2011-06-15T18:10:20Z</time>
      </trkpt>
      <trkpt lat="44.35297" lon="2.53882">
        <ele>562.2</ele>
        <time>2011-06-15T18:10:21Z</time>
      </trkpt>
      <trkpt lat="44.35301" lon="2.53879">
        <ele>562.5</ele>
        <time>2011-06-15T18:10:22Z</time>
      </trkpt>
      <trkpt lat="44.35305" lon="2.53876">
        <ele>562.7</ele>
        <time>2011-06-15T18:10:23Z</time>
      </trkpt>
      <trkpt lat="44.35309" lon="2.53873">
        <ele>562.8</ele>
        <time>2011-06-15T18:10:24Z</time>
      </trkpt>
      <trkpt lat="44.35312" lon="2.5387">
        <ele>562.8</ele>
        <time>2011-06-15T18:10:25Z</time>
      </trkpt>
      <trkpt lat="44.35315" lon="2.53867">
        <ele>562.8</ele>
        <time>2011-06-15T18:10:26Z</time>
      </trkpt>
      <trkpt lat="44.35318" lon="2.53865">
        <ele>562.7</ele>
        <time>2011-06-15T18:10:27Z</time>
      </trkpt>
      <trkpt lat="44.35321" lon="2.53862">
        <ele>563.2</ele>
        <time>2011-06-15T18:10:28Z</time>
      </trkpt>
      <trkpt lat="44.35324" lon="2.5386">
        <ele>563.5</ele>
        <time>2011-06-15T18:10:29Z</time>
      </trkpt>
      <trkpt lat="44.35327" lon="2.53859">
        <ele>563.8</ele>
        <time>2011-06-15T18:10:30Z</time>
      </trkpt>
      <trkpt lat="44.35331" lon="2.53857">
        <ele>563.9</ele>
        <time>2011-06-15T18:10:31Z</time>
      </trkpt>
      <trkpt lat="44.35334" lon="2.53856">
        <ele>564</ele>
        <time>2011-06-15T18:10:32Z</time>
      </trkpt>
      <trkpt lat="44.35337" lon="2.53855">
        <ele>564</ele>
        <time>2011-06-15T18:10:33Z</time>
      </trkpt>
      <trkpt lat="44.3534" lon="2.53853">
        <ele>564.1</ele>
        <time>2011-06-15T18:10:34Z</time>
      </trkpt>
      <trkpt lat="44.35343" lon="2.53852">
        <ele>564.1</ele>
        <time>2011-06-15T18:10:35Z</time>
      </trkpt>
      <trkpt lat="44.35346" lon="2.53851">
        <ele>564.1</ele>
        <time>2011-06-15T18:10:36Z</time>
      </trkpt>
      <trkpt lat="44.35349" lon="2.5385">
        <ele>564</ele>
        <time>2011-06-15T18:10:37Z</time>
      </trkpt>
      <trkpt lat="44.35352" lon="2.53848">
        <ele>564</ele>
        <time>2011-06-15T18:10:38Z</time>
      </trkpt>
      <trkpt lat="44.35354" lon="2.53846">
        <ele>563.9</ele>
        <time>2011-06-15T18:10:39Z</time>
      </trkpt>
      <trkpt lat="44.35357" lon="2.53844">
        <ele>563.9</ele>
        <time>2011-06-15T18:10:40Z</time>
      </trkpt>
      <trkpt lat="44.35361" lon="2.53843">
        <ele>564.2</ele>
        <time>2011-06-15T18:10:43Z</time>
      </trkpt>
      <trkpt lat="44.35364" lon="2.53841">
        <ele>564.5</ele>
        <time>2011-06-15T18:10:55Z</time>
      </trkpt>
      <trkpt lat="44.35367" lon="2.53838">
        <ele>564.5</ele>
        <time>2011-06-15T18:10:57Z</time>
      </trkpt>
      <trkpt lat="44.35369" lon="2.53837">
        <ele>564.3</ele>
        <time>2011-06-15T18:10:58Z</time>
      </trkpt>
      <trkpt lat="44.35371" lon="2.53835">
        <ele>564.2</ele>
        <time>2011-06-15T18:10:59Z</time>
      </trkpt>
      <trkpt lat="44.35373" lon="2.53833">
        <ele>564</ele>
        <time>2011-06-15T18:11:00Z</time>
      </trkpt>
      <trkpt lat="44.35376" lon="2.53831">
        <ele>563.9</ele>
        <time>2011-06-15T18:11:01Z</time>
      </trkpt>
      <trkpt lat="44.35379" lon="2.53829">
        <ele>563.8</ele>
        <time>2011-06-15T18:11:02Z</time>
      </trkpt>
      <trkpt lat="44.35381" lon="2.53827">
        <ele>563.8</ele>
        <time>2011-06-15T18:11:03Z</time>
      </trkpt>
      <trkpt lat="44.35384" lon="2.53824">
        <ele>563.8</ele>
        <time>2011-06-15T18:11:04Z</time>
      </trkpt>
      <trkpt lat="44.35387" lon="2.53822">
        <ele>563.8</ele>
        <time>2011-06-15T18:11:05Z</time>
      </trkpt>
      <trkpt lat="44.3539" lon="2.53819">
        <ele>563.3</ele>
        <time>2011-06-15T18:11:06Z</time>
      </trkpt>
      <trkpt lat="44.35393" lon="2.53817">
        <ele>562.9</ele>
        <time>2011-06-15T18:11:07Z</time>
      </trkpt>
      <trkpt lat="44.35397" lon="2.53815">
        <ele>562.6</ele>
        <time>2011-06-15T18:11:08Z</time>
      </trkpt>
      <trkpt lat="44.354" lon="2.53813">
        <ele>562.8</ele>
        <time>2011-06-15T18:11:09Z</time>
      </trkpt>
      <trkpt lat="44.35403" lon="2.5381">
        <ele>562.9</ele>
        <time>2011-06-15T18:11:10Z</time>
      </trkpt>
      <trkpt lat="44.35407" lon="2.53808">
        <ele>563</ele>
        <time>2011-06-15T18:11:11Z</time>
      </trkpt>
      <trkpt lat="44.3541" lon="2.53806">
        <ele>563.2</ele>
        <time>2011-06-15T18:11:12Z</time>
      </trkpt>
      <trkpt lat="44.35413" lon="2.53804">
        <ele>563.3</ele>
        <time>2011-06-15T18:11:13Z</time>
      </trkpt>
      <trkpt lat="44.35415" lon="2.53801">
        <ele>563.4</ele>
        <time>2011-06-15T18:11:14Z</time>
      </trkpt>
      <trkpt lat="44.35418" lon="2.53799">
        <ele>563.4</ele>
        <time>2011-06-15T18:11:15Z</time>
      </trkpt>
      <trkpt lat="44.35421" lon="2.53797">
        <ele>563.5</ele>
        <time>2011-06-15T18:11:16Z</time>
      </trkpt>
      <trkpt lat="44.35425" lon="2.53795">
        <ele>563.5</ele>
        <time>2011-06-15T18:11:17Z</time>
      </trkpt>
      <trkpt lat="44.35428" lon="2.53793">
        <ele>563.6</ele>
        <time>2011-06-15T18:11:18Z</time>
      </trkpt>
      <trkpt lat="44.35431" lon="2.53791">
        <ele>563.6</ele>
        <time>2011-06-15T18:11:19Z</time>
      </trkpt>
      <trkpt lat="44.35434" lon="2.53789">
        <ele>563.6</ele>
        <time>2011-06-15T18:11:20Z</time>
      </trkpt>
      <trkpt lat="44.35437" lon="2.53787">
        <ele>563.7</ele>
        <time>2011-06-15T18:11:21Z</time>
      </trkpt>
      <trkpt lat="44.3544" lon="2.53784">
        <ele>564</ele>
        <time>2011-06-15T18:11:22Z</time>
      </trkpt>
      <trkpt lat="44.35443" lon="2.53783">
        <ele>564.2</ele>
        <time>2011-06-15T18:11:23Z</time>
      </trkpt>
      <trkpt lat="44.35446" lon="2.5378">
        <ele>564.4</ele>
        <time>2011-06-15T18:11:24Z</time>
      </trkpt>
      <trkpt lat="44.3545" lon="2.53778">
        <ele>564.3</ele>
        <time>2011-06-15T18:11:25Z</time>
      </trkpt>
      <trkpt lat="44.35453" lon="2.53777">
        <ele>564.2</ele>
        <time>2011-06-15T18:11:26Z</time>
      </trkpt>
      <trkpt lat="44.35456" lon="2.53775">
        <ele>564.2</ele>
        <time>2011-06-15T18:11:27Z</time>
      </trkpt>
      <trkpt lat="44.3546" lon="2.53773">
        <ele>564.4</ele>
        <time>2011-06-15T18:11:28Z</time>
      </trkpt>
      <trkpt lat="44.35463" lon="2.53772">
        <ele>564.6</ele>
        <time>2011-06-15T18:11:29Z</time>
      </trkpt>
      <trkpt lat="44.35466" lon="2.53771">
        <ele>564.7</ele>
        <time>2011-06-15T18:11:30Z</time>
      </trkpt>
      <trkpt lat="44.35469" lon="2.5377">
        <ele>564.8</ele>
        <time>2011-06-15T18:11:31Z</time>
      </trkpt>
      <trkpt lat="44.35472" lon="2.53769">
        <ele>564.6</ele>
        <time>2011-06-15T18:11:32Z</time>
      </trkpt>
      <trkpt lat="44.35476" lon="2.53769">
        <ele>564.5</ele>
        <time>2011-06-15T18:11:33Z</time>
      </trkpt>
      <trkpt lat="44.3548" lon="2.53769">
        <ele>564.4</ele>
        <time>2011-06-15T18:11:34Z</time>
      </trkpt>
      <trkpt lat="44.35484" lon="2.53769">
        <ele>564.2</ele>
        <time>2011-06-15T18:11:35Z</time>
      </trkpt>
      <trkpt lat="44.35489" lon="2.53769">
        <ele>564.1</ele>
        <time>2011-06-15T18:11:36Z</time>
      </trkpt>
      <trkpt lat="44.35493" lon="2.53769">
        <ele>564</ele>
        <time>2011-06-15T18:11:37Z</time>
      </trkpt>
      <trkpt lat="44.35498" lon="2.5377">
        <ele>563.8</ele>
        <time>2011-06-15T18:11:38Z</time>
      </trkpt>
      <trkpt lat="44.35502" lon="2.5377">
        <ele>563.7</ele>
        <time>2011-06-15T18:11:39Z</time>
      </trkpt>
      <trkpt lat="44.35506" lon="2.5377">
        <ele>563.6</ele>
        <time>2011-06-15T18:11:40Z</time>
      </trkpt>
      <trkpt lat="44.35511" lon="2.53771">
        <ele>563.6</ele>
        <time>2011-06-15T18:11:41Z</time>
      </trkpt>
      <trkpt lat="44.35516" lon="2.53771">
        <ele>563.5</ele>
        <time>2011-06-15T18:11:42Z</time>
      </trkpt>
      <trkpt lat="44.3552" lon="2.53772">
        <ele>563.4</ele>
        <time>2011-06-15T18:11:43Z</time>
      </trkpt>
      <trkpt lat="44.35525" lon="2.53774">
        <ele>563.5</ele>
        <time>2011-06-15T18:11:44Z</time>
      </trkpt>
      <trkpt lat="44.3553" lon="2.53775">
        <ele>563.5</ele>
        <time>2011-06-15T18:11:45Z</time>
      </trkpt>
      <trkpt lat="44.35535" lon="2.53777">
        <ele>563.5</ele>
        <time>2011-06-15T18:11:46Z</time>
      </trkpt>
      <trkpt lat="44.3554" lon="2.5378">
        <ele>563.5</ele>
        <time>2011-06-15T18:11:47Z</time>
      </trkpt>
      <trkpt lat="44.35545" lon="2.53782">
        <ele>563.7</ele>
        <time>2011-06-15T18:11:48Z</time>
      </trkpt>
      <trkpt lat="44.35549" lon="2.53785">
        <ele>563.9</ele>
        <time>2011-06-15T18:11:49Z</time>
      </trkpt>
      <trkpt lat="44.35554" lon="2.53788">
        <ele>564</ele>
        <time>2011-06-15T18:11:50Z</time>
      </trkpt>
      <trkpt lat="44.35558" lon="2.53791">
        <ele>563.7</ele>
        <time>2011-06-15T18:11:51Z</time>
      </trkpt>
      <trkpt lat="44.35562" lon="2.53795">
        <ele>563.5</ele>
        <time>2011-06-15T18:11:52Z</time>
      </trkpt>
      <trkpt lat="44.35566" lon="2.53798">
        <ele>563.4</ele>
        <time>2011-06-15T18:11:53Z</time>
      </trkpt>
      <trkpt lat="44.35569" lon="2.53802">
        <ele>563.4</ele>
        <time>2011-06-15T18:11:54Z</time>
      </trkpt>
      <trkpt lat="44.35572" lon="2.53806">
        <ele>563.4</ele>
        <time>2011-06-15T18:11:55Z</time>
      </trkpt>
      <trkpt lat="44.35575" lon="2.53809">
        <ele>563.4</ele>
        <time>2011-06-15T18:11:56Z</time>
      </trkpt>
      <trkpt lat="44.35578" lon="2.53813">
        <ele>563.7</ele>
        <time>2011-06-15T18:11:57Z</time>
      </trkpt>
      <trkpt lat="44.35581" lon="2.53817">
        <ele>564</ele>
        <time>2011-06-15T18:11:58Z</time>
      </trkpt>
      <trkpt lat="44.35584" lon="2.53821">
        <ele>564.2</ele>
        <time>2011-06-15T18:11:59Z</time>
      </trkpt>
      <trkpt lat="44.35588" lon="2.53825">
        <ele>563.8</ele>
        <time>2011-06-15T18:12:00Z</time>
      </trkpt>
      <trkpt lat="44.35591" lon="2.53828">
        <ele>563.6</ele>
        <time>2011-06-15T18:12:01Z</time>
      </trkpt>
      <trkpt lat="44.35594" lon="2.53832">
        <ele>563.4</ele>
        <time>2011-06-15T18:12:02Z</time>
      </trkpt>
      <trkpt lat="44.35598" lon="2.53836">
        <ele>563.2</ele>
        <time>2011-06-15T18:12:03Z</time>
      </trkpt>
      <trkpt lat="44.35601" lon="2.5384">
        <ele>563.3</ele>
        <time>2011-06-15T18:12:04Z</time>
      </trkpt>
      <trkpt lat="44.35604" lon="2.53845">
        <ele>563.3</ele>
        <time>2011-06-15T18:12:05Z</time>
      </trkpt>
      <trkpt lat="44.35607" lon="2.53849">
        <ele>563.3</ele>
        <time>2011-06-15T18:12:06Z</time>
      </trkpt>
      <trkpt lat="44.35611" lon="2.53852">
        <ele>563.7</ele>
        <time>2011-06-15T18:12:07Z</time>
      </trkpt>
      <trkpt lat="44.35615" lon="2.53856">
        <ele>563.9</ele>
        <time>2011-06-15T18:12:08Z</time>
      </trkpt>
      <trkpt lat="44.35618" lon="2.5386">
        <ele>564.1</ele>
        <time>2011-06-15T18:12:09Z</time>
      </trkpt>
      <trkpt lat="44.35622" lon="2.53864">
        <ele>564</ele>
        <time>2011-06-15T18:12:10Z</time>
      </trkpt>
      <trkpt lat="44.35626" lon="2.53867">
        <ele>563.8</ele>
        <time>2011-06-15T18:12:11Z</time>
      </trkpt>
      <trkpt lat="44.35629" lon="2.53871">
        <ele>563.7</ele>
        <time>2011-06-15T18:12:12Z</time>
      </trkpt>
      <trkpt lat="44.35633" lon="2.53875">
        <ele>564</ele>
        <time>2011-06-15T18:12:13Z</time>
      </trkpt>
      <trkpt lat="44.35637" lon="2.5388">
        <ele>564.3</ele>
        <time>2011-06-15T18:12:14Z</time>
      </trkpt>
      <trkpt lat="44.3564" lon="2.53884">
        <ele>564.4</ele>
        <time>2011-06-15T18:12:15Z</time>
      </trkpt>
      <trkpt lat="44.35644" lon="2.53887">
        <ele>564.7</ele>
        <time>2011-06-15T18:12:16Z</time>
      </trkpt>
      <trkpt lat="44.35648" lon="2.53891">
        <ele>565</ele>
        <time>2011-06-15T18:12:17Z</time>
      </trkpt>
      <trkpt lat="44.35652" lon="2.53895">
        <ele>565.1</ele>
        <time>2011-06-15T18:12:18Z</time>
      </trkpt>
      <trkpt lat="44.35655" lon="2.53899">
        <ele>564.7</ele>
        <time>2011-06-15T18:12:19Z</time>
      </trkpt>
      <trkpt lat="44.35659" lon="2.53903">
        <ele>564.4</ele>
        <time>2011-06-15T18:12:20Z</time>
      </trkpt>
      <trkpt lat="44.35662" lon="2.53907">
        <ele>564.1</ele>
        <time>2011-06-15T18:12:21Z</time>
      </trkpt>
      <trkpt lat="44.35666" lon="2.53911">
        <ele>563.9</ele>
        <time>2011-06-15T18:12:22Z</time>
      </trkpt>
      <trkpt lat="44.3567" lon="2.53916">
        <ele>563.9</ele>
        <time>2011-06-15T18:12:23Z</time>
      </trkpt>
      <trkpt lat="44.35673" lon="2.5392">
        <ele>563.9</ele>
        <time>2011-06-15T18:12:24Z</time>
      </trkpt>
      <trkpt lat="44.35676" lon="2.53924">
        <ele>563.9</ele>
        <time>2011-06-15T18:12:25Z</time>
      </trkpt>
      <trkpt lat="44.35679" lon="2.53929">
        <ele>563.9</ele>
        <time>2011-06-15T18:12:26Z</time>
      </trkpt>
      <trkpt lat="44.35681" lon="2.53933">
        <ele>563.9</ele>
        <time>2011-06-15T18:12:27Z</time>
      </trkpt>
      <trkpt lat="44.35684" lon="2.53938">
        <ele>564</ele>
        <time>2011-06-15T18:12:28Z</time>
      </trkpt>
      <trkpt lat="44.35687" lon="2.53943">
        <ele>564.1</ele>
        <time>2011-06-15T18:12:29Z</time>
      </trkpt>
      <trkpt lat="44.35689" lon="2.53948">
        <ele>564.2</ele>
        <time>2011-06-15T18:12:30Z</time>
      </trkpt>
      <trkpt lat="44.35692" lon="2.53953">
        <ele>564.2</ele>
        <time>2011-06-15T18:12:31Z</time>
      </trkpt>
      <trkpt lat="44.35694" lon="2.53958">
        <ele>564.1</ele>
        <time>2011-06-15T18:12:32Z</time>
      </trkpt>
      <trkpt lat="44.35697" lon="2.53963">
        <ele>564.1</ele>
        <time>2011-06-15T18:12:33Z</time>
      </trkpt>
      <trkpt lat="44.35699" lon="2.53968">
        <ele>564</ele>
        <time>2011-06-15T18:12:34Z</time>
      </trkpt>
      <trkpt lat="44.35702" lon="2.53973">
        <ele>564.2</ele>
        <time>2011-06-15T18:12:35Z</time>
      </trkpt>
      <trkpt lat="44.35704" lon="2.53977">
        <ele>564.4</ele>
        <time>2011-06-15T18:12:36Z</time>
      </trkpt>
      <trkpt lat="44.35707" lon="2.53983">
        <ele>564.5</ele>
        <time>2011-06-15T18:12:37Z</time>
      </trkpt>
      <trkpt lat="44.3571" lon="2.53988">
        <ele>564.6</ele>
        <time>2011-06-15T18:12:38Z</time>
      </trkpt>
      <trkpt lat="44.35713" lon="2.53993">
        <ele>564.6</ele>
        <time>2011-06-15T18:12:39Z</time>
      </trkpt>
      <trkpt lat="44.35716" lon="2.53997">
        <ele>564.6</ele>
        <time>2011-06-15T18:12:40Z</time>
      </trkpt>
      <trkpt lat="44.35719" lon="2.54002">
        <ele>564.5</ele>
        <time>2011-06-15T18:12:41Z</time>
      </trkpt>
      <trkpt lat="44.35723" lon="2.54007">
        <ele>564.7</ele>
        <time>2011-06-15T18:12:42Z</time>
      </trkpt>
      <trkpt lat="44.35726" lon="2.54012">
        <ele>564.8</ele>
        <time>2011-06-15T18:12:43Z</time>
      </trkpt>
      <trkpt lat="44.35729" lon="2.54017">
        <ele>564.8</ele>
        <time>2011-06-15T18:12:44Z</time>
      </trkpt>
      <trkpt lat="44.35732" lon="2.54023">
        <ele>564.4</ele>
        <time>2011-06-15T18:12:45Z</time>
      </trkpt>
      <trkpt lat="44.35734" lon="2.54028">
        <ele>564</ele>
        <time>2011-06-15T18:12:46Z</time>
      </trkpt>
      <trkpt lat="44.35737" lon="2.54032">
        <ele>563.7</ele>
        <time>2011-06-15T18:12:47Z</time>
      </trkpt>
      <trkpt lat="44.3574" lon="2.54037">
        <ele>564</ele>
        <time>2011-06-15T18:12:48Z</time>
      </trkpt>
      <trkpt lat="44.35743" lon="2.54041">
        <ele>564.2</ele>
        <time>2011-06-15T18:12:49Z</time>
      </trkpt>
      <trkpt lat="44.35745" lon="2.54046">
        <ele>564.4</ele>
        <time>2011-06-15T18:12:50Z</time>
      </trkpt>
      <trkpt lat="44.35748" lon="2.54051">
        <ele>564.2</ele>
        <time>2011-06-15T18:12:51Z</time>
      </trkpt>
      <trkpt lat="44.35751" lon="2.54056">
        <ele>564.1</ele>
        <time>2011-06-15T18:12:52Z</time>
      </trkpt>
      <trkpt lat="44.35754" lon="2.54061">
        <ele>564</ele>
        <time>2011-06-15T18:12:53Z</time>
      </trkpt>
      <trkpt lat="44.35757" lon="2.54066">
        <ele>564</ele>
        <time>2011-06-15T18:12:54Z</time>
      </trkpt>
      <trkpt lat="44.3576" lon="2.54071">
        <ele>564.5</ele>
        <time>2011-06-15T18:12:55Z</time>
      </trkpt>
      <trkpt lat="44.35764" lon="2.54076">
        <ele>564.9</ele>
        <time>2011-06-15T18:12:56Z</time>
      </trkpt>
      <trkpt lat="44.35767" lon="2.5408">
        <ele>565.3</ele>
        <time>2011-06-15T18:12:57Z</time>
      </trkpt>
      <trkpt lat="44.3577" lon="2.54085">
        <ele>564.8</ele>
        <time>2011-06-15T18:12:58Z</time>
      </trkpt>
      <trkpt lat="44.35773" lon="2.5409">
        <ele>564.4</ele>
        <time>2011-06-15T18:12:59Z</time>
      </trkpt>
      <trkpt lat="44.35776" lon="2.54095">
        <ele>564.1</ele>
        <time>2011-06-15T18:13:00Z</time>
      </trkpt>
      <trkpt lat="44.35779" lon="2.541">
        <ele>563.9</ele>
        <time>2011-06-15T18:13:01Z</time>
      </trkpt>
      <trkpt lat="44.35782" lon="2.54105">
        <ele>563.7</ele>
        <time>2011-06-15T18:13:02Z</time>
      </trkpt>
      <trkpt lat="44.35784" lon="2.5411">
        <ele>563.6</ele>
        <time>2011-06-15T18:13:03Z</time>
      </trkpt>
      <trkpt lat="44.35787" lon="2.54115">
        <ele>563.7</ele>
        <time>2011-06-15T18:13:04Z</time>
      </trkpt>
      <trkpt lat="44.35789" lon="2.54121">
        <ele>563.8</ele>
        <time>2011-06-15T18:13:05Z</time>
      </trkpt>
      <trkpt lat="44.35791" lon="2.54127">
        <ele>563.8</ele>
        <time>2011-06-15T18:13:06Z</time>
      </trkpt>
      <trkpt lat="44.35792" lon="2.54133">
        <ele>563.4</ele>
        <time>2011-06-15T18:13:07Z</time>
      </trkpt>
      <trkpt lat="44.35794" lon="2.54139">
        <ele>563</ele>
        <time>2011-06-15T18:13:08Z</time>
      </trkpt>
      <trkpt lat="44.35795" lon="2.54146">
        <ele>562.8</ele>
        <time>2011-06-15T18:13:09Z</time>
      </trkpt>
      <trkpt lat="44.35795" lon="2.54152">
        <ele>562.6</ele>
        <time>2011-06-15T18:13:10Z</time>
      </trkpt>
      <trkpt lat="44.35796" lon="2.5416">
        <ele>563</ele>
        <time>2011-06-15T18:13:11Z</time>
      </trkpt>
      <trkpt lat="44.35795" lon="2.54167">
        <ele>563.3</ele>
        <time>2011-06-15T18:13:12Z</time>
      </trkpt>
      <trkpt lat="44.35795" lon="2.54174">
        <ele>563.5</ele>
        <time>2011-06-15T18:13:13Z</time>
      </trkpt>
      <trkpt lat="44.35796" lon="2.5418">
        <ele>563.7</ele>
        <time>2011-06-15T18:13:14Z</time>
      </trkpt>
      <trkpt lat="44.35797" lon="2.54187">
        <ele>563.8</ele>
        <time>2011-06-15T18:13:15Z</time>
      </trkpt>
      <trkpt lat="44.35798" lon="2.54193">
        <ele>563.9</ele>
        <time>2011-06-15T18:13:16Z</time>
      </trkpt>
      <trkpt lat="44.35799" lon="2.542">
        <ele>563.4</ele>
        <time>2011-06-15T18:13:17Z</time>
      </trkpt>
      <trkpt lat="44.358" lon="2.54207">
        <ele>563.1</ele>
        <time>2011-06-15T18:13:18Z</time>
      </trkpt>
      <trkpt lat="44.35802" lon="2.54214">
        <ele>562.8</ele>
        <time>2011-06-15T18:13:19Z</time>
      </trkpt>
      <trkpt lat="44.35804" lon="2.54221">
        <ele>562.9</ele>
        <time>2011-06-15T18:13:20Z</time>
      </trkpt>
      <trkpt lat="44.35805" lon="2.54227">
        <ele>563</ele>
        <time>2011-06-15T18:13:21Z</time>
      </trkpt>
      <trkpt lat="44.35807" lon="2.54234">
        <ele>563.1</ele>
        <time>2011-06-15T18:13:22Z</time>
      </trkpt>
      <trkpt lat="44.35808" lon="2.54241">
        <ele>563</ele>
        <time>2011-06-15T18:13:23Z</time>
      </trkpt>
      <trkpt lat="44.35809" lon="2.54247">
        <ele>562.8</ele>
        <time>2011-06-15T18:13:24Z</time>
      </trkpt>
      <trkpt lat="44.3581" lon="2.54253">
        <ele>562.7</ele>
        <time>2011-06-15T18:13:25Z</time>
      </trkpt>
      <trkpt lat="44.35811" lon="2.5426">
        <ele>562.5</ele>
        <time>2011-06-15T18:13:26Z</time>
      </trkpt>
      <trkpt lat="44.35812" lon="2.54266">
        <ele>562.4</ele>
        <time>2011-06-15T18:13:27Z</time>
      </trkpt>
      <trkpt lat="44.35813" lon="2.54272">
        <ele>562.3</ele>
        <time>2011-06-15T18:13:28Z</time>
      </trkpt>
      <trkpt lat="44.35814" lon="2.54279">
        <ele>562.2</ele>
        <time>2011-06-15T18:13:29Z</time>
      </trkpt>
      <trkpt lat="44.35816" lon="2.54286">
        <ele>562.1</ele>
        <time>2011-06-15T18:13:30Z</time>
      </trkpt>
      <trkpt lat="44.35818" lon="2.54293">
        <ele>562</ele>
        <time>2011-06-15T18:13:31Z</time>
      </trkpt>
      <trkpt lat="44.3582" lon="2.543">
        <ele>562</ele>
        <time>2011-06-15T18:13:32Z</time>
      </trkpt>
      <trkpt lat="44.35822" lon="2.54306">
        <ele>562.1</ele>
        <time>2011-06-15T18:13:33Z</time>
      </trkpt>
      <trkpt lat="44.35824" lon="2.54313">
        <ele>562.1</ele>
        <time>2011-06-15T18:13:34Z</time>
      </trkpt>
      <trkpt lat="44.35826" lon="2.54319">
        <ele>562.2</ele>
        <time>2011-06-15T18:13:35Z</time>
      </trkpt>
      <trkpt lat="44.35828" lon="2.54325">
        <ele>561.8</ele>
        <time>2011-06-15T18:13:36Z</time>
      </trkpt>
      <trkpt lat="44.35829" lon="2.54332">
        <ele>561.6</ele>
        <time>2011-06-15T18:13:37Z</time>
      </trkpt>
      <trkpt lat="44.3583" lon="2.54338">
        <ele>561.4</ele>
        <time>2011-06-15T18:13:38Z</time>
      </trkpt>
      <trkpt lat="44.35831" lon="2.54345">
        <ele>561.4</ele>
        <time>2011-06-15T18:13:39Z</time>
      </trkpt>
      <trkpt lat="44.35833" lon="2.54352">
        <ele>561.4</ele>
        <time>2011-06-15T18:13:40Z</time>
      </trkpt>
      <trkpt lat="44.35835" lon="2.54358">
        <ele>561.4</ele>
        <time>2011-06-15T18:13:41Z</time>
      </trkpt>
      <trkpt lat="44.35836" lon="2.54365">
        <ele>561.4</ele>
        <time>2011-06-15T18:13:42Z</time>
      </trkpt>
      <trkpt lat="44.35837" lon="2.54372">
        <ele>561.4</ele>
        <time>2011-06-15T18:13:43Z</time>
      </trkpt>
      <trkpt lat="44.35839" lon="2.54378">
        <ele>561.4</ele>
        <time>2011-06-15T18:13:44Z</time>
      </trkpt>
      <trkpt lat="44.3584" lon="2.54385">
        <ele>561.4</ele>
        <time>2011-06-15T18:13:45Z</time>
      </trkpt>
      <trkpt lat="44.35842" lon="2.54391">
        <ele>561.5</ele>
        <time>2011-06-15T18:13:46Z</time>
      </trkpt>
      <trkpt lat="44.35843" lon="2.54397">
        <ele>561.6</ele>
        <time>2011-06-15T18:13:47Z</time>
      </trkpt>
      <trkpt lat="44.35845" lon="2.54403">
        <ele>561.7</ele>
        <time>2011-06-15T18:13:48Z</time>
      </trkpt>
      <trkpt lat="44.35846" lon="2.5441">
        <ele>561.6</ele>
        <time>2011-06-15T18:13:49Z</time>
      </trkpt>
      <trkpt lat="44.35847" lon="2.54416">
        <ele>561.6</ele>
        <time>2011-06-15T18:13:50Z</time>
      </trkpt>
      <trkpt lat="44.35849" lon="2.54423">
        <ele>561.5</ele>
        <time>2011-06-15T18:13:51Z</time>
      </trkpt>
      <trkpt lat="44.35851" lon="2.54429">
        <ele>561.7</ele>
        <time>2011-06-15T18:13:52Z</time>
      </trkpt>
      <trkpt lat="44.35852" lon="2.54436">
        <ele>561.9</ele>
        <time>2011-06-15T18:13:53Z</time>
      </trkpt>
      <trkpt lat="44.35854" lon="2.54442">
        <ele>562</ele>
        <time>2011-06-15T18:13:54Z</time>
      </trkpt>
      <trkpt lat="44.35855" lon="2.54449">
        <ele>562.2</ele>
        <time>2011-06-15T18:13:55Z</time>
      </trkpt>
      <trkpt lat="44.35856" lon="2.54455">
        <ele>562.3</ele>
        <time>2011-06-15T18:13:56Z</time>
      </trkpt>
      <trkpt lat="44.35857" lon="2.54462">
        <ele>562.4</ele>
        <time>2011-06-15T18:13:57Z</time>
      </trkpt>
      <trkpt lat="44.35858" lon="2.54469">
        <ele>562.3</ele>
        <time>2011-06-15T18:13:58Z</time>
      </trkpt>
      <trkpt lat="44.35859" lon="2.54475">
        <ele>562.2</ele>
        <time>2011-06-15T18:13:59Z</time>
      </trkpt>
      <trkpt lat="44.3586" lon="2.54482">
        <ele>562.1</ele>
        <time>2011-06-15T18:14:00Z</time>
      </trkpt>
      <trkpt lat="44.35861" lon="2.54489">
        <ele>562.1</ele>
        <time>2011-06-15T18:14:01Z</time>
      </trkpt>
      <trkpt lat="44.35862" lon="2.54496">
        <ele>562.4</ele>
        <time>2011-06-15T18:14:02Z</time>
      </trkpt>
      <trkpt lat="44.35862" lon="2.54502">
        <ele>562.6</ele>
        <time>2011-06-15T18:14:03Z</time>
      </trkpt>
      <trkpt lat="44.35862" lon="2.54509">
        <ele>562.7</ele>
        <time>2011-06-15T18:14:04Z</time>
      </trkpt>
      <trkpt lat="44.35863" lon="2.54516">
        <ele>562.7</ele>
        <time>2011-06-15T18:14:05Z</time>
      </trkpt>
      <trkpt lat="44.35863" lon="2.54522">
        <ele>562.6</ele>
        <time>2011-06-15T18:14:06Z</time>
      </trkpt>
      <trkpt lat="44.35863" lon="2.54529">
        <ele>562.5</ele>
        <time>2011-06-15T18:14:07Z</time>
      </trkpt>
      <trkpt lat="44.35863" lon="2.54535">
        <ele>562.6</ele>
        <time>2011-06-15T18:14:08Z</time>
      </trkpt>
      <trkpt lat="44.35863" lon="2.54542">
        <ele>562.7</ele>
        <time>2011-06-15T18:14:09Z</time>
      </trkpt>
      <trkpt lat="44.35862" lon="2.54549">
        <ele>562.8</ele>
        <time>2011-06-15T18:14:10Z</time>
      </trkpt>
      <trkpt lat="44.35862" lon="2.54555">
        <ele>562.8</ele>
        <time>2011-06-15T18:14:11Z</time>
      </trkpt>
      <trkpt lat="44.35861" lon="2.54562">
        <ele>562.8</ele>
        <time>2011-06-15T18:14:12Z</time>
      </trkpt>
      <trkpt lat="44.35861" lon="2.54569">
        <ele>562.8</ele>
        <time>2011-06-15T18:14:13Z</time>
      </trkpt>
      <trkpt lat="44.3586" lon="2.54576">
        <ele>563.1</ele>
        <time>2011-06-15T18:14:14Z</time>
      </trkpt>
      <trkpt lat="44.35859" lon="2.54582">
        <ele>563.4</ele>
        <time>2011-06-15T18:14:15Z</time>
      </trkpt>
      <trkpt lat="44.35858" lon="2.54589">
        <ele>563.6</ele>
        <time>2011-06-15T18:14:16Z</time>
      </trkpt>
      <trkpt lat="44.35857" lon="2.54596">
        <ele>563.8</ele>
        <time>2011-06-15T18:14:17Z</time>
      </trkpt>
      <trkpt lat="44.35855" lon="2.54602">
        <ele>563.6</ele>
        <time>2011-06-15T18:14:18Z</time>
      </trkpt>
      <trkpt lat="44.35854" lon="2.54609">
        <ele>563.6</ele>
        <time>2011-06-15T18:14:19Z</time>
      </trkpt>
      <trkpt lat="44.35853" lon="2.54616">
        <ele>563.5</ele>
        <time>2011-06-15T18:14:20Z</time>
      </trkpt>
      <trkpt lat="44.35851" lon="2.54623">
        <ele>563.6</ele>
        <time>2011-06-15T18:14:21Z</time>
      </trkpt>
      <trkpt lat="44.35849" lon="2.54629">
        <ele>563.7</ele>
        <time>2011-06-15T18:14:22Z</time>
      </trkpt>
      <trkpt lat="44.35847" lon="2.54636">
        <ele>563.7</ele>
        <time>2011-06-15T18:14:23Z</time>
      </trkpt>
      <trkpt lat="44.35845" lon="2.54643">
        <ele>563.5</ele>
        <time>2011-06-15T18:14:24Z</time>
      </trkpt>
      <trkpt lat="44.35843" lon="2.54649">
        <ele>563.4</ele>
        <time>2011-06-15T18:14:25Z</time>
      </trkpt>
      <trkpt lat="44.35841" lon="2.54655">
        <ele>563.2</ele>
        <time>2011-06-15T18:14:26Z</time>
      </trkpt>
      <trkpt lat="44.35838" lon="2.54662">
        <ele>563.4</ele>
        <time>2011-06-15T18:14:27Z</time>
      </trkpt>
      <trkpt lat="44.35836" lon="2.54668">
        <ele>563.5</ele>
        <time>2011-06-15T18:14:28Z</time>
      </trkpt>
      <trkpt lat="44.35833" lon="2.54674">
        <ele>563.6</ele>
        <time>2011-06-15T18:14:29Z</time>
      </trkpt>
      <trkpt lat="44.35831" lon="2.5468">
        <ele>563.7</ele>
        <time>2011-06-15T18:14:30Z</time>
      </trkpt>
      <trkpt lat="44.35828" lon="2.54686">
        <ele>563.7</ele>
        <time>2011-06-15T18:14:31Z</time>
      </trkpt>
      <trkpt lat="44.35826" lon="2.54693">
        <ele>563.8</ele>
        <time>2011-06-15T18:14:32Z</time>
      </trkpt>
      <trkpt lat="44.35823" lon="2.54699">
        <ele>564.1</ele>
        <time>2011-06-15T18:14:33Z</time>
      </trkpt>
      <trkpt lat="44.3582" lon="2.54705">
        <ele>564.4</ele>
        <time>2011-06-15T18:14:34Z</time>
      </trkpt>
      <trkpt lat="44.35817" lon="2.54711">
        <ele>564.6</ele>
        <time>2011-06-15T18:14:35Z</time>
      </trkpt>
      <trkpt lat="44.35814" lon="2.54717">
        <ele>564.7</ele>
        <time>2011-06-15T18:14:36Z</time>
      </trkpt>
      <trkpt lat="44.35811" lon="2.54723">
        <ele>564.9</ele>
        <time>2011-06-15T18:14:37Z</time>
      </trkpt>
      <trkpt lat="44.35808" lon="2.5473">
        <ele>565</ele>
        <time>2011-06-15T18:14:38Z</time>
      </trkpt>
      <trkpt lat="44.35805" lon="2.54736">
        <ele>565.1</ele>
        <time>2011-06-15T18:14:39Z</time>
      </trkpt>
      <trkpt lat="44.35803" lon="2.54743">
        <ele>564.7</ele>
        <time>2011-06-15T18:14:40Z</time>
      </trkpt>
      <trkpt lat="44.358" lon="2.54749">
        <ele>564.5</ele>
        <time>2011-06-15T18:14:41Z</time>
      </trkpt>
      <trkpt lat="44.35797" lon="2.54756">
        <ele>564.2</ele>
        <time>2011-06-15T18:14:42Z</time>
      </trkpt>
      <trkpt lat="44.35794" lon="2.54762">
        <ele>564.1</ele>
        <time>2011-06-15T18:14:43Z</time>
      </trkpt>
      <trkpt lat="44.35791" lon="2.54768">
        <ele>564.1</ele>
        <time>2011-06-15T18:14:44Z</time>
      </trkpt>
      <trkpt lat="44.35788" lon="2.54775">
        <ele>564</ele>
        <time>2011-06-15T18:14:45Z</time>
      </trkpt>
      <trkpt lat="44.35785" lon="2.54781">
        <ele>563.8</ele>
        <time>2011-06-15T18:14:46Z</time>
      </trkpt>
      <trkpt lat="44.35782" lon="2.54788">
        <ele>563.6</ele>
        <time>2011-06-15T18:14:47Z</time>
      </trkpt>
      <trkpt lat="44.35779" lon="2.54795">
        <ele>563.4</ele>
        <time>2011-06-15T18:14:48Z</time>
      </trkpt>
      <trkpt lat="44.35776" lon="2.54801">
        <ele>563.3</ele>
        <time>2011-06-15T18:14:49Z</time>
      </trkpt>
      <trkpt lat="44.35773" lon="2.54808">
        <ele>563.2</ele>
        <time>2011-06-15T18:14:50Z</time>
      </trkpt>
      <trkpt lat="44.35771" lon="2.54815">
        <ele>563.1</ele>
        <time>2011-06-15T18:14:51Z</time>
      </trkpt>
      <trkpt lat="44.35768" lon="2.54821">
        <ele>563</ele>
        <time>2011-06-15T18:14:52Z</time>
      </trkpt>
      <trkpt lat="44.35765" lon="2.54828">
        <ele>562.7</ele>
        <time>2011-06-15T18:14:53Z</time>
      </trkpt>
      <trkpt lat="44.35763" lon="2.54834">
        <ele>562.4</ele>
        <time>2011-06-15T18:14:54Z</time>
      </trkpt>
      <trkpt lat="44.35761" lon="2.54841">
        <ele>562.3</ele>
        <time>2011-06-15T18:14:55Z</time>
      </trkpt>
      <trkpt lat="44.35759" lon="2.54848">
        <ele>562.4</ele>
        <time>2011-06-15T18:14:56Z</time>
      </trkpt>
      <trkpt lat="44.35756" lon="2.54854">
        <ele>562.6</ele>
        <time>2011-06-15T18:14:57Z</time>
      </trkpt>
      <trkpt lat="44.35753" lon="2.54861">
        <ele>562.7</ele>
        <time>2011-06-15T18:14:58Z</time>
      </trkpt>
      <trkpt lat="44.3575" lon="2.54867">
        <ele>562.9</ele>
        <time>2011-06-15T18:14:59Z</time>
      </trkpt>
      <trkpt lat="44.35747" lon="2.54874">
        <ele>563</ele>
        <time>2011-06-15T18:15:00Z</time>
      </trkpt>
      <trkpt lat="44.35745" lon="2.54881">
        <ele>563.1</ele>
        <time>2011-06-15T18:15:01Z</time>
      </trkpt>
      <trkpt lat="44.35743" lon="2.54887">
        <ele>562.9</ele>
        <time>2011-06-15T18:15:02Z</time>
      </trkpt>
      <trkpt lat="44.35742" lon="2.54894">
        <ele>562.8</ele>
        <time>2011-06-15T18:15:03Z</time>
      </trkpt>
      <trkpt lat="44.3574" lon="2.549">
        <ele>562.7</ele>
        <time>2011-06-15T18:15:04Z</time>
      </trkpt>
      <trkpt lat="44.35737" lon="2.54906">
        <ele>563</ele>
        <time>2011-06-15T18:15:05Z</time>
      </trkpt>
      <trkpt lat="44.35735" lon="2.54912">
        <ele>563.3</ele>
        <time>2011-06-15T18:15:06Z</time>
      </trkpt>
      <trkpt lat="44.35733" lon="2.54918">
        <ele>563.4</ele>
        <time>2011-06-15T18:15:07Z</time>
      </trkpt>
      <trkpt lat="44.35731" lon="2.54924">
        <ele>563.6</ele>
        <time>2011-06-15T18:15:08Z</time>
      </trkpt>
      <trkpt lat="44.35728" lon="2.5493">
        <ele>563.3</ele>
        <time>2011-06-15T18:15:09Z</time>
      </trkpt>
      <trkpt lat="44.35726" lon="2.54937">
        <ele>563.1</ele>
        <time>2011-06-15T18:15:10Z</time>
      </trkpt>
      <trkpt lat="44.35724" lon="2.54943">
        <ele>563</ele>
        <time>2011-06-15T18:15:11Z</time>
      </trkpt>
      <trkpt lat="44.35721" lon="2.54949">
        <ele>563</ele>
        <time>2011-06-15T18:15:12Z</time>
      </trkpt>
      <trkpt lat="44.35719" lon="2.54955">
        <ele>563</ele>
        <time>2011-06-15T18:15:13Z</time>
      </trkpt>
      <trkpt lat="44.35716" lon="2.54961">
        <ele>563</ele>
        <time>2011-06-15T18:15:14Z</time>
      </trkpt>
      <trkpt lat="44.35714" lon="2.54966">
        <ele>563</ele>
        <time>2011-06-15T18:15:15Z</time>
      </trkpt>
      <trkpt lat="44.35711" lon="2.54972">
        <ele>563</ele>
        <time>2011-06-15T18:15:16Z</time>
      </trkpt>
      <trkpt lat="44.35709" lon="2.54978">
        <ele>563</ele>
        <time>2011-06-15T18:15:17Z</time>
      </trkpt>
      <trkpt lat="44.35706" lon="2.54984">
        <ele>563</ele>
        <time>2011-06-15T18:15:18Z</time>
      </trkpt>
      <trkpt lat="44.35703" lon="2.5499">
        <ele>563</ele>
        <time>2011-06-15T18:15:19Z</time>
      </trkpt>
      <trkpt lat="44.35701" lon="2.54996">
        <ele>563</ele>
        <time>2011-06-15T18:15:20Z</time>
      </trkpt>
      <trkpt lat="44.35698" lon="2.55001">
        <ele>563</ele>
        <time>2011-06-15T18:15:21Z</time>
      </trkpt>
      <trkpt lat="44.35695" lon="2.55007">
        <ele>563</ele>
        <time>2011-06-15T18:15:22Z</time>
      </trkpt>
      <trkpt lat="44.35692" lon="2.55013">
        <ele>563</ele>
        <time>2011-06-15T18:15:23Z</time>
      </trkpt>
      <trkpt lat="44.35689" lon="2.55019">
        <ele>563</ele>
        <time>2011-06-15T18:15:24Z</time>
      </trkpt>
      <trkpt lat="44.35686" lon="2.55025">
        <ele>563.5</ele>
        <time>2011-06-15T18:15:25Z</time>
      </trkpt>
      <trkpt lat="44.35683" lon="2.55031">
        <ele>563.9</ele>
        <time>2011-06-15T18:15:26Z</time>
      </trkpt>
      <trkpt lat="44.3568" lon="2.55036">
        <ele>564.2</ele>
        <time>2011-06-15T18:15:27Z</time>
      </trkpt>
      <trkpt lat="44.35677" lon="2.55042">
        <ele>564.2</ele>
        <time>2011-06-15T18:15:28Z</time>
      </trkpt>
      <trkpt lat="44.35674" lon="2.55047">
        <ele>564.1</ele>
        <time>2011-06-15T18:15:29Z</time>
      </trkpt>
      <trkpt lat="44.35671" lon="2.55052">
        <ele>564.1</ele>
        <time>2011-06-15T18:15:30Z</time>
      </trkpt>
      <trkpt lat="44.35668" lon="2.55058">
        <ele>564.2</ele>
        <time>2011-06-15T18:15:31Z</time>
      </trkpt>
      <trkpt lat="44.35665" lon="2.55063">
        <ele>564.3</ele>
        <time>2011-06-15T18:15:32Z</time>
      </trkpt>
      <trkpt lat="44.35662" lon="2.55069">
        <ele>564.4</ele>
        <time>2011-06-15T18:15:33Z</time>
      </trkpt>
      <trkpt lat="44.35659" lon="2.55074">
        <ele>564.7</ele>
        <time>2011-06-15T18:15:34Z</time>
      </trkpt>
      <trkpt lat="44.35656" lon="2.55079">
        <ele>564.9</ele>
        <time>2011-06-15T18:15:35Z</time>
      </trkpt>
      <trkpt lat="44.35653" lon="2.55084">
        <ele>565</ele>
        <time>2011-06-15T18:15:36Z</time>
      </trkpt>
      <trkpt lat="44.3565" lon="2.5509">
        <ele>565.2</ele>
        <time>2011-06-15T18:15:37Z</time>
      </trkpt>
      <trkpt lat="44.35647" lon="2.55095">
        <ele>565.2</ele>
        <time>2011-06-15T18:15:38Z</time>
      </trkpt>
      <trkpt lat="44.35644" lon="2.551">
        <ele>565.3</ele>
        <time>2011-06-15T18:15:39Z</time>
      </trkpt>
      <trkpt lat="44.35641" lon="2.55105">
        <ele>565.4</ele>
        <time>2011-06-15T18:15:40Z</time>
      </trkpt>
      <trkpt lat="44.35638" lon="2.5511">
        <ele>565.4</ele>
        <time>2011-06-15T18:15:41Z</time>
      </trkpt>
      <trkpt lat="44.35636" lon="2.55115">
        <ele>565.5</ele>
        <time>2011-06-15T18:15:42Z</time>
      </trkpt>
      <trkpt lat="44.35633" lon="2.5512">
        <ele>565.5</ele>
        <time>2011-06-15T18:15:43Z</time>
      </trkpt>
      <trkpt lat="44.3563" lon="2.55124">
        <ele>565.6</ele>
        <time>2011-06-15T18:15:44Z</time>
      </trkpt>
      <trkpt lat="44.35627" lon="2.55128">
        <ele>565.7</ele>
        <time>2011-06-15T18:15:45Z</time>
      </trkpt>
      <trkpt lat="44.35624" lon="2.55133">
        <ele>565.7</ele>
        <time>2011-06-15T18:15:46Z</time>
      </trkpt>
      <trkpt lat="44.3562" lon="2.55137">
        <ele>565.8</ele>
        <time>2011-06-15T18:15:47Z</time>
      </trkpt>
      <trkpt lat="44.35617" lon="2.55142">
        <ele>565.9</ele>
        <time>2011-06-15T18:15:48Z</time>
      </trkpt>
      <trkpt lat="44.35614" lon="2.55146">
        <ele>566</ele>
        <time>2011-06-15T18:15:49Z</time>
      </trkpt>
      <trkpt lat="44.35611" lon="2.5515">
        <ele>566</ele>
        <time>2011-06-15T18:15:50Z</time>
      </trkpt>
      <trkpt lat="44.35608" lon="2.55154">
        <ele>566.1</ele>
        <time>2011-06-15T18:15:51Z</time>
      </trkpt>
      <trkpt lat="44.35605" lon="2.55158">
        <ele>566.1</ele>
        <time>2011-06-15T18:15:52Z</time>
      </trkpt>
      <trkpt lat="44.35601" lon="2.55162">
        <ele>566.1</ele>
        <time>2011-06-15T18:15:53Z</time>
      </trkpt>
      <trkpt lat="44.35598" lon="2.55166">
        <ele>566.1</ele>
        <time>2011-06-15T18:15:54Z</time>
      </trkpt>
      <trkpt lat="44.35594" lon="2.5517">
        <ele>566.1</ele>
        <time>2011-06-15T18:15:55Z</time>
      </trkpt>
      <trkpt lat="44.35591" lon="2.55174">
        <ele>565.9</ele>
        <time>2011-06-15T18:15:56Z</time>
      </trkpt>
      <trkpt lat="44.35587" lon="2.55177">
        <ele>565.7</ele>
        <time>2011-06-15T18:15:57Z</time>
      </trkpt>
      <trkpt lat="44.35583" lon="2.55181">
        <ele>565.6</ele>
        <time>2011-06-15T18:15:58Z</time>
      </trkpt>
      <trkpt lat="44.35579" lon="2.55185">
        <ele>565.6</ele>
        <time>2011-06-15T18:15:59Z</time>
      </trkpt>
      <trkpt lat="44.35575" lon="2.55189">
        <ele>565.7</ele>
        <time>2011-06-15T18:16:00Z</time>
      </trkpt>
      <trkpt lat="44.35571" lon="2.55193">
        <ele>565.9</ele>
        <time>2011-06-15T18:16:01Z</time>
      </trkpt>
      <trkpt lat="44.35566" lon="2.55196">
        <ele>566</ele>
        <time>2011-06-15T18:16:02Z</time>
      </trkpt>
      <trkpt lat="44.35562" lon="2.552">
        <ele>566.6</ele>
        <time>2011-06-15T18:16:03Z</time>
      </trkpt>
      <trkpt lat="44.35557" lon="2.55203">
        <ele>567</ele>
        <time>2011-06-15T18:16:04Z</time>
      </trkpt>
      <trkpt lat="44.35552" lon="2.55206">
        <ele>567.3</ele>
        <time>2011-06-15T18:16:05Z</time>
      </trkpt>
      <trkpt lat="44.35547" lon="2.55209">
        <ele>567.1</ele>
        <time>2011-06-15T18:16:06Z</time>
      </trkpt>
      <trkpt lat="44.35542" lon="2.55213">
        <ele>566.8</ele>
        <time>2011-06-15T18:16:07Z</time>
      </trkpt>
      <trkpt lat="44.35537" lon="2.55216">
        <ele>566.7</ele>
        <time>2011-06-15T18:16:08Z</time>
      </trkpt>
      <trkpt lat="44.35532" lon="2.55218">
        <ele>566.8</ele>
        <time>2011-06-15T18:16:09Z</time>
      </trkpt>
      <trkpt lat="44.35527" lon="2.55221">
        <ele>566.9</ele>
        <time>2011-06-15T18:16:10Z</time>
      </trkpt>
      <trkpt lat="44.35523" lon="2.55224">
        <ele>566.9</ele>
        <time>2011-06-15T18:16:11Z</time>
      </trkpt>
      <trkpt lat="44.35518" lon="2.55226">
        <ele>567</ele>
        <time>2011-06-15T18:16:12Z</time>
      </trkpt>
      <trkpt lat="44.35513" lon="2.55229">
        <ele>567</ele>
        <time>2011-06-15T18:16:13Z</time>
      </trkpt>
      <trkpt lat="44.35509" lon="2.55232">
        <ele>567.1</ele>
        <time>2011-06-15T18:16:14Z</time>
      </trkpt>
      <trkpt lat="44.35504" lon="2.55235">
        <ele>567.1</ele>
        <time>2011-06-15T18:16:15Z</time>
      </trkpt>
      <trkpt lat="44.355" lon="2.55237">
        <ele>566.9</ele>
        <time>2011-06-15T18:16:16Z</time>
      </trkpt>
      <trkpt lat="44.35496" lon="2.5524">
        <ele>566.8</ele>
        <time>2011-06-15T18:16:17Z</time>
      </trkpt>
      <trkpt lat="44.35491" lon="2.55243">
        <ele>566.7</ele>
        <time>2011-06-15T18:16:18Z</time>
      </trkpt>
      <trkpt lat="44.35487" lon="2.55246">
        <ele>567</ele>
        <time>2011-06-15T18:16:19Z</time>
      </trkpt>
      <trkpt lat="44.35483" lon="2.55249">
        <ele>567.2</ele>
        <time>2011-06-15T18:16:20Z</time>
      </trkpt>
      <trkpt lat="44.35479" lon="2.55251">
        <ele>567.4</ele>
        <time>2011-06-15T18:16:21Z</time>
      </trkpt>
      <trkpt lat="44.35475" lon="2.55254">
        <ele>567.6</ele>
        <time>2011-06-15T18:16:22Z</time>
      </trkpt>
      <trkpt lat="44.35471" lon="2.55256">
        <ele>567.8</ele>
        <time>2011-06-15T18:16:23Z</time>
      </trkpt>
      <trkpt lat="44.35467" lon="2.55259">
        <ele>567.9</ele>
        <time>2011-06-15T18:16:24Z</time>
      </trkpt>
      <trkpt lat="44.35463" lon="2.55263">
        <ele>567.7</ele>
        <time>2011-06-15T18:16:25Z</time>
      </trkpt>
      <trkpt lat="44.35459" lon="2.55266">
        <ele>567.6</ele>
        <time>2011-06-15T18:16:26Z</time>
      </trkpt>
      <trkpt lat="44.35455" lon="2.55269">
        <ele>567.4</ele>
        <time>2011-06-15T18:16:27Z</time>
      </trkpt>
      <trkpt lat="44.3545" lon="2.55273">
        <ele>567.4</ele>
        <time>2011-06-15T18:16:28Z</time>
      </trkpt>
      <trkpt lat="44.35447" lon="2.55276">
        <ele>567.4</ele>
        <time>2011-06-15T18:16:29Z</time>
      </trkpt>
      <trkpt lat="44.35443" lon="2.55279">
        <ele>567.5</ele>
        <time>2011-06-15T18:16:30Z</time>
      </trkpt>
      <trkpt lat="44.35439" lon="2.55282">
        <ele>567.5</ele>
        <time>2011-06-15T18:16:31Z</time>
      </trkpt>
      <trkpt lat="44.35436" lon="2.55285">
        <ele>567.8</ele>
        <time>2011-06-15T18:16:32Z</time>
      </trkpt>
      <trkpt lat="44.35432" lon="2.55288">
        <ele>568.1</ele>
        <time>2011-06-15T18:16:33Z</time>
      </trkpt>
      <trkpt lat="44.35428" lon="2.55291">
        <ele>568.4</ele>
        <time>2011-06-15T18:16:34Z</time>
      </trkpt>
      <trkpt lat="44.35424" lon="2.55294">
        <ele>568.4</ele>
        <time>2011-06-15T18:16:35Z</time>
      </trkpt>
      <trkpt lat="44.35421" lon="2.55297">
        <ele>568.5</ele>
        <time>2011-06-15T18:16:36Z</time>
      </trkpt>
      <trkpt lat="44.35417" lon="2.55301">
        <ele>568.5</ele>
        <time>2011-06-15T18:16:37Z</time>
      </trkpt>
      <trkpt lat="44.35413" lon="2.55304">
        <ele>568.6</ele>
        <time>2011-06-15T18:16:38Z</time>
      </trkpt>
      <trkpt lat="44.35409" lon="2.55307">
        <ele>568.7</ele>
        <time>2011-06-15T18:16:39Z</time>
      </trkpt>
      <trkpt lat="44.35406" lon="2.55311">
        <ele>568.7</ele>
        <time>2011-06-15T18:16:40Z</time>
      </trkpt>
      <trkpt lat="44.35402" lon="2.55314">
        <ele>568.9</ele>
        <time>2011-06-15T18:16:41Z</time>
      </trkpt>
      <trkpt lat="44.35398" lon="2.55318">
        <ele>569.1</ele>
        <time>2011-06-15T18:16:42Z</time>
      </trkpt>
      <trkpt lat="44.35394" lon="2.55321">
        <ele>569.2</ele>
        <time>2011-06-15T18:16:43Z</time>
      </trkpt>
      <trkpt lat="44.3539" lon="2.55324">
        <ele>569.3</ele>
        <time>2011-06-15T18:16:44Z</time>
      </trkpt>
      <trkpt lat="44.35386" lon="2.55328">
        <ele>569.3</ele>
        <time>2011-06-15T18:16:45Z</time>
      </trkpt>
      <trkpt lat="44.35383" lon="2.55333">
        <ele>569.3</ele>
        <time>2011-06-15T18:16:46Z</time>
      </trkpt>
      <trkpt lat="44.3538" lon="2.55336">
        <ele>569.3</ele>
        <time>2011-06-15T18:16:47Z</time>
      </trkpt>
      <trkpt lat="44.35376" lon="2.5534">
        <ele>569.5</ele>
        <time>2011-06-15T18:16:48Z</time>
      </trkpt>
      <trkpt lat="44.35373" lon="2.55344">
        <ele>569.5</ele>
        <time>2011-06-15T18:16:49Z</time>
      </trkpt>
      <trkpt lat="44.3537" lon="2.55348">
        <ele>569.6</ele>
        <time>2011-06-15T18:16:50Z</time>
      </trkpt>
      <trkpt lat="44.35367" lon="2.55351">
        <ele>569.8</ele>
        <time>2011-06-15T18:16:51Z</time>
      </trkpt>
      <trkpt lat="44.35364" lon="2.55354">
        <ele>569.9</ele>
        <time>2011-06-15T18:16:52Z</time>
      </trkpt>
      <trkpt lat="44.35361" lon="2.55357">
        <ele>570</ele>
        <time>2011-06-15T18:16:53Z</time>
      </trkpt>
      <trkpt lat="44.35359" lon="2.55359">
        <ele>570.1</ele>
        <time>2011-06-15T18:16:54Z</time>
      </trkpt>
      <trkpt lat="44.35357" lon="2.5536">
        <ele>570.3</ele>
        <time>2011-06-15T18:16:55Z</time>
      </trkpt>
      <trkpt lat="44.35354" lon="2.55361">
        <ele>570.3</ele>
        <time>2011-06-15T18:16:56Z</time>
      </trkpt>
      <trkpt lat="44.35352" lon="2.55363">
        <ele>570.2</ele>
        <time>2011-06-15T18:16:57Z</time>
      </trkpt>
      <trkpt lat="44.3535" lon="2.55366">
        <ele>570</ele>
        <time>2011-06-15T18:16:58Z</time>
      </trkpt>
      <trkpt lat="44.35349" lon="2.5537">
        <ele>569.9</ele>
        <time>2011-06-15T18:16:59Z</time>
      </trkpt>
      <trkpt lat="44.3535" lon="2.55374">
        <ele>569.8</ele>
        <time>2011-06-15T18:17:00Z</time>
      </trkpt>
      <trkpt lat="44.35352" lon="2.55377">
        <ele>569.7</ele>
        <time>2011-06-15T18:17:01Z</time>
      </trkpt>
      <trkpt lat="44.35354" lon="2.55379">
        <ele>569.7</ele>
        <time>2011-06-15T18:17:02Z</time>
      </trkpt>
      <trkpt lat="44.35356" lon="2.55381">
        <ele>569.6</ele>
        <time>2011-06-15T18:17:03Z</time>
      </trkpt>
      <trkpt lat="44.35358" lon="2.55384">
        <ele>570</ele>
        <time>2011-06-15T18:17:04Z</time>
      </trkpt>
      <trkpt lat="44.35359" lon="2.55387">
        <ele>570.2</ele>
        <time>2011-06-15T18:17:05Z</time>
      </trkpt>
      <trkpt lat="44.3536" lon="2.5539">
        <ele>570.4</ele>
        <time>2011-06-15T18:17:06Z</time>
      </trkpt>
      <trkpt lat="44.35361" lon="2.55394">
        <ele>570.5</ele>
        <time>2011-06-15T18:17:07Z</time>
      </trkpt>
      <trkpt lat="44.35361" lon="2.55397">
        <ele>570.5</ele>
        <time>2011-06-15T18:17:08Z</time>
      </trkpt>
      <trkpt lat="44.35361" lon="2.554">
        <ele>570.6</ele>
        <time>2011-06-15T18:17:09Z</time>
      </trkpt>
      <trkpt lat="44.3536" lon="2.55403">
        <ele>570.9</ele>
        <time>2011-06-15T18:17:10Z</time>
      </trkpt>
      <trkpt lat="44.3536" lon="2.55407">
        <ele>571.2</ele>
        <time>2011-06-15T18:17:11Z</time>
      </trkpt>
      <trkpt lat="44.35359" lon="2.5541">
        <ele>571.4</ele>
        <time>2011-06-15T18:17:12Z</time>
      </trkpt>
      <trkpt lat="44.35358" lon="2.55413">
        <ele>572.1</ele>
        <time>2011-06-15T18:17:13Z</time>
      </trkpt>
      <trkpt lat="44.35357" lon="2.55415">
        <ele>572.6</ele>
        <time>2011-06-15T18:17:14Z</time>
      </trkpt>
      <trkpt lat="44.35355" lon="2.55418">
        <ele>572.9</ele>
        <time>2011-06-15T18:17:15Z</time>
      </trkpt>
      <trkpt lat="44.35354" lon="2.55421">
        <ele>573.1</ele>
        <time>2011-06-15T18:17:16Z</time>
      </trkpt>
      <trkpt lat="44.35352" lon="2.55423">
        <ele>573.3</ele>
        <time>2011-06-15T18:17:17Z</time>
      </trkpt>
      <trkpt lat="44.3535" lon="2.55425">
        <ele>573.4</ele>
        <time>2011-06-15T18:17:18Z</time>
      </trkpt>
      <trkpt lat="44.35348" lon="2.55428">
        <ele>573.5</ele>
        <time>2011-06-15T18:17:19Z</time>
      </trkpt>
      <trkpt lat="44.35346" lon="2.55429">
        <ele>573.6</ele>
        <time>2011-06-15T18:17:20Z</time>
      </trkpt>
      <trkpt lat="44.35344" lon="2.55431">
        <ele>573.7</ele>
        <time>2011-06-15T18:17:21Z</time>
      </trkpt>
      <trkpt lat="44.35342" lon="2.55431">
        <ele>573.7</ele>
        <time>2011-06-15T18:17:22Z</time>
      </trkpt>
      <trkpt lat="44.35339" lon="2.55433">
        <ele>574.1</ele>
        <time>2011-06-15T18:17:23Z</time>
      </trkpt>
      <trkpt lat="44.35338" lon="2.55435">
        <ele>574.5</ele>
        <time>2011-06-15T18:17:24Z</time>
      </trkpt>
      <trkpt lat="44.35336" lon="2.55437">
        <ele>574.7</ele>
        <time>2011-06-15T18:17:25Z</time>
      </trkpt>
      <trkpt lat="44.35334" lon="2.5544">
        <ele>575.1</ele>
        <time>2011-06-15T18:17:26Z</time>
      </trkpt>
      <trkpt lat="44.35332" lon="2.55442">
        <ele>575.5</ele>
        <time>2011-06-15T18:17:27Z</time>
      </trkpt>
      <trkpt lat="44.35331" lon="2.55444">
        <ele>575.7</ele>
        <time>2011-06-15T18:17:28Z</time>
      </trkpt>
      <trkpt lat="44.35329" lon="2.55447">
        <ele>576</ele>
        <time>2011-06-15T18:17:29Z</time>
      </trkpt>
      <trkpt lat="44.35326" lon="2.55451">
        <ele>576.3</ele>
        <time>2011-06-15T18:17:31Z</time>
      </trkpt>
      <trkpt lat="44.35323" lon="2.55455">
        <ele>576.6</ele>
        <time>2011-06-15T18:17:33Z</time>
      </trkpt>
      <trkpt lat="44.3532" lon="2.55459">
        <ele>577.3</ele>
        <time>2011-06-15T18:17:35Z</time>
      </trkpt>
      <trkpt lat="44.35317" lon="2.55463">
        <ele>578</ele>
        <time>2011-06-15T18:17:37Z</time>
      </trkpt>
      <trkpt lat="44.35314" lon="2.55468">
        <ele>578.4</ele>
        <time>2011-06-15T18:17:39Z</time>
      </trkpt>
      <trkpt lat="44.35312" lon="2.55471">
        <ele>578.4</ele>
        <time>2011-06-15T18:17:40Z</time>
      </trkpt>
      <trkpt lat="44.35311" lon="2.55473">
        <ele>578.5</ele>
        <time>2011-06-15T18:17:41Z</time>
      </trkpt>
      <trkpt lat="44.3531" lon="2.55476">
        <ele>578.9</ele>
        <time>2011-06-15T18:17:42Z</time>
      </trkpt>
      <trkpt lat="44.35309" lon="2.55479">
        <ele>579.3</ele>
        <time>2011-06-15T18:17:43Z</time>
      </trkpt>
      <trkpt lat="44.35309" lon="2.55482">
        <ele>579.5</ele>
        <time>2011-06-15T18:17:44Z</time>
      </trkpt>
      <trkpt lat="44.35308" lon="2.55488">
        <ele>579.7</ele>
        <time>2011-06-15T18:17:46Z</time>
      </trkpt>
      <trkpt lat="44.35307" lon="2.55494">
        <ele>580</ele>
        <time>2011-06-15T18:17:48Z</time>
      </trkpt>
      <trkpt lat="44.35307" lon="2.55497">
        <ele>580.1</ele>
        <time>2011-06-15T18:17:49Z</time>
      </trkpt>
      <trkpt lat="44.35307" lon="2.55501">
        <ele>580.2</ele>
        <time>2011-06-15T18:17:50Z</time>
      </trkpt>
      <trkpt lat="44.35307" lon="2.55504">
        <ele>580.9</ele>
        <time>2011-06-15T18:17:51Z</time>
      </trkpt>
      <trkpt lat="44.35308" lon="2.5551">
        <ele>581.7</ele>
        <time>2011-06-15T18:17:53Z</time>
      </trkpt>
      <trkpt lat="44.35308" lon="2.55513">
        <ele>582</ele>
        <time>2011-06-15T18:17:54Z</time>
      </trkpt>
      <trkpt lat="44.35309" lon="2.55519">
        <ele>582.5</ele>
        <time>2011-06-15T18:17:56Z</time>
      </trkpt>
      <trkpt lat="44.35311" lon="2.55524">
        <ele>583</ele>
        <time>2011-06-15T18:17:58Z</time>
      </trkpt>
      <trkpt lat="44.35314" lon="2.55529">
        <ele>583.4</ele>
        <time>2011-06-15T18:18:00Z</time>
      </trkpt>
      <trkpt lat="44.35315" lon="2.55532">
        <ele>583.2</ele>
        <time>2011-06-15T18:18:01Z</time>
      </trkpt>
      <trkpt lat="44.35317" lon="2.55534">
        <ele>583</ele>
        <time>2011-06-15T18:18:02Z</time>
      </trkpt>
      <trkpt lat="44.35319" lon="2.55536">
        <ele>582.9</ele>
        <time>2011-06-15T18:18:03Z</time>
      </trkpt>
      <trkpt lat="44.35321" lon="2.55538">
        <ele>583.4</ele>
        <time>2011-06-15T18:18:04Z</time>
      </trkpt>
      <trkpt lat="44.35323" lon="2.5554">
        <ele>583.8</ele>
        <time>2011-06-15T18:18:05Z</time>
      </trkpt>
      <trkpt lat="44.35326" lon="2.55541">
        <ele>584.1</ele>
        <time>2011-06-15T18:18:06Z</time>
      </trkpt>
      <trkpt lat="44.35328" lon="2.55542">
        <ele>584.8</ele>
        <time>2011-06-15T18:18:07Z</time>
      </trkpt>
      <trkpt lat="44.35332" lon="2.55543">
        <ele>585.7</ele>
        <time>2011-06-15T18:18:09Z</time>
      </trkpt>
      <trkpt lat="44.35336" lon="2.55545">
        <ele>586.2</ele>
        <time>2011-06-15T18:18:11Z</time>
      </trkpt>
      <trkpt lat="44.35339" lon="2.55545">
        <ele>586.3</ele>
        <time>2011-06-15T18:18:12Z</time>
      </trkpt>
      <trkpt lat="44.35341" lon="2.55546">
        <ele>586.3</ele>
        <time>2011-06-15T18:18:13Z</time>
      </trkpt>
      <trkpt lat="44.35343" lon="2.55547">
        <ele>586.6</ele>
        <time>2011-06-15T18:18:14Z</time>
      </trkpt>
      <trkpt lat="44.35347" lon="2.55548">
        <ele>586.9</ele>
        <time>2011-06-15T18:18:16Z</time>
      </trkpt>
      <trkpt lat="44.35351" lon="2.55548">
        <ele>587.5</ele>
        <time>2011-06-15T18:18:18Z</time>
      </trkpt>
      <trkpt lat="44.35354" lon="2.55548">
        <ele>587.7</ele>
        <time>2011-06-15T18:18:19Z</time>
      </trkpt>
      <trkpt lat="44.35356" lon="2.55548">
        <ele>588</ele>
        <time>2011-06-15T18:18:20Z</time>
      </trkpt>
      <trkpt lat="44.3536" lon="2.55548">
        <ele>588.5</ele>
        <time>2011-06-15T18:18:22Z</time>
      </trkpt>
      <trkpt lat="44.35362" lon="2.55547">
        <ele>588.6</ele>
        <time>2011-06-15T18:18:23Z</time>
      </trkpt>
      <trkpt lat="44.35365" lon="2.55547">
        <ele>588.8</ele>
        <time>2011-06-15T18:18:24Z</time>
      </trkpt>
      <trkpt lat="44.35367" lon="2.55547">
        <ele>588.8</ele>
        <time>2011-06-15T18:18:25Z</time>
      </trkpt>
      <trkpt lat="44.35369" lon="2.55547">
        <ele>588.9</ele>
        <time>2011-06-15T18:18:26Z</time>
      </trkpt>
      <trkpt lat="44.35372" lon="2.55547">
        <ele>589.2</ele>
        <time>2011-06-15T18:18:27Z</time>
      </trkpt>
      <trkpt lat="44.35376" lon="2.55547">
        <ele>589.6</ele>
        <time>2011-06-15T18:18:29Z</time>
      </trkpt>
      <trkpt lat="44.3538" lon="2.55548">
        <ele>590.9</ele>
        <time>2011-06-15T18:18:31Z</time>
      </trkpt>
      <trkpt lat="44.35384" lon="2.55548">
        <ele>591.8</ele>
        <time>2011-06-15T18:18:33Z</time>
      </trkpt>
      <trkpt lat="44.35388" lon="2.55548">
        <ele>592.4</ele>
        <time>2011-06-15T18:18:35Z</time>
      </trkpt>
      <trkpt lat="44.35392" lon="2.55548">
        <ele>592.6</ele>
        <time>2011-06-15T18:18:37Z</time>
      </trkpt>
      <trkpt lat="44.35396" lon="2.55547">
        <ele>592.8</ele>
        <time>2011-06-15T18:18:39Z</time>
      </trkpt>
      <trkpt lat="44.354" lon="2.55547">
        <ele>593</ele>
        <time>2011-06-15T18:18:41Z</time>
      </trkpt>
      <trkpt lat="44.35404" lon="2.55546">
        <ele>593.9</ele>
        <time>2011-06-15T18:18:43Z</time>
      </trkpt>
      <trkpt lat="44.35408" lon="2.55545">
        <ele>594.4</ele>
        <time>2011-06-15T18:18:45Z</time>
      </trkpt>
      <trkpt lat="44.35412" lon="2.55544">
        <ele>594.9</ele>
        <time>2011-06-15T18:18:47Z</time>
      </trkpt>
      <trkpt lat="44.35415" lon="2.55544">
        <ele>595.2</ele>
        <time>2011-06-15T18:18:49Z</time>
      </trkpt>
      <trkpt lat="44.35419" lon="2.55543">
        <ele>595.4</ele>
        <time>2011-06-15T18:18:51Z</time>
      </trkpt>
      <trkpt lat="44.35423" lon="2.55542">
        <ele>595.9</ele>
        <time>2011-06-15T18:18:53Z</time>
      </trkpt>
      <trkpt lat="44.35426" lon="2.55541">
        <ele>596.5</ele>
        <time>2011-06-15T18:18:55Z</time>
      </trkpt>
      <trkpt lat="44.3543" lon="2.55539">
        <ele>597.1</ele>
        <time>2011-06-15T18:18:57Z</time>
      </trkpt>
      <trkpt lat="44.35433" lon="2.55538">
        <ele>597.7</ele>
        <time>2011-06-15T18:18:59Z</time>
      </trkpt>
      <trkpt lat="44.35437" lon="2.55537">
        <ele>598</ele>
        <time>2011-06-15T18:19:01Z</time>
      </trkpt>
      <trkpt lat="44.3544" lon="2.55537">
        <ele>599.3</ele>
        <time>2011-06-15T18:19:03Z</time>
      </trkpt>
      <trkpt lat="44.35444" lon="2.55536">
        <ele>599.5</ele>
        <time>2011-06-15T18:19:05Z</time>
      </trkpt>
      <trkpt lat="44.35447" lon="2.55535">
        <ele>599.3</ele>
        <time>2011-06-15T18:19:07Z</time>
      </trkpt>
      <trkpt lat="44.35451" lon="2.55533">
        <ele>599.7</ele>
        <time>2011-06-15T18:19:09Z</time>
      </trkpt>
      <trkpt lat="44.35454" lon="2.55533">
        <ele>600.2</ele>
        <time>2011-06-15T18:19:11Z</time>
      </trkpt>
      <trkpt lat="44.35458" lon="2.55533">
        <ele>600.7</ele>
        <time>2011-06-15T18:19:13Z</time>
      </trkpt>
      <trkpt lat="44.35462" lon="2.55532">
        <ele>600.9</ele>
        <time>2011-06-15T18:19:15Z</time>
      </trkpt>
      <trkpt lat="44.35466" lon="2.55531">
        <ele>601.1</ele>
        <time>2011-06-15T18:19:17Z</time>
      </trkpt>
      <trkpt lat="44.35469" lon="2.55531">
        <ele>602.2</ele>
        <time>2011-06-15T18:19:19Z</time>
      </trkpt>
      <trkpt lat="44.35472" lon="2.5553">
        <ele>602.8</ele>
        <time>2011-06-15T18:19:21Z</time>
      </trkpt>
      <trkpt lat="44.35476" lon="2.55531">
        <ele>603.2</ele>
        <time>2011-06-15T18:19:23Z</time>
      </trkpt>
      <trkpt lat="44.35478" lon="2.55531">
        <ele>603.2</ele>
        <time>2011-06-15T18:19:24Z</time>
      </trkpt>
      <trkpt lat="44.35483" lon="2.55532">
        <ele>603.6</ele>
        <time>2011-06-15T18:19:27Z</time>
      </trkpt>
      <trkpt lat="44.35486" lon="2.55532">
        <ele>604.1</ele>
        <time>2011-06-15T18:19:29Z</time>
      </trkpt>
      <trkpt lat="44.3549" lon="2.55534">
        <ele>605</ele>
        <time>2011-06-15T18:19:31Z</time>
      </trkpt>
      <trkpt lat="44.35494" lon="2.55534">
        <ele>605.5</ele>
        <time>2011-06-15T18:19:33Z</time>
      </trkpt>
      <trkpt lat="44.35497" lon="2.55536">
        <ele>605.2</ele>
        <time>2011-06-15T18:19:35Z</time>
      </trkpt>
      <trkpt lat="44.35501" lon="2.55537">
        <ele>605.7</ele>
        <time>2011-06-15T18:19:37Z</time>
      </trkpt>
      <trkpt lat="44.35505" lon="2.55539">
        <ele>606.5</ele>
        <time>2011-06-15T18:19:39Z</time>
      </trkpt>
      <trkpt lat="44.35509" lon="2.55542">
        <ele>607.3</ele>
        <time>2011-06-15T18:19:41Z</time>
      </trkpt>
      <trkpt lat="44.35513" lon="2.55544">
        <ele>608.1</ele>
        <time>2011-06-15T18:19:43Z</time>
      </trkpt>
      <trkpt lat="44.35516" lon="2.55546">
        <ele>608.7</ele>
        <time>2011-06-15T18:19:45Z</time>
      </trkpt>
      <trkpt lat="44.3552" lon="2.55549">
        <ele>609.7</ele>
        <time>2011-06-15T18:19:47Z</time>
      </trkpt>
      <trkpt lat="44.35524" lon="2.55551">
        <ele>610</ele>
        <time>2011-06-15T18:19:49Z</time>
      </trkpt>
      <trkpt lat="44.35527" lon="2.55554">
        <ele>610</ele>
        <time>2011-06-15T18:19:51Z</time>
      </trkpt>
      <trkpt lat="44.35531" lon="2.55557">
        <ele>610.3</ele>
        <time>2011-06-15T18:19:53Z</time>
      </trkpt>
      <trkpt lat="44.35534" lon="2.5556">
        <ele>610.5</ele>
        <time>2011-06-15T18:19:55Z</time>
      </trkpt>
      <trkpt lat="44.35538" lon="2.55563">
        <ele>611.1</ele>
        <time>2011-06-15T18:19:57Z</time>
      </trkpt>
      <trkpt lat="44.35542" lon="2.55566">
        <ele>611.5</ele>
        <time>2011-06-15T18:19:59Z</time>
      </trkpt>
      <trkpt lat="44.35544" lon="2.5557">
        <ele>611.9</ele>
        <time>2011-06-15T18:20:01Z</time>
      </trkpt>
      <trkpt lat="44.35546" lon="2.55574">
        <ele>612.7</ele>
        <time>2011-06-15T18:20:03Z</time>
      </trkpt>
      <trkpt lat="44.35546" lon="2.5558">
        <ele>613.1</ele>
        <time>2011-06-15T18:20:05Z</time>
      </trkpt>
      <trkpt lat="44.35547" lon="2.55583">
        <ele>613.5</ele>
        <time>2011-06-15T18:20:06Z</time>
      </trkpt>
      <trkpt lat="44.35548" lon="2.55586">
        <ele>613.8</ele>
        <time>2011-06-15T18:20:07Z</time>
      </trkpt>
      <trkpt lat="44.3555" lon="2.55587">
        <ele>614</ele>
        <time>2011-06-15T18:20:08Z</time>
      </trkpt>
      <trkpt lat="44.35555" lon="2.55589">
        <ele>614.2</ele>
        <time>2011-06-15T18:20:10Z</time>
      </trkpt>
      <trkpt lat="44.35559" lon="2.55589">
        <ele>614.7</ele>
        <time>2011-06-15T18:20:12Z</time>
      </trkpt>
      <trkpt lat="44.35563" lon="2.55588">
        <ele>615.2</ele>
        <time>2011-06-15T18:20:14Z</time>
      </trkpt>
      <trkpt lat="44.35568" lon="2.55588">
        <ele>615.5</ele>
        <time>2011-06-15T18:20:16Z</time>
      </trkpt>
      <trkpt lat="44.35572" lon="2.55591">
        <ele>615.8</ele>
        <time>2011-06-15T18:20:18Z</time>
      </trkpt>
      <trkpt lat="44.35574" lon="2.55596">
        <ele>616.1</ele>
        <time>2011-06-15T18:20:21Z</time>
      </trkpt>
      <trkpt lat="44.35578" lon="2.55598">
        <ele>616.2</ele>
        <time>2011-06-15T18:20:23Z</time>
      </trkpt>
      <trkpt lat="44.35581" lon="2.55601">
        <ele>616.9</ele>
        <time>2011-06-15T18:20:25Z</time>
      </trkpt>
      <trkpt lat="44.35583" lon="2.55603">
        <ele>617.4</ele>
        <time>2011-06-15T18:20:26Z</time>
      </trkpt>
      <trkpt lat="44.35585" lon="2.55605">
        <ele>617.8</ele>
        <time>2011-06-15T18:20:27Z</time>
      </trkpt>
      <trkpt lat="44.35587" lon="2.55607">
        <ele>618.2</ele>
        <time>2011-06-15T18:20:28Z</time>
      </trkpt>
      <trkpt lat="44.35591" lon="2.55611">
        <ele>618.7</ele>
        <time>2011-06-15T18:20:30Z</time>
      </trkpt>
      <trkpt lat="44.35593" lon="2.55613">
        <ele>618.8</ele>
        <time>2011-06-15T18:20:31Z</time>
      </trkpt>
      <trkpt lat="44.35596" lon="2.55615">
        <ele>618.9</ele>
        <time>2011-06-15T18:20:32Z</time>
      </trkpt>
      <trkpt lat="44.35598" lon="2.55616">
        <ele>618.9</ele>
        <time>2011-06-15T18:20:33Z</time>
      </trkpt>
      <trkpt lat="44.35602" lon="2.55619">
        <ele>618.6</ele>
        <time>2011-06-15T18:20:35Z</time>
      </trkpt>
      <trkpt lat="44.35604" lon="2.55621">
        <ele>618.5</ele>
        <time>2011-06-15T18:20:36Z</time>
      </trkpt>
      <trkpt lat="44.35606" lon="2.55623">
        <ele>619.2</ele>
        <time>2011-06-15T18:20:37Z</time>
      </trkpt>
      <trkpt lat="44.35609" lon="2.55626">
        <ele>620.1</ele>
        <time>2011-06-15T18:20:39Z</time>
      </trkpt>
      <trkpt lat="44.35613" lon="2.5563">
        <ele>620.3</ele>
        <time>2011-06-15T18:20:41Z</time>
      </trkpt>
      <trkpt lat="44.35616" lon="2.55633">
        <ele>620.3</ele>
        <time>2011-06-15T18:20:43Z</time>
      </trkpt>
      <trkpt lat="44.3562" lon="2.55636">
        <ele>620.8</ele>
        <time>2011-06-15T18:20:45Z</time>
      </trkpt>
      <trkpt lat="44.35622" lon="2.55638">
        <ele>620.9</ele>
        <time>2011-06-15T18:20:46Z</time>
      </trkpt>
      <trkpt lat="44.35624" lon="2.5564">
        <ele>620.9</ele>
        <time>2011-06-15T18:20:47Z</time>
      </trkpt>
      <trkpt lat="44.35626" lon="2.55641">
        <ele>620.9</ele>
        <time>2011-06-15T18:20:48Z</time>
      </trkpt>
      <trkpt lat="44.35629" lon="2.55643">
        <ele>620.9</ele>
        <time>2011-06-15T18:20:49Z</time>
      </trkpt>
      <trkpt lat="44.35631" lon="2.55645">
        <ele>621.4</ele>
        <time>2011-06-15T18:20:50Z</time>
      </trkpt>
      <trkpt lat="44.35633" lon="2.55646">
        <ele>621.8</ele>
        <time>2011-06-15T18:20:51Z</time>
      </trkpt>
      <trkpt lat="44.35635" lon="2.55648">
        <ele>622.1</ele>
        <time>2011-06-15T18:20:52Z</time>
      </trkpt>
      <trkpt lat="44.35638" lon="2.55649">
        <ele>621.9</ele>
        <time>2011-06-15T18:20:53Z</time>
      </trkpt>
      <trkpt lat="44.3564" lon="2.5565">
        <ele>621.7</ele>
        <time>2011-06-15T18:20:54Z</time>
      </trkpt>
      <trkpt lat="44.35642" lon="2.55651">
        <ele>621.6</ele>
        <time>2011-06-15T18:20:55Z</time>
      </trkpt>
      <trkpt lat="44.35645" lon="2.55652">
        <ele>621.5</ele>
        <time>2011-06-15T18:20:56Z</time>
      </trkpt>
      <trkpt lat="44.35648" lon="2.55654">
        <ele>621.5</ele>
        <time>2011-06-15T18:20:57Z</time>
      </trkpt>
      <trkpt lat="44.35652" lon="2.55656">
        <ele>621.6</ele>
        <time>2011-06-15T18:20:58Z</time>
      </trkpt>
      <trkpt lat="44.35655" lon="2.55658">
        <ele>621.6</ele>
        <time>2011-06-15T18:20:59Z</time>
      </trkpt>
      <trkpt lat="44.35658" lon="2.55659">
        <ele>621.7</ele>
        <time>2011-06-15T18:21:00Z</time>
      </trkpt>
      <trkpt lat="44.35662" lon="2.5566">
        <ele>621.8</ele>
        <time>2011-06-15T18:21:01Z</time>
      </trkpt>
      <trkpt lat="44.35665" lon="2.55661">
        <ele>621.9</ele>
        <time>2011-06-15T18:21:02Z</time>
      </trkpt>
      <trkpt lat="44.35677" lon="2.55675">
        <ele>620</ele>
        <time>2011-06-15T18:21:05Z</time>
      </trkpt>
      <trkpt lat="44.35683" lon="2.55683">
        <ele>620.4</ele>
        <time>2011-06-15T18:21:07Z</time>
      </trkpt>
      <trkpt lat="44.35686" lon="2.55686">
        <ele>620</ele>
        <time>2011-06-15T18:21:08Z</time>
      </trkpt>
      <trkpt lat="44.3569" lon="2.55689">
        <ele>619.9</ele>
        <time>2011-06-15T18:21:13Z</time>
      </trkpt>
      <trkpt lat="44.35689" lon="2.55695">
        <ele>619.4</ele>
        <time>2011-06-15T18:22:23Z</time>
      </trkpt>
      <trkpt lat="44.35689" lon="2.55695">
        <ele>619.5</ele>
        <time>2011-06-15T18:22:24Z</time>
      </trkpt>
    </trkseg>
  </trk>
</gpx>